<?xml version="1.0" encoding="UTF-8" standalone="no" ?>
<gpx xmlns="http://www.topografix.com/GPX/1/1" xmlns:xsi="http://www.w3.org/2001/XMLSchema-instance" xsi:schemaLocation="http://www.topografix.com/GPX/1/1 http://www.topografix.com/GPX/1/1/gpx.xsd" version="1.1" creator="VisuGPX - https://www.visugpx.com">
  <metadata>
    <name>tour lac fourchu</name>
  </metadata>
  <trk>
    <name><![CDATA[tour lac fourchu_1]]></name>
    <trkseg>
      <trkpt lat="45.05271" lon="5.89814">
        <ele>1697</ele>
        <time>2021-10-24T08:18:07Z</time>
      </trkpt>
      <trkpt lat="45.05273" lon="5.89816">
        <ele>1700</ele>
        <time>2021-10-24T08:18:13Z</time>
      </trkpt>
      <trkpt lat="45.05273" lon="5.89816">
        <ele>1700</ele>
        <time>2021-10-24T08:18:18Z</time>
      </trkpt>
      <trkpt lat="45.0527" lon="5.89814">
        <ele>1713</ele>
        <time>2021-10-24T08:18:44Z</time>
      </trkpt>
      <trkpt lat="45.05276" lon="5.89811">
        <ele>1693</ele>
        <time>2021-10-24T08:18:49Z</time>
      </trkpt>
      <trkpt lat="45.05279" lon="5.89809">
        <ele>1695</ele>
        <time>2021-10-24T08:18:55Z</time>
      </trkpt>
      <trkpt lat="45.05277" lon="5.89812">
        <ele>1696</ele>
        <time>2021-10-24T08:19:00Z</time>
      </trkpt>
      <trkpt lat="45.0528" lon="5.89817">
        <ele>1695</ele>
        <time>2021-10-24T08:19:06Z</time>
      </trkpt>
      <trkpt lat="45.05285" lon="5.8982">
        <ele>1695</ele>
        <time>2021-10-24T08:19:11Z</time>
      </trkpt>
      <trkpt lat="45.05287" lon="5.89822">
        <ele>1695</ele>
        <time>2021-10-24T08:19:16Z</time>
      </trkpt>
      <trkpt lat="45.0529" lon="5.89825">
        <ele>1695</ele>
        <time>2021-10-24T08:19:22Z</time>
      </trkpt>
      <trkpt lat="45.05293" lon="5.8983">
        <ele>1697</ele>
        <time>2021-10-24T08:19:28Z</time>
      </trkpt>
      <trkpt lat="45.05296" lon="5.89834">
        <ele>1697</ele>
        <time>2021-10-24T08:19:33Z</time>
      </trkpt>
      <trkpt lat="45.05298" lon="5.89837">
        <ele>1699</ele>
        <time>2021-10-24T08:19:38Z</time>
      </trkpt>
      <trkpt lat="45.053" lon="5.89846">
        <ele>1700</ele>
        <time>2021-10-24T08:19:44Z</time>
      </trkpt>
      <trkpt lat="45.05302" lon="5.89852">
        <ele>1700</ele>
        <time>2021-10-24T08:19:50Z</time>
      </trkpt>
      <trkpt lat="45.05302" lon="5.89859">
        <ele>1699</ele>
        <time>2021-10-24T08:19:56Z</time>
      </trkpt>
      <trkpt lat="45.05302" lon="5.89868">
        <ele>1697</ele>
        <time>2021-10-24T08:20:01Z</time>
      </trkpt>
      <trkpt lat="45.05303" lon="5.89876">
        <ele>1700</ele>
        <time>2021-10-24T08:20:06Z</time>
      </trkpt>
      <trkpt lat="45.05304" lon="5.89883">
        <ele>1698</ele>
        <time>2021-10-24T08:20:12Z</time>
      </trkpt>
      <trkpt lat="45.05301" lon="5.89891">
        <ele>1699</ele>
        <time>2021-10-24T08:20:18Z</time>
      </trkpt>
      <trkpt lat="45.053" lon="5.89895">
        <ele>1697</ele>
        <time>2021-10-24T08:20:24Z</time>
      </trkpt>
      <trkpt lat="45.05303" lon="5.89896">
        <ele>1699</ele>
        <time>2021-10-24T08:20:29Z</time>
      </trkpt>
      <trkpt lat="45.05305" lon="5.89898">
        <ele>1698</ele>
        <time>2021-10-24T08:20:35Z</time>
      </trkpt>
      <trkpt lat="45.05308" lon="5.89909">
        <ele>1698</ele>
        <time>2021-10-24T08:20:41Z</time>
      </trkpt>
      <trkpt lat="45.0531" lon="5.89915">
        <ele>1699</ele>
        <time>2021-10-24T08:20:46Z</time>
      </trkpt>
      <trkpt lat="45.05311" lon="5.89915">
        <ele>1700</ele>
        <time>2021-10-24T08:20:52Z</time>
      </trkpt>
      <trkpt lat="45.0531" lon="5.89917">
        <ele>1702</ele>
        <time>2021-10-24T08:20:58Z</time>
      </trkpt>
      <trkpt lat="45.0531" lon="5.89916">
        <ele>1703</ele>
        <time>2021-10-24T08:21:04Z</time>
      </trkpt>
      <trkpt lat="45.05309" lon="5.89915">
        <ele>1706</ele>
        <time>2021-10-24T08:21:10Z</time>
      </trkpt>
      <trkpt lat="45.05311" lon="5.89915">
        <ele>1707</ele>
        <time>2021-10-24T08:21:16Z</time>
      </trkpt>
      <trkpt lat="45.05308" lon="5.89914">
        <ele>1708</ele>
        <time>2021-10-24T08:21:22Z</time>
      </trkpt>
      <trkpt lat="45.05306" lon="5.89921">
        <ele>1708</ele>
        <time>2021-10-24T08:21:28Z</time>
      </trkpt>
      <trkpt lat="45.05304" lon="5.89927">
        <ele>1707</ele>
        <time>2021-10-24T08:21:33Z</time>
      </trkpt>
      <trkpt lat="45.05302" lon="5.89932">
        <ele>1706</ele>
        <time>2021-10-24T08:21:39Z</time>
      </trkpt>
      <trkpt lat="45.05299" lon="5.89939">
        <ele>1706</ele>
        <time>2021-10-24T08:21:44Z</time>
      </trkpt>
      <trkpt lat="45.05297" lon="5.89948">
        <ele>1707</ele>
        <time>2021-10-24T08:21:50Z</time>
      </trkpt>
      <trkpt lat="45.05295" lon="5.89954">
        <ele>1707</ele>
        <time>2021-10-24T08:21:56Z</time>
      </trkpt>
      <trkpt lat="45.05292" lon="5.89961">
        <ele>1708</ele>
        <time>2021-10-24T08:22:01Z</time>
      </trkpt>
      <trkpt lat="45.05289" lon="5.89966">
        <ele>1710</ele>
        <time>2021-10-24T08:22:07Z</time>
      </trkpt>
      <trkpt lat="45.05286" lon="5.89971">
        <ele>1709</ele>
        <time>2021-10-24T08:22:12Z</time>
      </trkpt>
      <trkpt lat="45.05282" lon="5.89976">
        <ele>1710</ele>
        <time>2021-10-24T08:22:18Z</time>
      </trkpt>
      <trkpt lat="45.05277" lon="5.89983">
        <ele>1709</ele>
        <time>2021-10-24T08:22:24Z</time>
      </trkpt>
      <trkpt lat="45.05273" lon="5.89988">
        <ele>1710</ele>
        <time>2021-10-24T08:22:30Z</time>
      </trkpt>
      <trkpt lat="45.05269" lon="5.89994">
        <ele>1710</ele>
        <time>2021-10-24T08:22:36Z</time>
      </trkpt>
      <trkpt lat="45.05265" lon="5.89999">
        <ele>1711</ele>
        <time>2021-10-24T08:22:41Z</time>
      </trkpt>
      <trkpt lat="45.0526" lon="5.90006">
        <ele>1710</ele>
        <time>2021-10-24T08:22:47Z</time>
      </trkpt>
      <trkpt lat="45.05256" lon="5.90009">
        <ele>1709</ele>
        <time>2021-10-24T08:22:52Z</time>
      </trkpt>
      <trkpt lat="45.05255" lon="5.9001">
        <ele>1708</ele>
        <time>2021-10-24T08:22:58Z</time>
      </trkpt>
      <trkpt lat="45.05255" lon="5.9001">
        <ele>1708</ele>
        <time>2021-10-24T08:23:03Z</time>
      </trkpt>
      <trkpt lat="45.05255" lon="5.9001">
        <ele>1708</ele>
        <time>2021-10-24T08:23:09Z</time>
      </trkpt>
      <trkpt lat="45.05255" lon="5.9001">
        <ele>1708</ele>
        <time>2021-10-24T08:23:14Z</time>
      </trkpt>
      <trkpt lat="45.05252" lon="5.90015">
        <ele>1707</ele>
        <time>2021-10-24T08:23:20Z</time>
      </trkpt>
      <trkpt lat="45.05248" lon="5.90022">
        <ele>1706</ele>
        <time>2021-10-24T08:23:26Z</time>
      </trkpt>
      <trkpt lat="45.05247" lon="5.90029">
        <ele>1704</ele>
        <time>2021-10-24T08:23:31Z</time>
      </trkpt>
      <trkpt lat="45.05244" lon="5.90037">
        <ele>1703</ele>
        <time>2021-10-24T08:23:37Z</time>
      </trkpt>
      <trkpt lat="45.05241" lon="5.90044">
        <ele>1704</ele>
        <time>2021-10-24T08:23:42Z</time>
      </trkpt>
      <trkpt lat="45.05237" lon="5.90048">
        <ele>1704</ele>
        <time>2021-10-24T08:23:47Z</time>
      </trkpt>
      <trkpt lat="45.05231" lon="5.90053">
        <ele>1703</ele>
        <time>2021-10-24T08:23:53Z</time>
      </trkpt>
      <trkpt lat="45.05225" lon="5.90052">
        <ele>1704</ele>
        <time>2021-10-24T08:23:59Z</time>
      </trkpt>
      <trkpt lat="45.05221" lon="5.90054">
        <ele>1704</ele>
        <time>2021-10-24T08:24:04Z</time>
      </trkpt>
      <trkpt lat="45.05217" lon="5.90057">
        <ele>1704</ele>
        <time>2021-10-24T08:24:10Z</time>
      </trkpt>
      <trkpt lat="45.05213" lon="5.9006">
        <ele>1705</ele>
        <time>2021-10-24T08:24:15Z</time>
      </trkpt>
      <trkpt lat="45.0521" lon="5.90063">
        <ele>1706</ele>
        <time>2021-10-24T08:24:20Z</time>
      </trkpt>
      <trkpt lat="45.05205" lon="5.90066">
        <ele>1707</ele>
        <time>2021-10-24T08:24:26Z</time>
      </trkpt>
      <trkpt lat="45.05201" lon="5.90073">
        <ele>1707</ele>
        <time>2021-10-24T08:24:32Z</time>
      </trkpt>
      <trkpt lat="45.05197" lon="5.90077">
        <ele>1705</ele>
        <time>2021-10-24T08:24:38Z</time>
      </trkpt>
      <trkpt lat="45.05193" lon="5.90081">
        <ele>1706</ele>
        <time>2021-10-24T08:24:44Z</time>
      </trkpt>
      <trkpt lat="45.0519" lon="5.90083">
        <ele>1706</ele>
        <time>2021-10-24T08:24:50Z</time>
      </trkpt>
      <trkpt lat="45.05187" lon="5.90087">
        <ele>1705</ele>
        <time>2021-10-24T08:24:55Z</time>
      </trkpt>
      <trkpt lat="45.05184" lon="5.9009">
        <ele>1704</ele>
        <time>2021-10-24T08:25:00Z</time>
      </trkpt>
      <trkpt lat="45.05182" lon="5.90093">
        <ele>1703</ele>
        <time>2021-10-24T08:25:06Z</time>
      </trkpt>
      <trkpt lat="45.05182" lon="5.90097">
        <ele>1703</ele>
        <time>2021-10-24T08:25:11Z</time>
      </trkpt>
      <trkpt lat="45.05183" lon="5.90103">
        <ele>1703</ele>
        <time>2021-10-24T08:25:16Z</time>
      </trkpt>
      <trkpt lat="45.05183" lon="5.90111">
        <ele>1702</ele>
        <time>2021-10-24T08:25:22Z</time>
      </trkpt>
      <trkpt lat="45.05185" lon="5.90115">
        <ele>1704</ele>
        <time>2021-10-24T08:25:27Z</time>
      </trkpt>
      <trkpt lat="45.05185" lon="5.9012">
        <ele>1704</ele>
        <time>2021-10-24T08:25:32Z</time>
      </trkpt>
      <trkpt lat="45.05185" lon="5.90125">
        <ele>1705</ele>
        <time>2021-10-24T08:25:37Z</time>
      </trkpt>
      <trkpt lat="45.05186" lon="5.90131">
        <ele>1706</ele>
        <time>2021-10-24T08:25:43Z</time>
      </trkpt>
      <trkpt lat="45.05188" lon="5.90137">
        <ele>1705</ele>
        <time>2021-10-24T08:25:49Z</time>
      </trkpt>
      <trkpt lat="45.05191" lon="5.90143">
        <ele>1703</ele>
        <time>2021-10-24T08:25:56Z</time>
      </trkpt>
      <trkpt lat="45.05191" lon="5.90148">
        <ele>1705</ele>
        <time>2021-10-24T08:26:01Z</time>
      </trkpt>
      <trkpt lat="45.05189" lon="5.9015">
        <ele>1705</ele>
        <time>2021-10-24T08:26:06Z</time>
      </trkpt>
      <trkpt lat="45.05185" lon="5.90151">
        <ele>1707</ele>
        <time>2021-10-24T08:26:12Z</time>
      </trkpt>
      <trkpt lat="45.05183" lon="5.90153">
        <ele>1707</ele>
        <time>2021-10-24T08:26:18Z</time>
      </trkpt>
      <trkpt lat="45.05181" lon="5.9016">
        <ele>1706</ele>
        <time>2021-10-24T08:26:23Z</time>
      </trkpt>
      <trkpt lat="45.0518" lon="5.90166">
        <ele>1707</ele>
        <time>2021-10-24T08:26:29Z</time>
      </trkpt>
      <trkpt lat="45.05178" lon="5.90173">
        <ele>1707</ele>
        <time>2021-10-24T08:26:34Z</time>
      </trkpt>
      <trkpt lat="45.05177" lon="5.90176">
        <ele>1709</ele>
        <time>2021-10-24T08:26:40Z</time>
      </trkpt>
      <trkpt lat="45.05172" lon="5.9018">
        <ele>1712</ele>
        <time>2021-10-24T08:26:46Z</time>
      </trkpt>
      <trkpt lat="45.05168" lon="5.90181">
        <ele>1714</ele>
        <time>2021-10-24T08:26:51Z</time>
      </trkpt>
      <trkpt lat="45.05162" lon="5.90184">
        <ele>1715</ele>
        <time>2021-10-24T08:26:57Z</time>
      </trkpt>
      <trkpt lat="45.0516" lon="5.9019">
        <ele>1716</ele>
        <time>2021-10-24T08:27:03Z</time>
      </trkpt>
      <trkpt lat="45.05159" lon="5.90195">
        <ele>1715</ele>
        <time>2021-10-24T08:27:08Z</time>
      </trkpt>
      <trkpt lat="45.05159" lon="5.90194">
        <ele>1717</ele>
        <time>2021-10-24T08:27:14Z</time>
      </trkpt>
      <trkpt lat="45.05159" lon="5.90194">
        <ele>1717</ele>
        <time>2021-10-24T08:27:19Z</time>
      </trkpt>
      <trkpt lat="45.05158" lon="5.90195">
        <ele>1719</ele>
        <time>2021-10-24T08:27:25Z</time>
      </trkpt>
      <trkpt lat="45.05159" lon="5.902">
        <ele>1724</ele>
        <time>2021-10-24T08:27:31Z</time>
      </trkpt>
      <trkpt lat="45.05159" lon="5.90201">
        <ele>1725</ele>
        <time>2021-10-24T08:27:36Z</time>
      </trkpt>
      <trkpt lat="45.05159" lon="5.90201">
        <ele>1725</ele>
        <time>2021-10-24T08:27:41Z</time>
      </trkpt>
      <trkpt lat="45.05158" lon="5.90199">
        <ele>1724</ele>
        <time>2021-10-24T08:27:47Z</time>
      </trkpt>
      <trkpt lat="45.05157" lon="5.90198">
        <ele>1726</ele>
        <time>2021-10-24T08:27:53Z</time>
      </trkpt>
      <trkpt lat="45.05155" lon="5.90199">
        <ele>1725</ele>
        <time>2021-10-24T08:27:59Z</time>
      </trkpt>
      <trkpt lat="45.05155" lon="5.90205">
        <ele>1721</ele>
        <time>2021-10-24T08:28:05Z</time>
      </trkpt>
      <trkpt lat="45.05156" lon="5.9021">
        <ele>1719</ele>
        <time>2021-10-24T08:28:11Z</time>
      </trkpt>
      <trkpt lat="45.05155" lon="5.90212">
        <ele>1719</ele>
        <time>2021-10-24T08:28:16Z</time>
      </trkpt>
      <trkpt lat="45.05154" lon="5.90223">
        <ele>1717</ele>
        <time>2021-10-24T08:28:22Z</time>
      </trkpt>
      <trkpt lat="45.05153" lon="5.90229">
        <ele>1715</ele>
        <time>2021-10-24T08:28:28Z</time>
      </trkpt>
      <trkpt lat="45.05154" lon="5.90235">
        <ele>1715</ele>
        <time>2021-10-24T08:28:33Z</time>
      </trkpt>
      <trkpt lat="45.05155" lon="5.90242">
        <ele>1715</ele>
        <time>2021-10-24T08:28:39Z</time>
      </trkpt>
      <trkpt lat="45.05155" lon="5.90246">
        <ele>1715</ele>
        <time>2021-10-24T08:28:45Z</time>
      </trkpt>
      <trkpt lat="45.05155" lon="5.90255">
        <ele>1714</ele>
        <time>2021-10-24T08:28:51Z</time>
      </trkpt>
      <trkpt lat="45.05157" lon="5.90261">
        <ele>1714</ele>
        <time>2021-10-24T08:28:57Z</time>
      </trkpt>
      <trkpt lat="45.05158" lon="5.90266">
        <ele>1714</ele>
        <time>2021-10-24T08:29:02Z</time>
      </trkpt>
      <trkpt lat="45.0516" lon="5.90272">
        <ele>1714</ele>
        <time>2021-10-24T08:29:07Z</time>
      </trkpt>
      <trkpt lat="45.05163" lon="5.9028">
        <ele>1716</ele>
        <time>2021-10-24T08:29:13Z</time>
      </trkpt>
      <trkpt lat="45.05164" lon="5.90285">
        <ele>1715</ele>
        <time>2021-10-24T08:29:18Z</time>
      </trkpt>
      <trkpt lat="45.05166" lon="5.90293">
        <ele>1716</ele>
        <time>2021-10-24T08:29:24Z</time>
      </trkpt>
      <trkpt lat="45.05168" lon="5.903">
        <ele>1716</ele>
        <time>2021-10-24T08:29:29Z</time>
      </trkpt>
      <trkpt lat="45.0517" lon="5.90306">
        <ele>1716</ele>
        <time>2021-10-24T08:29:34Z</time>
      </trkpt>
      <trkpt lat="45.05172" lon="5.90313">
        <ele>1716</ele>
        <time>2021-10-24T08:29:40Z</time>
      </trkpt>
      <trkpt lat="45.05173" lon="5.9032">
        <ele>1716</ele>
        <time>2021-10-24T08:29:46Z</time>
      </trkpt>
      <trkpt lat="45.05175" lon="5.90326">
        <ele>1715</ele>
        <time>2021-10-24T08:29:51Z</time>
      </trkpt>
      <trkpt lat="45.05178" lon="5.90333">
        <ele>1714</ele>
        <time>2021-10-24T08:29:56Z</time>
      </trkpt>
      <trkpt lat="45.05178" lon="5.9034">
        <ele>1714</ele>
        <time>2021-10-24T08:30:01Z</time>
      </trkpt>
      <trkpt lat="45.05177" lon="5.90348">
        <ele>1715</ele>
        <time>2021-10-24T08:30:07Z</time>
      </trkpt>
      <trkpt lat="45.05175" lon="5.90355">
        <ele>1715</ele>
        <time>2021-10-24T08:30:13Z</time>
      </trkpt>
      <trkpt lat="45.05174" lon="5.9036">
        <ele>1716</ele>
        <time>2021-10-24T08:30:18Z</time>
      </trkpt>
      <trkpt lat="45.05174" lon="5.90366">
        <ele>1717</ele>
        <time>2021-10-24T08:30:23Z</time>
      </trkpt>
      <trkpt lat="45.05174" lon="5.90374">
        <ele>1718</ele>
        <time>2021-10-24T08:30:28Z</time>
      </trkpt>
      <trkpt lat="45.05171" lon="5.90382">
        <ele>1718</ele>
        <time>2021-10-24T08:30:34Z</time>
      </trkpt>
      <trkpt lat="45.05169" lon="5.90387">
        <ele>1719</ele>
        <time>2021-10-24T08:30:39Z</time>
      </trkpt>
      <trkpt lat="45.05167" lon="5.90395">
        <ele>1722</ele>
        <time>2021-10-24T08:30:45Z</time>
      </trkpt>
      <trkpt lat="45.05165" lon="5.90404">
        <ele>1724</ele>
        <time>2021-10-24T08:30:51Z</time>
      </trkpt>
      <trkpt lat="45.05163" lon="5.90411">
        <ele>1724</ele>
        <time>2021-10-24T08:30:57Z</time>
      </trkpt>
      <trkpt lat="45.05161" lon="5.9042">
        <ele>1723</ele>
        <time>2021-10-24T08:31:03Z</time>
      </trkpt>
      <trkpt lat="45.05158" lon="5.90427">
        <ele>1724</ele>
        <time>2021-10-24T08:31:08Z</time>
      </trkpt>
      <trkpt lat="45.05156" lon="5.90436">
        <ele>1722</ele>
        <time>2021-10-24T08:31:14Z</time>
      </trkpt>
      <trkpt lat="45.05154" lon="5.90444">
        <ele>1722</ele>
        <time>2021-10-24T08:31:19Z</time>
      </trkpt>
      <trkpt lat="45.05153" lon="5.90451">
        <ele>1724</ele>
        <time>2021-10-24T08:31:25Z</time>
      </trkpt>
      <trkpt lat="45.0515" lon="5.90458">
        <ele>1724</ele>
        <time>2021-10-24T08:31:30Z</time>
      </trkpt>
      <trkpt lat="45.05149" lon="5.90463">
        <ele>1724</ele>
        <time>2021-10-24T08:31:36Z</time>
      </trkpt>
      <trkpt lat="45.05148" lon="5.90469">
        <ele>1726</ele>
        <time>2021-10-24T08:31:41Z</time>
      </trkpt>
      <trkpt lat="45.05146" lon="5.90477">
        <ele>1727</ele>
        <time>2021-10-24T08:31:46Z</time>
      </trkpt>
      <trkpt lat="45.05145" lon="5.90483">
        <ele>1728</ele>
        <time>2021-10-24T08:31:51Z</time>
      </trkpt>
      <trkpt lat="45.05144" lon="5.90491">
        <ele>1728</ele>
        <time>2021-10-24T08:31:57Z</time>
      </trkpt>
      <trkpt lat="45.05142" lon="5.90499">
        <ele>1728</ele>
        <time>2021-10-24T08:32:02Z</time>
      </trkpt>
      <trkpt lat="45.05141" lon="5.90507">
        <ele>1728</ele>
        <time>2021-10-24T08:32:07Z</time>
      </trkpt>
      <trkpt lat="45.0514" lon="5.90515">
        <ele>1728</ele>
        <time>2021-10-24T08:32:13Z</time>
      </trkpt>
      <trkpt lat="45.0514" lon="5.90522">
        <ele>1729</ele>
        <time>2021-10-24T08:32:19Z</time>
      </trkpt>
      <trkpt lat="45.05139" lon="5.90528">
        <ele>1730</ele>
        <time>2021-10-24T08:32:24Z</time>
      </trkpt>
      <trkpt lat="45.05139" lon="5.90535">
        <ele>1730</ele>
        <time>2021-10-24T08:32:30Z</time>
      </trkpt>
      <trkpt lat="45.05137" lon="5.90543">
        <ele>1732</ele>
        <time>2021-10-24T08:32:36Z</time>
      </trkpt>
      <trkpt lat="45.05135" lon="5.90549">
        <ele>1734</ele>
        <time>2021-10-24T08:32:42Z</time>
      </trkpt>
      <trkpt lat="45.05133" lon="5.90557">
        <ele>1734</ele>
        <time>2021-10-24T08:32:48Z</time>
      </trkpt>
      <trkpt lat="45.05131" lon="5.9056">
        <ele>1734</ele>
        <time>2021-10-24T08:32:54Z</time>
      </trkpt>
      <trkpt lat="45.05129" lon="5.90572">
        <ele>1734</ele>
        <time>2021-10-24T08:33:00Z</time>
      </trkpt>
      <trkpt lat="45.05127" lon="5.9058">
        <ele>1735</ele>
        <time>2021-10-24T08:33:06Z</time>
      </trkpt>
      <trkpt lat="45.05127" lon="5.90587">
        <ele>1735</ele>
        <time>2021-10-24T08:33:12Z</time>
      </trkpt>
      <trkpt lat="45.05126" lon="5.90594">
        <ele>1737</ele>
        <time>2021-10-24T08:33:18Z</time>
      </trkpt>
      <trkpt lat="45.05126" lon="5.90602">
        <ele>1737</ele>
        <time>2021-10-24T08:33:24Z</time>
      </trkpt>
      <trkpt lat="45.05124" lon="5.9061">
        <ele>1738</ele>
        <time>2021-10-24T08:33:30Z</time>
      </trkpt>
      <trkpt lat="45.05123" lon="5.90616">
        <ele>1737</ele>
        <time>2021-10-24T08:33:36Z</time>
      </trkpt>
      <trkpt lat="45.05123" lon="5.90622">
        <ele>1737</ele>
        <time>2021-10-24T08:33:41Z</time>
      </trkpt>
      <trkpt lat="45.05123" lon="5.90629">
        <ele>1736</ele>
        <time>2021-10-24T08:33:46Z</time>
      </trkpt>
      <trkpt lat="45.05124" lon="5.90637">
        <ele>1737</ele>
        <time>2021-10-24T08:33:51Z</time>
      </trkpt>
      <trkpt lat="45.05126" lon="5.90647">
        <ele>1736</ele>
        <time>2021-10-24T08:33:57Z</time>
      </trkpt>
      <trkpt lat="45.05125" lon="5.90652">
        <ele>1735</ele>
        <time>2021-10-24T08:34:02Z</time>
      </trkpt>
      <trkpt lat="45.05127" lon="5.90658">
        <ele>1735</ele>
        <time>2021-10-24T08:34:07Z</time>
      </trkpt>
      <trkpt lat="45.05129" lon="5.90667">
        <ele>1736</ele>
        <time>2021-10-24T08:34:12Z</time>
      </trkpt>
      <trkpt lat="45.05132" lon="5.90677">
        <ele>1738</ele>
        <time>2021-10-24T08:34:18Z</time>
      </trkpt>
      <trkpt lat="45.05135" lon="5.90685">
        <ele>1740</ele>
        <time>2021-10-24T08:34:24Z</time>
      </trkpt>
      <trkpt lat="45.05139" lon="5.90692">
        <ele>1741</ele>
        <time>2021-10-24T08:34:30Z</time>
      </trkpt>
      <trkpt lat="45.05142" lon="5.90698">
        <ele>1742</ele>
        <time>2021-10-24T08:34:36Z</time>
      </trkpt>
      <trkpt lat="45.05144" lon="5.90705">
        <ele>1742</ele>
        <time>2021-10-24T08:34:41Z</time>
      </trkpt>
      <trkpt lat="45.05148" lon="5.90713">
        <ele>1742</ele>
        <time>2021-10-24T08:34:47Z</time>
      </trkpt>
      <trkpt lat="45.05152" lon="5.90718">
        <ele>1742</ele>
        <time>2021-10-24T08:34:52Z</time>
      </trkpt>
      <trkpt lat="45.05154" lon="5.90724">
        <ele>1745</ele>
        <time>2021-10-24T08:34:57Z</time>
      </trkpt>
      <trkpt lat="45.05157" lon="5.90732">
        <ele>1744</ele>
        <time>2021-10-24T08:35:03Z</time>
      </trkpt>
      <trkpt lat="45.05158" lon="5.90738">
        <ele>1742</ele>
        <time>2021-10-24T08:35:09Z</time>
      </trkpt>
      <trkpt lat="45.05163" lon="5.90747">
        <ele>1743</ele>
        <time>2021-10-24T08:35:15Z</time>
      </trkpt>
      <trkpt lat="45.05165" lon="5.90753">
        <ele>1741</ele>
        <time>2021-10-24T08:35:20Z</time>
      </trkpt>
      <trkpt lat="45.05169" lon="5.9076">
        <ele>1742</ele>
        <time>2021-10-24T08:35:26Z</time>
      </trkpt>
      <trkpt lat="45.05173" lon="5.90765">
        <ele>1743</ele>
        <time>2021-10-24T08:35:31Z</time>
      </trkpt>
      <trkpt lat="45.05178" lon="5.90772">
        <ele>1742</ele>
        <time>2021-10-24T08:35:37Z</time>
      </trkpt>
      <trkpt lat="45.05184" lon="5.90779">
        <ele>1742</ele>
        <time>2021-10-24T08:35:43Z</time>
      </trkpt>
      <trkpt lat="45.05187" lon="5.90784">
        <ele>1742</ele>
        <time>2021-10-24T08:35:48Z</time>
      </trkpt>
      <trkpt lat="45.05193" lon="5.90787">
        <ele>1741</ele>
        <time>2021-10-24T08:35:54Z</time>
      </trkpt>
      <trkpt lat="45.05197" lon="5.90793">
        <ele>1741</ele>
        <time>2021-10-24T08:35:59Z</time>
      </trkpt>
      <trkpt lat="45.052" lon="5.90798">
        <ele>1740</ele>
        <time>2021-10-24T08:36:04Z</time>
      </trkpt>
      <trkpt lat="45.05206" lon="5.90802">
        <ele>1739</ele>
        <time>2021-10-24T08:36:10Z</time>
      </trkpt>
      <trkpt lat="45.0521" lon="5.90807">
        <ele>1740</ele>
        <time>2021-10-24T08:36:16Z</time>
      </trkpt>
      <trkpt lat="45.05213" lon="5.90809">
        <ele>1739</ele>
        <time>2021-10-24T08:36:21Z</time>
      </trkpt>
      <trkpt lat="45.05217" lon="5.90814">
        <ele>1738</ele>
        <time>2021-10-24T08:36:26Z</time>
      </trkpt>
      <trkpt lat="45.0522" lon="5.90817">
        <ele>1738</ele>
        <time>2021-10-24T08:36:31Z</time>
      </trkpt>
      <trkpt lat="45.05223" lon="5.90819">
        <ele>1739</ele>
        <time>2021-10-24T08:36:37Z</time>
      </trkpt>
      <trkpt lat="45.05226" lon="5.90823">
        <ele>1740</ele>
        <time>2021-10-24T08:36:43Z</time>
      </trkpt>
      <trkpt lat="45.05227" lon="5.90826">
        <ele>1741</ele>
        <time>2021-10-24T08:36:48Z</time>
      </trkpt>
      <trkpt lat="45.05231" lon="5.90828">
        <ele>1742</ele>
        <time>2021-10-24T08:36:53Z</time>
      </trkpt>
      <trkpt lat="45.05236" lon="5.90831">
        <ele>1744</ele>
        <time>2021-10-24T08:36:59Z</time>
      </trkpt>
      <trkpt lat="45.0524" lon="5.90834">
        <ele>1744</ele>
        <time>2021-10-24T08:37:04Z</time>
      </trkpt>
      <trkpt lat="45.05245" lon="5.90842">
        <ele>1744</ele>
        <time>2021-10-24T08:37:10Z</time>
      </trkpt>
      <trkpt lat="45.05249" lon="5.90846">
        <ele>1743</ele>
        <time>2021-10-24T08:37:15Z</time>
      </trkpt>
      <trkpt lat="45.05253" lon="5.9085">
        <ele>1743</ele>
        <time>2021-10-24T08:37:21Z</time>
      </trkpt>
      <trkpt lat="45.05257" lon="5.90854">
        <ele>1742</ele>
        <time>2021-10-24T08:37:27Z</time>
      </trkpt>
      <trkpt lat="45.05259" lon="5.90857">
        <ele>1741</ele>
        <time>2021-10-24T08:37:32Z</time>
      </trkpt>
      <trkpt lat="45.05265" lon="5.90865">
        <ele>1741</ele>
        <time>2021-10-24T08:37:38Z</time>
      </trkpt>
      <trkpt lat="45.05268" lon="5.9087">
        <ele>1742</ele>
        <time>2021-10-24T08:37:43Z</time>
      </trkpt>
      <trkpt lat="45.05273" lon="5.90873">
        <ele>1741</ele>
        <time>2021-10-24T08:37:48Z</time>
      </trkpt>
      <trkpt lat="45.05277" lon="5.90878">
        <ele>1741</ele>
        <time>2021-10-24T08:37:54Z</time>
      </trkpt>
      <trkpt lat="45.05283" lon="5.90882">
        <ele>1742</ele>
        <time>2021-10-24T08:38:00Z</time>
      </trkpt>
      <trkpt lat="45.05288" lon="5.90885">
        <ele>1743</ele>
        <time>2021-10-24T08:38:06Z</time>
      </trkpt>
      <trkpt lat="45.05293" lon="5.9089">
        <ele>1743</ele>
        <time>2021-10-24T08:38:12Z</time>
      </trkpt>
      <trkpt lat="45.05298" lon="5.90896">
        <ele>1744</ele>
        <time>2021-10-24T08:38:17Z</time>
      </trkpt>
      <trkpt lat="45.05302" lon="5.90899">
        <ele>1745</ele>
        <time>2021-10-24T08:38:22Z</time>
      </trkpt>
      <trkpt lat="45.05307" lon="5.90899">
        <ele>1745</ele>
        <time>2021-10-24T08:38:28Z</time>
      </trkpt>
      <trkpt lat="45.0531" lon="5.909">
        <ele>1743</ele>
        <time>2021-10-24T08:38:33Z</time>
      </trkpt>
      <trkpt lat="45.05315" lon="5.90905">
        <ele>1744</ele>
        <time>2021-10-24T08:38:39Z</time>
      </trkpt>
      <trkpt lat="45.0532" lon="5.90909">
        <ele>1747</ele>
        <time>2021-10-24T08:38:45Z</time>
      </trkpt>
      <trkpt lat="45.05324" lon="5.90912">
        <ele>1745</ele>
        <time>2021-10-24T08:38:51Z</time>
      </trkpt>
      <trkpt lat="45.05326" lon="5.90917">
        <ele>1746</ele>
        <time>2021-10-24T08:38:57Z</time>
      </trkpt>
      <trkpt lat="45.05329" lon="5.90921">
        <ele>1745</ele>
        <time>2021-10-24T08:39:02Z</time>
      </trkpt>
      <trkpt lat="45.05333" lon="5.90923">
        <ele>1746</ele>
        <time>2021-10-24T08:39:07Z</time>
      </trkpt>
      <trkpt lat="45.05337" lon="5.90925">
        <ele>1747</ele>
        <time>2021-10-24T08:39:13Z</time>
      </trkpt>
      <trkpt lat="45.0534" lon="5.90929">
        <ele>1748</ele>
        <time>2021-10-24T08:39:18Z</time>
      </trkpt>
      <trkpt lat="45.05344" lon="5.90932">
        <ele>1748</ele>
        <time>2021-10-24T08:39:24Z</time>
      </trkpt>
      <trkpt lat="45.05351" lon="5.90936">
        <ele>1748</ele>
        <time>2021-10-24T08:39:30Z</time>
      </trkpt>
      <trkpt lat="45.05356" lon="5.90937">
        <ele>1748</ele>
        <time>2021-10-24T08:39:35Z</time>
      </trkpt>
      <trkpt lat="45.0536" lon="5.90938">
        <ele>1749</ele>
        <time>2021-10-24T08:39:41Z</time>
      </trkpt>
      <trkpt lat="45.05366" lon="5.90937">
        <ele>1750</ele>
        <time>2021-10-24T08:39:47Z</time>
      </trkpt>
      <trkpt lat="45.05371" lon="5.90938">
        <ele>1751</ele>
        <time>2021-10-24T08:39:52Z</time>
      </trkpt>
      <trkpt lat="45.05376" lon="5.90941">
        <ele>1750</ele>
        <time>2021-10-24T08:39:58Z</time>
      </trkpt>
      <trkpt lat="45.0538" lon="5.90942">
        <ele>1749</ele>
        <time>2021-10-24T08:40:03Z</time>
      </trkpt>
      <trkpt lat="45.05386" lon="5.90943">
        <ele>1749</ele>
        <time>2021-10-24T08:40:08Z</time>
      </trkpt>
      <trkpt lat="45.05389" lon="5.90945">
        <ele>1749</ele>
        <time>2021-10-24T08:40:14Z</time>
      </trkpt>
      <trkpt lat="45.05395" lon="5.90945">
        <ele>1746</ele>
        <time>2021-10-24T08:40:20Z</time>
      </trkpt>
      <trkpt lat="45.054" lon="5.90945">
        <ele>1743</ele>
        <time>2021-10-24T08:40:25Z</time>
      </trkpt>
      <trkpt lat="45.05405" lon="5.90947">
        <ele>1742</ele>
        <time>2021-10-24T08:40:31Z</time>
      </trkpt>
      <trkpt lat="45.05411" lon="5.90951">
        <ele>1742</ele>
        <time>2021-10-24T08:40:37Z</time>
      </trkpt>
      <trkpt lat="45.05417" lon="5.90954">
        <ele>1743</ele>
        <time>2021-10-24T08:40:42Z</time>
      </trkpt>
      <trkpt lat="45.05422" lon="5.90955">
        <ele>1744</ele>
        <time>2021-10-24T08:40:48Z</time>
      </trkpt>
      <trkpt lat="45.05428" lon="5.90956">
        <ele>1744</ele>
        <time>2021-10-24T08:40:54Z</time>
      </trkpt>
      <trkpt lat="45.05434" lon="5.90959">
        <ele>1744</ele>
        <time>2021-10-24T08:41:00Z</time>
      </trkpt>
      <trkpt lat="45.0544" lon="5.90961">
        <ele>1746</ele>
        <time>2021-10-24T08:41:06Z</time>
      </trkpt>
      <trkpt lat="45.05445" lon="5.90963">
        <ele>1747</ele>
        <time>2021-10-24T08:41:11Z</time>
      </trkpt>
      <trkpt lat="45.0545" lon="5.90967">
        <ele>1748</ele>
        <time>2021-10-24T08:41:17Z</time>
      </trkpt>
      <trkpt lat="45.05456" lon="5.9097">
        <ele>1749</ele>
        <time>2021-10-24T08:41:23Z</time>
      </trkpt>
      <trkpt lat="45.05458" lon="5.90975">
        <ele>1749</ele>
        <time>2021-10-24T08:41:29Z</time>
      </trkpt>
      <trkpt lat="45.0546" lon="5.90979">
        <ele>1749</ele>
        <time>2021-10-24T08:41:34Z</time>
      </trkpt>
      <trkpt lat="45.05462" lon="5.90984">
        <ele>1748</ele>
        <time>2021-10-24T08:41:39Z</time>
      </trkpt>
      <trkpt lat="45.05466" lon="5.90988">
        <ele>1745</ele>
        <time>2021-10-24T08:41:44Z</time>
      </trkpt>
      <trkpt lat="45.05471" lon="5.90991">
        <ele>1743</ele>
        <time>2021-10-24T08:41:50Z</time>
      </trkpt>
      <trkpt lat="45.05477" lon="5.90996">
        <ele>1742</ele>
        <time>2021-10-24T08:41:56Z</time>
      </trkpt>
      <trkpt lat="45.05482" lon="5.90999">
        <ele>1740</ele>
        <time>2021-10-24T08:42:02Z</time>
      </trkpt>
      <trkpt lat="45.05489" lon="5.90998">
        <ele>1744</ele>
        <time>2021-10-24T08:42:08Z</time>
      </trkpt>
      <trkpt lat="45.05491" lon="5.91">
        <ele>1744</ele>
        <time>2021-10-24T08:42:14Z</time>
      </trkpt>
      <trkpt lat="45.05492" lon="5.91">
        <ele>1745</ele>
        <time>2021-10-24T08:42:20Z</time>
      </trkpt>
      <trkpt lat="45.05494" lon="5.91003">
        <ele>1747</ele>
        <time>2021-10-24T08:42:26Z</time>
      </trkpt>
      <trkpt lat="45.05497" lon="5.91005">
        <ele>1747</ele>
        <time>2021-10-24T08:42:31Z</time>
      </trkpt>
      <trkpt lat="45.05498" lon="5.91008">
        <ele>1746</ele>
        <time>2021-10-24T08:42:37Z</time>
      </trkpt>
      <trkpt lat="45.05502" lon="5.91006">
        <ele>1746</ele>
        <time>2021-10-24T08:42:43Z</time>
      </trkpt>
      <trkpt lat="45.05505" lon="5.91006">
        <ele>1747</ele>
        <time>2021-10-24T08:42:49Z</time>
      </trkpt>
      <trkpt lat="45.05504" lon="5.91004">
        <ele>1746</ele>
        <time>2021-10-24T08:42:54Z</time>
      </trkpt>
      <trkpt lat="45.05504" lon="5.91004">
        <ele>1745</ele>
        <time>2021-10-24T08:43:00Z</time>
      </trkpt>
      <trkpt lat="45.05504" lon="5.91004">
        <ele>1745</ele>
        <time>2021-10-24T08:43:06Z</time>
      </trkpt>
      <trkpt lat="45.05504" lon="5.91004">
        <ele>1745</ele>
        <time>2021-10-24T08:43:12Z</time>
      </trkpt>
      <trkpt lat="45.05504" lon="5.91004">
        <ele>1747</ele>
        <time>2021-10-24T08:43:17Z</time>
      </trkpt>
      <trkpt lat="45.05508" lon="5.91007">
        <ele>1747</ele>
        <time>2021-10-24T08:43:22Z</time>
      </trkpt>
      <trkpt lat="45.05511" lon="5.9101">
        <ele>1746</ele>
        <time>2021-10-24T08:43:27Z</time>
      </trkpt>
      <trkpt lat="45.05515" lon="5.91014">
        <ele>1744</ele>
        <time>2021-10-24T08:43:33Z</time>
      </trkpt>
      <trkpt lat="45.05518" lon="5.91021">
        <ele>1743</ele>
        <time>2021-10-24T08:43:39Z</time>
      </trkpt>
      <trkpt lat="45.05525" lon="5.91025">
        <ele>1743</ele>
        <time>2021-10-24T08:43:44Z</time>
      </trkpt>
      <trkpt lat="45.05531" lon="5.91029">
        <ele>1743</ele>
        <time>2021-10-24T08:43:50Z</time>
      </trkpt>
      <trkpt lat="45.05536" lon="5.91032">
        <ele>1744</ele>
        <time>2021-10-24T08:43:56Z</time>
      </trkpt>
      <trkpt lat="45.05538" lon="5.91039">
        <ele>1745</ele>
        <time>2021-10-24T08:44:02Z</time>
      </trkpt>
      <trkpt lat="45.05538" lon="5.91045">
        <ele>1746</ele>
        <time>2021-10-24T08:44:08Z</time>
      </trkpt>
      <trkpt lat="45.0554" lon="5.91049">
        <ele>1745</ele>
        <time>2021-10-24T08:44:13Z</time>
      </trkpt>
      <trkpt lat="45.05544" lon="5.9105">
        <ele>1743</ele>
        <time>2021-10-24T08:44:18Z</time>
      </trkpt>
      <trkpt lat="45.05549" lon="5.91049">
        <ele>1741</ele>
        <time>2021-10-24T08:44:24Z</time>
      </trkpt>
      <trkpt lat="45.05554" lon="5.91047">
        <ele>1741</ele>
        <time>2021-10-24T08:44:29Z</time>
      </trkpt>
      <trkpt lat="45.0556" lon="5.91046">
        <ele>1742</ele>
        <time>2021-10-24T08:44:35Z</time>
      </trkpt>
      <trkpt lat="45.05566" lon="5.91047">
        <ele>1740</ele>
        <time>2021-10-24T08:44:41Z</time>
      </trkpt>
      <trkpt lat="45.0557" lon="5.91046">
        <ele>1739</ele>
        <time>2021-10-24T08:44:46Z</time>
      </trkpt>
      <trkpt lat="45.05578" lon="5.91047">
        <ele>1740</ele>
        <time>2021-10-24T08:44:52Z</time>
      </trkpt>
      <trkpt lat="45.05584" lon="5.91049">
        <ele>1739</ele>
        <time>2021-10-24T08:44:57Z</time>
      </trkpt>
      <trkpt lat="45.0559" lon="5.9105">
        <ele>1739</ele>
        <time>2021-10-24T08:45:03Z</time>
      </trkpt>
      <trkpt lat="45.05592" lon="5.91049">
        <ele>1741</ele>
        <time>2021-10-24T08:45:08Z</time>
      </trkpt>
      <trkpt lat="45.05593" lon="5.91049">
        <ele>1742</ele>
        <time>2021-10-24T08:45:13Z</time>
      </trkpt>
      <trkpt lat="45.05596" lon="5.9105">
        <ele>1743</ele>
        <time>2021-10-24T08:45:18Z</time>
      </trkpt>
      <trkpt lat="45.056" lon="5.91052">
        <ele>1744</ele>
        <time>2021-10-24T08:45:24Z</time>
      </trkpt>
      <trkpt lat="45.05605" lon="5.91054">
        <ele>1746</ele>
        <time>2021-10-24T08:45:30Z</time>
      </trkpt>
      <trkpt lat="45.05609" lon="5.91052">
        <ele>1747</ele>
        <time>2021-10-24T08:45:36Z</time>
      </trkpt>
      <trkpt lat="45.05611" lon="5.9105">
        <ele>1748</ele>
        <time>2021-10-24T08:45:42Z</time>
      </trkpt>
      <trkpt lat="45.05613" lon="5.91051">
        <ele>1749</ele>
        <time>2021-10-24T08:45:48Z</time>
      </trkpt>
      <trkpt lat="45.05613" lon="5.9105">
        <ele>1749</ele>
        <time>2021-10-24T08:45:54Z</time>
      </trkpt>
      <trkpt lat="45.05613" lon="5.9105">
        <ele>1749</ele>
        <time>2021-10-24T08:45:59Z</time>
      </trkpt>
      <trkpt lat="45.05611" lon="5.91051">
        <ele>1748</ele>
        <time>2021-10-24T08:46:05Z</time>
      </trkpt>
      <trkpt lat="45.05611" lon="5.9105">
        <ele>1749</ele>
        <time>2021-10-24T08:46:11Z</time>
      </trkpt>
      <trkpt lat="45.05612" lon="5.91051">
        <ele>1751</ele>
        <time>2021-10-24T08:46:16Z</time>
      </trkpt>
      <trkpt lat="45.05612" lon="5.9105">
        <ele>1752</ele>
        <time>2021-10-24T08:46:22Z</time>
      </trkpt>
      <trkpt lat="45.05612" lon="5.9105">
        <ele>1752</ele>
        <time>2021-10-24T08:46:27Z</time>
      </trkpt>
      <trkpt lat="45.05616" lon="5.91048">
        <ele>1751</ele>
        <time>2021-10-24T08:46:32Z</time>
      </trkpt>
      <trkpt lat="45.05618" lon="5.91048">
        <ele>1751</ele>
        <time>2021-10-24T08:46:38Z</time>
      </trkpt>
      <trkpt lat="45.05618" lon="5.91047">
        <ele>1751</ele>
        <time>2021-10-24T08:46:43Z</time>
      </trkpt>
      <trkpt lat="45.0562" lon="5.91045">
        <ele>1745</ele>
        <time>2021-10-24T08:46:48Z</time>
      </trkpt>
      <trkpt lat="45.05623" lon="5.91045">
        <ele>1741</ele>
        <time>2021-10-24T08:46:53Z</time>
      </trkpt>
      <trkpt lat="45.05626" lon="5.91044">
        <ele>1741</ele>
        <time>2021-10-24T08:46:59Z</time>
      </trkpt>
      <trkpt lat="45.05629" lon="5.91043">
        <ele>1742</ele>
        <time>2021-10-24T08:47:05Z</time>
      </trkpt>
      <trkpt lat="45.05633" lon="5.91043">
        <ele>1744</ele>
        <time>2021-10-24T08:47:10Z</time>
      </trkpt>
      <trkpt lat="45.05636" lon="5.91041">
        <ele>1743</ele>
        <time>2021-10-24T08:47:16Z</time>
      </trkpt>
      <trkpt lat="45.05637" lon="5.91038">
        <ele>1743</ele>
        <time>2021-10-24T08:47:22Z</time>
      </trkpt>
      <trkpt lat="45.05637" lon="5.91038">
        <ele>1743</ele>
        <time>2021-10-24T08:47:27Z</time>
      </trkpt>
      <trkpt lat="45.05637" lon="5.91038">
        <ele>1743</ele>
        <time>2021-10-24T08:47:33Z</time>
      </trkpt>
      <trkpt lat="45.05638" lon="5.91039">
        <ele>1745</ele>
        <time>2021-10-24T08:47:39Z</time>
      </trkpt>
      <trkpt lat="45.05638" lon="5.91041">
        <ele>1747</ele>
        <time>2021-10-24T08:47:44Z</time>
      </trkpt>
      <trkpt lat="45.05638" lon="5.91041">
        <ele>1747</ele>
        <time>2021-10-24T08:47:50Z</time>
      </trkpt>
      <trkpt lat="45.05638" lon="5.91041">
        <ele>1747</ele>
        <time>2021-10-24T08:47:55Z</time>
      </trkpt>
      <trkpt lat="45.05638" lon="5.91041">
        <ele>1747</ele>
        <time>2021-10-24T08:48:00Z</time>
      </trkpt>
      <trkpt lat="45.05638" lon="5.91041">
        <ele>1747</ele>
        <time>2021-10-24T08:48:06Z</time>
      </trkpt>
      <trkpt lat="45.05638" lon="5.91041">
        <ele>1747</ele>
        <time>2021-10-24T08:48:12Z</time>
      </trkpt>
      <trkpt lat="45.05639" lon="5.91041">
        <ele>1749</ele>
        <time>2021-10-24T08:48:17Z</time>
      </trkpt>
      <trkpt lat="45.05641" lon="5.91038">
        <ele>1750</ele>
        <time>2021-10-24T08:48:23Z</time>
      </trkpt>
      <trkpt lat="45.05644" lon="5.9104">
        <ele>1750</ele>
        <time>2021-10-24T08:48:29Z</time>
      </trkpt>
      <trkpt lat="45.05644" lon="5.9104">
        <ele>1750</ele>
        <time>2021-10-24T08:48:35Z</time>
      </trkpt>
      <trkpt lat="45.05643" lon="5.91037">
        <ele>1751</ele>
        <time>2021-10-24T08:48:40Z</time>
      </trkpt>
      <trkpt lat="45.05643" lon="5.91037">
        <ele>1751</ele>
        <time>2021-10-24T08:48:46Z</time>
      </trkpt>
      <trkpt lat="45.05642" lon="5.91037">
        <ele>1750</ele>
        <time>2021-10-24T08:48:52Z</time>
      </trkpt>
      <trkpt lat="45.05642" lon="5.91037">
        <ele>1750</ele>
        <time>2021-10-24T08:48:57Z</time>
      </trkpt>
      <trkpt lat="45.05642" lon="5.91037">
        <ele>1750</ele>
        <time>2021-10-24T08:49:03Z</time>
      </trkpt>
      <trkpt lat="45.05642" lon="5.91037">
        <ele>1750</ele>
        <time>2021-10-24T08:49:09Z</time>
      </trkpt>
      <trkpt lat="45.05642" lon="5.91037">
        <ele>1750</ele>
        <time>2021-10-24T08:49:15Z</time>
      </trkpt>
      <trkpt lat="45.05642" lon="5.91037">
        <ele>1750</ele>
        <time>2021-10-24T08:49:20Z</time>
      </trkpt>
      <trkpt lat="45.05642" lon="5.91037">
        <ele>1750</ele>
        <time>2021-10-24T08:49:26Z</time>
      </trkpt>
      <trkpt lat="45.05642" lon="5.91037">
        <ele>1750</ele>
        <time>2021-10-24T08:49:32Z</time>
      </trkpt>
      <trkpt lat="45.05642" lon="5.91037">
        <ele>1750</ele>
        <time>2021-10-24T08:49:38Z</time>
      </trkpt>
      <trkpt lat="45.0564" lon="5.91038">
        <ele>1747</ele>
        <time>2021-10-24T08:49:44Z</time>
      </trkpt>
      <trkpt lat="45.05635" lon="5.91038">
        <ele>1745</ele>
        <time>2021-10-24T08:49:49Z</time>
      </trkpt>
      <trkpt lat="45.05631" lon="5.91039">
        <ele>1745</ele>
        <time>2021-10-24T08:49:55Z</time>
      </trkpt>
      <trkpt lat="45.0563" lon="5.91038">
        <ele>1746</ele>
        <time>2021-10-24T08:50:01Z</time>
      </trkpt>
      <trkpt lat="45.05628" lon="5.9104">
        <ele>1746</ele>
        <time>2021-10-24T08:50:06Z</time>
      </trkpt>
      <trkpt lat="45.05625" lon="5.91041">
        <ele>1746</ele>
        <time>2021-10-24T08:50:12Z</time>
      </trkpt>
      <trkpt lat="45.05622" lon="5.91045">
        <ele>1747</ele>
        <time>2021-10-24T08:50:18Z</time>
      </trkpt>
      <trkpt lat="45.05618" lon="5.91049">
        <ele>1747</ele>
        <time>2021-10-24T08:50:24Z</time>
      </trkpt>
      <trkpt lat="45.05617" lon="5.91057">
        <ele>1747</ele>
        <time>2021-10-24T08:50:29Z</time>
      </trkpt>
      <trkpt lat="45.05616" lon="5.91062">
        <ele>1747</ele>
        <time>2021-10-24T08:50:34Z</time>
      </trkpt>
      <trkpt lat="45.05617" lon="5.91073">
        <ele>1744</ele>
        <time>2021-10-24T08:50:40Z</time>
      </trkpt>
      <trkpt lat="45.05618" lon="5.9108">
        <ele>1745</ele>
        <time>2021-10-24T08:50:46Z</time>
      </trkpt>
      <trkpt lat="45.05618" lon="5.91086">
        <ele>1744</ele>
        <time>2021-10-24T08:50:51Z</time>
      </trkpt>
      <trkpt lat="45.05616" lon="5.91093">
        <ele>1744</ele>
        <time>2021-10-24T08:50:57Z</time>
      </trkpt>
      <trkpt lat="45.05612" lon="5.91099">
        <ele>1745</ele>
        <time>2021-10-24T08:51:03Z</time>
      </trkpt>
      <trkpt lat="45.0561" lon="5.91098">
        <ele>1746</ele>
        <time>2021-10-24T08:51:08Z</time>
      </trkpt>
      <trkpt lat="45.05606" lon="5.91101">
        <ele>1747</ele>
        <time>2021-10-24T08:51:13Z</time>
      </trkpt>
      <trkpt lat="45.05603" lon="5.91102">
        <ele>1746</ele>
        <time>2021-10-24T08:51:18Z</time>
      </trkpt>
      <trkpt lat="45.05597" lon="5.911">
        <ele>1745</ele>
        <time>2021-10-24T08:51:24Z</time>
      </trkpt>
      <trkpt lat="45.05596" lon="5.91101">
        <ele>1746</ele>
        <time>2021-10-24T08:51:29Z</time>
      </trkpt>
      <trkpt lat="45.05591" lon="5.91099">
        <ele>1748</ele>
        <time>2021-10-24T08:51:34Z</time>
      </trkpt>
      <trkpt lat="45.05586" lon="5.91095">
        <ele>1747</ele>
        <time>2021-10-24T08:51:40Z</time>
      </trkpt>
      <trkpt lat="45.05581" lon="5.91098">
        <ele>1747</ele>
        <time>2021-10-24T08:51:46Z</time>
      </trkpt>
      <trkpt lat="45.05577" lon="5.91105">
        <ele>1747</ele>
        <time>2021-10-24T08:51:52Z</time>
      </trkpt>
      <trkpt lat="45.05572" lon="5.9111">
        <ele>1745</ele>
        <time>2021-10-24T08:51:57Z</time>
      </trkpt>
      <trkpt lat="45.0557" lon="5.91119">
        <ele>1744</ele>
        <time>2021-10-24T08:52:03Z</time>
      </trkpt>
      <trkpt lat="45.05568" lon="5.91124">
        <ele>1742</ele>
        <time>2021-10-24T08:52:08Z</time>
      </trkpt>
      <trkpt lat="45.05564" lon="5.91131">
        <ele>1742</ele>
        <time>2021-10-24T08:52:13Z</time>
      </trkpt>
      <trkpt lat="45.05563" lon="5.91139">
        <ele>1744</ele>
        <time>2021-10-24T08:52:19Z</time>
      </trkpt>
      <trkpt lat="45.05563" lon="5.91146">
        <ele>1744</ele>
        <time>2021-10-24T08:52:24Z</time>
      </trkpt>
      <trkpt lat="45.05562" lon="5.9115">
        <ele>1743</ele>
        <time>2021-10-24T08:52:30Z</time>
      </trkpt>
      <trkpt lat="45.05559" lon="5.91153">
        <ele>1742</ele>
        <time>2021-10-24T08:52:36Z</time>
      </trkpt>
      <trkpt lat="45.05557" lon="5.91156">
        <ele>1742</ele>
        <time>2021-10-24T08:52:41Z</time>
      </trkpt>
      <trkpt lat="45.05557" lon="5.91161">
        <ele>1743</ele>
        <time>2021-10-24T08:52:47Z</time>
      </trkpt>
      <trkpt lat="45.05554" lon="5.91164">
        <ele>1742</ele>
        <time>2021-10-24T08:52:53Z</time>
      </trkpt>
      <trkpt lat="45.05552" lon="5.91167">
        <ele>1743</ele>
        <time>2021-10-24T08:52:58Z</time>
      </trkpt>
      <trkpt lat="45.05549" lon="5.91175">
        <ele>1744</ele>
        <time>2021-10-24T08:53:03Z</time>
      </trkpt>
      <trkpt lat="45.05546" lon="5.91182">
        <ele>1744</ele>
        <time>2021-10-24T08:53:09Z</time>
      </trkpt>
      <trkpt lat="45.05544" lon="5.91186">
        <ele>1745</ele>
        <time>2021-10-24T08:53:14Z</time>
      </trkpt>
      <trkpt lat="45.0554" lon="5.91193">
        <ele>1745</ele>
        <time>2021-10-24T08:53:20Z</time>
      </trkpt>
      <trkpt lat="45.05539" lon="5.912">
        <ele>1744</ele>
        <time>2021-10-24T08:53:25Z</time>
      </trkpt>
      <trkpt lat="45.05536" lon="5.91208">
        <ele>1744</ele>
        <time>2021-10-24T08:53:31Z</time>
      </trkpt>
      <trkpt lat="45.05533" lon="5.91213">
        <ele>1745</ele>
        <time>2021-10-24T08:53:36Z</time>
      </trkpt>
      <trkpt lat="45.05531" lon="5.91216">
        <ele>1745</ele>
        <time>2021-10-24T08:53:42Z</time>
      </trkpt>
      <trkpt lat="45.0553" lon="5.9122">
        <ele>1747</ele>
        <time>2021-10-24T08:53:48Z</time>
      </trkpt>
      <trkpt lat="45.05529" lon="5.91224">
        <ele>1748</ele>
        <time>2021-10-24T08:53:53Z</time>
      </trkpt>
      <trkpt lat="45.05527" lon="5.91227">
        <ele>1751</ele>
        <time>2021-10-24T08:53:58Z</time>
      </trkpt>
      <trkpt lat="45.05525" lon="5.91229">
        <ele>1751</ele>
        <time>2021-10-24T08:54:03Z</time>
      </trkpt>
      <trkpt lat="45.05526" lon="5.91229">
        <ele>1751</ele>
        <time>2021-10-24T08:54:08Z</time>
      </trkpt>
      <trkpt lat="45.05524" lon="5.91234">
        <ele>1754</ele>
        <time>2021-10-24T08:54:13Z</time>
      </trkpt>
      <trkpt lat="45.05524" lon="5.91233">
        <ele>1750</ele>
        <time>2021-10-24T08:54:19Z</time>
      </trkpt>
      <trkpt lat="45.05522" lon="5.91235">
        <ele>1748</ele>
        <time>2021-10-24T08:54:24Z</time>
      </trkpt>
      <trkpt lat="45.05521" lon="5.91235">
        <ele>1749</ele>
        <time>2021-10-24T08:54:30Z</time>
      </trkpt>
      <trkpt lat="45.0552" lon="5.91236">
        <ele>1750</ele>
        <time>2021-10-24T08:54:36Z</time>
      </trkpt>
      <trkpt lat="45.0552" lon="5.91238">
        <ele>1748</ele>
        <time>2021-10-24T08:54:42Z</time>
      </trkpt>
      <trkpt lat="45.05518" lon="5.91236">
        <ele>1748</ele>
        <time>2021-10-24T08:54:47Z</time>
      </trkpt>
      <trkpt lat="45.0552" lon="5.91233">
        <ele>1750</ele>
        <time>2021-10-24T08:54:52Z</time>
      </trkpt>
      <trkpt lat="45.0552" lon="5.91232">
        <ele>1750</ele>
        <time>2021-10-24T08:54:57Z</time>
      </trkpt>
      <trkpt lat="45.05519" lon="5.91235">
        <ele>1752</ele>
        <time>2021-10-24T08:55:03Z</time>
      </trkpt>
      <trkpt lat="45.05517" lon="5.91241">
        <ele>1752</ele>
        <time>2021-10-24T08:55:08Z</time>
      </trkpt>
      <trkpt lat="45.05515" lon="5.91242">
        <ele>1753</ele>
        <time>2021-10-24T08:55:14Z</time>
      </trkpt>
      <trkpt lat="45.05515" lon="5.91243">
        <ele>1753</ele>
        <time>2021-10-24T08:55:20Z</time>
      </trkpt>
      <trkpt lat="45.05515" lon="5.91246">
        <ele>1753</ele>
        <time>2021-10-24T08:55:25Z</time>
      </trkpt>
      <trkpt lat="45.05511" lon="5.91248">
        <ele>1754</ele>
        <time>2021-10-24T08:55:31Z</time>
      </trkpt>
      <trkpt lat="45.05507" lon="5.91247">
        <ele>1754</ele>
        <time>2021-10-24T08:55:36Z</time>
      </trkpt>
      <trkpt lat="45.05505" lon="5.9125">
        <ele>1756</ele>
        <time>2021-10-24T08:55:41Z</time>
      </trkpt>
      <trkpt lat="45.05502" lon="5.91255">
        <ele>1758</ele>
        <time>2021-10-24T08:55:47Z</time>
      </trkpt>
      <trkpt lat="45.055" lon="5.9126">
        <ele>1757</ele>
        <time>2021-10-24T08:55:52Z</time>
      </trkpt>
      <trkpt lat="45.05499" lon="5.91264">
        <ele>1759</ele>
        <time>2021-10-24T08:55:58Z</time>
      </trkpt>
      <trkpt lat="45.05497" lon="5.91266">
        <ele>1757</ele>
        <time>2021-10-24T08:56:03Z</time>
      </trkpt>
      <trkpt lat="45.05494" lon="5.9127">
        <ele>1756</ele>
        <time>2021-10-24T08:56:09Z</time>
      </trkpt>
      <trkpt lat="45.05492" lon="5.91273">
        <ele>1756</ele>
        <time>2021-10-24T08:56:14Z</time>
      </trkpt>
      <trkpt lat="45.05487" lon="5.91277">
        <ele>1756</ele>
        <time>2021-10-24T08:56:20Z</time>
      </trkpt>
      <trkpt lat="45.05482" lon="5.91279">
        <ele>1758</ele>
        <time>2021-10-24T08:56:26Z</time>
      </trkpt>
      <trkpt lat="45.05478" lon="5.91275">
        <ele>1760</ele>
        <time>2021-10-24T08:56:31Z</time>
      </trkpt>
      <trkpt lat="45.05475" lon="5.91269">
        <ele>1763</ele>
        <time>2021-10-24T08:56:37Z</time>
      </trkpt>
      <trkpt lat="45.05473" lon="5.91264">
        <ele>1764</ele>
        <time>2021-10-24T08:56:43Z</time>
      </trkpt>
      <trkpt lat="45.0547" lon="5.91264">
        <ele>1766</ele>
        <time>2021-10-24T08:56:48Z</time>
      </trkpt>
      <trkpt lat="45.05469" lon="5.9126">
        <ele>1767</ele>
        <time>2021-10-24T08:56:54Z</time>
      </trkpt>
      <trkpt lat="45.05466" lon="5.91254">
        <ele>1769</ele>
        <time>2021-10-24T08:57:00Z</time>
      </trkpt>
      <trkpt lat="45.0546" lon="5.91252">
        <ele>1768</ele>
        <time>2021-10-24T08:57:06Z</time>
      </trkpt>
      <trkpt lat="45.05454" lon="5.91249">
        <ele>1767</ele>
        <time>2021-10-24T08:57:12Z</time>
      </trkpt>
      <trkpt lat="45.05447" lon="5.91251">
        <ele>1766</ele>
        <time>2021-10-24T08:57:18Z</time>
      </trkpt>
      <trkpt lat="45.05443" lon="5.91252">
        <ele>1766</ele>
        <time>2021-10-24T08:57:24Z</time>
      </trkpt>
      <trkpt lat="45.05439" lon="5.91253">
        <ele>1767</ele>
        <time>2021-10-24T08:57:30Z</time>
      </trkpt>
      <trkpt lat="45.05435" lon="5.91258">
        <ele>1771</ele>
        <time>2021-10-24T08:57:36Z</time>
      </trkpt>
      <trkpt lat="45.05431" lon="5.91261">
        <ele>1771</ele>
        <time>2021-10-24T08:57:41Z</time>
      </trkpt>
      <trkpt lat="45.05431" lon="5.91263">
        <ele>1771</ele>
        <time>2021-10-24T08:57:47Z</time>
      </trkpt>
      <trkpt lat="45.05429" lon="5.91265">
        <ele>1772</ele>
        <time>2021-10-24T08:57:52Z</time>
      </trkpt>
      <trkpt lat="45.05428" lon="5.91272">
        <ele>1772</ele>
        <time>2021-10-24T08:57:58Z</time>
      </trkpt>
      <trkpt lat="45.05429" lon="5.91279">
        <ele>1771</ele>
        <time>2021-10-24T08:58:03Z</time>
      </trkpt>
      <trkpt lat="45.05429" lon="5.91288">
        <ele>1770</ele>
        <time>2021-10-24T08:58:08Z</time>
      </trkpt>
      <trkpt lat="45.0543" lon="5.91292">
        <ele>1769</ele>
        <time>2021-10-24T08:58:13Z</time>
      </trkpt>
      <trkpt lat="45.05431" lon="5.91297">
        <ele>1770</ele>
        <time>2021-10-24T08:58:19Z</time>
      </trkpt>
      <trkpt lat="45.05431" lon="5.91297">
        <ele>1770</ele>
        <time>2021-10-24T08:58:24Z</time>
      </trkpt>
      <trkpt lat="45.0543" lon="5.91301">
        <ele>1770</ele>
        <time>2021-10-24T08:58:29Z</time>
      </trkpt>
      <trkpt lat="45.0543" lon="5.91301">
        <ele>1770</ele>
        <time>2021-10-24T08:58:35Z</time>
      </trkpt>
      <trkpt lat="45.0543" lon="5.91301">
        <ele>1770</ele>
        <time>2021-10-24T08:58:40Z</time>
      </trkpt>
      <trkpt lat="45.0543" lon="5.913">
        <ele>1771</ele>
        <time>2021-10-24T08:58:46Z</time>
      </trkpt>
      <trkpt lat="45.0543" lon="5.913">
        <ele>1771</ele>
        <time>2021-10-24T08:58:51Z</time>
      </trkpt>
      <trkpt lat="45.0543" lon="5.913">
        <ele>1771</ele>
        <time>2021-10-24T08:58:57Z</time>
      </trkpt>
      <trkpt lat="45.0543" lon="5.913">
        <ele>1771</ele>
        <time>2021-10-24T08:59:02Z</time>
      </trkpt>
      <trkpt lat="45.0543" lon="5.913">
        <ele>1771</ele>
        <time>2021-10-24T08:59:07Z</time>
      </trkpt>
      <trkpt lat="45.0543" lon="5.913">
        <ele>1771</ele>
        <time>2021-10-24T08:59:13Z</time>
      </trkpt>
      <trkpt lat="45.0543" lon="5.913">
        <ele>1771</ele>
        <time>2021-10-24T08:59:18Z</time>
      </trkpt>
      <trkpt lat="45.0543" lon="5.913">
        <ele>1771</ele>
        <time>2021-10-24T08:59:23Z</time>
      </trkpt>
      <trkpt lat="45.0543" lon="5.913">
        <ele>1771</ele>
        <time>2021-10-24T08:59:29Z</time>
      </trkpt>
      <trkpt lat="45.0543" lon="5.913">
        <ele>1771</ele>
        <time>2021-10-24T08:59:34Z</time>
      </trkpt>
      <trkpt lat="45.0543" lon="5.913">
        <ele>1771</ele>
        <time>2021-10-24T08:59:40Z</time>
      </trkpt>
      <trkpt lat="45.0543" lon="5.913">
        <ele>1771</ele>
        <time>2021-10-24T08:59:45Z</time>
      </trkpt>
      <trkpt lat="45.0543" lon="5.913">
        <ele>1771</ele>
        <time>2021-10-24T08:59:50Z</time>
      </trkpt>
      <trkpt lat="45.0543" lon="5.913">
        <ele>1771</ele>
        <time>2021-10-24T08:59:56Z</time>
      </trkpt>
      <trkpt lat="45.0543" lon="5.913">
        <ele>1771</ele>
        <time>2021-10-24T09:00:01Z</time>
      </trkpt>
      <trkpt lat="45.0543" lon="5.913">
        <ele>1771</ele>
        <time>2021-10-24T09:00:07Z</time>
      </trkpt>
      <trkpt lat="45.0543" lon="5.913">
        <ele>1771</ele>
        <time>2021-10-24T09:00:12Z</time>
      </trkpt>
      <trkpt lat="45.0543" lon="5.913">
        <ele>1772</ele>
        <time>2021-10-24T09:00:18Z</time>
      </trkpt>
      <trkpt lat="45.0543" lon="5.913">
        <ele>1772</ele>
        <time>2021-10-24T09:00:24Z</time>
      </trkpt>
      <trkpt lat="45.0543" lon="5.913">
        <ele>1772</ele>
        <time>2021-10-24T09:00:29Z</time>
      </trkpt>
      <trkpt lat="45.0543" lon="5.913">
        <ele>1772</ele>
        <time>2021-10-24T09:00:35Z</time>
      </trkpt>
      <trkpt lat="45.0543" lon="5.913">
        <ele>1772</ele>
        <time>2021-10-24T09:00:40Z</time>
      </trkpt>
      <trkpt lat="45.0543" lon="5.913">
        <ele>1772</ele>
        <time>2021-10-24T09:00:46Z</time>
      </trkpt>
      <trkpt lat="45.0543" lon="5.913">
        <ele>1772</ele>
        <time>2021-10-24T09:00:52Z</time>
      </trkpt>
      <trkpt lat="45.0543" lon="5.913">
        <ele>1771</ele>
        <time>2021-10-24T09:00:57Z</time>
      </trkpt>
      <trkpt lat="45.0543" lon="5.913">
        <ele>1771</ele>
        <time>2021-10-24T09:01:03Z</time>
      </trkpt>
      <trkpt lat="45.0543" lon="5.913">
        <ele>1771</ele>
        <time>2021-10-24T09:01:08Z</time>
      </trkpt>
      <trkpt lat="45.0543" lon="5.913">
        <ele>1771</ele>
        <time>2021-10-24T09:01:14Z</time>
      </trkpt>
      <trkpt lat="45.0543" lon="5.913">
        <ele>1771</ele>
        <time>2021-10-24T09:01:20Z</time>
      </trkpt>
      <trkpt lat="45.0543" lon="5.913">
        <ele>1771</ele>
        <time>2021-10-24T09:01:25Z</time>
      </trkpt>
      <trkpt lat="45.0543" lon="5.913">
        <ele>1771</ele>
        <time>2021-10-24T09:01:30Z</time>
      </trkpt>
      <trkpt lat="45.0543" lon="5.913">
        <ele>1771</ele>
        <time>2021-10-24T09:01:36Z</time>
      </trkpt>
      <trkpt lat="45.0543" lon="5.913">
        <ele>1771</ele>
        <time>2021-10-24T09:01:41Z</time>
      </trkpt>
      <trkpt lat="45.0543" lon="5.913">
        <ele>1771</ele>
        <time>2021-10-24T09:01:46Z</time>
      </trkpt>
      <trkpt lat="45.0543" lon="5.913">
        <ele>1771</ele>
        <time>2021-10-24T09:01:51Z</time>
      </trkpt>
      <trkpt lat="45.0543" lon="5.913">
        <ele>1771</ele>
        <time>2021-10-24T09:01:56Z</time>
      </trkpt>
      <trkpt lat="45.0543" lon="5.913">
        <ele>1771</ele>
        <time>2021-10-24T09:02:01Z</time>
      </trkpt>
      <trkpt lat="45.0543" lon="5.913">
        <ele>1771</ele>
        <time>2021-10-24T09:02:06Z</time>
      </trkpt>
      <trkpt lat="45.0543" lon="5.913">
        <ele>1771</ele>
        <time>2021-10-24T09:02:11Z</time>
      </trkpt>
      <trkpt lat="45.0543" lon="5.913">
        <ele>1771</ele>
        <time>2021-10-24T09:02:17Z</time>
      </trkpt>
      <trkpt lat="45.0543" lon="5.913">
        <ele>1771</ele>
        <time>2021-10-24T09:02:22Z</time>
      </trkpt>
      <trkpt lat="45.0543" lon="5.913">
        <ele>1771</ele>
        <time>2021-10-24T09:02:27Z</time>
      </trkpt>
      <trkpt lat="45.0543" lon="5.913">
        <ele>1771</ele>
        <time>2021-10-24T09:02:32Z</time>
      </trkpt>
      <trkpt lat="45.05433" lon="5.91303">
        <ele>1779</ele>
        <time>2021-10-24T09:02:37Z</time>
      </trkpt>
      <trkpt lat="45.05436" lon="5.91298">
        <ele>1783</ele>
        <time>2021-10-24T09:02:43Z</time>
      </trkpt>
      <trkpt lat="45.05436" lon="5.91298">
        <ele>1784</ele>
        <time>2021-10-24T09:02:48Z</time>
      </trkpt>
      <trkpt lat="45.05436" lon="5.91298">
        <ele>1784</ele>
        <time>2021-10-24T09:02:54Z</time>
      </trkpt>
      <trkpt lat="45.0544" lon="5.91296">
        <ele>1777</ele>
        <time>2021-10-24T09:02:59Z</time>
      </trkpt>
      <trkpt lat="45.0544" lon="5.91296">
        <ele>1777</ele>
        <time>2021-10-24T09:03:04Z</time>
      </trkpt>
      <trkpt lat="45.05437" lon="5.91298">
        <ele>1773</ele>
        <time>2021-10-24T09:03:10Z</time>
      </trkpt>
      <trkpt lat="45.05437" lon="5.91298">
        <ele>1773</ele>
        <time>2021-10-24T09:03:15Z</time>
      </trkpt>
      <trkpt lat="45.05437" lon="5.91298">
        <ele>1773</ele>
        <time>2021-10-24T09:03:21Z</time>
      </trkpt>
      <trkpt lat="45.05437" lon="5.91301">
        <ele>1770</ele>
        <time>2021-10-24T09:03:26Z</time>
      </trkpt>
      <trkpt lat="45.05437" lon="5.91301">
        <ele>1770</ele>
        <time>2021-10-24T09:03:31Z</time>
      </trkpt>
      <trkpt lat="45.05437" lon="5.91301">
        <ele>1770</ele>
        <time>2021-10-24T09:03:37Z</time>
      </trkpt>
      <trkpt lat="45.05436" lon="5.91299">
        <ele>1770</ele>
        <time>2021-10-24T09:03:43Z</time>
      </trkpt>
      <trkpt lat="45.05435" lon="5.91296">
        <ele>1773</ele>
        <time>2021-10-24T09:03:48Z</time>
      </trkpt>
      <trkpt lat="45.05432" lon="5.91287">
        <ele>1773</ele>
        <time>2021-10-24T09:03:54Z</time>
      </trkpt>
      <trkpt lat="45.0543" lon="5.91281">
        <ele>1774</ele>
        <time>2021-10-24T09:03:59Z</time>
      </trkpt>
      <trkpt lat="45.05424" lon="5.91278">
        <ele>1773</ele>
        <time>2021-10-24T09:04:04Z</time>
      </trkpt>
      <trkpt lat="45.05421" lon="5.91277">
        <ele>1774</ele>
        <time>2021-10-24T09:04:10Z</time>
      </trkpt>
      <trkpt lat="45.05418" lon="5.91277">
        <ele>1775</ele>
        <time>2021-10-24T09:04:15Z</time>
      </trkpt>
      <trkpt lat="45.05414" lon="5.91275">
        <ele>1777</ele>
        <time>2021-10-24T09:04:20Z</time>
      </trkpt>
      <trkpt lat="45.0541" lon="5.91279">
        <ele>1779</ele>
        <time>2021-10-24T09:04:26Z</time>
      </trkpt>
      <trkpt lat="45.05405" lon="5.91283">
        <ele>1780</ele>
        <time>2021-10-24T09:04:32Z</time>
      </trkpt>
      <trkpt lat="45.05399" lon="5.91285">
        <ele>1781</ele>
        <time>2021-10-24T09:04:38Z</time>
      </trkpt>
      <trkpt lat="45.05395" lon="5.91282">
        <ele>1780</ele>
        <time>2021-10-24T09:04:43Z</time>
      </trkpt>
      <trkpt lat="45.05389" lon="5.91278">
        <ele>1780</ele>
        <time>2021-10-24T09:04:49Z</time>
      </trkpt>
      <trkpt lat="45.05385" lon="5.91272">
        <ele>1779</ele>
        <time>2021-10-24T09:04:55Z</time>
      </trkpt>
      <trkpt lat="45.05381" lon="5.9127">
        <ele>1781</ele>
        <time>2021-10-24T09:05:01Z</time>
      </trkpt>
      <trkpt lat="45.05378" lon="5.91266">
        <ele>1779</ele>
        <time>2021-10-24T09:05:07Z</time>
      </trkpt>
      <trkpt lat="45.05375" lon="5.91261">
        <ele>1779</ele>
        <time>2021-10-24T09:05:13Z</time>
      </trkpt>
      <trkpt lat="45.0537" lon="5.91259">
        <ele>1781</ele>
        <time>2021-10-24T09:05:19Z</time>
      </trkpt>
      <trkpt lat="45.05368" lon="5.91263">
        <ele>1783</ele>
        <time>2021-10-24T09:05:24Z</time>
      </trkpt>
      <trkpt lat="45.05364" lon="5.91261">
        <ele>1786</ele>
        <time>2021-10-24T09:05:30Z</time>
      </trkpt>
      <trkpt lat="45.05363" lon="5.91262">
        <ele>1787</ele>
        <time>2021-10-24T09:05:36Z</time>
      </trkpt>
      <trkpt lat="45.0536" lon="5.9126">
        <ele>1788</ele>
        <time>2021-10-24T09:05:41Z</time>
      </trkpt>
      <trkpt lat="45.05356" lon="5.91257">
        <ele>1788</ele>
        <time>2021-10-24T09:05:47Z</time>
      </trkpt>
      <trkpt lat="45.05354" lon="5.9126">
        <ele>1791</ele>
        <time>2021-10-24T09:05:52Z</time>
      </trkpt>
      <trkpt lat="45.05352" lon="5.91267">
        <ele>1791</ele>
        <time>2021-10-24T09:05:58Z</time>
      </trkpt>
      <trkpt lat="45.05349" lon="5.91273">
        <ele>1791</ele>
        <time>2021-10-24T09:06:04Z</time>
      </trkpt>
      <trkpt lat="45.05347" lon="5.91281">
        <ele>1789</ele>
        <time>2021-10-24T09:06:09Z</time>
      </trkpt>
      <trkpt lat="45.05343" lon="5.91289">
        <ele>1788</ele>
        <time>2021-10-24T09:06:15Z</time>
      </trkpt>
      <trkpt lat="45.05335" lon="5.91295">
        <ele>1788</ele>
        <time>2021-10-24T09:06:21Z</time>
      </trkpt>
      <trkpt lat="45.05331" lon="5.91297">
        <ele>1788</ele>
        <time>2021-10-24T09:06:26Z</time>
      </trkpt>
      <trkpt lat="45.05327" lon="5.91301">
        <ele>1788</ele>
        <time>2021-10-24T09:06:32Z</time>
      </trkpt>
      <trkpt lat="45.05323" lon="5.91302">
        <ele>1791</ele>
        <time>2021-10-24T09:06:38Z</time>
      </trkpt>
      <trkpt lat="45.0532" lon="5.91306">
        <ele>1793</ele>
        <time>2021-10-24T09:06:44Z</time>
      </trkpt>
      <trkpt lat="45.05316" lon="5.91307">
        <ele>1794</ele>
        <time>2021-10-24T09:06:50Z</time>
      </trkpt>
      <trkpt lat="45.05312" lon="5.91306">
        <ele>1795</ele>
        <time>2021-10-24T09:06:55Z</time>
      </trkpt>
      <trkpt lat="45.05308" lon="5.91307">
        <ele>1796</ele>
        <time>2021-10-24T09:07:01Z</time>
      </trkpt>
      <trkpt lat="45.05306" lon="5.91311">
        <ele>1796</ele>
        <time>2021-10-24T09:07:06Z</time>
      </trkpt>
      <trkpt lat="45.05303" lon="5.9131">
        <ele>1800</ele>
        <time>2021-10-24T09:07:12Z</time>
      </trkpt>
      <trkpt lat="45.05299" lon="5.91307">
        <ele>1801</ele>
        <time>2021-10-24T09:07:18Z</time>
      </trkpt>
      <trkpt lat="45.05295" lon="5.9131">
        <ele>1804</ele>
        <time>2021-10-24T09:07:24Z</time>
      </trkpt>
      <trkpt lat="45.05291" lon="5.91315">
        <ele>1805</ele>
        <time>2021-10-24T09:07:30Z</time>
      </trkpt>
      <trkpt lat="45.05288" lon="5.91318">
        <ele>1804</ele>
        <time>2021-10-24T09:07:35Z</time>
      </trkpt>
      <trkpt lat="45.05286" lon="5.9132">
        <ele>1804</ele>
        <time>2021-10-24T09:07:41Z</time>
      </trkpt>
      <trkpt lat="45.05282" lon="5.91322">
        <ele>1804</ele>
        <time>2021-10-24T09:07:47Z</time>
      </trkpt>
      <trkpt lat="45.0528" lon="5.91322">
        <ele>1803</ele>
        <time>2021-10-24T09:07:53Z</time>
      </trkpt>
      <trkpt lat="45.05279" lon="5.91332">
        <ele>1803</ele>
        <time>2021-10-24T09:07:59Z</time>
      </trkpt>
      <trkpt lat="45.05274" lon="5.91339">
        <ele>1804</ele>
        <time>2021-10-24T09:08:04Z</time>
      </trkpt>
      <trkpt lat="45.05272" lon="5.91341">
        <ele>1804</ele>
        <time>2021-10-24T09:08:09Z</time>
      </trkpt>
      <trkpt lat="45.05269" lon="5.91339">
        <ele>1806</ele>
        <time>2021-10-24T09:08:15Z</time>
      </trkpt>
      <trkpt lat="45.05266" lon="5.91334">
        <ele>1809</ele>
        <time>2021-10-24T09:08:20Z</time>
      </trkpt>
      <trkpt lat="45.05263" lon="5.9133">
        <ele>1810</ele>
        <time>2021-10-24T09:08:26Z</time>
      </trkpt>
      <trkpt lat="45.05261" lon="5.91331">
        <ele>1810</ele>
        <time>2021-10-24T09:08:32Z</time>
      </trkpt>
      <trkpt lat="45.0526" lon="5.91336">
        <ele>1811</ele>
        <time>2021-10-24T09:08:37Z</time>
      </trkpt>
      <trkpt lat="45.05258" lon="5.91342">
        <ele>1810</ele>
        <time>2021-10-24T09:08:43Z</time>
      </trkpt>
      <trkpt lat="45.0525" lon="5.91346">
        <ele>1809</ele>
        <time>2021-10-24T09:08:49Z</time>
      </trkpt>
      <trkpt lat="45.05247" lon="5.91345">
        <ele>1809</ele>
        <time>2021-10-24T09:08:54Z</time>
      </trkpt>
      <trkpt lat="45.05245" lon="5.91344">
        <ele>1811</ele>
        <time>2021-10-24T09:09:00Z</time>
      </trkpt>
      <trkpt lat="45.05239" lon="5.91344">
        <ele>1812</ele>
        <time>2021-10-24T09:09:06Z</time>
      </trkpt>
      <trkpt lat="45.05237" lon="5.91344">
        <ele>1814</ele>
        <time>2021-10-24T09:09:11Z</time>
      </trkpt>
      <trkpt lat="45.05235" lon="5.9135">
        <ele>1817</ele>
        <time>2021-10-24T09:09:16Z</time>
      </trkpt>
      <trkpt lat="45.05231" lon="5.91357">
        <ele>1819</ele>
        <time>2021-10-24T09:09:22Z</time>
      </trkpt>
      <trkpt lat="45.05228" lon="5.9136">
        <ele>1820</ele>
        <time>2021-10-24T09:09:28Z</time>
      </trkpt>
      <trkpt lat="45.05225" lon="5.91359">
        <ele>1821</ele>
        <time>2021-10-24T09:09:34Z</time>
      </trkpt>
      <trkpt lat="45.05223" lon="5.9136">
        <ele>1824</ele>
        <time>2021-10-24T09:09:40Z</time>
      </trkpt>
      <trkpt lat="45.0522" lon="5.91363">
        <ele>1824</ele>
        <time>2021-10-24T09:09:45Z</time>
      </trkpt>
      <trkpt lat="45.05213" lon="5.91363">
        <ele>1824</ele>
        <time>2021-10-24T09:09:51Z</time>
      </trkpt>
      <trkpt lat="45.05212" lon="5.91363">
        <ele>1826</ele>
        <time>2021-10-24T09:09:57Z</time>
      </trkpt>
      <trkpt lat="45.05212" lon="5.91363">
        <ele>1826</ele>
        <time>2021-10-24T09:10:02Z</time>
      </trkpt>
      <trkpt lat="45.05211" lon="5.91361">
        <ele>1825</ele>
        <time>2021-10-24T09:10:08Z</time>
      </trkpt>
      <trkpt lat="45.05208" lon="5.91359">
        <ele>1826</ele>
        <time>2021-10-24T09:10:13Z</time>
      </trkpt>
      <trkpt lat="45.05207" lon="5.91358">
        <ele>1827</ele>
        <time>2021-10-24T09:10:18Z</time>
      </trkpt>
      <trkpt lat="45.05207" lon="5.91354">
        <ele>1827</ele>
        <time>2021-10-24T09:10:24Z</time>
      </trkpt>
      <trkpt lat="45.05205" lon="5.91352">
        <ele>1827</ele>
        <time>2021-10-24T09:10:29Z</time>
      </trkpt>
      <trkpt lat="45.05201" lon="5.91354">
        <ele>1826</ele>
        <time>2021-10-24T09:10:35Z</time>
      </trkpt>
      <trkpt lat="45.05199" lon="5.91355">
        <ele>1828</ele>
        <time>2021-10-24T09:10:41Z</time>
      </trkpt>
      <trkpt lat="45.05198" lon="5.91355">
        <ele>1828</ele>
        <time>2021-10-24T09:10:46Z</time>
      </trkpt>
      <trkpt lat="45.05198" lon="5.91355">
        <ele>1828</ele>
        <time>2021-10-24T09:10:52Z</time>
      </trkpt>
      <trkpt lat="45.05199" lon="5.91359">
        <ele>1829</ele>
        <time>2021-10-24T09:10:58Z</time>
      </trkpt>
      <trkpt lat="45.05198" lon="5.91361">
        <ele>1830</ele>
        <time>2021-10-24T09:11:04Z</time>
      </trkpt>
      <trkpt lat="45.05196" lon="5.91362">
        <ele>1826</ele>
        <time>2021-10-24T09:11:09Z</time>
      </trkpt>
      <trkpt lat="45.05196" lon="5.91361">
        <ele>1826</ele>
        <time>2021-10-24T09:11:15Z</time>
      </trkpt>
      <trkpt lat="45.05194" lon="5.9136">
        <ele>1826</ele>
        <time>2021-10-24T09:11:21Z</time>
      </trkpt>
      <trkpt lat="45.05194" lon="5.9136">
        <ele>1826</ele>
        <time>2021-10-24T09:11:26Z</time>
      </trkpt>
      <trkpt lat="45.05191" lon="5.91363">
        <ele>1827</ele>
        <time>2021-10-24T09:11:32Z</time>
      </trkpt>
      <trkpt lat="45.05191" lon="5.91366">
        <ele>1827</ele>
        <time>2021-10-24T09:11:38Z</time>
      </trkpt>
      <trkpt lat="45.0519" lon="5.91366">
        <ele>1826</ele>
        <time>2021-10-24T09:11:43Z</time>
      </trkpt>
      <trkpt lat="45.0519" lon="5.91366">
        <ele>1826</ele>
        <time>2021-10-24T09:11:48Z</time>
      </trkpt>
      <trkpt lat="45.0519" lon="5.91366">
        <ele>1826</ele>
        <time>2021-10-24T09:11:54Z</time>
      </trkpt>
      <trkpt lat="45.05189" lon="5.91366">
        <ele>1826</ele>
        <time>2021-10-24T09:11:59Z</time>
      </trkpt>
      <trkpt lat="45.05188" lon="5.91365">
        <ele>1826</ele>
        <time>2021-10-24T09:12:05Z</time>
      </trkpt>
      <trkpt lat="45.05188" lon="5.91365">
        <ele>1826</ele>
        <time>2021-10-24T09:12:11Z</time>
      </trkpt>
      <trkpt lat="45.05188" lon="5.91365">
        <ele>1826</ele>
        <time>2021-10-24T09:12:17Z</time>
      </trkpt>
      <trkpt lat="45.05187" lon="5.91368">
        <ele>1825</ele>
        <time>2021-10-24T09:12:23Z</time>
      </trkpt>
      <trkpt lat="45.05186" lon="5.91369">
        <ele>1824</ele>
        <time>2021-10-24T09:12:29Z</time>
      </trkpt>
      <trkpt lat="45.05184" lon="5.91369">
        <ele>1825</ele>
        <time>2021-10-24T09:12:35Z</time>
      </trkpt>
      <trkpt lat="45.05183" lon="5.91371">
        <ele>1825</ele>
        <time>2021-10-24T09:12:40Z</time>
      </trkpt>
      <trkpt lat="45.05181" lon="5.91372">
        <ele>1826</ele>
        <time>2021-10-24T09:12:46Z</time>
      </trkpt>
      <trkpt lat="45.05181" lon="5.91372">
        <ele>1826</ele>
        <time>2021-10-24T09:12:51Z</time>
      </trkpt>
      <trkpt lat="45.05179" lon="5.91371">
        <ele>1825</ele>
        <time>2021-10-24T09:12:57Z</time>
      </trkpt>
      <trkpt lat="45.05177" lon="5.91372">
        <ele>1822</ele>
        <time>2021-10-24T09:13:03Z</time>
      </trkpt>
      <trkpt lat="45.05178" lon="5.91373">
        <ele>1825</ele>
        <time>2021-10-24T09:13:09Z</time>
      </trkpt>
      <trkpt lat="45.05175" lon="5.91377">
        <ele>1825</ele>
        <time>2021-10-24T09:13:15Z</time>
      </trkpt>
      <trkpt lat="45.05172" lon="5.91379">
        <ele>1826</ele>
        <time>2021-10-24T09:13:21Z</time>
      </trkpt>
      <trkpt lat="45.05169" lon="5.9138">
        <ele>1828</ele>
        <time>2021-10-24T09:13:27Z</time>
      </trkpt>
      <trkpt lat="45.0517" lon="5.91379">
        <ele>1828</ele>
        <time>2021-10-24T09:13:32Z</time>
      </trkpt>
      <trkpt lat="45.0517" lon="5.91379">
        <ele>1828</ele>
        <time>2021-10-24T09:13:38Z</time>
      </trkpt>
      <trkpt lat="45.0517" lon="5.91379">
        <ele>1828</ele>
        <time>2021-10-24T09:13:44Z</time>
      </trkpt>
      <trkpt lat="45.0517" lon="5.91379">
        <ele>1828</ele>
        <time>2021-10-24T09:13:50Z</time>
      </trkpt>
      <trkpt lat="45.05165" lon="5.91381">
        <ele>1831</ele>
        <time>2021-10-24T09:13:55Z</time>
      </trkpt>
      <trkpt lat="45.05165" lon="5.91387">
        <ele>1834</ele>
        <time>2021-10-24T09:14:01Z</time>
      </trkpt>
      <trkpt lat="45.05164" lon="5.91388">
        <ele>1835</ele>
        <time>2021-10-24T09:14:06Z</time>
      </trkpt>
      <trkpt lat="45.05163" lon="5.91388">
        <ele>1835</ele>
        <time>2021-10-24T09:14:12Z</time>
      </trkpt>
      <trkpt lat="45.05162" lon="5.91389">
        <ele>1835</ele>
        <time>2021-10-24T09:14:17Z</time>
      </trkpt>
      <trkpt lat="45.05158" lon="5.91391">
        <ele>1836</ele>
        <time>2021-10-24T09:14:23Z</time>
      </trkpt>
      <trkpt lat="45.05157" lon="5.91391">
        <ele>1836</ele>
        <time>2021-10-24T09:14:29Z</time>
      </trkpt>
      <trkpt lat="45.05157" lon="5.91391">
        <ele>1836</ele>
        <time>2021-10-24T09:14:34Z</time>
      </trkpt>
      <trkpt lat="45.05157" lon="5.91394">
        <ele>1839</ele>
        <time>2021-10-24T09:14:40Z</time>
      </trkpt>
      <trkpt lat="45.05156" lon="5.91396">
        <ele>1840</ele>
        <time>2021-10-24T09:14:46Z</time>
      </trkpt>
      <trkpt lat="45.05157" lon="5.91398">
        <ele>1840</ele>
        <time>2021-10-24T09:14:52Z</time>
      </trkpt>
      <trkpt lat="45.05156" lon="5.91399">
        <ele>1841</ele>
        <time>2021-10-24T09:14:58Z</time>
      </trkpt>
      <trkpt lat="45.05156" lon="5.91401">
        <ele>1842</ele>
        <time>2021-10-24T09:15:03Z</time>
      </trkpt>
      <trkpt lat="45.05155" lon="5.91402">
        <ele>1843</ele>
        <time>2021-10-24T09:15:09Z</time>
      </trkpt>
      <trkpt lat="45.05153" lon="5.91402">
        <ele>1843</ele>
        <time>2021-10-24T09:15:14Z</time>
      </trkpt>
      <trkpt lat="45.05153" lon="5.91403">
        <ele>1843</ele>
        <time>2021-10-24T09:15:19Z</time>
      </trkpt>
      <trkpt lat="45.05153" lon="5.91403">
        <ele>1843</ele>
        <time>2021-10-24T09:15:25Z</time>
      </trkpt>
      <trkpt lat="45.05153" lon="5.91403">
        <ele>1843</ele>
        <time>2021-10-24T09:15:30Z</time>
      </trkpt>
      <trkpt lat="45.05153" lon="5.91404">
        <ele>1845</ele>
        <time>2021-10-24T09:15:36Z</time>
      </trkpt>
      <trkpt lat="45.05152" lon="5.91404">
        <ele>1844</ele>
        <time>2021-10-24T09:15:41Z</time>
      </trkpt>
      <trkpt lat="45.05151" lon="5.91405">
        <ele>1843</ele>
        <time>2021-10-24T09:15:47Z</time>
      </trkpt>
      <trkpt lat="45.0515" lon="5.91405">
        <ele>1842</ele>
        <time>2021-10-24T09:15:53Z</time>
      </trkpt>
      <trkpt lat="45.05149" lon="5.91405">
        <ele>1842</ele>
        <time>2021-10-24T09:15:59Z</time>
      </trkpt>
      <trkpt lat="45.05149" lon="5.91405">
        <ele>1842</ele>
        <time>2021-10-24T09:16:04Z</time>
      </trkpt>
      <trkpt lat="45.05149" lon="5.91405">
        <ele>1842</ele>
        <time>2021-10-24T09:16:10Z</time>
      </trkpt>
      <trkpt lat="45.05149" lon="5.91405">
        <ele>1842</ele>
        <time>2021-10-24T09:16:16Z</time>
      </trkpt>
      <trkpt lat="45.05149" lon="5.91405">
        <ele>1842</ele>
        <time>2021-10-24T09:16:22Z</time>
      </trkpt>
      <trkpt lat="45.05149" lon="5.91404">
        <ele>1843</ele>
        <time>2021-10-24T09:16:28Z</time>
      </trkpt>
      <trkpt lat="45.0515" lon="5.91404">
        <ele>1843</ele>
        <time>2021-10-24T09:16:33Z</time>
      </trkpt>
      <trkpt lat="45.0515" lon="5.91405">
        <ele>1842</ele>
        <time>2021-10-24T09:16:39Z</time>
      </trkpt>
      <trkpt lat="45.0515" lon="5.91405">
        <ele>1842</ele>
        <time>2021-10-24T09:16:45Z</time>
      </trkpt>
      <trkpt lat="45.05149" lon="5.91404">
        <ele>1841</ele>
        <time>2021-10-24T09:16:50Z</time>
      </trkpt>
      <trkpt lat="45.0515" lon="5.91403">
        <ele>1841</ele>
        <time>2021-10-24T09:16:55Z</time>
      </trkpt>
      <trkpt lat="45.0515" lon="5.91403">
        <ele>1841</ele>
        <time>2021-10-24T09:17:00Z</time>
      </trkpt>
      <trkpt lat="45.0515" lon="5.91403">
        <ele>1841</ele>
        <time>2021-10-24T09:17:06Z</time>
      </trkpt>
      <trkpt lat="45.05148" lon="5.91405">
        <ele>1842</ele>
        <time>2021-10-24T09:17:11Z</time>
      </trkpt>
      <trkpt lat="45.05147" lon="5.91405">
        <ele>1843</ele>
        <time>2021-10-24T09:17:17Z</time>
      </trkpt>
      <trkpt lat="45.05147" lon="5.91405">
        <ele>1843</ele>
        <time>2021-10-24T09:17:22Z</time>
      </trkpt>
      <trkpt lat="45.05147" lon="5.91403">
        <ele>1843</ele>
        <time>2021-10-24T09:17:28Z</time>
      </trkpt>
      <trkpt lat="45.05146" lon="5.91404">
        <ele>1843</ele>
        <time>2021-10-24T09:17:33Z</time>
      </trkpt>
      <trkpt lat="45.05146" lon="5.91404">
        <ele>1843</ele>
        <time>2021-10-24T09:17:39Z</time>
      </trkpt>
      <trkpt lat="45.05146" lon="5.91403">
        <ele>1845</ele>
        <time>2021-10-24T09:17:45Z</time>
      </trkpt>
      <trkpt lat="45.05146" lon="5.91403">
        <ele>1845</ele>
        <time>2021-10-24T09:17:50Z</time>
      </trkpt>
      <trkpt lat="45.05146" lon="5.91403">
        <ele>1845</ele>
        <time>2021-10-24T09:17:56Z</time>
      </trkpt>
      <trkpt lat="45.05146" lon="5.91403">
        <ele>1845</ele>
        <time>2021-10-24T09:18:01Z</time>
      </trkpt>
      <trkpt lat="45.05146" lon="5.91403">
        <ele>1845</ele>
        <time>2021-10-24T09:18:07Z</time>
      </trkpt>
      <trkpt lat="45.05146" lon="5.91403">
        <ele>1845</ele>
        <time>2021-10-24T09:18:13Z</time>
      </trkpt>
      <trkpt lat="45.05146" lon="5.91403">
        <ele>1845</ele>
        <time>2021-10-24T09:18:18Z</time>
      </trkpt>
      <trkpt lat="45.05146" lon="5.91403">
        <ele>1845</ele>
        <time>2021-10-24T09:18:23Z</time>
      </trkpt>
      <trkpt lat="45.05146" lon="5.91403">
        <ele>1845</ele>
        <time>2021-10-24T09:18:29Z</time>
      </trkpt>
      <trkpt lat="45.05148" lon="5.91403">
        <ele>1846</ele>
        <time>2021-10-24T09:18:35Z</time>
      </trkpt>
      <trkpt lat="45.05148" lon="5.91404">
        <ele>1847</ele>
        <time>2021-10-24T09:18:41Z</time>
      </trkpt>
      <trkpt lat="45.05148" lon="5.91404">
        <ele>1847</ele>
        <time>2021-10-24T09:18:47Z</time>
      </trkpt>
      <trkpt lat="45.05148" lon="5.91404">
        <ele>1847</ele>
        <time>2021-10-24T09:18:52Z</time>
      </trkpt>
      <trkpt lat="45.05146" lon="5.91405">
        <ele>1843</ele>
        <time>2021-10-24T09:18:58Z</time>
      </trkpt>
      <trkpt lat="45.05146" lon="5.91405">
        <ele>1843</ele>
        <time>2021-10-24T09:19:03Z</time>
      </trkpt>
      <trkpt lat="45.05147" lon="5.91406">
        <ele>1843</ele>
        <time>2021-10-24T09:19:08Z</time>
      </trkpt>
      <trkpt lat="45.05147" lon="5.91406">
        <ele>1843</ele>
        <time>2021-10-24T09:19:14Z</time>
      </trkpt>
      <trkpt lat="45.05146" lon="5.91406">
        <ele>1845</ele>
        <time>2021-10-24T09:19:20Z</time>
      </trkpt>
      <trkpt lat="45.05144" lon="5.91411">
        <ele>1843</ele>
        <time>2021-10-24T09:19:26Z</time>
      </trkpt>
      <trkpt lat="45.05144" lon="5.91411">
        <ele>1843</ele>
        <time>2021-10-24T09:19:31Z</time>
      </trkpt>
      <trkpt lat="45.05144" lon="5.91411">
        <ele>1843</ele>
        <time>2021-10-24T09:19:37Z</time>
      </trkpt>
      <trkpt lat="45.05144" lon="5.91411">
        <ele>1843</ele>
        <time>2021-10-24T09:19:43Z</time>
      </trkpt>
      <trkpt lat="45.05144" lon="5.91411">
        <ele>1843</ele>
        <time>2021-10-24T09:19:48Z</time>
      </trkpt>
      <trkpt lat="45.05144" lon="5.91411">
        <ele>1843</ele>
        <time>2021-10-24T09:19:54Z</time>
      </trkpt>
      <trkpt lat="45.05142" lon="5.91414">
        <ele>1844</ele>
        <time>2021-10-24T09:19:59Z</time>
      </trkpt>
      <trkpt lat="45.05142" lon="5.91414">
        <ele>1845</ele>
        <time>2021-10-24T09:20:05Z</time>
      </trkpt>
      <trkpt lat="45.05142" lon="5.91414">
        <ele>1845</ele>
        <time>2021-10-24T09:20:11Z</time>
      </trkpt>
      <trkpt lat="45.05142" lon="5.91414">
        <ele>1845</ele>
        <time>2021-10-24T09:20:16Z</time>
      </trkpt>
      <trkpt lat="45.05144" lon="5.9141">
        <ele>1846</ele>
        <time>2021-10-24T09:20:21Z</time>
      </trkpt>
      <trkpt lat="45.05144" lon="5.91409">
        <ele>1846</ele>
        <time>2021-10-24T09:20:27Z</time>
      </trkpt>
      <trkpt lat="45.05144" lon="5.91409">
        <ele>1846</ele>
        <time>2021-10-24T09:20:32Z</time>
      </trkpt>
      <trkpt lat="45.05144" lon="5.9141">
        <ele>1843</ele>
        <time>2021-10-24T09:20:38Z</time>
      </trkpt>
      <trkpt lat="45.05145" lon="5.9141">
        <ele>1842</ele>
        <time>2021-10-24T09:20:43Z</time>
      </trkpt>
      <trkpt lat="45.05145" lon="5.91409">
        <ele>1843</ele>
        <time>2021-10-24T09:20:49Z</time>
      </trkpt>
      <trkpt lat="45.05143" lon="5.91409">
        <ele>1844</ele>
        <time>2021-10-24T09:20:54Z</time>
      </trkpt>
      <trkpt lat="45.05143" lon="5.91409">
        <ele>1844</ele>
        <time>2021-10-24T09:20:59Z</time>
      </trkpt>
      <trkpt lat="45.05143" lon="5.91409">
        <ele>1844</ele>
        <time>2021-10-24T09:21:04Z</time>
      </trkpt>
      <trkpt lat="45.05141" lon="5.91409">
        <ele>1837</ele>
        <time>2021-10-24T09:21:10Z</time>
      </trkpt>
      <trkpt lat="45.05141" lon="5.91409">
        <ele>1837</ele>
        <time>2021-10-24T09:21:15Z</time>
      </trkpt>
      <trkpt lat="45.05141" lon="5.91409">
        <ele>1837</ele>
        <time>2021-10-24T09:21:21Z</time>
      </trkpt>
      <trkpt lat="45.05141" lon="5.91409">
        <ele>1837</ele>
        <time>2021-10-24T09:21:26Z</time>
      </trkpt>
      <trkpt lat="45.05141" lon="5.91409">
        <ele>1837</ele>
        <time>2021-10-24T09:21:31Z</time>
      </trkpt>
      <trkpt lat="45.05141" lon="5.91409">
        <ele>1837</ele>
        <time>2021-10-24T09:21:37Z</time>
      </trkpt>
      <trkpt lat="45.05141" lon="5.91409">
        <ele>1837</ele>
        <time>2021-10-24T09:21:43Z</time>
      </trkpt>
      <trkpt lat="45.05142" lon="5.9141">
        <ele>1841</ele>
        <time>2021-10-24T09:21:49Z</time>
      </trkpt>
      <trkpt lat="45.05142" lon="5.9141">
        <ele>1841</ele>
        <time>2021-10-24T09:21:54Z</time>
      </trkpt>
      <trkpt lat="45.05145" lon="5.91409">
        <ele>1843</ele>
        <time>2021-10-24T09:22:00Z</time>
      </trkpt>
      <trkpt lat="45.05145" lon="5.91409">
        <ele>1843</ele>
        <time>2021-10-24T09:22:05Z</time>
      </trkpt>
      <trkpt lat="45.05145" lon="5.91409">
        <ele>1843</ele>
        <time>2021-10-24T09:22:11Z</time>
      </trkpt>
      <trkpt lat="45.05145" lon="5.91409">
        <ele>1843</ele>
        <time>2021-10-24T09:22:16Z</time>
      </trkpt>
      <trkpt lat="45.05142" lon="5.91409">
        <ele>1844</ele>
        <time>2021-10-24T09:22:22Z</time>
      </trkpt>
      <trkpt lat="45.05142" lon="5.91408">
        <ele>1843</ele>
        <time>2021-10-24T09:22:28Z</time>
      </trkpt>
      <trkpt lat="45.05142" lon="5.91408">
        <ele>1843</ele>
        <time>2021-10-24T09:22:33Z</time>
      </trkpt>
      <trkpt lat="45.05145" lon="5.91406">
        <ele>1844</ele>
        <time>2021-10-24T09:22:39Z</time>
      </trkpt>
      <trkpt lat="45.05145" lon="5.91407">
        <ele>1844</ele>
        <time>2021-10-24T09:22:45Z</time>
      </trkpt>
      <trkpt lat="45.05148" lon="5.91409">
        <ele>1847</ele>
        <time>2021-10-24T09:22:50Z</time>
      </trkpt>
      <trkpt lat="45.05149" lon="5.91411">
        <ele>1848</ele>
        <time>2021-10-24T09:22:56Z</time>
      </trkpt>
      <trkpt lat="45.05151" lon="5.91414">
        <ele>1849</ele>
        <time>2021-10-24T09:23:02Z</time>
      </trkpt>
      <trkpt lat="45.05154" lon="5.91419">
        <ele>1848</ele>
        <time>2021-10-24T09:23:08Z</time>
      </trkpt>
      <trkpt lat="45.05157" lon="5.91425">
        <ele>1848</ele>
        <time>2021-10-24T09:23:14Z</time>
      </trkpt>
      <trkpt lat="45.05158" lon="5.91432">
        <ele>1848</ele>
        <time>2021-10-24T09:23:19Z</time>
      </trkpt>
      <trkpt lat="45.05157" lon="5.91436">
        <ele>1847</ele>
        <time>2021-10-24T09:23:24Z</time>
      </trkpt>
      <trkpt lat="45.05158" lon="5.91442">
        <ele>1848</ele>
        <time>2021-10-24T09:23:30Z</time>
      </trkpt>
      <trkpt lat="45.05159" lon="5.91449">
        <ele>1849</ele>
        <time>2021-10-24T09:23:36Z</time>
      </trkpt>
      <trkpt lat="45.05159" lon="5.91453">
        <ele>1849</ele>
        <time>2021-10-24T09:23:41Z</time>
      </trkpt>
      <trkpt lat="45.0516" lon="5.91459">
        <ele>1850</ele>
        <time>2021-10-24T09:23:47Z</time>
      </trkpt>
      <trkpt lat="45.05161" lon="5.91465">
        <ele>1852</ele>
        <time>2021-10-24T09:23:53Z</time>
      </trkpt>
      <trkpt lat="45.05161" lon="5.91469">
        <ele>1853</ele>
        <time>2021-10-24T09:23:58Z</time>
      </trkpt>
      <trkpt lat="45.05159" lon="5.91477">
        <ele>1854</ele>
        <time>2021-10-24T09:24:03Z</time>
      </trkpt>
      <trkpt lat="45.05159" lon="5.91481">
        <ele>1854</ele>
        <time>2021-10-24T09:24:09Z</time>
      </trkpt>
      <trkpt lat="45.05158" lon="5.91484">
        <ele>1855</ele>
        <time>2021-10-24T09:24:15Z</time>
      </trkpt>
      <trkpt lat="45.05158" lon="5.9149">
        <ele>1854</ele>
        <time>2021-10-24T09:24:21Z</time>
      </trkpt>
      <trkpt lat="45.05159" lon="5.91497">
        <ele>1854</ele>
        <time>2021-10-24T09:24:27Z</time>
      </trkpt>
      <trkpt lat="45.05162" lon="5.91502">
        <ele>1855</ele>
        <time>2021-10-24T09:24:33Z</time>
      </trkpt>
      <trkpt lat="45.05164" lon="5.91506">
        <ele>1856</ele>
        <time>2021-10-24T09:24:39Z</time>
      </trkpt>
      <trkpt lat="45.05166" lon="5.91513">
        <ele>1859</ele>
        <time>2021-10-24T09:24:44Z</time>
      </trkpt>
      <trkpt lat="45.05166" lon="5.91517">
        <ele>1860</ele>
        <time>2021-10-24T09:24:50Z</time>
      </trkpt>
      <trkpt lat="45.05167" lon="5.91521">
        <ele>1861</ele>
        <time>2021-10-24T09:24:55Z</time>
      </trkpt>
      <trkpt lat="45.05168" lon="5.91526">
        <ele>1861</ele>
        <time>2021-10-24T09:25:00Z</time>
      </trkpt>
      <trkpt lat="45.05168" lon="5.91527">
        <ele>1861</ele>
        <time>2021-10-24T09:25:05Z</time>
      </trkpt>
      <trkpt lat="45.0517" lon="5.9153">
        <ele>1861</ele>
        <time>2021-10-24T09:25:11Z</time>
      </trkpt>
      <trkpt lat="45.0517" lon="5.9153">
        <ele>1861</ele>
        <time>2021-10-24T09:25:17Z</time>
      </trkpt>
      <trkpt lat="45.0517" lon="5.91537">
        <ele>1862</ele>
        <time>2021-10-24T09:25:23Z</time>
      </trkpt>
      <trkpt lat="45.05171" lon="5.91541">
        <ele>1864</ele>
        <time>2021-10-24T09:25:28Z</time>
      </trkpt>
      <trkpt lat="45.05171" lon="5.91545">
        <ele>1864</ele>
        <time>2021-10-24T09:25:33Z</time>
      </trkpt>
      <trkpt lat="45.05171" lon="5.91548">
        <ele>1863</ele>
        <time>2021-10-24T09:25:39Z</time>
      </trkpt>
      <trkpt lat="45.05172" lon="5.9155">
        <ele>1863</ele>
        <time>2021-10-24T09:25:44Z</time>
      </trkpt>
      <trkpt lat="45.05171" lon="5.91553">
        <ele>1866</ele>
        <time>2021-10-24T09:25:50Z</time>
      </trkpt>
      <trkpt lat="45.05172" lon="5.91556">
        <ele>1866</ele>
        <time>2021-10-24T09:25:56Z</time>
      </trkpt>
      <trkpt lat="45.05174" lon="5.91561">
        <ele>1868</ele>
        <time>2021-10-24T09:26:01Z</time>
      </trkpt>
      <trkpt lat="45.05175" lon="5.91565">
        <ele>1870</ele>
        <time>2021-10-24T09:26:06Z</time>
      </trkpt>
      <trkpt lat="45.05175" lon="5.91569">
        <ele>1871</ele>
        <time>2021-10-24T09:26:12Z</time>
      </trkpt>
      <trkpt lat="45.05177" lon="5.91572">
        <ele>1872</ele>
        <time>2021-10-24T09:26:18Z</time>
      </trkpt>
      <trkpt lat="45.05177" lon="5.91574">
        <ele>1871</ele>
        <time>2021-10-24T09:26:24Z</time>
      </trkpt>
      <trkpt lat="45.05178" lon="5.91579">
        <ele>1872</ele>
        <time>2021-10-24T09:26:30Z</time>
      </trkpt>
      <trkpt lat="45.05178" lon="5.9158">
        <ele>1872</ele>
        <time>2021-10-24T09:26:35Z</time>
      </trkpt>
      <trkpt lat="45.05179" lon="5.91584">
        <ele>1872</ele>
        <time>2021-10-24T09:26:41Z</time>
      </trkpt>
      <trkpt lat="45.05179" lon="5.91588">
        <ele>1874</ele>
        <time>2021-10-24T09:26:47Z</time>
      </trkpt>
      <trkpt lat="45.0518" lon="5.91594">
        <ele>1874</ele>
        <time>2021-10-24T09:26:53Z</time>
      </trkpt>
      <trkpt lat="45.0518" lon="5.91597">
        <ele>1875</ele>
        <time>2021-10-24T09:26:59Z</time>
      </trkpt>
      <trkpt lat="45.0518" lon="5.916">
        <ele>1876</ele>
        <time>2021-10-24T09:27:04Z</time>
      </trkpt>
      <trkpt lat="45.05181" lon="5.91602">
        <ele>1876</ele>
        <time>2021-10-24T09:27:10Z</time>
      </trkpt>
      <trkpt lat="45.05181" lon="5.91605">
        <ele>1878</ele>
        <time>2021-10-24T09:27:16Z</time>
      </trkpt>
      <trkpt lat="45.05182" lon="5.91609">
        <ele>1879</ele>
        <time>2021-10-24T09:27:22Z</time>
      </trkpt>
      <trkpt lat="45.05182" lon="5.91613">
        <ele>1882</ele>
        <time>2021-10-24T09:27:27Z</time>
      </trkpt>
      <trkpt lat="45.05181" lon="5.91613">
        <ele>1882</ele>
        <time>2021-10-24T09:27:32Z</time>
      </trkpt>
      <trkpt lat="45.05182" lon="5.9162">
        <ele>1885</ele>
        <time>2021-10-24T09:27:38Z</time>
      </trkpt>
      <trkpt lat="45.05182" lon="5.91624">
        <ele>1885</ele>
        <time>2021-10-24T09:27:43Z</time>
      </trkpt>
      <trkpt lat="45.05182" lon="5.91629">
        <ele>1885</ele>
        <time>2021-10-24T09:27:49Z</time>
      </trkpt>
      <trkpt lat="45.05182" lon="5.91629">
        <ele>1886</ele>
        <time>2021-10-24T09:27:54Z</time>
      </trkpt>
      <trkpt lat="45.05182" lon="5.91635">
        <ele>1889</ele>
        <time>2021-10-24T09:28:00Z</time>
      </trkpt>
      <trkpt lat="45.05184" lon="5.9164">
        <ele>1889</ele>
        <time>2021-10-24T09:28:06Z</time>
      </trkpt>
      <trkpt lat="45.05184" lon="5.91644">
        <ele>1888</ele>
        <time>2021-10-24T09:28:11Z</time>
      </trkpt>
      <trkpt lat="45.05185" lon="5.91648">
        <ele>1890</ele>
        <time>2021-10-24T09:28:17Z</time>
      </trkpt>
      <trkpt lat="45.05185" lon="5.91652">
        <ele>1888</ele>
        <time>2021-10-24T09:28:23Z</time>
      </trkpt>
      <trkpt lat="45.05186" lon="5.91653">
        <ele>1888</ele>
        <time>2021-10-24T09:28:29Z</time>
      </trkpt>
      <trkpt lat="45.05185" lon="5.9166">
        <ele>1890</ele>
        <time>2021-10-24T09:28:34Z</time>
      </trkpt>
      <trkpt lat="45.05185" lon="5.91664">
        <ele>1892</ele>
        <time>2021-10-24T09:28:40Z</time>
      </trkpt>
      <trkpt lat="45.05185" lon="5.91668">
        <ele>1893</ele>
        <time>2021-10-24T09:28:46Z</time>
      </trkpt>
      <trkpt lat="45.05184" lon="5.91674">
        <ele>1893</ele>
        <time>2021-10-24T09:28:52Z</time>
      </trkpt>
      <trkpt lat="45.05184" lon="5.91678">
        <ele>1895</ele>
        <time>2021-10-24T09:28:58Z</time>
      </trkpt>
      <trkpt lat="45.05183" lon="5.91681">
        <ele>1895</ele>
        <time>2021-10-24T09:29:04Z</time>
      </trkpt>
      <trkpt lat="45.05184" lon="5.91685">
        <ele>1895</ele>
        <time>2021-10-24T09:29:10Z</time>
      </trkpt>
      <trkpt lat="45.05185" lon="5.9169">
        <ele>1896</ele>
        <time>2021-10-24T09:29:16Z</time>
      </trkpt>
      <trkpt lat="45.05185" lon="5.91692">
        <ele>1896</ele>
        <time>2021-10-24T09:29:22Z</time>
      </trkpt>
      <trkpt lat="45.05184" lon="5.91696">
        <ele>1897</ele>
        <time>2021-10-24T09:29:28Z</time>
      </trkpt>
      <trkpt lat="45.05183" lon="5.91699">
        <ele>1898</ele>
        <time>2021-10-24T09:29:33Z</time>
      </trkpt>
      <trkpt lat="45.05182" lon="5.917">
        <ele>1900</ele>
        <time>2021-10-24T09:29:39Z</time>
      </trkpt>
      <trkpt lat="45.05181" lon="5.91705">
        <ele>1899</ele>
        <time>2021-10-24T09:29:45Z</time>
      </trkpt>
      <trkpt lat="45.05182" lon="5.9171">
        <ele>1901</ele>
        <time>2021-10-24T09:29:51Z</time>
      </trkpt>
      <trkpt lat="45.05182" lon="5.91713">
        <ele>1901</ele>
        <time>2021-10-24T09:29:57Z</time>
      </trkpt>
      <trkpt lat="45.05184" lon="5.91716">
        <ele>1904</ele>
        <time>2021-10-24T09:30:03Z</time>
      </trkpt>
      <trkpt lat="45.05187" lon="5.91718">
        <ele>1904</ele>
        <time>2021-10-24T09:30:09Z</time>
      </trkpt>
      <trkpt lat="45.05188" lon="5.91719">
        <ele>1905</ele>
        <time>2021-10-24T09:30:14Z</time>
      </trkpt>
      <trkpt lat="45.05189" lon="5.91721">
        <ele>1906</ele>
        <time>2021-10-24T09:30:20Z</time>
      </trkpt>
      <trkpt lat="45.05193" lon="5.91723">
        <ele>1908</ele>
        <time>2021-10-24T09:30:26Z</time>
      </trkpt>
      <trkpt lat="45.05192" lon="5.91728">
        <ele>1908</ele>
        <time>2021-10-24T09:30:32Z</time>
      </trkpt>
      <trkpt lat="45.05194" lon="5.9173">
        <ele>1909</ele>
        <time>2021-10-24T09:30:38Z</time>
      </trkpt>
      <trkpt lat="45.05197" lon="5.91732">
        <ele>1911</ele>
        <time>2021-10-24T09:30:44Z</time>
      </trkpt>
      <trkpt lat="45.05199" lon="5.91737">
        <ele>1914</ele>
        <time>2021-10-24T09:30:50Z</time>
      </trkpt>
      <trkpt lat="45.05201" lon="5.9174">
        <ele>1915</ele>
        <time>2021-10-24T09:30:56Z</time>
      </trkpt>
      <trkpt lat="45.05204" lon="5.91742">
        <ele>1917</ele>
        <time>2021-10-24T09:31:01Z</time>
      </trkpt>
      <trkpt lat="45.05204" lon="5.91742">
        <ele>1917</ele>
        <time>2021-10-24T09:31:07Z</time>
      </trkpt>
      <trkpt lat="45.05202" lon="5.91745">
        <ele>1918</ele>
        <time>2021-10-24T09:31:12Z</time>
      </trkpt>
      <trkpt lat="45.05199" lon="5.91745">
        <ele>1920</ele>
        <time>2021-10-24T09:31:18Z</time>
      </trkpt>
      <trkpt lat="45.05198" lon="5.91745">
        <ele>1922</ele>
        <time>2021-10-24T09:31:24Z</time>
      </trkpt>
      <trkpt lat="45.05194" lon="5.91745">
        <ele>1919</ele>
        <time>2021-10-24T09:31:30Z</time>
      </trkpt>
      <trkpt lat="45.05193" lon="5.91749">
        <ele>1918</ele>
        <time>2021-10-24T09:31:35Z</time>
      </trkpt>
      <trkpt lat="45.05193" lon="5.91753">
        <ele>1920</ele>
        <time>2021-10-24T09:31:41Z</time>
      </trkpt>
      <trkpt lat="45.05193" lon="5.91756">
        <ele>1922</ele>
        <time>2021-10-24T09:31:46Z</time>
      </trkpt>
      <trkpt lat="45.05192" lon="5.91759">
        <ele>1923</ele>
        <time>2021-10-24T09:31:51Z</time>
      </trkpt>
      <trkpt lat="45.05195" lon="5.9176">
        <ele>1925</ele>
        <time>2021-10-24T09:31:57Z</time>
      </trkpt>
      <trkpt lat="45.05196" lon="5.91763">
        <ele>1925</ele>
        <time>2021-10-24T09:32:03Z</time>
      </trkpt>
      <trkpt lat="45.05199" lon="5.91764">
        <ele>1926</ele>
        <time>2021-10-24T09:32:09Z</time>
      </trkpt>
      <trkpt lat="45.052" lon="5.91767">
        <ele>1926</ele>
        <time>2021-10-24T09:32:14Z</time>
      </trkpt>
      <trkpt lat="45.052" lon="5.91769">
        <ele>1927</ele>
        <time>2021-10-24T09:32:19Z</time>
      </trkpt>
      <trkpt lat="45.052" lon="5.91769">
        <ele>1927</ele>
        <time>2021-10-24T09:32:25Z</time>
      </trkpt>
      <trkpt lat="45.05204" lon="5.91768">
        <ele>1925</ele>
        <time>2021-10-24T09:32:31Z</time>
      </trkpt>
      <trkpt lat="45.05204" lon="5.91768">
        <ele>1925</ele>
        <time>2021-10-24T09:32:37Z</time>
      </trkpt>
      <trkpt lat="45.05204" lon="5.91768">
        <ele>1925</ele>
        <time>2021-10-24T09:32:42Z</time>
      </trkpt>
      <trkpt lat="45.05204" lon="5.91768">
        <ele>1925</ele>
        <time>2021-10-24T09:32:48Z</time>
      </trkpt>
      <trkpt lat="45.05204" lon="5.91768">
        <ele>1925</ele>
        <time>2021-10-24T09:32:53Z</time>
      </trkpt>
      <trkpt lat="45.05204" lon="5.91768">
        <ele>1925</ele>
        <time>2021-10-24T09:32:58Z</time>
      </trkpt>
      <trkpt lat="45.05206" lon="5.91768">
        <ele>1925</ele>
        <time>2021-10-24T09:33:04Z</time>
      </trkpt>
      <trkpt lat="45.05206" lon="5.91768">
        <ele>1925</ele>
        <time>2021-10-24T09:33:10Z</time>
      </trkpt>
      <trkpt lat="45.05205" lon="5.91771">
        <ele>1926</ele>
        <time>2021-10-24T09:33:16Z</time>
      </trkpt>
      <trkpt lat="45.05204" lon="5.91771">
        <ele>1927</ele>
        <time>2021-10-24T09:33:21Z</time>
      </trkpt>
      <trkpt lat="45.05204" lon="5.91771">
        <ele>1927</ele>
        <time>2021-10-24T09:33:26Z</time>
      </trkpt>
      <trkpt lat="45.05204" lon="5.91771">
        <ele>1927</ele>
        <time>2021-10-24T09:33:32Z</time>
      </trkpt>
      <trkpt lat="45.05204" lon="5.91771">
        <ele>1927</ele>
        <time>2021-10-24T09:33:37Z</time>
      </trkpt>
      <trkpt lat="45.05204" lon="5.91775">
        <ele>1929</ele>
        <time>2021-10-24T09:33:43Z</time>
      </trkpt>
      <trkpt lat="45.05202" lon="5.91778">
        <ele>1928</ele>
        <time>2021-10-24T09:33:49Z</time>
      </trkpt>
      <trkpt lat="45.05201" lon="5.91781">
        <ele>1929</ele>
        <time>2021-10-24T09:33:54Z</time>
      </trkpt>
      <trkpt lat="45.05201" lon="5.91783">
        <ele>1933</ele>
        <time>2021-10-24T09:34:00Z</time>
      </trkpt>
      <trkpt lat="45.05199" lon="5.91785">
        <ele>1934</ele>
        <time>2021-10-24T09:34:06Z</time>
      </trkpt>
      <trkpt lat="45.05198" lon="5.91786">
        <ele>1934</ele>
        <time>2021-10-24T09:34:11Z</time>
      </trkpt>
      <trkpt lat="45.052" lon="5.9179">
        <ele>1936</ele>
        <time>2021-10-24T09:34:16Z</time>
      </trkpt>
      <trkpt lat="45.05199" lon="5.91792">
        <ele>1935</ele>
        <time>2021-10-24T09:34:22Z</time>
      </trkpt>
      <trkpt lat="45.05198" lon="5.91795">
        <ele>1935</ele>
        <time>2021-10-24T09:34:28Z</time>
      </trkpt>
      <trkpt lat="45.05199" lon="5.91799">
        <ele>1936</ele>
        <time>2021-10-24T09:34:34Z</time>
      </trkpt>
      <trkpt lat="45.05199" lon="5.91799">
        <ele>1936</ele>
        <time>2021-10-24T09:34:40Z</time>
      </trkpt>
      <trkpt lat="45.05199" lon="5.91799">
        <ele>1936</ele>
        <time>2021-10-24T09:34:45Z</time>
      </trkpt>
      <trkpt lat="45.052" lon="5.91805">
        <ele>1936</ele>
        <time>2021-10-24T09:34:51Z</time>
      </trkpt>
      <trkpt lat="45.052" lon="5.91809">
        <ele>1937</ele>
        <time>2021-10-24T09:34:56Z</time>
      </trkpt>
      <trkpt lat="45.052" lon="5.91814">
        <ele>1938</ele>
        <time>2021-10-24T09:35:02Z</time>
      </trkpt>
      <trkpt lat="45.05198" lon="5.91817">
        <ele>1939</ele>
        <time>2021-10-24T09:35:08Z</time>
      </trkpt>
      <trkpt lat="45.05198" lon="5.91819">
        <ele>1939</ele>
        <time>2021-10-24T09:35:13Z</time>
      </trkpt>
      <trkpt lat="45.05198" lon="5.91822">
        <ele>1941</ele>
        <time>2021-10-24T09:35:18Z</time>
      </trkpt>
      <trkpt lat="45.052" lon="5.91825">
        <ele>1943</ele>
        <time>2021-10-24T09:35:24Z</time>
      </trkpt>
      <trkpt lat="45.052" lon="5.91828">
        <ele>1945</ele>
        <time>2021-10-24T09:35:29Z</time>
      </trkpt>
      <trkpt lat="45.052" lon="5.91828">
        <ele>1945</ele>
        <time>2021-10-24T09:35:35Z</time>
      </trkpt>
      <trkpt lat="45.05199" lon="5.91832">
        <ele>1946</ele>
        <time>2021-10-24T09:35:41Z</time>
      </trkpt>
      <trkpt lat="45.05199" lon="5.91836">
        <ele>1947</ele>
        <time>2021-10-24T09:35:47Z</time>
      </trkpt>
      <trkpt lat="45.05197" lon="5.91839">
        <ele>1947</ele>
        <time>2021-10-24T09:35:52Z</time>
      </trkpt>
      <trkpt lat="45.05197" lon="5.91841">
        <ele>1947</ele>
        <time>2021-10-24T09:35:57Z</time>
      </trkpt>
      <trkpt lat="45.05197" lon="5.91845">
        <ele>1947</ele>
        <time>2021-10-24T09:36:03Z</time>
      </trkpt>
      <trkpt lat="45.05199" lon="5.9185">
        <ele>1950</ele>
        <time>2021-10-24T09:36:08Z</time>
      </trkpt>
      <trkpt lat="45.052" lon="5.91855">
        <ele>1950</ele>
        <time>2021-10-24T09:36:14Z</time>
      </trkpt>
      <trkpt lat="45.052" lon="5.91855">
        <ele>1950</ele>
        <time>2021-10-24T09:36:19Z</time>
      </trkpt>
      <trkpt lat="45.05201" lon="5.91859">
        <ele>1952</ele>
        <time>2021-10-24T09:36:24Z</time>
      </trkpt>
      <trkpt lat="45.05203" lon="5.91865">
        <ele>1952</ele>
        <time>2021-10-24T09:36:30Z</time>
      </trkpt>
      <trkpt lat="45.05204" lon="5.91871">
        <ele>1954</ele>
        <time>2021-10-24T09:36:36Z</time>
      </trkpt>
      <trkpt lat="45.05206" lon="5.91876">
        <ele>1954</ele>
        <time>2021-10-24T09:36:41Z</time>
      </trkpt>
      <trkpt lat="45.05207" lon="5.9188">
        <ele>1954</ele>
        <time>2021-10-24T09:36:46Z</time>
      </trkpt>
      <trkpt lat="45.05206" lon="5.91884">
        <ele>1954</ele>
        <time>2021-10-24T09:36:52Z</time>
      </trkpt>
      <trkpt lat="45.05206" lon="5.91887">
        <ele>1955</ele>
        <time>2021-10-24T09:36:58Z</time>
      </trkpt>
      <trkpt lat="45.05206" lon="5.9189">
        <ele>1956</ele>
        <time>2021-10-24T09:37:04Z</time>
      </trkpt>
      <trkpt lat="45.05206" lon="5.91894">
        <ele>1955</ele>
        <time>2021-10-24T09:37:09Z</time>
      </trkpt>
      <trkpt lat="45.05204" lon="5.91899">
        <ele>1956</ele>
        <time>2021-10-24T09:37:14Z</time>
      </trkpt>
      <trkpt lat="45.05203" lon="5.91903">
        <ele>1957</ele>
        <time>2021-10-24T09:37:20Z</time>
      </trkpt>
      <trkpt lat="45.05203" lon="5.91906">
        <ele>1957</ele>
        <time>2021-10-24T09:37:25Z</time>
      </trkpt>
      <trkpt lat="45.05205" lon="5.91909">
        <ele>1959</ele>
        <time>2021-10-24T09:37:31Z</time>
      </trkpt>
      <trkpt lat="45.05207" lon="5.91911">
        <ele>1961</ele>
        <time>2021-10-24T09:37:37Z</time>
      </trkpt>
      <trkpt lat="45.05207" lon="5.91912">
        <ele>1961</ele>
        <time>2021-10-24T09:37:42Z</time>
      </trkpt>
      <trkpt lat="45.05209" lon="5.91915">
        <ele>1964</ele>
        <time>2021-10-24T09:37:48Z</time>
      </trkpt>
      <trkpt lat="45.05211" lon="5.91918">
        <ele>1965</ele>
        <time>2021-10-24T09:37:54Z</time>
      </trkpt>
      <trkpt lat="45.0521" lon="5.9192">
        <ele>1967</ele>
        <time>2021-10-24T09:38:00Z</time>
      </trkpt>
      <trkpt lat="45.0521" lon="5.9192">
        <ele>1967</ele>
        <time>2021-10-24T09:38:05Z</time>
      </trkpt>
      <trkpt lat="45.0521" lon="5.91924">
        <ele>1968</ele>
        <time>2021-10-24T09:38:11Z</time>
      </trkpt>
      <trkpt lat="45.05212" lon="5.91925">
        <ele>1969</ele>
        <time>2021-10-24T09:38:17Z</time>
      </trkpt>
      <trkpt lat="45.05213" lon="5.91928">
        <ele>1971</ele>
        <time>2021-10-24T09:38:23Z</time>
      </trkpt>
      <trkpt lat="45.05213" lon="5.9193">
        <ele>1969</ele>
        <time>2021-10-24T09:38:28Z</time>
      </trkpt>
      <trkpt lat="45.05215" lon="5.91931">
        <ele>1970</ele>
        <time>2021-10-24T09:38:33Z</time>
      </trkpt>
      <trkpt lat="45.05218" lon="5.91933">
        <ele>1970</ele>
        <time>2021-10-24T09:38:39Z</time>
      </trkpt>
      <trkpt lat="45.05218" lon="5.91932">
        <ele>1971</ele>
        <time>2021-10-24T09:38:44Z</time>
      </trkpt>
      <trkpt lat="45.05219" lon="5.91934">
        <ele>1972</ele>
        <time>2021-10-24T09:38:50Z</time>
      </trkpt>
      <trkpt lat="45.0522" lon="5.91936">
        <ele>1972</ele>
        <time>2021-10-24T09:38:55Z</time>
      </trkpt>
      <trkpt lat="45.0522" lon="5.91938">
        <ele>1974</ele>
        <time>2021-10-24T09:39:01Z</time>
      </trkpt>
      <trkpt lat="45.0522" lon="5.91938">
        <ele>1974</ele>
        <time>2021-10-24T09:39:06Z</time>
      </trkpt>
      <trkpt lat="45.0522" lon="5.91938">
        <ele>1973</ele>
        <time>2021-10-24T09:39:12Z</time>
      </trkpt>
      <trkpt lat="45.05219" lon="5.91938">
        <ele>1974</ele>
        <time>2021-10-24T09:39:18Z</time>
      </trkpt>
      <trkpt lat="45.0522" lon="5.91935">
        <ele>1974</ele>
        <time>2021-10-24T09:39:24Z</time>
      </trkpt>
      <trkpt lat="45.0522" lon="5.91935">
        <ele>1974</ele>
        <time>2021-10-24T09:39:30Z</time>
      </trkpt>
      <trkpt lat="45.0522" lon="5.91938">
        <ele>1975</ele>
        <time>2021-10-24T09:39:36Z</time>
      </trkpt>
      <trkpt lat="45.0522" lon="5.91938">
        <ele>1975</ele>
        <time>2021-10-24T09:39:41Z</time>
      </trkpt>
      <trkpt lat="45.0522" lon="5.91938">
        <ele>1975</ele>
        <time>2021-10-24T09:39:47Z</time>
      </trkpt>
      <trkpt lat="45.0522" lon="5.91938">
        <ele>1975</ele>
        <time>2021-10-24T09:39:52Z</time>
      </trkpt>
      <trkpt lat="45.0522" lon="5.91938">
        <ele>1975</ele>
        <time>2021-10-24T09:39:58Z</time>
      </trkpt>
      <trkpt lat="45.05219" lon="5.91938">
        <ele>1973</ele>
        <time>2021-10-24T09:40:04Z</time>
      </trkpt>
      <trkpt lat="45.05219" lon="5.91938">
        <ele>1973</ele>
        <time>2021-10-24T09:40:09Z</time>
      </trkpt>
      <trkpt lat="45.05219" lon="5.91938">
        <ele>1973</ele>
        <time>2021-10-24T09:40:15Z</time>
      </trkpt>
      <trkpt lat="45.05217" lon="5.91939">
        <ele>1974</ele>
        <time>2021-10-24T09:40:20Z</time>
      </trkpt>
      <trkpt lat="45.05216" lon="5.91938">
        <ele>1974</ele>
        <time>2021-10-24T09:40:26Z</time>
      </trkpt>
      <trkpt lat="45.05217" lon="5.9194">
        <ele>1974</ele>
        <time>2021-10-24T09:40:31Z</time>
      </trkpt>
      <trkpt lat="45.0522" lon="5.91943">
        <ele>1976</ele>
        <time>2021-10-24T09:40:37Z</time>
      </trkpt>
      <trkpt lat="45.05223" lon="5.91946">
        <ele>1977</ele>
        <time>2021-10-24T09:40:43Z</time>
      </trkpt>
      <trkpt lat="45.05224" lon="5.91945">
        <ele>1977</ele>
        <time>2021-10-24T09:40:48Z</time>
      </trkpt>
      <trkpt lat="45.05225" lon="5.91948">
        <ele>1978</ele>
        <time>2021-10-24T09:40:54Z</time>
      </trkpt>
      <trkpt lat="45.05225" lon="5.91948">
        <ele>1978</ele>
        <time>2021-10-24T09:41:00Z</time>
      </trkpt>
      <trkpt lat="45.05226" lon="5.91951">
        <ele>1980</ele>
        <time>2021-10-24T09:41:05Z</time>
      </trkpt>
      <trkpt lat="45.05228" lon="5.91952">
        <ele>1980</ele>
        <time>2021-10-24T09:41:11Z</time>
      </trkpt>
      <trkpt lat="45.05228" lon="5.91953">
        <ele>1980</ele>
        <time>2021-10-24T09:41:17Z</time>
      </trkpt>
      <trkpt lat="45.0523" lon="5.91956">
        <ele>1981</ele>
        <time>2021-10-24T09:41:23Z</time>
      </trkpt>
      <trkpt lat="45.05233" lon="5.91959">
        <ele>1983</ele>
        <time>2021-10-24T09:41:29Z</time>
      </trkpt>
      <trkpt lat="45.05235" lon="5.91963">
        <ele>1983</ele>
        <time>2021-10-24T09:41:34Z</time>
      </trkpt>
      <trkpt lat="45.05233" lon="5.91965">
        <ele>1982</ele>
        <time>2021-10-24T09:41:40Z</time>
      </trkpt>
      <trkpt lat="45.05236" lon="5.91966">
        <ele>1983</ele>
        <time>2021-10-24T09:41:46Z</time>
      </trkpt>
      <trkpt lat="45.05237" lon="5.91967">
        <ele>1986</ele>
        <time>2021-10-24T09:41:51Z</time>
      </trkpt>
      <trkpt lat="45.05238" lon="5.91969">
        <ele>1984</ele>
        <time>2021-10-24T09:41:56Z</time>
      </trkpt>
      <trkpt lat="45.05238" lon="5.91969">
        <ele>1984</ele>
        <time>2021-10-24T09:42:02Z</time>
      </trkpt>
      <trkpt lat="45.05239" lon="5.9197">
        <ele>1987</ele>
        <time>2021-10-24T09:42:07Z</time>
      </trkpt>
      <trkpt lat="45.0524" lon="5.9197">
        <ele>1987</ele>
        <time>2021-10-24T09:42:13Z</time>
      </trkpt>
      <trkpt lat="45.05241" lon="5.9197">
        <ele>1986</ele>
        <time>2021-10-24T09:42:19Z</time>
      </trkpt>
      <trkpt lat="45.05243" lon="5.91974">
        <ele>1988</ele>
        <time>2021-10-24T09:42:24Z</time>
      </trkpt>
      <trkpt lat="45.05244" lon="5.91975">
        <ele>1988</ele>
        <time>2021-10-24T09:42:29Z</time>
      </trkpt>
      <trkpt lat="45.05245" lon="5.91979">
        <ele>1990</ele>
        <time>2021-10-24T09:42:34Z</time>
      </trkpt>
      <trkpt lat="45.05247" lon="5.91981">
        <ele>1992</ele>
        <time>2021-10-24T09:42:40Z</time>
      </trkpt>
      <trkpt lat="45.05248" lon="5.91983">
        <ele>1994</ele>
        <time>2021-10-24T09:42:46Z</time>
      </trkpt>
      <trkpt lat="45.05249" lon="5.91988">
        <ele>1995</ele>
        <time>2021-10-24T09:42:52Z</time>
      </trkpt>
      <trkpt lat="45.05247" lon="5.91991">
        <ele>1994</ele>
        <time>2021-10-24T09:42:58Z</time>
      </trkpt>
      <trkpt lat="45.05247" lon="5.91995">
        <ele>1993</ele>
        <time>2021-10-24T09:43:03Z</time>
      </trkpt>
      <trkpt lat="45.05248" lon="5.91999">
        <ele>1993</ele>
        <time>2021-10-24T09:43:08Z</time>
      </trkpt>
      <trkpt lat="45.05249" lon="5.92001">
        <ele>1995</ele>
        <time>2021-10-24T09:43:14Z</time>
      </trkpt>
      <trkpt lat="45.05251" lon="5.92005">
        <ele>1996</ele>
        <time>2021-10-24T09:43:20Z</time>
      </trkpt>
      <trkpt lat="45.05253" lon="5.92008">
        <ele>1998</ele>
        <time>2021-10-24T09:43:26Z</time>
      </trkpt>
      <trkpt lat="45.05252" lon="5.92011">
        <ele>1999</ele>
        <time>2021-10-24T09:43:31Z</time>
      </trkpt>
      <trkpt lat="45.0525" lon="5.92011">
        <ele>1999</ele>
        <time>2021-10-24T09:43:37Z</time>
      </trkpt>
      <trkpt lat="45.05248" lon="5.92011">
        <ele>2000</ele>
        <time>2021-10-24T09:43:43Z</time>
      </trkpt>
      <trkpt lat="45.05248" lon="5.92015">
        <ele>2001</ele>
        <time>2021-10-24T09:43:49Z</time>
      </trkpt>
      <trkpt lat="45.05248" lon="5.92017">
        <ele>2001</ele>
        <time>2021-10-24T09:43:55Z</time>
      </trkpt>
      <trkpt lat="45.05249" lon="5.92019">
        <ele>2004</ele>
        <time>2021-10-24T09:44:01Z</time>
      </trkpt>
      <trkpt lat="45.0525" lon="5.92022">
        <ele>2004</ele>
        <time>2021-10-24T09:44:06Z</time>
      </trkpt>
      <trkpt lat="45.0525" lon="5.92025">
        <ele>2005</ele>
        <time>2021-10-24T09:44:12Z</time>
      </trkpt>
      <trkpt lat="45.05252" lon="5.92029">
        <ele>2006</ele>
        <time>2021-10-24T09:44:18Z</time>
      </trkpt>
      <trkpt lat="45.05254" lon="5.92031">
        <ele>2006</ele>
        <time>2021-10-24T09:44:23Z</time>
      </trkpt>
      <trkpt lat="45.05257" lon="5.92034">
        <ele>2006</ele>
        <time>2021-10-24T09:44:29Z</time>
      </trkpt>
      <trkpt lat="45.05257" lon="5.92038">
        <ele>2006</ele>
        <time>2021-10-24T09:44:34Z</time>
      </trkpt>
      <trkpt lat="45.05258" lon="5.92041">
        <ele>2007</ele>
        <time>2021-10-24T09:44:40Z</time>
      </trkpt>
      <trkpt lat="45.05258" lon="5.92043">
        <ele>2006</ele>
        <time>2021-10-24T09:44:45Z</time>
      </trkpt>
      <trkpt lat="45.05261" lon="5.92044">
        <ele>2007</ele>
        <time>2021-10-24T09:44:51Z</time>
      </trkpt>
      <trkpt lat="45.05265" lon="5.92045">
        <ele>2008</ele>
        <time>2021-10-24T09:44:56Z</time>
      </trkpt>
      <trkpt lat="45.05268" lon="5.92048">
        <ele>2009</ele>
        <time>2021-10-24T09:45:02Z</time>
      </trkpt>
      <trkpt lat="45.05271" lon="5.92051">
        <ele>2010</ele>
        <time>2021-10-24T09:45:08Z</time>
      </trkpt>
      <trkpt lat="45.05271" lon="5.92052">
        <ele>2010</ele>
        <time>2021-10-24T09:45:13Z</time>
      </trkpt>
      <trkpt lat="45.05273" lon="5.92055">
        <ele>2012</ele>
        <time>2021-10-24T09:45:19Z</time>
      </trkpt>
      <trkpt lat="45.05274" lon="5.92059">
        <ele>2011</ele>
        <time>2021-10-24T09:45:25Z</time>
      </trkpt>
      <trkpt lat="45.05276" lon="5.9206">
        <ele>2012</ele>
        <time>2021-10-24T09:45:30Z</time>
      </trkpt>
      <trkpt lat="45.0528" lon="5.9206">
        <ele>2012</ele>
        <time>2021-10-24T09:45:35Z</time>
      </trkpt>
      <trkpt lat="45.05281" lon="5.92062">
        <ele>2015</ele>
        <time>2021-10-24T09:45:41Z</time>
      </trkpt>
      <trkpt lat="45.05281" lon="5.92063">
        <ele>2016</ele>
        <time>2021-10-24T09:45:47Z</time>
      </trkpt>
      <trkpt lat="45.05282" lon="5.92067">
        <ele>2017</ele>
        <time>2021-10-24T09:45:53Z</time>
      </trkpt>
      <trkpt lat="45.05282" lon="5.92071">
        <ele>2017</ele>
        <time>2021-10-24T09:45:59Z</time>
      </trkpt>
      <trkpt lat="45.05284" lon="5.92072">
        <ele>2016</ele>
        <time>2021-10-24T09:46:05Z</time>
      </trkpt>
      <trkpt lat="45.05286" lon="5.92073">
        <ele>2017</ele>
        <time>2021-10-24T09:46:10Z</time>
      </trkpt>
      <trkpt lat="45.0529" lon="5.92073">
        <ele>2017</ele>
        <time>2021-10-24T09:46:16Z</time>
      </trkpt>
      <trkpt lat="45.05294" lon="5.92074">
        <ele>2015</ele>
        <time>2021-10-24T09:46:22Z</time>
      </trkpt>
      <trkpt lat="45.05296" lon="5.92078">
        <ele>2018</ele>
        <time>2021-10-24T09:46:28Z</time>
      </trkpt>
      <trkpt lat="45.05299" lon="5.92079">
        <ele>2018</ele>
        <time>2021-10-24T09:46:33Z</time>
      </trkpt>
      <trkpt lat="45.05302" lon="5.92082">
        <ele>2018</ele>
        <time>2021-10-24T09:46:38Z</time>
      </trkpt>
      <trkpt lat="45.05303" lon="5.92086">
        <ele>2018</ele>
        <time>2021-10-24T09:46:44Z</time>
      </trkpt>
      <trkpt lat="45.05305" lon="5.92087">
        <ele>2021</ele>
        <time>2021-10-24T09:46:50Z</time>
      </trkpt>
      <trkpt lat="45.05308" lon="5.92092">
        <ele>2021</ele>
        <time>2021-10-24T09:46:56Z</time>
      </trkpt>
      <trkpt lat="45.05309" lon="5.92096">
        <ele>2022</ele>
        <time>2021-10-24T09:47:02Z</time>
      </trkpt>
      <trkpt lat="45.05311" lon="5.92097">
        <ele>2023</ele>
        <time>2021-10-24T09:47:08Z</time>
      </trkpt>
      <trkpt lat="45.05311" lon="5.92097">
        <ele>2023</ele>
        <time>2021-10-24T09:47:14Z</time>
      </trkpt>
      <trkpt lat="45.05313" lon="5.92103">
        <ele>2026</ele>
        <time>2021-10-24T09:47:20Z</time>
      </trkpt>
      <trkpt lat="45.05315" lon="5.92108">
        <ele>2027</ele>
        <time>2021-10-24T09:47:26Z</time>
      </trkpt>
      <trkpt lat="45.05317" lon="5.92112">
        <ele>2029</ele>
        <time>2021-10-24T09:47:32Z</time>
      </trkpt>
      <trkpt lat="45.05322" lon="5.92115">
        <ele>2031</ele>
        <time>2021-10-24T09:47:38Z</time>
      </trkpt>
      <trkpt lat="45.05325" lon="5.92116">
        <ele>2032</ele>
        <time>2021-10-24T09:47:43Z</time>
      </trkpt>
      <trkpt lat="45.05326" lon="5.92119">
        <ele>2032</ele>
        <time>2021-10-24T09:47:49Z</time>
      </trkpt>
      <trkpt lat="45.05327" lon="5.92122">
        <ele>2032</ele>
        <time>2021-10-24T09:47:54Z</time>
      </trkpt>
      <trkpt lat="45.05329" lon="5.92126">
        <ele>2032</ele>
        <time>2021-10-24T09:48:00Z</time>
      </trkpt>
      <trkpt lat="45.0533" lon="5.92129">
        <ele>2034</ele>
        <time>2021-10-24T09:48:06Z</time>
      </trkpt>
      <trkpt lat="45.05331" lon="5.92133">
        <ele>2033</ele>
        <time>2021-10-24T09:48:11Z</time>
      </trkpt>
      <trkpt lat="45.05332" lon="5.92134">
        <ele>2032</ele>
        <time>2021-10-24T09:48:16Z</time>
      </trkpt>
      <trkpt lat="45.05331" lon="5.92136">
        <ele>2034</ele>
        <time>2021-10-24T09:48:22Z</time>
      </trkpt>
      <trkpt lat="45.05333" lon="5.92138">
        <ele>2037</ele>
        <time>2021-10-24T09:48:28Z</time>
      </trkpt>
      <trkpt lat="45.05335" lon="5.9214">
        <ele>2038</ele>
        <time>2021-10-24T09:48:34Z</time>
      </trkpt>
      <trkpt lat="45.05336" lon="5.92142">
        <ele>2038</ele>
        <time>2021-10-24T09:48:39Z</time>
      </trkpt>
      <trkpt lat="45.0534" lon="5.92144">
        <ele>2039</ele>
        <time>2021-10-24T09:48:45Z</time>
      </trkpt>
      <trkpt lat="45.05342" lon="5.92146">
        <ele>2040</ele>
        <time>2021-10-24T09:48:50Z</time>
      </trkpt>
      <trkpt lat="45.05342" lon="5.92146">
        <ele>2040</ele>
        <time>2021-10-24T09:48:55Z</time>
      </trkpt>
      <trkpt lat="45.05343" lon="5.92149">
        <ele>2040</ele>
        <time>2021-10-24T09:49:01Z</time>
      </trkpt>
      <trkpt lat="45.05346" lon="5.92152">
        <ele>2041</ele>
        <time>2021-10-24T09:49:06Z</time>
      </trkpt>
      <trkpt lat="45.05351" lon="5.92153">
        <ele>2042</ele>
        <time>2021-10-24T09:49:12Z</time>
      </trkpt>
      <trkpt lat="45.05351" lon="5.92155">
        <ele>2042</ele>
        <time>2021-10-24T09:49:17Z</time>
      </trkpt>
      <trkpt lat="45.05353" lon="5.92158">
        <ele>2043</ele>
        <time>2021-10-24T09:49:23Z</time>
      </trkpt>
      <trkpt lat="45.05356" lon="5.92161">
        <ele>2042</ele>
        <time>2021-10-24T09:49:28Z</time>
      </trkpt>
      <trkpt lat="45.05358" lon="5.92164">
        <ele>2043</ele>
        <time>2021-10-24T09:49:34Z</time>
      </trkpt>
      <trkpt lat="45.05357" lon="5.92167">
        <ele>2044</ele>
        <time>2021-10-24T09:49:39Z</time>
      </trkpt>
      <trkpt lat="45.05358" lon="5.92166">
        <ele>2045</ele>
        <time>2021-10-24T09:49:45Z</time>
      </trkpt>
      <trkpt lat="45.0536" lon="5.92167">
        <ele>2046</ele>
        <time>2021-10-24T09:49:50Z</time>
      </trkpt>
      <trkpt lat="45.0536" lon="5.92167">
        <ele>2046</ele>
        <time>2021-10-24T09:49:56Z</time>
      </trkpt>
      <trkpt lat="45.0536" lon="5.92167">
        <ele>2046</ele>
        <time>2021-10-24T09:50:01Z</time>
      </trkpt>
      <trkpt lat="45.05359" lon="5.9217">
        <ele>2048</ele>
        <time>2021-10-24T09:50:06Z</time>
      </trkpt>
      <trkpt lat="45.05359" lon="5.9217">
        <ele>2048</ele>
        <time>2021-10-24T09:50:12Z</time>
      </trkpt>
      <trkpt lat="45.0536" lon="5.92169">
        <ele>2048</ele>
        <time>2021-10-24T09:50:18Z</time>
      </trkpt>
      <trkpt lat="45.0536" lon="5.92169">
        <ele>2048</ele>
        <time>2021-10-24T09:50:23Z</time>
      </trkpt>
      <trkpt lat="45.0536" lon="5.92169">
        <ele>2048</ele>
        <time>2021-10-24T09:50:29Z</time>
      </trkpt>
      <trkpt lat="45.0536" lon="5.92169">
        <ele>2048</ele>
        <time>2021-10-24T09:50:35Z</time>
      </trkpt>
      <trkpt lat="45.0536" lon="5.9217">
        <ele>2046</ele>
        <time>2021-10-24T09:50:41Z</time>
      </trkpt>
      <trkpt lat="45.0536" lon="5.92173">
        <ele>2046</ele>
        <time>2021-10-24T09:50:47Z</time>
      </trkpt>
      <trkpt lat="45.0536" lon="5.92173">
        <ele>2046</ele>
        <time>2021-10-24T09:50:52Z</time>
      </trkpt>
      <trkpt lat="45.05359" lon="5.92175">
        <ele>2048</ele>
        <time>2021-10-24T09:50:57Z</time>
      </trkpt>
      <trkpt lat="45.05359" lon="5.92175">
        <ele>2049</ele>
        <time>2021-10-24T09:51:02Z</time>
      </trkpt>
      <trkpt lat="45.05359" lon="5.92175">
        <ele>2049</ele>
        <time>2021-10-24T09:51:08Z</time>
      </trkpt>
      <trkpt lat="45.05359" lon="5.92175">
        <ele>2049</ele>
        <time>2021-10-24T09:51:14Z</time>
      </trkpt>
      <trkpt lat="45.05359" lon="5.92175">
        <ele>2049</ele>
        <time>2021-10-24T09:51:20Z</time>
      </trkpt>
      <trkpt lat="45.05359" lon="5.92175">
        <ele>2049</ele>
        <time>2021-10-24T09:51:25Z</time>
      </trkpt>
      <trkpt lat="45.05358" lon="5.92173">
        <ele>2050</ele>
        <time>2021-10-24T09:51:31Z</time>
      </trkpt>
      <trkpt lat="45.05358" lon="5.92173">
        <ele>2050</ele>
        <time>2021-10-24T09:51:37Z</time>
      </trkpt>
      <trkpt lat="45.05357" lon="5.92175">
        <ele>2051</ele>
        <time>2021-10-24T09:51:43Z</time>
      </trkpt>
      <trkpt lat="45.05355" lon="5.92178">
        <ele>2050</ele>
        <time>2021-10-24T09:51:48Z</time>
      </trkpt>
      <trkpt lat="45.0535" lon="5.92177">
        <ele>2051</ele>
        <time>2021-10-24T09:51:54Z</time>
      </trkpt>
      <trkpt lat="45.05346" lon="5.92178">
        <ele>2051</ele>
        <time>2021-10-24T09:52:00Z</time>
      </trkpt>
      <trkpt lat="45.05345" lon="5.92182">
        <ele>2052</ele>
        <time>2021-10-24T09:52:06Z</time>
      </trkpt>
      <trkpt lat="45.05343" lon="5.92181">
        <ele>2052</ele>
        <time>2021-10-24T09:52:12Z</time>
      </trkpt>
      <trkpt lat="45.0534" lon="5.92181">
        <ele>2054</ele>
        <time>2021-10-24T09:52:17Z</time>
      </trkpt>
      <trkpt lat="45.05337" lon="5.92182">
        <ele>2056</ele>
        <time>2021-10-24T09:52:22Z</time>
      </trkpt>
      <trkpt lat="45.05334" lon="5.92183">
        <ele>2057</ele>
        <time>2021-10-24T09:52:27Z</time>
      </trkpt>
      <trkpt lat="45.0533" lon="5.92185">
        <ele>2057</ele>
        <time>2021-10-24T09:52:33Z</time>
      </trkpt>
      <trkpt lat="45.05328" lon="5.92185">
        <ele>2058</ele>
        <time>2021-10-24T09:52:38Z</time>
      </trkpt>
      <trkpt lat="45.05327" lon="5.92186">
        <ele>2060</ele>
        <time>2021-10-24T09:52:43Z</time>
      </trkpt>
      <trkpt lat="45.05326" lon="5.92186">
        <ele>2061</ele>
        <time>2021-10-24T09:52:48Z</time>
      </trkpt>
      <trkpt lat="45.05323" lon="5.92186">
        <ele>2059</ele>
        <time>2021-10-24T09:52:53Z</time>
      </trkpt>
      <trkpt lat="45.0532" lon="5.92186">
        <ele>2061</ele>
        <time>2021-10-24T09:52:59Z</time>
      </trkpt>
      <trkpt lat="45.05317" lon="5.92187">
        <ele>2061</ele>
        <time>2021-10-24T09:53:05Z</time>
      </trkpt>
      <trkpt lat="45.05315" lon="5.92188">
        <ele>2062</ele>
        <time>2021-10-24T09:53:11Z</time>
      </trkpt>
      <trkpt lat="45.05312" lon="5.92188">
        <ele>2064</ele>
        <time>2021-10-24T09:53:17Z</time>
      </trkpt>
      <trkpt lat="45.05309" lon="5.92187">
        <ele>2065</ele>
        <time>2021-10-24T09:53:23Z</time>
      </trkpt>
      <trkpt lat="45.05306" lon="5.92186">
        <ele>2063</ele>
        <time>2021-10-24T09:53:28Z</time>
      </trkpt>
      <trkpt lat="45.05305" lon="5.92187">
        <ele>2065</ele>
        <time>2021-10-24T09:53:33Z</time>
      </trkpt>
      <trkpt lat="45.05303" lon="5.92188">
        <ele>2066</ele>
        <time>2021-10-24T09:53:38Z</time>
      </trkpt>
      <trkpt lat="45.05302" lon="5.92189">
        <ele>2066</ele>
        <time>2021-10-24T09:53:44Z</time>
      </trkpt>
      <trkpt lat="45.053" lon="5.92189">
        <ele>2066</ele>
        <time>2021-10-24T09:53:50Z</time>
      </trkpt>
      <trkpt lat="45.05298" lon="5.9219">
        <ele>2068</ele>
        <time>2021-10-24T09:53:55Z</time>
      </trkpt>
      <trkpt lat="45.05298" lon="5.9219">
        <ele>2069</ele>
        <time>2021-10-24T09:54:00Z</time>
      </trkpt>
      <trkpt lat="45.05295" lon="5.92191">
        <ele>2071</ele>
        <time>2021-10-24T09:54:06Z</time>
      </trkpt>
      <trkpt lat="45.05293" lon="5.92189">
        <ele>2074</ele>
        <time>2021-10-24T09:54:11Z</time>
      </trkpt>
      <trkpt lat="45.0529" lon="5.92189">
        <ele>2074</ele>
        <time>2021-10-24T09:54:16Z</time>
      </trkpt>
      <trkpt lat="45.0529" lon="5.92189">
        <ele>2075</ele>
        <time>2021-10-24T09:54:22Z</time>
      </trkpt>
      <trkpt lat="45.05287" lon="5.9219">
        <ele>2076</ele>
        <time>2021-10-24T09:54:27Z</time>
      </trkpt>
      <trkpt lat="45.05283" lon="5.92193">
        <ele>2076</ele>
        <time>2021-10-24T09:54:33Z</time>
      </trkpt>
      <trkpt lat="45.05281" lon="5.92193">
        <ele>2079</ele>
        <time>2021-10-24T09:54:39Z</time>
      </trkpt>
      <trkpt lat="45.05279" lon="5.92193">
        <ele>2079</ele>
        <time>2021-10-24T09:54:45Z</time>
      </trkpt>
      <trkpt lat="45.05277" lon="5.92192">
        <ele>2079</ele>
        <time>2021-10-24T09:54:50Z</time>
      </trkpt>
      <trkpt lat="45.05275" lon="5.92192">
        <ele>2080</ele>
        <time>2021-10-24T09:54:56Z</time>
      </trkpt>
      <trkpt lat="45.05272" lon="5.92194">
        <ele>2080</ele>
        <time>2021-10-24T09:55:02Z</time>
      </trkpt>
      <trkpt lat="45.05268" lon="5.92194">
        <ele>2081</ele>
        <time>2021-10-24T09:55:07Z</time>
      </trkpt>
      <trkpt lat="45.05266" lon="5.92197">
        <ele>2080</ele>
        <time>2021-10-24T09:55:12Z</time>
      </trkpt>
      <trkpt lat="45.05263" lon="5.92198">
        <ele>2081</ele>
        <time>2021-10-24T09:55:18Z</time>
      </trkpt>
      <trkpt lat="45.0526" lon="5.92197">
        <ele>2081</ele>
        <time>2021-10-24T09:55:24Z</time>
      </trkpt>
      <trkpt lat="45.05258" lon="5.92197">
        <ele>2082</ele>
        <time>2021-10-24T09:55:30Z</time>
      </trkpt>
      <trkpt lat="45.05255" lon="5.92198">
        <ele>2083</ele>
        <time>2021-10-24T09:55:35Z</time>
      </trkpt>
      <trkpt lat="45.05255" lon="5.92198">
        <ele>2083</ele>
        <time>2021-10-24T09:55:41Z</time>
      </trkpt>
      <trkpt lat="45.05255" lon="5.92198">
        <ele>2083</ele>
        <time>2021-10-24T09:55:46Z</time>
      </trkpt>
      <trkpt lat="45.05255" lon="5.92198">
        <ele>2083</ele>
        <time>2021-10-24T09:55:52Z</time>
      </trkpt>
      <trkpt lat="45.05252" lon="5.92198">
        <ele>2082</ele>
        <time>2021-10-24T09:55:57Z</time>
      </trkpt>
      <trkpt lat="45.05249" lon="5.92199">
        <ele>2084</ele>
        <time>2021-10-24T09:56:03Z</time>
      </trkpt>
      <trkpt lat="45.05245" lon="5.922">
        <ele>2085</ele>
        <time>2021-10-24T09:56:08Z</time>
      </trkpt>
      <trkpt lat="45.05243" lon="5.92201">
        <ele>2085</ele>
        <time>2021-10-24T09:56:14Z</time>
      </trkpt>
      <trkpt lat="45.0524" lon="5.92201">
        <ele>2086</ele>
        <time>2021-10-24T09:56:19Z</time>
      </trkpt>
      <trkpt lat="45.05237" lon="5.92202">
        <ele>2087</ele>
        <time>2021-10-24T09:56:25Z</time>
      </trkpt>
      <trkpt lat="45.05234" lon="5.92203">
        <ele>2088</ele>
        <time>2021-10-24T09:56:31Z</time>
      </trkpt>
      <trkpt lat="45.05233" lon="5.92203">
        <ele>2089</ele>
        <time>2021-10-24T09:56:36Z</time>
      </trkpt>
      <trkpt lat="45.0523" lon="5.92205">
        <ele>2090</ele>
        <time>2021-10-24T09:56:42Z</time>
      </trkpt>
      <trkpt lat="45.05229" lon="5.92207">
        <ele>2091</ele>
        <time>2021-10-24T09:56:48Z</time>
      </trkpt>
      <trkpt lat="45.05231" lon="5.92208">
        <ele>2092</ele>
        <time>2021-10-24T09:56:54Z</time>
      </trkpt>
      <trkpt lat="45.05231" lon="5.92209">
        <ele>2092</ele>
        <time>2021-10-24T09:56:59Z</time>
      </trkpt>
      <trkpt lat="45.05234" lon="5.92212">
        <ele>2092</ele>
        <time>2021-10-24T09:57:05Z</time>
      </trkpt>
      <trkpt lat="45.05236" lon="5.92215">
        <ele>2095</ele>
        <time>2021-10-24T09:57:10Z</time>
      </trkpt>
      <trkpt lat="45.05236" lon="5.92216">
        <ele>2096</ele>
        <time>2021-10-24T09:57:16Z</time>
      </trkpt>
      <trkpt lat="45.05236" lon="5.92216">
        <ele>2096</ele>
        <time>2021-10-24T09:57:22Z</time>
      </trkpt>
      <trkpt lat="45.05236" lon="5.92221">
        <ele>2100</ele>
        <time>2021-10-24T09:57:28Z</time>
      </trkpt>
      <trkpt lat="45.05237" lon="5.92226">
        <ele>2101</ele>
        <time>2021-10-24T09:57:34Z</time>
      </trkpt>
      <trkpt lat="45.05239" lon="5.92228">
        <ele>2104</ele>
        <time>2021-10-24T09:57:40Z</time>
      </trkpt>
      <trkpt lat="45.05239" lon="5.9223">
        <ele>2102</ele>
        <time>2021-10-24T09:57:45Z</time>
      </trkpt>
      <trkpt lat="45.0524" lon="5.92232">
        <ele>2103</ele>
        <time>2021-10-24T09:57:51Z</time>
      </trkpt>
      <trkpt lat="45.0524" lon="5.92235">
        <ele>2102</ele>
        <time>2021-10-24T09:57:57Z</time>
      </trkpt>
      <trkpt lat="45.05241" lon="5.92237">
        <ele>2104</ele>
        <time>2021-10-24T09:58:02Z</time>
      </trkpt>
      <trkpt lat="45.05242" lon="5.92237">
        <ele>2104</ele>
        <time>2021-10-24T09:58:08Z</time>
      </trkpt>
      <trkpt lat="45.05244" lon="5.92239">
        <ele>2103</ele>
        <time>2021-10-24T09:58:14Z</time>
      </trkpt>
      <trkpt lat="45.05247" lon="5.92239">
        <ele>2104</ele>
        <time>2021-10-24T09:58:20Z</time>
      </trkpt>
      <trkpt lat="45.0525" lon="5.92239">
        <ele>2104</ele>
        <time>2021-10-24T09:58:26Z</time>
      </trkpt>
      <trkpt lat="45.05253" lon="5.9224">
        <ele>2105</ele>
        <time>2021-10-24T09:58:31Z</time>
      </trkpt>
      <trkpt lat="45.05255" lon="5.92241">
        <ele>2107</ele>
        <time>2021-10-24T09:58:36Z</time>
      </trkpt>
      <trkpt lat="45.05258" lon="5.92242">
        <ele>2108</ele>
        <time>2021-10-24T09:58:42Z</time>
      </trkpt>
      <trkpt lat="45.05257" lon="5.92242">
        <ele>2107</ele>
        <time>2021-10-24T09:58:48Z</time>
      </trkpt>
      <trkpt lat="45.05258" lon="5.92244">
        <ele>2107</ele>
        <time>2021-10-24T09:58:54Z</time>
      </trkpt>
      <trkpt lat="45.05257" lon="5.92249">
        <ele>2109</ele>
        <time>2021-10-24T09:59:00Z</time>
      </trkpt>
      <trkpt lat="45.05256" lon="5.92255">
        <ele>2109</ele>
        <time>2021-10-24T09:59:06Z</time>
      </trkpt>
      <trkpt lat="45.05254" lon="5.9226">
        <ele>2110</ele>
        <time>2021-10-24T09:59:11Z</time>
      </trkpt>
      <trkpt lat="45.05253" lon="5.92267">
        <ele>2110</ele>
        <time>2021-10-24T09:59:17Z</time>
      </trkpt>
      <trkpt lat="45.05252" lon="5.92271">
        <ele>2112</ele>
        <time>2021-10-24T09:59:22Z</time>
      </trkpt>
      <trkpt lat="45.05251" lon="5.92278">
        <ele>2111</ele>
        <time>2021-10-24T09:59:28Z</time>
      </trkpt>
      <trkpt lat="45.05252" lon="5.92283">
        <ele>2111</ele>
        <time>2021-10-24T09:59:34Z</time>
      </trkpt>
      <trkpt lat="45.05252" lon="5.92288">
        <ele>2110</ele>
        <time>2021-10-24T09:59:39Z</time>
      </trkpt>
      <trkpt lat="45.05256" lon="5.9229">
        <ele>2112</ele>
        <time>2021-10-24T09:59:45Z</time>
      </trkpt>
      <trkpt lat="45.05257" lon="5.92294">
        <ele>2112</ele>
        <time>2021-10-24T09:59:51Z</time>
      </trkpt>
      <trkpt lat="45.05258" lon="5.92302">
        <ele>2112</ele>
        <time>2021-10-24T09:59:56Z</time>
      </trkpt>
      <trkpt lat="45.05259" lon="5.92309">
        <ele>2114</ele>
        <time>2021-10-24T10:00:02Z</time>
      </trkpt>
      <trkpt lat="45.05257" lon="5.92313">
        <ele>2117</ele>
        <time>2021-10-24T10:00:08Z</time>
      </trkpt>
      <trkpt lat="45.05255" lon="5.92318">
        <ele>2115</ele>
        <time>2021-10-24T10:00:14Z</time>
      </trkpt>
      <trkpt lat="45.05254" lon="5.92324">
        <ele>2115</ele>
        <time>2021-10-24T10:00:20Z</time>
      </trkpt>
      <trkpt lat="45.05253" lon="5.92331">
        <ele>2114</ele>
        <time>2021-10-24T10:00:26Z</time>
      </trkpt>
      <trkpt lat="45.05253" lon="5.92336">
        <ele>2113</ele>
        <time>2021-10-24T10:00:31Z</time>
      </trkpt>
      <trkpt lat="45.05254" lon="5.92341">
        <ele>2114</ele>
        <time>2021-10-24T10:00:36Z</time>
      </trkpt>
      <trkpt lat="45.05254" lon="5.92346">
        <ele>2116</ele>
        <time>2021-10-24T10:00:41Z</time>
      </trkpt>
      <trkpt lat="45.05255" lon="5.92352">
        <ele>2116</ele>
        <time>2021-10-24T10:00:47Z</time>
      </trkpt>
      <trkpt lat="45.05256" lon="5.92359">
        <ele>2116</ele>
        <time>2021-10-24T10:00:52Z</time>
      </trkpt>
      <trkpt lat="45.05258" lon="5.92366">
        <ele>2116</ele>
        <time>2021-10-24T10:00:58Z</time>
      </trkpt>
      <trkpt lat="45.05259" lon="5.92371">
        <ele>2115</ele>
        <time>2021-10-24T10:01:04Z</time>
      </trkpt>
      <trkpt lat="45.05261" lon="5.92374">
        <ele>2115</ele>
        <time>2021-10-24T10:01:09Z</time>
      </trkpt>
      <trkpt lat="45.05264" lon="5.92378">
        <ele>2115</ele>
        <time>2021-10-24T10:01:14Z</time>
      </trkpt>
      <trkpt lat="45.05266" lon="5.92382">
        <ele>2115</ele>
        <time>2021-10-24T10:01:20Z</time>
      </trkpt>
      <trkpt lat="45.05269" lon="5.92387">
        <ele>2115</ele>
        <time>2021-10-24T10:01:26Z</time>
      </trkpt>
      <trkpt lat="45.05272" lon="5.9239">
        <ele>2114</ele>
        <time>2021-10-24T10:01:31Z</time>
      </trkpt>
      <trkpt lat="45.05275" lon="5.92392">
        <ele>2116</ele>
        <time>2021-10-24T10:01:36Z</time>
      </trkpt>
      <trkpt lat="45.05279" lon="5.92393">
        <ele>2119</ele>
        <time>2021-10-24T10:01:42Z</time>
      </trkpt>
      <trkpt lat="45.05283" lon="5.92395">
        <ele>2119</ele>
        <time>2021-10-24T10:01:48Z</time>
      </trkpt>
      <trkpt lat="45.05287" lon="5.92397">
        <ele>2121</ele>
        <time>2021-10-24T10:01:53Z</time>
      </trkpt>
      <trkpt lat="45.05291" lon="5.924">
        <ele>2123</ele>
        <time>2021-10-24T10:01:59Z</time>
      </trkpt>
      <trkpt lat="45.05293" lon="5.92403">
        <ele>2123</ele>
        <time>2021-10-24T10:02:04Z</time>
      </trkpt>
      <trkpt lat="45.05297" lon="5.92405">
        <ele>2123</ele>
        <time>2021-10-24T10:02:10Z</time>
      </trkpt>
      <trkpt lat="45.05299" lon="5.92403">
        <ele>2124</ele>
        <time>2021-10-24T10:02:16Z</time>
      </trkpt>
      <trkpt lat="45.05299" lon="5.924">
        <ele>2126</ele>
        <time>2021-10-24T10:02:22Z</time>
      </trkpt>
      <trkpt lat="45.05301" lon="5.92397">
        <ele>2126</ele>
        <time>2021-10-24T10:02:27Z</time>
      </trkpt>
      <trkpt lat="45.05301" lon="5.92392">
        <ele>2126</ele>
        <time>2021-10-24T10:02:33Z</time>
      </trkpt>
      <trkpt lat="45.05302" lon="5.92388">
        <ele>2128</ele>
        <time>2021-10-24T10:02:39Z</time>
      </trkpt>
      <trkpt lat="45.05303" lon="5.92382">
        <ele>2127</ele>
        <time>2021-10-24T10:02:45Z</time>
      </trkpt>
      <trkpt lat="45.05301" lon="5.92382">
        <ele>2128</ele>
        <time>2021-10-24T10:02:51Z</time>
      </trkpt>
      <trkpt lat="45.05301" lon="5.92382">
        <ele>2128</ele>
        <time>2021-10-24T10:02:56Z</time>
      </trkpt>
      <trkpt lat="45.05301" lon="5.92379">
        <ele>2128</ele>
        <time>2021-10-24T10:03:02Z</time>
      </trkpt>
      <trkpt lat="45.05301" lon="5.92381">
        <ele>2127</ele>
        <time>2021-10-24T10:03:07Z</time>
      </trkpt>
      <trkpt lat="45.05301" lon="5.92381">
        <ele>2126</ele>
        <time>2021-10-24T10:03:13Z</time>
      </trkpt>
      <trkpt lat="45.05301" lon="5.92382">
        <ele>2127</ele>
        <time>2021-10-24T10:03:18Z</time>
      </trkpt>
      <trkpt lat="45.05301" lon="5.92382">
        <ele>2127</ele>
        <time>2021-10-24T10:03:24Z</time>
      </trkpt>
      <trkpt lat="45.05302" lon="5.92384">
        <ele>2129</ele>
        <time>2021-10-24T10:03:30Z</time>
      </trkpt>
      <trkpt lat="45.05302" lon="5.92384">
        <ele>2129</ele>
        <time>2021-10-24T10:03:35Z</time>
      </trkpt>
      <trkpt lat="45.05302" lon="5.92384">
        <ele>2129</ele>
        <time>2021-10-24T10:03:41Z</time>
      </trkpt>
      <trkpt lat="45.05302" lon="5.92384">
        <ele>2129</ele>
        <time>2021-10-24T10:03:47Z</time>
      </trkpt>
      <trkpt lat="45.05302" lon="5.92384">
        <ele>2129</ele>
        <time>2021-10-24T10:03:53Z</time>
      </trkpt>
      <trkpt lat="45.05302" lon="5.92384">
        <ele>2129</ele>
        <time>2021-10-24T10:03:58Z</time>
      </trkpt>
      <trkpt lat="45.05302" lon="5.92384">
        <ele>2129</ele>
        <time>2021-10-24T10:04:03Z</time>
      </trkpt>
      <trkpt lat="45.05302" lon="5.92384">
        <ele>2129</ele>
        <time>2021-10-24T10:04:09Z</time>
      </trkpt>
      <trkpt lat="45.05302" lon="5.92384">
        <ele>2129</ele>
        <time>2021-10-24T10:04:15Z</time>
      </trkpt>
      <trkpt lat="45.05302" lon="5.92384">
        <ele>2129</ele>
        <time>2021-10-24T10:04:20Z</time>
      </trkpt>
      <trkpt lat="45.05302" lon="5.92384">
        <ele>2129</ele>
        <time>2021-10-24T10:04:26Z</time>
      </trkpt>
      <trkpt lat="45.05302" lon="5.92384">
        <ele>2129</ele>
        <time>2021-10-24T10:04:31Z</time>
      </trkpt>
      <trkpt lat="45.05302" lon="5.92384">
        <ele>2129</ele>
        <time>2021-10-24T10:04:37Z</time>
      </trkpt>
      <trkpt lat="45.05302" lon="5.92384">
        <ele>2131</ele>
        <time>2021-10-24T10:04:43Z</time>
      </trkpt>
      <trkpt lat="45.05303" lon="5.92386">
        <ele>2132</ele>
        <time>2021-10-24T10:04:48Z</time>
      </trkpt>
      <trkpt lat="45.05303" lon="5.92386">
        <ele>2132</ele>
        <time>2021-10-24T10:04:54Z</time>
      </trkpt>
      <trkpt lat="45.05303" lon="5.92383">
        <ele>2130</ele>
        <time>2021-10-24T10:04:59Z</time>
      </trkpt>
      <trkpt lat="45.05302" lon="5.92381">
        <ele>2129</ele>
        <time>2021-10-24T10:05:05Z</time>
      </trkpt>
      <trkpt lat="45.05302" lon="5.92381">
        <ele>2129</ele>
        <time>2021-10-24T10:05:10Z</time>
      </trkpt>
      <trkpt lat="45.05302" lon="5.92381">
        <ele>2129</ele>
        <time>2021-10-24T10:05:16Z</time>
      </trkpt>
      <trkpt lat="45.05302" lon="5.92381">
        <ele>2129</ele>
        <time>2021-10-24T10:05:21Z</time>
      </trkpt>
      <trkpt lat="45.05302" lon="5.92381">
        <ele>2129</ele>
        <time>2021-10-24T10:05:27Z</time>
      </trkpt>
      <trkpt lat="45.05302" lon="5.92381">
        <ele>2129</ele>
        <time>2021-10-24T10:05:32Z</time>
      </trkpt>
      <trkpt lat="45.05302" lon="5.92381">
        <ele>2129</ele>
        <time>2021-10-24T10:05:37Z</time>
      </trkpt>
      <trkpt lat="45.05302" lon="5.9238">
        <ele>2129</ele>
        <time>2021-10-24T10:05:43Z</time>
      </trkpt>
      <trkpt lat="45.05302" lon="5.9238">
        <ele>2127</ele>
        <time>2021-10-24T10:05:49Z</time>
      </trkpt>
      <trkpt lat="45.05301" lon="5.92382">
        <ele>2126</ele>
        <time>2021-10-24T10:05:55Z</time>
      </trkpt>
      <trkpt lat="45.05302" lon="5.92385">
        <ele>2126</ele>
        <time>2021-10-24T10:06:00Z</time>
      </trkpt>
      <trkpt lat="45.05302" lon="5.9239">
        <ele>2126</ele>
        <time>2021-10-24T10:06:06Z</time>
      </trkpt>
      <trkpt lat="45.053" lon="5.92392">
        <ele>2125</ele>
        <time>2021-10-24T10:06:12Z</time>
      </trkpt>
      <trkpt lat="45.05299" lon="5.92397">
        <ele>2126</ele>
        <time>2021-10-24T10:06:18Z</time>
      </trkpt>
      <trkpt lat="45.05298" lon="5.92401">
        <ele>2127</ele>
        <time>2021-10-24T10:06:23Z</time>
      </trkpt>
      <trkpt lat="45.05298" lon="5.92405">
        <ele>2127</ele>
        <time>2021-10-24T10:06:29Z</time>
      </trkpt>
      <trkpt lat="45.05296" lon="5.9241">
        <ele>2128</ele>
        <time>2021-10-24T10:06:34Z</time>
      </trkpt>
      <trkpt lat="45.05293" lon="5.92413">
        <ele>2126</ele>
        <time>2021-10-24T10:06:39Z</time>
      </trkpt>
      <trkpt lat="45.0529" lon="5.92415">
        <ele>2124</ele>
        <time>2021-10-24T10:06:44Z</time>
      </trkpt>
      <trkpt lat="45.05287" lon="5.92421">
        <ele>2125</ele>
        <time>2021-10-24T10:06:50Z</time>
      </trkpt>
      <trkpt lat="45.05285" lon="5.92424">
        <ele>2124</ele>
        <time>2021-10-24T10:06:55Z</time>
      </trkpt>
      <trkpt lat="45.05285" lon="5.92426">
        <ele>2124</ele>
        <time>2021-10-24T10:07:01Z</time>
      </trkpt>
      <trkpt lat="45.05285" lon="5.92427">
        <ele>2124</ele>
        <time>2021-10-24T10:07:07Z</time>
      </trkpt>
      <trkpt lat="45.05286" lon="5.92427">
        <ele>2122</ele>
        <time>2021-10-24T10:07:13Z</time>
      </trkpt>
      <trkpt lat="45.05286" lon="5.92428">
        <ele>2122</ele>
        <time>2021-10-24T10:07:19Z</time>
      </trkpt>
      <trkpt lat="45.05286" lon="5.92428">
        <ele>2122</ele>
        <time>2021-10-24T10:07:24Z</time>
      </trkpt>
      <trkpt lat="45.05286" lon="5.9243">
        <ele>2127</ele>
        <time>2021-10-24T10:07:30Z</time>
      </trkpt>
      <trkpt lat="45.05287" lon="5.92429">
        <ele>2127</ele>
        <time>2021-10-24T10:07:35Z</time>
      </trkpt>
      <trkpt lat="45.05287" lon="5.92429">
        <ele>2127</ele>
        <time>2021-10-24T10:07:41Z</time>
      </trkpt>
      <trkpt lat="45.05287" lon="5.92429">
        <ele>2127</ele>
        <time>2021-10-24T10:07:47Z</time>
      </trkpt>
      <trkpt lat="45.05287" lon="5.92429">
        <ele>2127</ele>
        <time>2021-10-24T10:07:53Z</time>
      </trkpt>
      <trkpt lat="45.05287" lon="5.92429">
        <ele>2127</ele>
        <time>2021-10-24T10:07:59Z</time>
      </trkpt>
      <trkpt lat="45.05287" lon="5.92429">
        <ele>2127</ele>
        <time>2021-10-24T10:08:04Z</time>
      </trkpt>
      <trkpt lat="45.05287" lon="5.92429">
        <ele>2127</ele>
        <time>2021-10-24T10:08:09Z</time>
      </trkpt>
      <trkpt lat="45.05287" lon="5.92429">
        <ele>2127</ele>
        <time>2021-10-24T10:08:15Z</time>
      </trkpt>
      <trkpt lat="45.05286" lon="5.92428">
        <ele>2125</ele>
        <time>2021-10-24T10:08:21Z</time>
      </trkpt>
      <trkpt lat="45.05287" lon="5.92426">
        <ele>2125</ele>
        <time>2021-10-24T10:08:27Z</time>
      </trkpt>
      <trkpt lat="45.05286" lon="5.92427">
        <ele>2127</ele>
        <time>2021-10-24T10:08:33Z</time>
      </trkpt>
      <trkpt lat="45.05286" lon="5.92427">
        <ele>2127</ele>
        <time>2021-10-24T10:08:39Z</time>
      </trkpt>
      <trkpt lat="45.05286" lon="5.92427">
        <ele>2127</ele>
        <time>2021-10-24T10:08:45Z</time>
      </trkpt>
      <trkpt lat="45.05286" lon="5.92427">
        <ele>2127</ele>
        <time>2021-10-24T10:08:50Z</time>
      </trkpt>
      <trkpt lat="45.05286" lon="5.92427">
        <ele>2127</ele>
        <time>2021-10-24T10:08:56Z</time>
      </trkpt>
      <trkpt lat="45.05286" lon="5.92427">
        <ele>2127</ele>
        <time>2021-10-24T10:09:02Z</time>
      </trkpt>
      <trkpt lat="45.05286" lon="5.92427">
        <ele>2127</ele>
        <time>2021-10-24T10:09:08Z</time>
      </trkpt>
      <trkpt lat="45.05285" lon="5.92429">
        <ele>2126</ele>
        <time>2021-10-24T10:09:14Z</time>
      </trkpt>
      <trkpt lat="45.05285" lon="5.92429">
        <ele>2126</ele>
        <time>2021-10-24T10:09:19Z</time>
      </trkpt>
      <trkpt lat="45.05285" lon="5.92429">
        <ele>2126</ele>
        <time>2021-10-24T10:09:25Z</time>
      </trkpt>
      <trkpt lat="45.05285" lon="5.92429">
        <ele>2126</ele>
        <time>2021-10-24T10:09:31Z</time>
      </trkpt>
      <trkpt lat="45.05285" lon="5.92429">
        <ele>2126</ele>
        <time>2021-10-24T10:09:36Z</time>
      </trkpt>
      <trkpt lat="45.05285" lon="5.92429">
        <ele>2126</ele>
        <time>2021-10-24T10:09:42Z</time>
      </trkpt>
      <trkpt lat="45.05286" lon="5.92431">
        <ele>2126</ele>
        <time>2021-10-24T10:09:47Z</time>
      </trkpt>
      <trkpt lat="45.05286" lon="5.92431">
        <ele>2126</ele>
        <time>2021-10-24T10:09:52Z</time>
      </trkpt>
      <trkpt lat="45.05286" lon="5.92431">
        <ele>2126</ele>
        <time>2021-10-24T10:09:57Z</time>
      </trkpt>
      <trkpt lat="45.05286" lon="5.92431">
        <ele>2126</ele>
        <time>2021-10-24T10:10:03Z</time>
      </trkpt>
      <trkpt lat="45.05286" lon="5.92431">
        <ele>2126</ele>
        <time>2021-10-24T10:10:08Z</time>
      </trkpt>
      <trkpt lat="45.05286" lon="5.92431">
        <ele>2126</ele>
        <time>2021-10-24T10:10:13Z</time>
      </trkpt>
      <trkpt lat="45.05286" lon="5.92431">
        <ele>2126</ele>
        <time>2021-10-24T10:10:18Z</time>
      </trkpt>
      <trkpt lat="45.05286" lon="5.92431">
        <ele>2126</ele>
        <time>2021-10-24T10:10:23Z</time>
      </trkpt>
      <trkpt lat="45.05286" lon="5.92431">
        <ele>2126</ele>
        <time>2021-10-24T10:10:28Z</time>
      </trkpt>
      <trkpt lat="45.05286" lon="5.92431">
        <ele>2126</ele>
        <time>2021-10-24T10:10:34Z</time>
      </trkpt>
      <trkpt lat="45.05286" lon="5.92431">
        <ele>2126</ele>
        <time>2021-10-24T10:10:40Z</time>
      </trkpt>
      <trkpt lat="45.05288" lon="5.92429">
        <ele>2125</ele>
        <time>2021-10-24T10:10:45Z</time>
      </trkpt>
      <trkpt lat="45.05288" lon="5.92429">
        <ele>2124</ele>
        <time>2021-10-24T10:10:50Z</time>
      </trkpt>
      <trkpt lat="45.05288" lon="5.92429">
        <ele>2127</ele>
        <time>2021-10-24T10:10:55Z</time>
      </trkpt>
      <trkpt lat="45.05289" lon="5.92428">
        <ele>2126</ele>
        <time>2021-10-24T10:11:01Z</time>
      </trkpt>
      <trkpt lat="45.05288" lon="5.92429">
        <ele>2124</ele>
        <time>2021-10-24T10:11:07Z</time>
      </trkpt>
      <trkpt lat="45.05287" lon="5.92428">
        <ele>2123</ele>
        <time>2021-10-24T10:11:12Z</time>
      </trkpt>
      <trkpt lat="45.05288" lon="5.92429">
        <ele>2120</ele>
        <time>2021-10-24T10:11:18Z</time>
      </trkpt>
      <trkpt lat="45.05288" lon="5.92428">
        <ele>2119</ele>
        <time>2021-10-24T10:11:23Z</time>
      </trkpt>
      <trkpt lat="45.05288" lon="5.92428">
        <ele>2119</ele>
        <time>2021-10-24T10:11:29Z</time>
      </trkpt>
      <trkpt lat="45.05288" lon="5.92428">
        <ele>2119</ele>
        <time>2021-10-24T10:11:35Z</time>
      </trkpt>
      <trkpt lat="45.05288" lon="5.92428">
        <ele>2119</ele>
        <time>2021-10-24T10:11:41Z</time>
      </trkpt>
      <trkpt lat="45.05288" lon="5.92428">
        <ele>2119</ele>
        <time>2021-10-24T10:11:47Z</time>
      </trkpt>
      <trkpt lat="45.05288" lon="5.92428">
        <ele>2119</ele>
        <time>2021-10-24T10:11:53Z</time>
      </trkpt>
      <trkpt lat="45.05288" lon="5.92428">
        <ele>2119</ele>
        <time>2021-10-24T10:11:59Z</time>
      </trkpt>
      <trkpt lat="45.05288" lon="5.9243">
        <ele>2121</ele>
        <time>2021-10-24T10:12:05Z</time>
      </trkpt>
      <trkpt lat="45.05287" lon="5.9243">
        <ele>2122</ele>
        <time>2021-10-24T10:12:10Z</time>
      </trkpt>
      <trkpt lat="45.05287" lon="5.9243">
        <ele>2122</ele>
        <time>2021-10-24T10:12:16Z</time>
      </trkpt>
      <trkpt lat="45.05287" lon="5.9243">
        <ele>2122</ele>
        <time>2021-10-24T10:12:21Z</time>
      </trkpt>
      <trkpt lat="45.05286" lon="5.92428">
        <ele>2121</ele>
        <time>2021-10-24T10:12:26Z</time>
      </trkpt>
      <trkpt lat="45.05286" lon="5.92428">
        <ele>2120</ele>
        <time>2021-10-24T10:12:32Z</time>
      </trkpt>
      <trkpt lat="45.05286" lon="5.92428">
        <ele>2120</ele>
        <time>2021-10-24T10:12:38Z</time>
      </trkpt>
      <trkpt lat="45.05286" lon="5.92428">
        <ele>2120</ele>
        <time>2021-10-24T10:12:43Z</time>
      </trkpt>
      <trkpt lat="45.05286" lon="5.92428">
        <ele>2120</ele>
        <time>2021-10-24T10:12:49Z</time>
      </trkpt>
      <trkpt lat="45.05286" lon="5.92428">
        <ele>2120</ele>
        <time>2021-10-24T10:12:54Z</time>
      </trkpt>
      <trkpt lat="45.05286" lon="5.92428">
        <ele>2120</ele>
        <time>2021-10-24T10:12:59Z</time>
      </trkpt>
      <trkpt lat="45.05286" lon="5.92428">
        <ele>2120</ele>
        <time>2021-10-24T10:13:04Z</time>
      </trkpt>
      <trkpt lat="45.05286" lon="5.92428">
        <ele>2118</ele>
        <time>2021-10-24T10:13:10Z</time>
      </trkpt>
      <trkpt lat="45.05286" lon="5.92428">
        <ele>2118</ele>
        <time>2021-10-24T10:13:16Z</time>
      </trkpt>
      <trkpt lat="45.05286" lon="5.92428">
        <ele>2118</ele>
        <time>2021-10-24T10:13:22Z</time>
      </trkpt>
      <trkpt lat="45.05284" lon="5.92429">
        <ele>2117</ele>
        <time>2021-10-24T10:13:28Z</time>
      </trkpt>
      <trkpt lat="45.05284" lon="5.92429">
        <ele>2117</ele>
        <time>2021-10-24T10:13:34Z</time>
      </trkpt>
      <trkpt lat="45.05284" lon="5.92429">
        <ele>2117</ele>
        <time>2021-10-24T10:13:39Z</time>
      </trkpt>
      <trkpt lat="45.05284" lon="5.92429">
        <ele>2117</ele>
        <time>2021-10-24T10:13:45Z</time>
      </trkpt>
      <trkpt lat="45.05284" lon="5.92429">
        <ele>2117</ele>
        <time>2021-10-24T10:13:51Z</time>
      </trkpt>
      <trkpt lat="45.05284" lon="5.92429">
        <ele>2117</ele>
        <time>2021-10-24T10:13:57Z</time>
      </trkpt>
      <trkpt lat="45.05284" lon="5.92429">
        <ele>2117</ele>
        <time>2021-10-24T10:14:02Z</time>
      </trkpt>
      <trkpt lat="45.05284" lon="5.92431">
        <ele>2120</ele>
        <time>2021-10-24T10:14:08Z</time>
      </trkpt>
      <trkpt lat="45.05283" lon="5.92429">
        <ele>2123</ele>
        <time>2021-10-24T10:14:14Z</time>
      </trkpt>
      <trkpt lat="45.05284" lon="5.92431">
        <ele>2123</ele>
        <time>2021-10-24T10:14:19Z</time>
      </trkpt>
      <trkpt lat="45.05284" lon="5.9243">
        <ele>2123</ele>
        <time>2021-10-24T10:14:24Z</time>
      </trkpt>
      <trkpt lat="45.05284" lon="5.92429">
        <ele>2124</ele>
        <time>2021-10-24T10:14:30Z</time>
      </trkpt>
      <trkpt lat="45.05284" lon="5.92429">
        <ele>2124</ele>
        <time>2021-10-24T10:14:35Z</time>
      </trkpt>
      <trkpt lat="45.05284" lon="5.92429">
        <ele>2124</ele>
        <time>2021-10-24T10:14:41Z</time>
      </trkpt>
      <trkpt lat="45.05284" lon="5.92429">
        <ele>2124</ele>
        <time>2021-10-24T10:14:46Z</time>
      </trkpt>
      <trkpt lat="45.05284" lon="5.92429">
        <ele>2124</ele>
        <time>2021-10-24T10:14:51Z</time>
      </trkpt>
      <trkpt lat="45.05284" lon="5.92429">
        <ele>2124</ele>
        <time>2021-10-24T10:14:57Z</time>
      </trkpt>
      <trkpt lat="45.05284" lon="5.92429">
        <ele>2124</ele>
        <time>2021-10-24T10:15:02Z</time>
      </trkpt>
      <trkpt lat="45.05284" lon="5.92429">
        <ele>2124</ele>
        <time>2021-10-24T10:15:08Z</time>
      </trkpt>
      <trkpt lat="45.05284" lon="5.92429">
        <ele>2124</ele>
        <time>2021-10-24T10:15:13Z</time>
      </trkpt>
      <trkpt lat="45.05284" lon="5.92429">
        <ele>2124</ele>
        <time>2021-10-24T10:15:18Z</time>
      </trkpt>
      <trkpt lat="45.05284" lon="5.92429">
        <ele>2124</ele>
        <time>2021-10-24T10:15:24Z</time>
      </trkpt>
      <trkpt lat="45.05284" lon="5.92429">
        <ele>2124</ele>
        <time>2021-10-24T10:15:29Z</time>
      </trkpt>
      <trkpt lat="45.05284" lon="5.92428">
        <ele>2125</ele>
        <time>2021-10-24T10:15:35Z</time>
      </trkpt>
      <trkpt lat="45.05284" lon="5.92428">
        <ele>2125</ele>
        <time>2021-10-24T10:15:40Z</time>
      </trkpt>
      <trkpt lat="45.05284" lon="5.92428">
        <ele>2125</ele>
        <time>2021-10-24T10:15:46Z</time>
      </trkpt>
      <trkpt lat="45.05284" lon="5.92428">
        <ele>2125</ele>
        <time>2021-10-24T10:15:51Z</time>
      </trkpt>
      <trkpt lat="45.05284" lon="5.92428">
        <ele>2125</ele>
        <time>2021-10-24T10:15:56Z</time>
      </trkpt>
      <trkpt lat="45.05284" lon="5.92428">
        <ele>2125</ele>
        <time>2021-10-24T10:16:01Z</time>
      </trkpt>
      <trkpt lat="45.05282" lon="5.9243">
        <ele>2125</ele>
        <time>2021-10-24T10:16:07Z</time>
      </trkpt>
      <trkpt lat="45.05282" lon="5.9243">
        <ele>2125</ele>
        <time>2021-10-24T10:16:13Z</time>
      </trkpt>
      <trkpt lat="45.05282" lon="5.9243">
        <ele>2125</ele>
        <time>2021-10-24T10:16:18Z</time>
      </trkpt>
      <trkpt lat="45.05282" lon="5.9243">
        <ele>2125</ele>
        <time>2021-10-24T10:16:24Z</time>
      </trkpt>
      <trkpt lat="45.05283" lon="5.9243">
        <ele>2122</ele>
        <time>2021-10-24T10:16:30Z</time>
      </trkpt>
      <trkpt lat="45.05282" lon="5.92429">
        <ele>2124</ele>
        <time>2021-10-24T10:16:35Z</time>
      </trkpt>
      <trkpt lat="45.05282" lon="5.92429">
        <ele>2124</ele>
        <time>2021-10-24T10:16:40Z</time>
      </trkpt>
      <trkpt lat="45.05282" lon="5.92429">
        <ele>2124</ele>
        <time>2021-10-24T10:16:46Z</time>
      </trkpt>
      <trkpt lat="45.05282" lon="5.92428">
        <ele>2120</ele>
        <time>2021-10-24T10:16:51Z</time>
      </trkpt>
      <trkpt lat="45.05282" lon="5.92428">
        <ele>2120</ele>
        <time>2021-10-24T10:16:57Z</time>
      </trkpt>
      <trkpt lat="45.05282" lon="5.92428">
        <ele>2120</ele>
        <time>2021-10-24T10:17:02Z</time>
      </trkpt>
      <trkpt lat="45.05282" lon="5.92428">
        <ele>2120</ele>
        <time>2021-10-24T10:17:08Z</time>
      </trkpt>
      <trkpt lat="45.05282" lon="5.92428">
        <ele>2120</ele>
        <time>2021-10-24T10:17:13Z</time>
      </trkpt>
      <trkpt lat="45.05282" lon="5.92428">
        <ele>2120</ele>
        <time>2021-10-24T10:17:19Z</time>
      </trkpt>
      <trkpt lat="45.05282" lon="5.92428">
        <ele>2120</ele>
        <time>2021-10-24T10:17:24Z</time>
      </trkpt>
      <trkpt lat="45.05282" lon="5.92428">
        <ele>2120</ele>
        <time>2021-10-24T10:17:30Z</time>
      </trkpt>
      <trkpt lat="45.05282" lon="5.92428">
        <ele>2120</ele>
        <time>2021-10-24T10:17:35Z</time>
      </trkpt>
      <trkpt lat="45.05282" lon="5.92428">
        <ele>2120</ele>
        <time>2021-10-24T10:17:40Z</time>
      </trkpt>
      <trkpt lat="45.05283" lon="5.9243">
        <ele>2122</ele>
        <time>2021-10-24T10:17:46Z</time>
      </trkpt>
      <trkpt lat="45.05283" lon="5.9243">
        <ele>2122</ele>
        <time>2021-10-24T10:17:52Z</time>
      </trkpt>
      <trkpt lat="45.05283" lon="5.9243">
        <ele>2122</ele>
        <time>2021-10-24T10:17:57Z</time>
      </trkpt>
      <trkpt lat="45.05283" lon="5.9243">
        <ele>2122</ele>
        <time>2021-10-24T10:18:03Z</time>
      </trkpt>
      <trkpt lat="45.05285" lon="5.92429">
        <ele>2117</ele>
        <time>2021-10-24T10:18:09Z</time>
      </trkpt>
      <trkpt lat="45.05285" lon="5.92429">
        <ele>2117</ele>
        <time>2021-10-24T10:18:15Z</time>
      </trkpt>
      <trkpt lat="45.05284" lon="5.92428">
        <ele>2118</ele>
        <time>2021-10-24T10:18:21Z</time>
      </trkpt>
      <trkpt lat="45.05284" lon="5.92429">
        <ele>2116</ele>
        <time>2021-10-24T10:18:26Z</time>
      </trkpt>
      <trkpt lat="45.05284" lon="5.92429">
        <ele>2116</ele>
        <time>2021-10-24T10:18:32Z</time>
      </trkpt>
      <trkpt lat="45.05284" lon="5.92429">
        <ele>2116</ele>
        <time>2021-10-24T10:18:37Z</time>
      </trkpt>
      <trkpt lat="45.05284" lon="5.92429">
        <ele>2116</ele>
        <time>2021-10-24T10:18:43Z</time>
      </trkpt>
      <trkpt lat="45.05282" lon="5.92432">
        <ele>2119</ele>
        <time>2021-10-24T10:18:49Z</time>
      </trkpt>
      <trkpt lat="45.05282" lon="5.92433">
        <ele>2119</ele>
        <time>2021-10-24T10:18:54Z</time>
      </trkpt>
      <trkpt lat="45.05282" lon="5.92433">
        <ele>2119</ele>
        <time>2021-10-24T10:19:00Z</time>
      </trkpt>
      <trkpt lat="45.05282" lon="5.92433">
        <ele>2119</ele>
        <time>2021-10-24T10:19:05Z</time>
      </trkpt>
      <trkpt lat="45.05282" lon="5.92433">
        <ele>2119</ele>
        <time>2021-10-24T10:19:10Z</time>
      </trkpt>
      <trkpt lat="45.05282" lon="5.92433">
        <ele>2119</ele>
        <time>2021-10-24T10:19:16Z</time>
      </trkpt>
      <trkpt lat="45.05282" lon="5.92431">
        <ele>2121</ele>
        <time>2021-10-24T10:19:21Z</time>
      </trkpt>
      <trkpt lat="45.05282" lon="5.92431">
        <ele>2121</ele>
        <time>2021-10-24T10:19:27Z</time>
      </trkpt>
      <trkpt lat="45.05282" lon="5.92431">
        <ele>2123</ele>
        <time>2021-10-24T10:19:32Z</time>
      </trkpt>
      <trkpt lat="45.05282" lon="5.92431">
        <ele>2123</ele>
        <time>2021-10-24T10:19:38Z</time>
      </trkpt>
      <trkpt lat="45.05283" lon="5.9243">
        <ele>2122</ele>
        <time>2021-10-24T10:19:43Z</time>
      </trkpt>
      <trkpt lat="45.05284" lon="5.9243">
        <ele>2124</ele>
        <time>2021-10-24T10:19:49Z</time>
      </trkpt>
      <trkpt lat="45.05284" lon="5.92429">
        <ele>2125</ele>
        <time>2021-10-24T10:19:54Z</time>
      </trkpt>
      <trkpt lat="45.05285" lon="5.92429">
        <ele>2127</ele>
        <time>2021-10-24T10:20:00Z</time>
      </trkpt>
      <trkpt lat="45.05285" lon="5.92429">
        <ele>2127</ele>
        <time>2021-10-24T10:20:06Z</time>
      </trkpt>
      <trkpt lat="45.05284" lon="5.92431">
        <ele>2127</ele>
        <time>2021-10-24T10:20:12Z</time>
      </trkpt>
      <trkpt lat="45.05284" lon="5.92431">
        <ele>2127</ele>
        <time>2021-10-24T10:20:18Z</time>
      </trkpt>
      <trkpt lat="45.05284" lon="5.92431">
        <ele>2127</ele>
        <time>2021-10-24T10:20:23Z</time>
      </trkpt>
      <trkpt lat="45.05284" lon="5.92431">
        <ele>2127</ele>
        <time>2021-10-24T10:20:29Z</time>
      </trkpt>
      <trkpt lat="45.05284" lon="5.92431">
        <ele>2127</ele>
        <time>2021-10-24T10:20:35Z</time>
      </trkpt>
      <trkpt lat="45.05284" lon="5.92431">
        <ele>2127</ele>
        <time>2021-10-24T10:20:41Z</time>
      </trkpt>
      <trkpt lat="45.05284" lon="5.9243">
        <ele>2124</ele>
        <time>2021-10-24T10:20:47Z</time>
      </trkpt>
      <trkpt lat="45.05284" lon="5.92431">
        <ele>2120</ele>
        <time>2021-10-24T10:20:52Z</time>
      </trkpt>
      <trkpt lat="45.05284" lon="5.92431">
        <ele>2120</ele>
        <time>2021-10-24T10:20:57Z</time>
      </trkpt>
      <trkpt lat="45.05284" lon="5.92431">
        <ele>2120</ele>
        <time>2021-10-24T10:21:02Z</time>
      </trkpt>
      <trkpt lat="45.05284" lon="5.92431">
        <ele>2120</ele>
        <time>2021-10-24T10:21:08Z</time>
      </trkpt>
      <trkpt lat="45.05286" lon="5.92433">
        <ele>2120</ele>
        <time>2021-10-24T10:21:13Z</time>
      </trkpt>
      <trkpt lat="45.05288" lon="5.92434">
        <ele>2120</ele>
        <time>2021-10-24T10:21:18Z</time>
      </trkpt>
      <trkpt lat="45.05293" lon="5.92439">
        <ele>2121</ele>
        <time>2021-10-24T10:21:24Z</time>
      </trkpt>
      <trkpt lat="45.05296" lon="5.92442">
        <ele>2124</ele>
        <time>2021-10-24T10:21:30Z</time>
      </trkpt>
      <trkpt lat="45.05299" lon="5.92447">
        <ele>2124</ele>
        <time>2021-10-24T10:21:35Z</time>
      </trkpt>
      <trkpt lat="45.053" lon="5.92448">
        <ele>2124</ele>
        <time>2021-10-24T10:21:41Z</time>
      </trkpt>
      <trkpt lat="45.05303" lon="5.9245">
        <ele>2124</ele>
        <time>2021-10-24T10:21:46Z</time>
      </trkpt>
      <trkpt lat="45.05304" lon="5.9245">
        <ele>2124</ele>
        <time>2021-10-24T10:21:51Z</time>
      </trkpt>
      <trkpt lat="45.05304" lon="5.92456">
        <ele>2123</ele>
        <time>2021-10-24T10:21:57Z</time>
      </trkpt>
      <trkpt lat="45.05304" lon="5.9246">
        <ele>2122</ele>
        <time>2021-10-24T10:22:02Z</time>
      </trkpt>
      <trkpt lat="45.05305" lon="5.92468">
        <ele>2121</ele>
        <time>2021-10-24T10:22:07Z</time>
      </trkpt>
      <trkpt lat="45.05304" lon="5.92476">
        <ele>2121</ele>
        <time>2021-10-24T10:22:13Z</time>
      </trkpt>
      <trkpt lat="45.05302" lon="5.92483">
        <ele>2119</ele>
        <time>2021-10-24T10:22:18Z</time>
      </trkpt>
      <trkpt lat="45.05303" lon="5.92489">
        <ele>2118</ele>
        <time>2021-10-24T10:22:24Z</time>
      </trkpt>
      <trkpt lat="45.05302" lon="5.92494">
        <ele>2118</ele>
        <time>2021-10-24T10:22:29Z</time>
      </trkpt>
      <trkpt lat="45.053" lon="5.92502">
        <ele>2116</ele>
        <time>2021-10-24T10:22:35Z</time>
      </trkpt>
      <trkpt lat="45.05298" lon="5.9251">
        <ele>2116</ele>
        <time>2021-10-24T10:22:41Z</time>
      </trkpt>
      <trkpt lat="45.05295" lon="5.92517">
        <ele>2115</ele>
        <time>2021-10-24T10:22:46Z</time>
      </trkpt>
      <trkpt lat="45.05292" lon="5.92521">
        <ele>2115</ele>
        <time>2021-10-24T10:22:51Z</time>
      </trkpt>
      <trkpt lat="45.0529" lon="5.92529">
        <ele>2114</ele>
        <time>2021-10-24T10:22:57Z</time>
      </trkpt>
      <trkpt lat="45.05288" lon="5.92536">
        <ele>2113</ele>
        <time>2021-10-24T10:23:03Z</time>
      </trkpt>
      <trkpt lat="45.0529" lon="5.92542">
        <ele>2114</ele>
        <time>2021-10-24T10:23:08Z</time>
      </trkpt>
      <trkpt lat="45.05288" lon="5.92547">
        <ele>2115</ele>
        <time>2021-10-24T10:23:13Z</time>
      </trkpt>
      <trkpt lat="45.05287" lon="5.92555">
        <ele>2115</ele>
        <time>2021-10-24T10:23:19Z</time>
      </trkpt>
      <trkpt lat="45.05289" lon="5.92563">
        <ele>2115</ele>
        <time>2021-10-24T10:23:25Z</time>
      </trkpt>
      <trkpt lat="45.0529" lon="5.9257">
        <ele>2115</ele>
        <time>2021-10-24T10:23:31Z</time>
      </trkpt>
      <trkpt lat="45.05291" lon="5.92575">
        <ele>2114</ele>
        <time>2021-10-24T10:23:36Z</time>
      </trkpt>
      <trkpt lat="45.0529" lon="5.92582">
        <ele>2113</ele>
        <time>2021-10-24T10:23:42Z</time>
      </trkpt>
      <trkpt lat="45.05291" lon="5.92591">
        <ele>2114</ele>
        <time>2021-10-24T10:23:48Z</time>
      </trkpt>
      <trkpt lat="45.0529" lon="5.92598">
        <ele>2115</ele>
        <time>2021-10-24T10:23:53Z</time>
      </trkpt>
      <trkpt lat="45.05287" lon="5.926">
        <ele>2114</ele>
        <time>2021-10-24T10:23:59Z</time>
      </trkpt>
      <trkpt lat="45.05282" lon="5.92605">
        <ele>2115</ele>
        <time>2021-10-24T10:24:05Z</time>
      </trkpt>
      <trkpt lat="45.05277" lon="5.9261">
        <ele>2114</ele>
        <time>2021-10-24T10:24:10Z</time>
      </trkpt>
      <trkpt lat="45.05277" lon="5.92617">
        <ele>2114</ele>
        <time>2021-10-24T10:24:15Z</time>
      </trkpt>
      <trkpt lat="45.05278" lon="5.92624">
        <ele>2114</ele>
        <time>2021-10-24T10:24:21Z</time>
      </trkpt>
      <trkpt lat="45.05277" lon="5.92631">
        <ele>2114</ele>
        <time>2021-10-24T10:24:26Z</time>
      </trkpt>
      <trkpt lat="45.05278" lon="5.9264">
        <ele>2114</ele>
        <time>2021-10-24T10:24:32Z</time>
      </trkpt>
      <trkpt lat="45.05281" lon="5.9265">
        <ele>2114</ele>
        <time>2021-10-24T10:24:38Z</time>
      </trkpt>
      <trkpt lat="45.05285" lon="5.92656">
        <ele>2115</ele>
        <time>2021-10-24T10:24:44Z</time>
      </trkpt>
      <trkpt lat="45.05287" lon="5.92663">
        <ele>2115</ele>
        <time>2021-10-24T10:24:50Z</time>
      </trkpt>
      <trkpt lat="45.05288" lon="5.92668">
        <ele>2115</ele>
        <time>2021-10-24T10:24:55Z</time>
      </trkpt>
      <trkpt lat="45.0529" lon="5.92674">
        <ele>2114</ele>
        <time>2021-10-24T10:25:00Z</time>
      </trkpt>
      <trkpt lat="45.05292" lon="5.92681">
        <ele>2114</ele>
        <time>2021-10-24T10:25:06Z</time>
      </trkpt>
      <trkpt lat="45.05293" lon="5.92688">
        <ele>2115</ele>
        <time>2021-10-24T10:25:11Z</time>
      </trkpt>
      <trkpt lat="45.05296" lon="5.92693">
        <ele>2117</ele>
        <time>2021-10-24T10:25:17Z</time>
      </trkpt>
      <trkpt lat="45.05299" lon="5.92698">
        <ele>2117</ele>
        <time>2021-10-24T10:25:23Z</time>
      </trkpt>
      <trkpt lat="45.05302" lon="5.92708">
        <ele>2117</ele>
        <time>2021-10-24T10:25:29Z</time>
      </trkpt>
      <trkpt lat="45.05305" lon="5.92715">
        <ele>2116</ele>
        <time>2021-10-24T10:25:34Z</time>
      </trkpt>
      <trkpt lat="45.05308" lon="5.92723">
        <ele>2116</ele>
        <time>2021-10-24T10:25:40Z</time>
      </trkpt>
      <trkpt lat="45.05312" lon="5.92727">
        <ele>2115</ele>
        <time>2021-10-24T10:25:46Z</time>
      </trkpt>
      <trkpt lat="45.05314" lon="5.92734">
        <ele>2116</ele>
        <time>2021-10-24T10:25:51Z</time>
      </trkpt>
      <trkpt lat="45.05317" lon="5.9274">
        <ele>2114</ele>
        <time>2021-10-24T10:25:56Z</time>
      </trkpt>
      <trkpt lat="45.05321" lon="5.92746">
        <ele>2114</ele>
        <time>2021-10-24T10:26:02Z</time>
      </trkpt>
      <trkpt lat="45.05323" lon="5.92753">
        <ele>2114</ele>
        <time>2021-10-24T10:26:08Z</time>
      </trkpt>
      <trkpt lat="45.05326" lon="5.92758">
        <ele>2114</ele>
        <time>2021-10-24T10:26:14Z</time>
      </trkpt>
      <trkpt lat="45.05328" lon="5.92765">
        <ele>2115</ele>
        <time>2021-10-24T10:26:20Z</time>
      </trkpt>
      <trkpt lat="45.0533" lon="5.92774">
        <ele>2117</ele>
        <time>2021-10-24T10:26:26Z</time>
      </trkpt>
      <trkpt lat="45.05332" lon="5.9278">
        <ele>2116</ele>
        <time>2021-10-24T10:26:31Z</time>
      </trkpt>
      <trkpt lat="45.05335" lon="5.92785">
        <ele>2116</ele>
        <time>2021-10-24T10:26:37Z</time>
      </trkpt>
      <trkpt lat="45.05337" lon="5.92792">
        <ele>2116</ele>
        <time>2021-10-24T10:26:43Z</time>
      </trkpt>
      <trkpt lat="45.05336" lon="5.92799">
        <ele>2115</ele>
        <time>2021-10-24T10:26:48Z</time>
      </trkpt>
      <trkpt lat="45.05338" lon="5.92805">
        <ele>2115</ele>
        <time>2021-10-24T10:26:53Z</time>
      </trkpt>
      <trkpt lat="45.05339" lon="5.9281">
        <ele>2115</ele>
        <time>2021-10-24T10:26:59Z</time>
      </trkpt>
      <trkpt lat="45.0534" lon="5.92815">
        <ele>2117</ele>
        <time>2021-10-24T10:27:04Z</time>
      </trkpt>
      <trkpt lat="45.05342" lon="5.92818">
        <ele>2118</ele>
        <time>2021-10-24T10:27:09Z</time>
      </trkpt>
      <trkpt lat="45.05344" lon="5.92822">
        <ele>2120</ele>
        <time>2021-10-24T10:27:15Z</time>
      </trkpt>
      <trkpt lat="45.05345" lon="5.92828">
        <ele>2120</ele>
        <time>2021-10-24T10:27:20Z</time>
      </trkpt>
      <trkpt lat="45.05344" lon="5.92835">
        <ele>2122</ele>
        <time>2021-10-24T10:27:25Z</time>
      </trkpt>
      <trkpt lat="45.05343" lon="5.92837">
        <ele>2121</ele>
        <time>2021-10-24T10:27:30Z</time>
      </trkpt>
      <trkpt lat="45.05343" lon="5.92841">
        <ele>2124</ele>
        <time>2021-10-24T10:27:36Z</time>
      </trkpt>
      <trkpt lat="45.05344" lon="5.92845">
        <ele>2125</ele>
        <time>2021-10-24T10:27:42Z</time>
      </trkpt>
      <trkpt lat="45.05347" lon="5.92851">
        <ele>2127</ele>
        <time>2021-10-24T10:27:48Z</time>
      </trkpt>
      <trkpt lat="45.0535" lon="5.92853">
        <ele>2126</ele>
        <time>2021-10-24T10:27:53Z</time>
      </trkpt>
      <trkpt lat="45.05354" lon="5.92857">
        <ele>2127</ele>
        <time>2021-10-24T10:27:59Z</time>
      </trkpt>
      <trkpt lat="45.05357" lon="5.92861">
        <ele>2127</ele>
        <time>2021-10-24T10:28:04Z</time>
      </trkpt>
      <trkpt lat="45.05358" lon="5.92869">
        <ele>2126</ele>
        <time>2021-10-24T10:28:10Z</time>
      </trkpt>
      <trkpt lat="45.05357" lon="5.92869">
        <ele>2126</ele>
        <time>2021-10-24T10:28:15Z</time>
      </trkpt>
      <trkpt lat="45.05359" lon="5.9287">
        <ele>2124</ele>
        <time>2021-10-24T10:28:20Z</time>
      </trkpt>
      <trkpt lat="45.05361" lon="5.92878">
        <ele>2125</ele>
        <time>2021-10-24T10:28:26Z</time>
      </trkpt>
      <trkpt lat="45.05363" lon="5.92886">
        <ele>2125</ele>
        <time>2021-10-24T10:28:31Z</time>
      </trkpt>
      <trkpt lat="45.05362" lon="5.92891">
        <ele>2125</ele>
        <time>2021-10-24T10:28:36Z</time>
      </trkpt>
      <trkpt lat="45.05362" lon="5.92898">
        <ele>2124</ele>
        <time>2021-10-24T10:28:42Z</time>
      </trkpt>
      <trkpt lat="45.05365" lon="5.92903">
        <ele>2123</ele>
        <time>2021-10-24T10:28:47Z</time>
      </trkpt>
      <trkpt lat="45.05369" lon="5.92906">
        <ele>2123</ele>
        <time>2021-10-24T10:28:53Z</time>
      </trkpt>
      <trkpt lat="45.05373" lon="5.9291">
        <ele>2123</ele>
        <time>2021-10-24T10:28:59Z</time>
      </trkpt>
      <trkpt lat="45.05378" lon="5.92913">
        <ele>2125</ele>
        <time>2021-10-24T10:29:04Z</time>
      </trkpt>
      <trkpt lat="45.05383" lon="5.92915">
        <ele>2124</ele>
        <time>2021-10-24T10:29:10Z</time>
      </trkpt>
      <trkpt lat="45.05386" lon="5.9292">
        <ele>2123</ele>
        <time>2021-10-24T10:29:15Z</time>
      </trkpt>
      <trkpt lat="45.05389" lon="5.92925">
        <ele>2124</ele>
        <time>2021-10-24T10:29:21Z</time>
      </trkpt>
      <trkpt lat="45.05391" lon="5.92928">
        <ele>2124</ele>
        <time>2021-10-24T10:29:26Z</time>
      </trkpt>
      <trkpt lat="45.05389" lon="5.92934">
        <ele>2123</ele>
        <time>2021-10-24T10:29:32Z</time>
      </trkpt>
      <trkpt lat="45.05386" lon="5.92942">
        <ele>2124</ele>
        <time>2021-10-24T10:29:38Z</time>
      </trkpt>
      <trkpt lat="45.05383" lon="5.92947">
        <ele>2124</ele>
        <time>2021-10-24T10:29:43Z</time>
      </trkpt>
      <trkpt lat="45.0538" lon="5.92951">
        <ele>2122</ele>
        <time>2021-10-24T10:29:49Z</time>
      </trkpt>
      <trkpt lat="45.05376" lon="5.92958">
        <ele>2122</ele>
        <time>2021-10-24T10:29:55Z</time>
      </trkpt>
      <trkpt lat="45.05378" lon="5.92964">
        <ele>2122</ele>
        <time>2021-10-24T10:30:01Z</time>
      </trkpt>
      <trkpt lat="45.05381" lon="5.92967">
        <ele>2124</ele>
        <time>2021-10-24T10:30:06Z</time>
      </trkpt>
      <trkpt lat="45.05383" lon="5.92971">
        <ele>2124</ele>
        <time>2021-10-24T10:30:11Z</time>
      </trkpt>
      <trkpt lat="45.05386" lon="5.92975">
        <ele>2125</ele>
        <time>2021-10-24T10:30:17Z</time>
      </trkpt>
      <trkpt lat="45.05387" lon="5.92978">
        <ele>2126</ele>
        <time>2021-10-24T10:30:22Z</time>
      </trkpt>
      <trkpt lat="45.05389" lon="5.92981">
        <ele>2127</ele>
        <time>2021-10-24T10:30:28Z</time>
      </trkpt>
      <trkpt lat="45.05389" lon="5.92981">
        <ele>2127</ele>
        <time>2021-10-24T10:30:33Z</time>
      </trkpt>
      <trkpt lat="45.05391" lon="5.92983">
        <ele>2128</ele>
        <time>2021-10-24T10:30:39Z</time>
      </trkpt>
      <trkpt lat="45.05392" lon="5.92984">
        <ele>2127</ele>
        <time>2021-10-24T10:30:45Z</time>
      </trkpt>
      <trkpt lat="45.05395" lon="5.92988">
        <ele>2127</ele>
        <time>2021-10-24T10:30:50Z</time>
      </trkpt>
      <trkpt lat="45.05397" lon="5.92989">
        <ele>2126</ele>
        <time>2021-10-24T10:30:56Z</time>
      </trkpt>
      <trkpt lat="45.05397" lon="5.92989">
        <ele>2126</ele>
        <time>2021-10-24T10:31:01Z</time>
      </trkpt>
      <trkpt lat="45.05397" lon="5.92989">
        <ele>2126</ele>
        <time>2021-10-24T10:31:07Z</time>
      </trkpt>
      <trkpt lat="45.05398" lon="5.92991">
        <ele>2126</ele>
        <time>2021-10-24T10:31:13Z</time>
      </trkpt>
      <trkpt lat="45.05399" lon="5.92991">
        <ele>2129</ele>
        <time>2021-10-24T10:31:18Z</time>
      </trkpt>
      <trkpt lat="45.05401" lon="5.92992">
        <ele>2130</ele>
        <time>2021-10-24T10:31:24Z</time>
      </trkpt>
      <trkpt lat="45.05401" lon="5.92992">
        <ele>2130</ele>
        <time>2021-10-24T10:31:30Z</time>
      </trkpt>
      <trkpt lat="45.05401" lon="5.92993">
        <ele>2135</ele>
        <time>2021-10-24T10:31:35Z</time>
      </trkpt>
      <trkpt lat="45.05402" lon="5.92993">
        <ele>2135</ele>
        <time>2021-10-24T10:31:41Z</time>
      </trkpt>
      <trkpt lat="45.05408" lon="5.92993">
        <ele>2137</ele>
        <time>2021-10-24T10:31:47Z</time>
      </trkpt>
      <trkpt lat="45.05408" lon="5.92996">
        <ele>2139</ele>
        <time>2021-10-24T10:31:53Z</time>
      </trkpt>
      <trkpt lat="45.0541" lon="5.92999">
        <ele>2138</ele>
        <time>2021-10-24T10:31:59Z</time>
      </trkpt>
      <trkpt lat="45.05412" lon="5.93002">
        <ele>2138</ele>
        <time>2021-10-24T10:32:05Z</time>
      </trkpt>
      <trkpt lat="45.05416" lon="5.93005">
        <ele>2139</ele>
        <time>2021-10-24T10:32:10Z</time>
      </trkpt>
      <trkpt lat="45.05421" lon="5.93009">
        <ele>2142</ele>
        <time>2021-10-24T10:32:16Z</time>
      </trkpt>
      <trkpt lat="45.05423" lon="5.93014">
        <ele>2142</ele>
        <time>2021-10-24T10:32:22Z</time>
      </trkpt>
      <trkpt lat="45.05427" lon="5.93019">
        <ele>2145</ele>
        <time>2021-10-24T10:32:28Z</time>
      </trkpt>
      <trkpt lat="45.05429" lon="5.93022">
        <ele>2148</ele>
        <time>2021-10-24T10:32:34Z</time>
      </trkpt>
      <trkpt lat="45.0543" lon="5.93023">
        <ele>2148</ele>
        <time>2021-10-24T10:32:40Z</time>
      </trkpt>
      <trkpt lat="45.0543" lon="5.93025">
        <ele>2149</ele>
        <time>2021-10-24T10:32:46Z</time>
      </trkpt>
      <trkpt lat="45.05435" lon="5.93029">
        <ele>2151</ele>
        <time>2021-10-24T10:32:52Z</time>
      </trkpt>
      <trkpt lat="45.05438" lon="5.93032">
        <ele>2153</ele>
        <time>2021-10-24T10:32:58Z</time>
      </trkpt>
      <trkpt lat="45.05439" lon="5.93035">
        <ele>2152</ele>
        <time>2021-10-24T10:33:03Z</time>
      </trkpt>
      <trkpt lat="45.05442" lon="5.93039">
        <ele>2153</ele>
        <time>2021-10-24T10:33:09Z</time>
      </trkpt>
      <trkpt lat="45.05446" lon="5.9304">
        <ele>2153</ele>
        <time>2021-10-24T10:33:15Z</time>
      </trkpt>
      <trkpt lat="45.05448" lon="5.93042">
        <ele>2151</ele>
        <time>2021-10-24T10:33:21Z</time>
      </trkpt>
      <trkpt lat="45.0545" lon="5.93044">
        <ele>2153</ele>
        <time>2021-10-24T10:33:26Z</time>
      </trkpt>
      <trkpt lat="45.05452" lon="5.93048">
        <ele>2152</ele>
        <time>2021-10-24T10:33:32Z</time>
      </trkpt>
      <trkpt lat="45.05453" lon="5.93049">
        <ele>2153</ele>
        <time>2021-10-24T10:33:37Z</time>
      </trkpt>
      <trkpt lat="45.05453" lon="5.9305">
        <ele>2152</ele>
        <time>2021-10-24T10:33:43Z</time>
      </trkpt>
      <trkpt lat="45.05451" lon="5.93052">
        <ele>2151</ele>
        <time>2021-10-24T10:33:49Z</time>
      </trkpt>
      <trkpt lat="45.05454" lon="5.93054">
        <ele>2150</ele>
        <time>2021-10-24T10:33:54Z</time>
      </trkpt>
      <trkpt lat="45.05458" lon="5.93055">
        <ele>2152</ele>
        <time>2021-10-24T10:34:00Z</time>
      </trkpt>
      <trkpt lat="45.05461" lon="5.93059">
        <ele>2154</ele>
        <time>2021-10-24T10:34:06Z</time>
      </trkpt>
      <trkpt lat="45.05463" lon="5.93062">
        <ele>2157</ele>
        <time>2021-10-24T10:34:12Z</time>
      </trkpt>
      <trkpt lat="45.05464" lon="5.93066">
        <ele>2159</ele>
        <time>2021-10-24T10:34:18Z</time>
      </trkpt>
      <trkpt lat="45.05466" lon="5.93071">
        <ele>2159</ele>
        <time>2021-10-24T10:34:23Z</time>
      </trkpt>
      <trkpt lat="45.05468" lon="5.93076">
        <ele>2159</ele>
        <time>2021-10-24T10:34:28Z</time>
      </trkpt>
      <trkpt lat="45.05467" lon="5.9308">
        <ele>2160</ele>
        <time>2021-10-24T10:34:34Z</time>
      </trkpt>
      <trkpt lat="45.05469" lon="5.93082">
        <ele>2158</ele>
        <time>2021-10-24T10:34:40Z</time>
      </trkpt>
      <trkpt lat="45.0547" lon="5.93088">
        <ele>2158</ele>
        <time>2021-10-24T10:34:45Z</time>
      </trkpt>
      <trkpt lat="45.05472" lon="5.93095">
        <ele>2155</ele>
        <time>2021-10-24T10:34:51Z</time>
      </trkpt>
      <trkpt lat="45.05474" lon="5.93099">
        <ele>2157</ele>
        <time>2021-10-24T10:34:57Z</time>
      </trkpt>
      <trkpt lat="45.05477" lon="5.93103">
        <ele>2156</ele>
        <time>2021-10-24T10:35:02Z</time>
      </trkpt>
      <trkpt lat="45.0548" lon="5.93106">
        <ele>2157</ele>
        <time>2021-10-24T10:35:08Z</time>
      </trkpt>
      <trkpt lat="45.05483" lon="5.93109">
        <ele>2158</ele>
        <time>2021-10-24T10:35:13Z</time>
      </trkpt>
      <trkpt lat="45.05486" lon="5.93113">
        <ele>2159</ele>
        <time>2021-10-24T10:35:19Z</time>
      </trkpt>
      <trkpt lat="45.05488" lon="5.93115">
        <ele>2160</ele>
        <time>2021-10-24T10:35:24Z</time>
      </trkpt>
      <trkpt lat="45.0549" lon="5.9312">
        <ele>2160</ele>
        <time>2021-10-24T10:35:29Z</time>
      </trkpt>
      <trkpt lat="45.05491" lon="5.93121">
        <ele>2161</ele>
        <time>2021-10-24T10:35:34Z</time>
      </trkpt>
      <trkpt lat="45.05494" lon="5.93126">
        <ele>2160</ele>
        <time>2021-10-24T10:35:40Z</time>
      </trkpt>
      <trkpt lat="45.05495" lon="5.93131">
        <ele>2161</ele>
        <time>2021-10-24T10:35:46Z</time>
      </trkpt>
      <trkpt lat="45.05496" lon="5.93133">
        <ele>2163</ele>
        <time>2021-10-24T10:35:52Z</time>
      </trkpt>
      <trkpt lat="45.05497" lon="5.93133">
        <ele>2163</ele>
        <time>2021-10-24T10:35:58Z</time>
      </trkpt>
      <trkpt lat="45.05498" lon="5.93132">
        <ele>2162</ele>
        <time>2021-10-24T10:36:03Z</time>
      </trkpt>
      <trkpt lat="45.05498" lon="5.93132">
        <ele>2162</ele>
        <time>2021-10-24T10:36:09Z</time>
      </trkpt>
      <trkpt lat="45.05502" lon="5.93138">
        <ele>2164</ele>
        <time>2021-10-24T10:36:15Z</time>
      </trkpt>
      <trkpt lat="45.05503" lon="5.93138">
        <ele>2166</ele>
        <time>2021-10-24T10:36:20Z</time>
      </trkpt>
      <trkpt lat="45.05505" lon="5.93138">
        <ele>2166</ele>
        <time>2021-10-24T10:36:25Z</time>
      </trkpt>
      <trkpt lat="45.05506" lon="5.93139">
        <ele>2167</ele>
        <time>2021-10-24T10:36:31Z</time>
      </trkpt>
      <trkpt lat="45.05508" lon="5.93136">
        <ele>2168</ele>
        <time>2021-10-24T10:36:37Z</time>
      </trkpt>
      <trkpt lat="45.05508" lon="5.93136">
        <ele>2168</ele>
        <time>2021-10-24T10:36:42Z</time>
      </trkpt>
      <trkpt lat="45.05509" lon="5.93135">
        <ele>2170</ele>
        <time>2021-10-24T10:36:48Z</time>
      </trkpt>
      <trkpt lat="45.0551" lon="5.93135">
        <ele>2171</ele>
        <time>2021-10-24T10:36:54Z</time>
      </trkpt>
      <trkpt lat="45.05507" lon="5.93137">
        <ele>2171</ele>
        <time>2021-10-24T10:37:00Z</time>
      </trkpt>
      <trkpt lat="45.05506" lon="5.93138">
        <ele>2173</ele>
        <time>2021-10-24T10:37:06Z</time>
      </trkpt>
      <trkpt lat="45.05505" lon="5.93137">
        <ele>2171</ele>
        <time>2021-10-24T10:37:12Z</time>
      </trkpt>
      <trkpt lat="45.05504" lon="5.93139">
        <ele>2172</ele>
        <time>2021-10-24T10:37:17Z</time>
      </trkpt>
      <trkpt lat="45.05504" lon="5.93137">
        <ele>2171</ele>
        <time>2021-10-24T10:37:23Z</time>
      </trkpt>
      <trkpt lat="45.05505" lon="5.93136">
        <ele>2172</ele>
        <time>2021-10-24T10:37:28Z</time>
      </trkpt>
      <trkpt lat="45.05505" lon="5.93136">
        <ele>2172</ele>
        <time>2021-10-24T10:37:34Z</time>
      </trkpt>
      <trkpt lat="45.05505" lon="5.93135">
        <ele>2170</ele>
        <time>2021-10-24T10:37:40Z</time>
      </trkpt>
      <trkpt lat="45.05504" lon="5.93135">
        <ele>2171</ele>
        <time>2021-10-24T10:37:46Z</time>
      </trkpt>
      <trkpt lat="45.055" lon="5.93137">
        <ele>2171</ele>
        <time>2021-10-24T10:37:52Z</time>
      </trkpt>
      <trkpt lat="45.05501" lon="5.93136">
        <ele>2172</ele>
        <time>2021-10-24T10:37:57Z</time>
      </trkpt>
      <trkpt lat="45.05503" lon="5.93134">
        <ele>2170</ele>
        <time>2021-10-24T10:38:03Z</time>
      </trkpt>
      <trkpt lat="45.05505" lon="5.93135">
        <ele>2170</ele>
        <time>2021-10-24T10:38:08Z</time>
      </trkpt>
      <trkpt lat="45.05505" lon="5.93135">
        <ele>2170</ele>
        <time>2021-10-24T10:38:13Z</time>
      </trkpt>
      <trkpt lat="45.05505" lon="5.93135">
        <ele>2170</ele>
        <time>2021-10-24T10:38:18Z</time>
      </trkpt>
      <trkpt lat="45.05508" lon="5.93136">
        <ele>2173</ele>
        <time>2021-10-24T10:38:24Z</time>
      </trkpt>
      <trkpt lat="45.05508" lon="5.93136">
        <ele>2173</ele>
        <time>2021-10-24T10:38:29Z</time>
      </trkpt>
      <trkpt lat="45.05508" lon="5.93136">
        <ele>2173</ele>
        <time>2021-10-24T10:38:35Z</time>
      </trkpt>
      <trkpt lat="45.05506" lon="5.93135">
        <ele>2171</ele>
        <time>2021-10-24T10:38:41Z</time>
      </trkpt>
      <trkpt lat="45.05506" lon="5.93135">
        <ele>2171</ele>
        <time>2021-10-24T10:38:47Z</time>
      </trkpt>
      <trkpt lat="45.05506" lon="5.93135">
        <ele>2171</ele>
        <time>2021-10-24T10:38:52Z</time>
      </trkpt>
      <trkpt lat="45.05506" lon="5.93135">
        <ele>2170</ele>
        <time>2021-10-24T10:38:58Z</time>
      </trkpt>
      <trkpt lat="45.05506" lon="5.93136">
        <ele>2171</ele>
        <time>2021-10-24T10:39:04Z</time>
      </trkpt>
      <trkpt lat="45.05506" lon="5.93137">
        <ele>2170</ele>
        <time>2021-10-24T10:39:10Z</time>
      </trkpt>
      <trkpt lat="45.05506" lon="5.93137">
        <ele>2170</ele>
        <time>2021-10-24T10:39:16Z</time>
      </trkpt>
      <trkpt lat="45.05505" lon="5.93137">
        <ele>2170</ele>
        <time>2021-10-24T10:39:21Z</time>
      </trkpt>
      <trkpt lat="45.05505" lon="5.93137">
        <ele>2170</ele>
        <time>2021-10-24T10:39:26Z</time>
      </trkpt>
      <trkpt lat="45.05505" lon="5.93137">
        <ele>2170</ele>
        <time>2021-10-24T10:39:32Z</time>
      </trkpt>
      <trkpt lat="45.05505" lon="5.93137">
        <ele>2170</ele>
        <time>2021-10-24T10:39:37Z</time>
      </trkpt>
      <trkpt lat="45.05506" lon="5.93135">
        <ele>2171</ele>
        <time>2021-10-24T10:39:43Z</time>
      </trkpt>
      <trkpt lat="45.05508" lon="5.93136">
        <ele>2171</ele>
        <time>2021-10-24T10:39:48Z</time>
      </trkpt>
      <trkpt lat="45.05508" lon="5.93135">
        <ele>2171</ele>
        <time>2021-10-24T10:39:53Z</time>
      </trkpt>
      <trkpt lat="45.05507" lon="5.93136">
        <ele>2172</ele>
        <time>2021-10-24T10:39:58Z</time>
      </trkpt>
      <trkpt lat="45.05507" lon="5.93136">
        <ele>2172</ele>
        <time>2021-10-24T10:40:04Z</time>
      </trkpt>
      <trkpt lat="45.05509" lon="5.93136">
        <ele>2173</ele>
        <time>2021-10-24T10:40:10Z</time>
      </trkpt>
      <trkpt lat="45.05506" lon="5.93136">
        <ele>2172</ele>
        <time>2021-10-24T10:40:16Z</time>
      </trkpt>
      <trkpt lat="45.05504" lon="5.93139">
        <ele>2173</ele>
        <time>2021-10-24T10:40:21Z</time>
      </trkpt>
      <trkpt lat="45.05505" lon="5.9314">
        <ele>2171</ele>
        <time>2021-10-24T10:40:27Z</time>
      </trkpt>
      <trkpt lat="45.05506" lon="5.9314">
        <ele>2172</ele>
        <time>2021-10-24T10:40:33Z</time>
      </trkpt>
      <trkpt lat="45.05506" lon="5.9314">
        <ele>2172</ele>
        <time>2021-10-24T10:40:39Z</time>
      </trkpt>
      <trkpt lat="45.05506" lon="5.93138">
        <ele>2168</ele>
        <time>2021-10-24T10:40:45Z</time>
      </trkpt>
      <trkpt lat="45.05506" lon="5.93138">
        <ele>2168</ele>
        <time>2021-10-24T10:40:50Z</time>
      </trkpt>
      <trkpt lat="45.05506" lon="5.93138">
        <ele>2168</ele>
        <time>2021-10-24T10:40:56Z</time>
      </trkpt>
      <trkpt lat="45.05508" lon="5.93139">
        <ele>2163</ele>
        <time>2021-10-24T10:41:02Z</time>
      </trkpt>
      <trkpt lat="45.05507" lon="5.93139">
        <ele>2163</ele>
        <time>2021-10-24T10:41:08Z</time>
      </trkpt>
      <trkpt lat="45.05507" lon="5.93139">
        <ele>2163</ele>
        <time>2021-10-24T10:41:14Z</time>
      </trkpt>
      <trkpt lat="45.05507" lon="5.9314">
        <ele>2164</ele>
        <time>2021-10-24T10:41:20Z</time>
      </trkpt>
      <trkpt lat="45.05506" lon="5.93142">
        <ele>2163</ele>
        <time>2021-10-24T10:41:25Z</time>
      </trkpt>
      <trkpt lat="45.05506" lon="5.93142">
        <ele>2163</ele>
        <time>2021-10-24T10:41:31Z</time>
      </trkpt>
      <trkpt lat="45.05506" lon="5.93142">
        <ele>2163</ele>
        <time>2021-10-24T10:41:36Z</time>
      </trkpt>
      <trkpt lat="45.05508" lon="5.9314">
        <ele>2165</ele>
        <time>2021-10-24T10:41:42Z</time>
      </trkpt>
      <trkpt lat="45.05509" lon="5.93138">
        <ele>2169</ele>
        <time>2021-10-24T10:41:48Z</time>
      </trkpt>
      <trkpt lat="45.0551" lon="5.93139">
        <ele>2169</ele>
        <time>2021-10-24T10:41:54Z</time>
      </trkpt>
      <trkpt lat="45.0551" lon="5.93141">
        <ele>2169</ele>
        <time>2021-10-24T10:42:00Z</time>
      </trkpt>
      <trkpt lat="45.05509" lon="5.93142">
        <ele>2169</ele>
        <time>2021-10-24T10:42:06Z</time>
      </trkpt>
      <trkpt lat="45.0551" lon="5.93142">
        <ele>2169</ele>
        <time>2021-10-24T10:42:11Z</time>
      </trkpt>
      <trkpt lat="45.05508" lon="5.93143">
        <ele>2165</ele>
        <time>2021-10-24T10:42:17Z</time>
      </trkpt>
      <trkpt lat="45.05508" lon="5.93143">
        <ele>2165</ele>
        <time>2021-10-24T10:42:23Z</time>
      </trkpt>
      <trkpt lat="45.05508" lon="5.93143">
        <ele>2165</ele>
        <time>2021-10-24T10:42:29Z</time>
      </trkpt>
      <trkpt lat="45.05509" lon="5.93142">
        <ele>2163</ele>
        <time>2021-10-24T10:42:35Z</time>
      </trkpt>
      <trkpt lat="45.0551" lon="5.9314">
        <ele>2162</ele>
        <time>2021-10-24T10:42:41Z</time>
      </trkpt>
      <trkpt lat="45.0551" lon="5.93139">
        <ele>2163</ele>
        <time>2021-10-24T10:42:47Z</time>
      </trkpt>
      <trkpt lat="45.05509" lon="5.93141">
        <ele>2165</ele>
        <time>2021-10-24T10:42:53Z</time>
      </trkpt>
      <trkpt lat="45.05509" lon="5.93141">
        <ele>2165</ele>
        <time>2021-10-24T10:42:58Z</time>
      </trkpt>
      <trkpt lat="45.05509" lon="5.93142">
        <ele>2167</ele>
        <time>2021-10-24T10:43:04Z</time>
      </trkpt>
      <trkpt lat="45.0551" lon="5.93146">
        <ele>2167</ele>
        <time>2021-10-24T10:43:10Z</time>
      </trkpt>
      <trkpt lat="45.05508" lon="5.93148">
        <ele>2168</ele>
        <time>2021-10-24T10:43:15Z</time>
      </trkpt>
      <trkpt lat="45.05506" lon="5.93149">
        <ele>2167</ele>
        <time>2021-10-24T10:43:21Z</time>
      </trkpt>
      <trkpt lat="45.05506" lon="5.93147">
        <ele>2168</ele>
        <time>2021-10-24T10:43:26Z</time>
      </trkpt>
      <trkpt lat="45.05506" lon="5.9315">
        <ele>2168</ele>
        <time>2021-10-24T10:43:32Z</time>
      </trkpt>
      <trkpt lat="45.05506" lon="5.93153">
        <ele>2168</ele>
        <time>2021-10-24T10:43:37Z</time>
      </trkpt>
      <trkpt lat="45.05507" lon="5.9315">
        <ele>2168</ele>
        <time>2021-10-24T10:43:43Z</time>
      </trkpt>
      <trkpt lat="45.05507" lon="5.93148">
        <ele>2168</ele>
        <time>2021-10-24T10:43:48Z</time>
      </trkpt>
      <trkpt lat="45.05508" lon="5.93147">
        <ele>2168</ele>
        <time>2021-10-24T10:43:54Z</time>
      </trkpt>
      <trkpt lat="45.05508" lon="5.93147">
        <ele>2168</ele>
        <time>2021-10-24T10:44:00Z</time>
      </trkpt>
      <trkpt lat="45.05507" lon="5.93146">
        <ele>2171</ele>
        <time>2021-10-24T10:44:05Z</time>
      </trkpt>
      <trkpt lat="45.05507" lon="5.93146">
        <ele>2171</ele>
        <time>2021-10-24T10:44:10Z</time>
      </trkpt>
      <trkpt lat="45.05507" lon="5.93146">
        <ele>2171</ele>
        <time>2021-10-24T10:44:16Z</time>
      </trkpt>
      <trkpt lat="45.05507" lon="5.93144">
        <ele>2172</ele>
        <time>2021-10-24T10:44:22Z</time>
      </trkpt>
      <trkpt lat="45.05506" lon="5.93144">
        <ele>2172</ele>
        <time>2021-10-24T10:44:28Z</time>
      </trkpt>
      <trkpt lat="45.05506" lon="5.93144">
        <ele>2172</ele>
        <time>2021-10-24T10:44:33Z</time>
      </trkpt>
      <trkpt lat="45.05506" lon="5.93144">
        <ele>2172</ele>
        <time>2021-10-24T10:44:39Z</time>
      </trkpt>
      <trkpt lat="45.05506" lon="5.93144">
        <ele>2172</ele>
        <time>2021-10-24T10:44:45Z</time>
      </trkpt>
      <trkpt lat="45.05506" lon="5.93144">
        <ele>2172</ele>
        <time>2021-10-24T10:44:51Z</time>
      </trkpt>
      <trkpt lat="45.05506" lon="5.93144">
        <ele>2172</ele>
        <time>2021-10-24T10:44:56Z</time>
      </trkpt>
      <trkpt lat="45.05506" lon="5.93144">
        <ele>2172</ele>
        <time>2021-10-24T10:45:02Z</time>
      </trkpt>
      <trkpt lat="45.05508" lon="5.93145">
        <ele>2170</ele>
        <time>2021-10-24T10:45:08Z</time>
      </trkpt>
      <trkpt lat="45.05507" lon="5.93145">
        <ele>2171</ele>
        <time>2021-10-24T10:45:14Z</time>
      </trkpt>
      <trkpt lat="45.05504" lon="5.93146">
        <ele>2169</ele>
        <time>2021-10-24T10:45:20Z</time>
      </trkpt>
      <trkpt lat="45.05502" lon="5.93149">
        <ele>2167</ele>
        <time>2021-10-24T10:45:26Z</time>
      </trkpt>
      <trkpt lat="45.05502" lon="5.93148">
        <ele>2169</ele>
        <time>2021-10-24T10:45:32Z</time>
      </trkpt>
      <trkpt lat="45.05504" lon="5.93147">
        <ele>2169</ele>
        <time>2021-10-24T10:45:37Z</time>
      </trkpt>
      <trkpt lat="45.05504" lon="5.93148">
        <ele>2168</ele>
        <time>2021-10-24T10:45:43Z</time>
      </trkpt>
      <trkpt lat="45.05502" lon="5.9315">
        <ele>2170</ele>
        <time>2021-10-24T10:45:49Z</time>
      </trkpt>
      <trkpt lat="45.05502" lon="5.93149">
        <ele>2169</ele>
        <time>2021-10-24T10:45:54Z</time>
      </trkpt>
      <trkpt lat="45.05502" lon="5.93149">
        <ele>2169</ele>
        <time>2021-10-24T10:46:00Z</time>
      </trkpt>
      <trkpt lat="45.05502" lon="5.93149">
        <ele>2169</ele>
        <time>2021-10-24T10:46:05Z</time>
      </trkpt>
      <trkpt lat="45.05502" lon="5.93149">
        <ele>2169</ele>
        <time>2021-10-24T10:46:11Z</time>
      </trkpt>
      <trkpt lat="45.05503" lon="5.9315">
        <ele>2168</ele>
        <time>2021-10-24T10:46:16Z</time>
      </trkpt>
      <trkpt lat="45.05504" lon="5.93149">
        <ele>2166</ele>
        <time>2021-10-24T10:46:22Z</time>
      </trkpt>
      <trkpt lat="45.05504" lon="5.9315">
        <ele>2166</ele>
        <time>2021-10-24T10:46:27Z</time>
      </trkpt>
      <trkpt lat="45.05504" lon="5.9315">
        <ele>2166</ele>
        <time>2021-10-24T10:46:32Z</time>
      </trkpt>
      <trkpt lat="45.05504" lon="5.9315">
        <ele>2166</ele>
        <time>2021-10-24T10:46:38Z</time>
      </trkpt>
      <trkpt lat="45.05505" lon="5.93152">
        <ele>2168</ele>
        <time>2021-10-24T10:46:44Z</time>
      </trkpt>
      <trkpt lat="45.05506" lon="5.93153">
        <ele>2169</ele>
        <time>2021-10-24T10:46:49Z</time>
      </trkpt>
      <trkpt lat="45.05506" lon="5.93152">
        <ele>2168</ele>
        <time>2021-10-24T10:46:54Z</time>
      </trkpt>
      <trkpt lat="45.05506" lon="5.93152">
        <ele>2168</ele>
        <time>2021-10-24T10:46:59Z</time>
      </trkpt>
      <trkpt lat="45.05506" lon="5.93152">
        <ele>2168</ele>
        <time>2021-10-24T10:47:05Z</time>
      </trkpt>
      <trkpt lat="45.05506" lon="5.93152">
        <ele>2168</ele>
        <time>2021-10-24T10:47:11Z</time>
      </trkpt>
      <trkpt lat="45.05506" lon="5.93152">
        <ele>2168</ele>
        <time>2021-10-24T10:47:16Z</time>
      </trkpt>
      <trkpt lat="45.05505" lon="5.93153">
        <ele>2170</ele>
        <time>2021-10-24T10:47:22Z</time>
      </trkpt>
      <trkpt lat="45.05505" lon="5.93153">
        <ele>2170</ele>
        <time>2021-10-24T10:47:28Z</time>
      </trkpt>
      <trkpt lat="45.05506" lon="5.93154">
        <ele>2172</ele>
        <time>2021-10-24T10:47:34Z</time>
      </trkpt>
      <trkpt lat="45.05506" lon="5.93154">
        <ele>2172</ele>
        <time>2021-10-24T10:47:39Z</time>
      </trkpt>
      <trkpt lat="45.05506" lon="5.93154">
        <ele>2172</ele>
        <time>2021-10-24T10:47:44Z</time>
      </trkpt>
      <trkpt lat="45.05503" lon="5.93156">
        <ele>2172</ele>
        <time>2021-10-24T10:47:50Z</time>
      </trkpt>
      <trkpt lat="45.05503" lon="5.93158">
        <ele>2170</ele>
        <time>2021-10-24T10:47:55Z</time>
      </trkpt>
      <trkpt lat="45.05503" lon="5.93157">
        <ele>2169</ele>
        <time>2021-10-24T10:48:01Z</time>
      </trkpt>
      <trkpt lat="45.05502" lon="5.93157">
        <ele>2169</ele>
        <time>2021-10-24T10:48:06Z</time>
      </trkpt>
      <trkpt lat="45.05502" lon="5.93157">
        <ele>2169</ele>
        <time>2021-10-24T10:48:11Z</time>
      </trkpt>
      <trkpt lat="45.05503" lon="5.93159">
        <ele>2168</ele>
        <time>2021-10-24T10:48:17Z</time>
      </trkpt>
      <trkpt lat="45.05503" lon="5.93159">
        <ele>2168</ele>
        <time>2021-10-24T10:48:22Z</time>
      </trkpt>
      <trkpt lat="45.05503" lon="5.93159">
        <ele>2168</ele>
        <time>2021-10-24T10:48:28Z</time>
      </trkpt>
      <trkpt lat="45.05503" lon="5.93159">
        <ele>2168</ele>
        <time>2021-10-24T10:48:34Z</time>
      </trkpt>
      <trkpt lat="45.05503" lon="5.93159">
        <ele>2168</ele>
        <time>2021-10-24T10:48:40Z</time>
      </trkpt>
      <trkpt lat="45.05503" lon="5.93159">
        <ele>2168</ele>
        <time>2021-10-24T10:48:46Z</time>
      </trkpt>
      <trkpt lat="45.05504" lon="5.93159">
        <ele>2170</ele>
        <time>2021-10-24T10:48:52Z</time>
      </trkpt>
      <trkpt lat="45.05504" lon="5.93159">
        <ele>2169</ele>
        <time>2021-10-24T10:48:57Z</time>
      </trkpt>
      <trkpt lat="45.05504" lon="5.93159">
        <ele>2169</ele>
        <time>2021-10-24T10:49:02Z</time>
      </trkpt>
      <trkpt lat="45.05504" lon="5.93155">
        <ele>2169</ele>
        <time>2021-10-24T10:49:08Z</time>
      </trkpt>
      <trkpt lat="45.05505" lon="5.93153">
        <ele>2169</ele>
        <time>2021-10-24T10:49:14Z</time>
      </trkpt>
      <trkpt lat="45.05506" lon="5.93151">
        <ele>2169</ele>
        <time>2021-10-24T10:49:20Z</time>
      </trkpt>
      <trkpt lat="45.05506" lon="5.93147">
        <ele>2169</ele>
        <time>2021-10-24T10:49:26Z</time>
      </trkpt>
      <trkpt lat="45.05507" lon="5.93148">
        <ele>2170</ele>
        <time>2021-10-24T10:49:31Z</time>
      </trkpt>
      <trkpt lat="45.05509" lon="5.93149">
        <ele>2171</ele>
        <time>2021-10-24T10:49:37Z</time>
      </trkpt>
      <trkpt lat="45.0551" lon="5.93149">
        <ele>2170</ele>
        <time>2021-10-24T10:49:43Z</time>
      </trkpt>
      <trkpt lat="45.0551" lon="5.93146">
        <ele>2170</ele>
        <time>2021-10-24T10:49:49Z</time>
      </trkpt>
      <trkpt lat="45.0551" lon="5.93146">
        <ele>2170</ele>
        <time>2021-10-24T10:49:54Z</time>
      </trkpt>
      <trkpt lat="45.05511" lon="5.93146">
        <ele>2171</ele>
        <time>2021-10-24T10:50:00Z</time>
      </trkpt>
      <trkpt lat="45.05511" lon="5.93146">
        <ele>2171</ele>
        <time>2021-10-24T10:50:05Z</time>
      </trkpt>
      <trkpt lat="45.05511" lon="5.93145">
        <ele>2171</ele>
        <time>2021-10-24T10:50:10Z</time>
      </trkpt>
      <trkpt lat="45.05511" lon="5.93146">
        <ele>2171</ele>
        <time>2021-10-24T10:50:16Z</time>
      </trkpt>
      <trkpt lat="45.05511" lon="5.93146">
        <ele>2171</ele>
        <time>2021-10-24T10:50:21Z</time>
      </trkpt>
      <trkpt lat="45.05511" lon="5.93146">
        <ele>2171</ele>
        <time>2021-10-24T10:50:27Z</time>
      </trkpt>
      <trkpt lat="45.05511" lon="5.93146">
        <ele>2171</ele>
        <time>2021-10-24T10:50:33Z</time>
      </trkpt>
      <trkpt lat="45.05511" lon="5.93146">
        <ele>2171</ele>
        <time>2021-10-24T10:50:38Z</time>
      </trkpt>
      <trkpt lat="45.05511" lon="5.93146">
        <ele>2171</ele>
        <time>2021-10-24T10:50:43Z</time>
      </trkpt>
      <trkpt lat="45.05511" lon="5.93146">
        <ele>2171</ele>
        <time>2021-10-24T10:50:49Z</time>
      </trkpt>
      <trkpt lat="45.05511" lon="5.93146">
        <ele>2171</ele>
        <time>2021-10-24T10:50:54Z</time>
      </trkpt>
      <trkpt lat="45.05511" lon="5.93146">
        <ele>2171</ele>
        <time>2021-10-24T10:50:59Z</time>
      </trkpt>
      <trkpt lat="45.05511" lon="5.93146">
        <ele>2171</ele>
        <time>2021-10-24T10:51:05Z</time>
      </trkpt>
      <trkpt lat="45.05511" lon="5.93146">
        <ele>2171</ele>
        <time>2021-10-24T10:51:10Z</time>
      </trkpt>
      <trkpt lat="45.05511" lon="5.93146">
        <ele>2171</ele>
        <time>2021-10-24T10:51:16Z</time>
      </trkpt>
      <trkpt lat="45.05511" lon="5.93146">
        <ele>2171</ele>
        <time>2021-10-24T10:51:22Z</time>
      </trkpt>
      <trkpt lat="45.05511" lon="5.93146">
        <ele>2171</ele>
        <time>2021-10-24T10:51:27Z</time>
      </trkpt>
      <trkpt lat="45.05511" lon="5.93146">
        <ele>2171</ele>
        <time>2021-10-24T10:51:33Z</time>
      </trkpt>
      <trkpt lat="45.05511" lon="5.93146">
        <ele>2171</ele>
        <time>2021-10-24T10:51:39Z</time>
      </trkpt>
      <trkpt lat="45.05511" lon="5.93146">
        <ele>2171</ele>
        <time>2021-10-24T10:51:44Z</time>
      </trkpt>
      <trkpt lat="45.05511" lon="5.93146">
        <ele>2171</ele>
        <time>2021-10-24T10:51:50Z</time>
      </trkpt>
      <trkpt lat="45.05511" lon="5.93146">
        <ele>2171</ele>
        <time>2021-10-24T10:51:56Z</time>
      </trkpt>
      <trkpt lat="45.05511" lon="5.93146">
        <ele>2171</ele>
        <time>2021-10-24T10:52:02Z</time>
      </trkpt>
      <trkpt lat="45.05511" lon="5.93146">
        <ele>2171</ele>
        <time>2021-10-24T10:52:07Z</time>
      </trkpt>
      <trkpt lat="45.05511" lon="5.93146">
        <ele>2171</ele>
        <time>2021-10-24T10:52:13Z</time>
      </trkpt>
      <trkpt lat="45.05511" lon="5.93146">
        <ele>2171</ele>
        <time>2021-10-24T10:52:19Z</time>
      </trkpt>
      <trkpt lat="45.05511" lon="5.93146">
        <ele>2171</ele>
        <time>2021-10-24T10:52:24Z</time>
      </trkpt>
      <trkpt lat="45.05511" lon="5.93146">
        <ele>2171</ele>
        <time>2021-10-24T10:52:30Z</time>
      </trkpt>
      <trkpt lat="45.05511" lon="5.93146">
        <ele>2171</ele>
        <time>2021-10-24T10:52:35Z</time>
      </trkpt>
      <trkpt lat="45.05511" lon="5.93145">
        <ele>2170</ele>
        <time>2021-10-24T10:52:41Z</time>
      </trkpt>
      <trkpt lat="45.05511" lon="5.93145">
        <ele>2170</ele>
        <time>2021-10-24T10:52:46Z</time>
      </trkpt>
      <trkpt lat="45.05511" lon="5.93145">
        <ele>2170</ele>
        <time>2021-10-24T10:52:52Z</time>
      </trkpt>
      <trkpt lat="45.05511" lon="5.93145">
        <ele>2169</ele>
        <time>2021-10-24T10:52:58Z</time>
      </trkpt>
      <trkpt lat="45.05511" lon="5.93145">
        <ele>2169</ele>
        <time>2021-10-24T10:53:04Z</time>
      </trkpt>
      <trkpt lat="45.05511" lon="5.93145">
        <ele>2169</ele>
        <time>2021-10-24T10:53:09Z</time>
      </trkpt>
      <trkpt lat="45.05511" lon="5.93145">
        <ele>2169</ele>
        <time>2021-10-24T10:53:15Z</time>
      </trkpt>
      <trkpt lat="45.05511" lon="5.93145">
        <ele>2169</ele>
        <time>2021-10-24T10:53:20Z</time>
      </trkpt>
      <trkpt lat="45.05511" lon="5.93145">
        <ele>2169</ele>
        <time>2021-10-24T10:53:26Z</time>
      </trkpt>
      <trkpt lat="45.05511" lon="5.93145">
        <ele>2169</ele>
        <time>2021-10-24T10:53:32Z</time>
      </trkpt>
      <trkpt lat="45.05511" lon="5.93145">
        <ele>2169</ele>
        <time>2021-10-24T10:53:38Z</time>
      </trkpt>
      <trkpt lat="45.05511" lon="5.93145">
        <ele>2169</ele>
        <time>2021-10-24T10:53:44Z</time>
      </trkpt>
      <trkpt lat="45.05511" lon="5.93145">
        <ele>2169</ele>
        <time>2021-10-24T10:53:50Z</time>
      </trkpt>
      <trkpt lat="45.05511" lon="5.93145">
        <ele>2169</ele>
        <time>2021-10-24T10:53:56Z</time>
      </trkpt>
      <trkpt lat="45.05511" lon="5.93145">
        <ele>2169</ele>
        <time>2021-10-24T10:54:02Z</time>
      </trkpt>
      <trkpt lat="45.05511" lon="5.93145">
        <ele>2169</ele>
        <time>2021-10-24T10:54:07Z</time>
      </trkpt>
      <trkpt lat="45.05511" lon="5.93145">
        <ele>2169</ele>
        <time>2021-10-24T10:54:12Z</time>
      </trkpt>
      <trkpt lat="45.05511" lon="5.93145">
        <ele>2169</ele>
        <time>2021-10-24T10:54:17Z</time>
      </trkpt>
      <trkpt lat="45.05511" lon="5.93145">
        <ele>2169</ele>
        <time>2021-10-24T10:54:22Z</time>
      </trkpt>
      <trkpt lat="45.05511" lon="5.93145">
        <ele>2169</ele>
        <time>2021-10-24T10:54:27Z</time>
      </trkpt>
      <trkpt lat="45.05511" lon="5.93145">
        <ele>2169</ele>
        <time>2021-10-24T10:54:32Z</time>
      </trkpt>
      <trkpt lat="45.05511" lon="5.93145">
        <ele>2169</ele>
        <time>2021-10-24T10:54:37Z</time>
      </trkpt>
      <trkpt lat="45.05511" lon="5.93145">
        <ele>2169</ele>
        <time>2021-10-24T10:54:42Z</time>
      </trkpt>
      <trkpt lat="45.05511" lon="5.93145">
        <ele>2169</ele>
        <time>2021-10-24T10:54:48Z</time>
      </trkpt>
      <trkpt lat="45.05511" lon="5.93145">
        <ele>2169</ele>
        <time>2021-10-24T10:54:53Z</time>
      </trkpt>
      <trkpt lat="45.05511" lon="5.93145">
        <ele>2169</ele>
        <time>2021-10-24T10:54:58Z</time>
      </trkpt>
      <trkpt lat="45.05511" lon="5.93145">
        <ele>2169</ele>
        <time>2021-10-24T10:55:03Z</time>
      </trkpt>
      <trkpt lat="45.05511" lon="5.93145">
        <ele>2169</ele>
        <time>2021-10-24T10:55:08Z</time>
      </trkpt>
      <trkpt lat="45.05511" lon="5.93145">
        <ele>2169</ele>
        <time>2021-10-24T10:55:13Z</time>
      </trkpt>
      <trkpt lat="45.05511" lon="5.93145">
        <ele>2169</ele>
        <time>2021-10-24T10:55:18Z</time>
      </trkpt>
      <trkpt lat="45.05511" lon="5.93145">
        <ele>2169</ele>
        <time>2021-10-24T10:55:23Z</time>
      </trkpt>
      <trkpt lat="45.05511" lon="5.93145">
        <ele>2169</ele>
        <time>2021-10-24T10:55:28Z</time>
      </trkpt>
      <trkpt lat="45.05511" lon="5.93145">
        <ele>2169</ele>
        <time>2021-10-24T10:55:33Z</time>
      </trkpt>
      <trkpt lat="45.05511" lon="5.93145">
        <ele>2169</ele>
        <time>2021-10-24T10:55:38Z</time>
      </trkpt>
      <trkpt lat="45.05511" lon="5.93145">
        <ele>2169</ele>
        <time>2021-10-24T10:55:43Z</time>
      </trkpt>
      <trkpt lat="45.05511" lon="5.93145">
        <ele>2169</ele>
        <time>2021-10-24T10:55:48Z</time>
      </trkpt>
      <trkpt lat="45.05511" lon="5.93145">
        <ele>2169</ele>
        <time>2021-10-24T10:55:53Z</time>
      </trkpt>
      <trkpt lat="45.05511" lon="5.93145">
        <ele>2169</ele>
        <time>2021-10-24T10:55:58Z</time>
      </trkpt>
      <trkpt lat="45.05511" lon="5.93145">
        <ele>2169</ele>
        <time>2021-10-24T10:56:03Z</time>
      </trkpt>
      <trkpt lat="45.05511" lon="5.93145">
        <ele>2169</ele>
        <time>2021-10-24T10:56:08Z</time>
      </trkpt>
      <trkpt lat="45.05511" lon="5.93145">
        <ele>2169</ele>
        <time>2021-10-24T10:56:13Z</time>
      </trkpt>
      <trkpt lat="45.05511" lon="5.93145">
        <ele>2169</ele>
        <time>2021-10-24T10:56:18Z</time>
      </trkpt>
      <trkpt lat="45.05511" lon="5.93145">
        <ele>2169</ele>
        <time>2021-10-24T10:56:23Z</time>
      </trkpt>
      <trkpt lat="45.05511" lon="5.93145">
        <ele>2169</ele>
        <time>2021-10-24T10:56:28Z</time>
      </trkpt>
      <trkpt lat="45.05511" lon="5.93145">
        <ele>2169</ele>
        <time>2021-10-24T10:56:33Z</time>
      </trkpt>
      <trkpt lat="45.05511" lon="5.93145">
        <ele>2169</ele>
        <time>2021-10-24T10:56:38Z</time>
      </trkpt>
      <trkpt lat="45.05511" lon="5.93145">
        <ele>2169</ele>
        <time>2021-10-24T10:56:43Z</time>
      </trkpt>
      <trkpt lat="45.05511" lon="5.93145">
        <ele>2169</ele>
        <time>2021-10-24T10:56:48Z</time>
      </trkpt>
      <trkpt lat="45.05511" lon="5.93145">
        <ele>2169</ele>
        <time>2021-10-24T10:56:53Z</time>
      </trkpt>
      <trkpt lat="45.05511" lon="5.93145">
        <ele>2169</ele>
        <time>2021-10-24T10:56:59Z</time>
      </trkpt>
      <trkpt lat="45.05511" lon="5.93145">
        <ele>2169</ele>
        <time>2021-10-24T10:57:04Z</time>
      </trkpt>
      <trkpt lat="45.05511" lon="5.93145">
        <ele>2169</ele>
        <time>2021-10-24T10:57:09Z</time>
      </trkpt>
      <trkpt lat="45.05511" lon="5.93145">
        <ele>2169</ele>
        <time>2021-10-24T10:57:14Z</time>
      </trkpt>
      <trkpt lat="45.05511" lon="5.93145">
        <ele>2169</ele>
        <time>2021-10-24T10:57:19Z</time>
      </trkpt>
      <trkpt lat="45.05511" lon="5.93145">
        <ele>2169</ele>
        <time>2021-10-24T10:57:24Z</time>
      </trkpt>
      <trkpt lat="45.05511" lon="5.93145">
        <ele>2169</ele>
        <time>2021-10-24T10:57:29Z</time>
      </trkpt>
      <trkpt lat="45.05511" lon="5.93145">
        <ele>2169</ele>
        <time>2021-10-24T10:57:34Z</time>
      </trkpt>
      <trkpt lat="45.05511" lon="5.93145">
        <ele>2169</ele>
        <time>2021-10-24T10:57:39Z</time>
      </trkpt>
      <trkpt lat="45.05511" lon="5.93145">
        <ele>2169</ele>
        <time>2021-10-24T10:57:44Z</time>
      </trkpt>
      <trkpt lat="45.05511" lon="5.93145">
        <ele>2169</ele>
        <time>2021-10-24T10:57:49Z</time>
      </trkpt>
      <trkpt lat="45.05511" lon="5.93145">
        <ele>2169</ele>
        <time>2021-10-24T10:57:54Z</time>
      </trkpt>
      <trkpt lat="45.05511" lon="5.93145">
        <ele>2169</ele>
        <time>2021-10-24T10:57:59Z</time>
      </trkpt>
      <trkpt lat="45.05511" lon="5.93145">
        <ele>2169</ele>
        <time>2021-10-24T10:58:04Z</time>
      </trkpt>
      <trkpt lat="45.05511" lon="5.93145">
        <ele>2169</ele>
        <time>2021-10-24T10:58:09Z</time>
      </trkpt>
      <trkpt lat="45.05511" lon="5.93145">
        <ele>2169</ele>
        <time>2021-10-24T10:58:14Z</time>
      </trkpt>
      <trkpt lat="45.05511" lon="5.93145">
        <ele>2169</ele>
        <time>2021-10-24T10:58:19Z</time>
      </trkpt>
      <trkpt lat="45.05511" lon="5.93145">
        <ele>2169</ele>
        <time>2021-10-24T10:58:24Z</time>
      </trkpt>
      <trkpt lat="45.05511" lon="5.93145">
        <ele>2169</ele>
        <time>2021-10-24T10:58:29Z</time>
      </trkpt>
      <trkpt lat="45.05511" lon="5.93145">
        <ele>2169</ele>
        <time>2021-10-24T10:58:34Z</time>
      </trkpt>
      <trkpt lat="45.05511" lon="5.93145">
        <ele>2169</ele>
        <time>2021-10-24T10:58:39Z</time>
      </trkpt>
      <trkpt lat="45.05511" lon="5.93145">
        <ele>2169</ele>
        <time>2021-10-24T10:58:44Z</time>
      </trkpt>
      <trkpt lat="45.05511" lon="5.93145">
        <ele>2169</ele>
        <time>2021-10-24T10:58:49Z</time>
      </trkpt>
      <trkpt lat="45.05511" lon="5.93145">
        <ele>2169</ele>
        <time>2021-10-24T10:58:54Z</time>
      </trkpt>
      <trkpt lat="45.05511" lon="5.93145">
        <ele>2169</ele>
        <time>2021-10-24T10:58:59Z</time>
      </trkpt>
      <trkpt lat="45.05511" lon="5.93145">
        <ele>2169</ele>
        <time>2021-10-24T10:59:04Z</time>
      </trkpt>
      <trkpt lat="45.05511" lon="5.93145">
        <ele>2169</ele>
        <time>2021-10-24T10:59:10Z</time>
      </trkpt>
      <trkpt lat="45.05511" lon="5.93145">
        <ele>2169</ele>
        <time>2021-10-24T10:59:15Z</time>
      </trkpt>
      <trkpt lat="45.05511" lon="5.93145">
        <ele>2169</ele>
        <time>2021-10-24T10:59:20Z</time>
      </trkpt>
      <trkpt lat="45.05511" lon="5.93145">
        <ele>2169</ele>
        <time>2021-10-24T10:59:25Z</time>
      </trkpt>
      <trkpt lat="45.05511" lon="5.93145">
        <ele>2169</ele>
        <time>2021-10-24T10:59:30Z</time>
      </trkpt>
      <trkpt lat="45.05511" lon="5.93145">
        <ele>2169</ele>
        <time>2021-10-24T10:59:35Z</time>
      </trkpt>
      <trkpt lat="45.05511" lon="5.93145">
        <ele>2169</ele>
        <time>2021-10-24T10:59:40Z</time>
      </trkpt>
      <trkpt lat="45.05511" lon="5.93145">
        <ele>2169</ele>
        <time>2021-10-24T10:59:45Z</time>
      </trkpt>
      <trkpt lat="45.05511" lon="5.93145">
        <ele>2169</ele>
        <time>2021-10-24T10:59:50Z</time>
      </trkpt>
      <trkpt lat="45.05511" lon="5.93145">
        <ele>2169</ele>
        <time>2021-10-24T10:59:55Z</time>
      </trkpt>
      <trkpt lat="45.05511" lon="5.93145">
        <ele>2169</ele>
        <time>2021-10-24T11:00:00Z</time>
      </trkpt>
      <trkpt lat="45.05511" lon="5.93145">
        <ele>2169</ele>
        <time>2021-10-24T11:00:05Z</time>
      </trkpt>
      <trkpt lat="45.05511" lon="5.93145">
        <ele>2169</ele>
        <time>2021-10-24T11:00:10Z</time>
      </trkpt>
      <trkpt lat="45.05511" lon="5.93145">
        <ele>2169</ele>
        <time>2021-10-24T11:00:15Z</time>
      </trkpt>
      <trkpt lat="45.05511" lon="5.93145">
        <ele>2169</ele>
        <time>2021-10-24T11:00:20Z</time>
      </trkpt>
      <trkpt lat="45.05511" lon="5.93145">
        <ele>2169</ele>
        <time>2021-10-24T11:00:25Z</time>
      </trkpt>
      <trkpt lat="45.05511" lon="5.93145">
        <ele>2169</ele>
        <time>2021-10-24T11:00:30Z</time>
      </trkpt>
      <trkpt lat="45.05511" lon="5.93145">
        <ele>2169</ele>
        <time>2021-10-24T11:00:35Z</time>
      </trkpt>
      <trkpt lat="45.05511" lon="5.93145">
        <ele>2169</ele>
        <time>2021-10-24T11:00:40Z</time>
      </trkpt>
      <trkpt lat="45.05511" lon="5.93145">
        <ele>2169</ele>
        <time>2021-10-24T11:00:45Z</time>
      </trkpt>
      <trkpt lat="45.05511" lon="5.93145">
        <ele>2169</ele>
        <time>2021-10-24T11:00:50Z</time>
      </trkpt>
      <trkpt lat="45.05511" lon="5.93145">
        <ele>2169</ele>
        <time>2021-10-24T11:00:55Z</time>
      </trkpt>
      <trkpt lat="45.05511" lon="5.93145">
        <ele>2169</ele>
        <time>2021-10-24T11:01:00Z</time>
      </trkpt>
      <trkpt lat="45.05511" lon="5.93145">
        <ele>2169</ele>
        <time>2021-10-24T11:01:05Z</time>
      </trkpt>
      <trkpt lat="45.05511" lon="5.93145">
        <ele>2169</ele>
        <time>2021-10-24T11:01:10Z</time>
      </trkpt>
      <trkpt lat="45.05511" lon="5.93145">
        <ele>2169</ele>
        <time>2021-10-24T11:01:16Z</time>
      </trkpt>
      <trkpt lat="45.05511" lon="5.93145">
        <ele>2169</ele>
        <time>2021-10-24T11:01:21Z</time>
      </trkpt>
      <trkpt lat="45.05511" lon="5.93145">
        <ele>2169</ele>
        <time>2021-10-24T11:01:26Z</time>
      </trkpt>
      <trkpt lat="45.05511" lon="5.93145">
        <ele>2169</ele>
        <time>2021-10-24T11:01:31Z</time>
      </trkpt>
      <trkpt lat="45.05511" lon="5.93145">
        <ele>2169</ele>
        <time>2021-10-24T11:01:36Z</time>
      </trkpt>
      <trkpt lat="45.05511" lon="5.93145">
        <ele>2169</ele>
        <time>2021-10-24T11:01:41Z</time>
      </trkpt>
      <trkpt lat="45.05511" lon="5.93145">
        <ele>2169</ele>
        <time>2021-10-24T11:01:46Z</time>
      </trkpt>
      <trkpt lat="45.05511" lon="5.93145">
        <ele>2169</ele>
        <time>2021-10-24T11:01:51Z</time>
      </trkpt>
      <trkpt lat="45.05511" lon="5.93145">
        <ele>2169</ele>
        <time>2021-10-24T11:01:56Z</time>
      </trkpt>
      <trkpt lat="45.05511" lon="5.93145">
        <ele>2169</ele>
        <time>2021-10-24T11:02:01Z</time>
      </trkpt>
      <trkpt lat="45.05511" lon="5.93145">
        <ele>2169</ele>
        <time>2021-10-24T11:02:06Z</time>
      </trkpt>
      <trkpt lat="45.05511" lon="5.93145">
        <ele>2169</ele>
        <time>2021-10-24T11:02:11Z</time>
      </trkpt>
      <trkpt lat="45.05511" lon="5.93145">
        <ele>2169</ele>
        <time>2021-10-24T11:02:16Z</time>
      </trkpt>
      <trkpt lat="45.05511" lon="5.93145">
        <ele>2169</ele>
        <time>2021-10-24T11:02:21Z</time>
      </trkpt>
      <trkpt lat="45.05511" lon="5.93145">
        <ele>2169</ele>
        <time>2021-10-24T11:02:26Z</time>
      </trkpt>
      <trkpt lat="45.05511" lon="5.93145">
        <ele>2169</ele>
        <time>2021-10-24T11:02:31Z</time>
      </trkpt>
      <trkpt lat="45.05511" lon="5.93145">
        <ele>2169</ele>
        <time>2021-10-24T11:02:36Z</time>
      </trkpt>
      <trkpt lat="45.05511" lon="5.93145">
        <ele>2169</ele>
        <time>2021-10-24T11:02:41Z</time>
      </trkpt>
      <trkpt lat="45.05511" lon="5.93145">
        <ele>2169</ele>
        <time>2021-10-24T11:02:46Z</time>
      </trkpt>
      <trkpt lat="45.05511" lon="5.93145">
        <ele>2169</ele>
        <time>2021-10-24T11:02:51Z</time>
      </trkpt>
      <trkpt lat="45.05511" lon="5.93145">
        <ele>2169</ele>
        <time>2021-10-24T11:02:56Z</time>
      </trkpt>
      <trkpt lat="45.05511" lon="5.93145">
        <ele>2169</ele>
        <time>2021-10-24T11:03:01Z</time>
      </trkpt>
      <trkpt lat="45.05511" lon="5.93145">
        <ele>2169</ele>
        <time>2021-10-24T11:03:06Z</time>
      </trkpt>
      <trkpt lat="45.05511" lon="5.93145">
        <ele>2169</ele>
        <time>2021-10-24T11:03:11Z</time>
      </trkpt>
      <trkpt lat="45.05511" lon="5.93145">
        <ele>2169</ele>
        <time>2021-10-24T11:03:16Z</time>
      </trkpt>
      <trkpt lat="45.05511" lon="5.93145">
        <ele>2169</ele>
        <time>2021-10-24T11:03:21Z</time>
      </trkpt>
      <trkpt lat="45.05511" lon="5.93145">
        <ele>2169</ele>
        <time>2021-10-24T11:03:27Z</time>
      </trkpt>
      <trkpt lat="45.05511" lon="5.93145">
        <ele>2169</ele>
        <time>2021-10-24T11:03:32Z</time>
      </trkpt>
      <trkpt lat="45.05511" lon="5.93145">
        <ele>2169</ele>
        <time>2021-10-24T11:03:37Z</time>
      </trkpt>
      <trkpt lat="45.05511" lon="5.93145">
        <ele>2169</ele>
        <time>2021-10-24T11:03:42Z</time>
      </trkpt>
      <trkpt lat="45.05511" lon="5.93145">
        <ele>2169</ele>
        <time>2021-10-24T11:03:47Z</time>
      </trkpt>
      <trkpt lat="45.05511" lon="5.93145">
        <ele>2169</ele>
        <time>2021-10-24T11:03:52Z</time>
      </trkpt>
      <trkpt lat="45.05511" lon="5.93145">
        <ele>2169</ele>
        <time>2021-10-24T11:03:57Z</time>
      </trkpt>
      <trkpt lat="45.05511" lon="5.93145">
        <ele>2169</ele>
        <time>2021-10-24T11:04:02Z</time>
      </trkpt>
      <trkpt lat="45.05511" lon="5.93145">
        <ele>2169</ele>
        <time>2021-10-24T11:04:07Z</time>
      </trkpt>
      <trkpt lat="45.05511" lon="5.93145">
        <ele>2169</ele>
        <time>2021-10-24T11:04:12Z</time>
      </trkpt>
      <trkpt lat="45.05511" lon="5.93145">
        <ele>2169</ele>
        <time>2021-10-24T11:04:17Z</time>
      </trkpt>
      <trkpt lat="45.05511" lon="5.93145">
        <ele>2169</ele>
        <time>2021-10-24T11:04:22Z</time>
      </trkpt>
      <trkpt lat="45.05511" lon="5.93145">
        <ele>2169</ele>
        <time>2021-10-24T11:04:27Z</time>
      </trkpt>
      <trkpt lat="45.05511" lon="5.93145">
        <ele>2169</ele>
        <time>2021-10-24T11:04:32Z</time>
      </trkpt>
      <trkpt lat="45.05511" lon="5.93145">
        <ele>2169</ele>
        <time>2021-10-24T11:04:37Z</time>
      </trkpt>
      <trkpt lat="45.05511" lon="5.93145">
        <ele>2169</ele>
        <time>2021-10-24T11:04:42Z</time>
      </trkpt>
      <trkpt lat="45.05511" lon="5.93145">
        <ele>2169</ele>
        <time>2021-10-24T11:04:47Z</time>
      </trkpt>
      <trkpt lat="45.05511" lon="5.93145">
        <ele>2169</ele>
        <time>2021-10-24T11:04:52Z</time>
      </trkpt>
      <trkpt lat="45.05511" lon="5.93145">
        <ele>2169</ele>
        <time>2021-10-24T11:04:57Z</time>
      </trkpt>
      <trkpt lat="45.05511" lon="5.93145">
        <ele>2169</ele>
        <time>2021-10-24T11:05:02Z</time>
      </trkpt>
      <trkpt lat="45.05511" lon="5.93145">
        <ele>2169</ele>
        <time>2021-10-24T11:05:07Z</time>
      </trkpt>
      <trkpt lat="45.05511" lon="5.93145">
        <ele>2169</ele>
        <time>2021-10-24T11:05:12Z</time>
      </trkpt>
      <trkpt lat="45.05511" lon="5.93145">
        <ele>2169</ele>
        <time>2021-10-24T11:05:17Z</time>
      </trkpt>
      <trkpt lat="45.05511" lon="5.93145">
        <ele>2169</ele>
        <time>2021-10-24T11:05:22Z</time>
      </trkpt>
      <trkpt lat="45.05511" lon="5.93145">
        <ele>2169</ele>
        <time>2021-10-24T11:05:27Z</time>
      </trkpt>
      <trkpt lat="45.05511" lon="5.93145">
        <ele>2169</ele>
        <time>2021-10-24T11:05:32Z</time>
      </trkpt>
      <trkpt lat="45.05511" lon="5.93145">
        <ele>2169</ele>
        <time>2021-10-24T11:05:38Z</time>
      </trkpt>
      <trkpt lat="45.05511" lon="5.93145">
        <ele>2169</ele>
        <time>2021-10-24T11:05:43Z</time>
      </trkpt>
      <trkpt lat="45.05511" lon="5.93145">
        <ele>2169</ele>
        <time>2021-10-24T11:05:48Z</time>
      </trkpt>
      <trkpt lat="45.05511" lon="5.93145">
        <ele>2169</ele>
        <time>2021-10-24T11:05:53Z</time>
      </trkpt>
      <trkpt lat="45.05511" lon="5.93145">
        <ele>2169</ele>
        <time>2021-10-24T11:05:58Z</time>
      </trkpt>
      <trkpt lat="45.05511" lon="5.93145">
        <ele>2169</ele>
        <time>2021-10-24T11:06:03Z</time>
      </trkpt>
      <trkpt lat="45.05511" lon="5.93145">
        <ele>2169</ele>
        <time>2021-10-24T11:06:08Z</time>
      </trkpt>
      <trkpt lat="45.05511" lon="5.93145">
        <ele>2169</ele>
        <time>2021-10-24T11:06:13Z</time>
      </trkpt>
      <trkpt lat="45.05511" lon="5.93145">
        <ele>2169</ele>
        <time>2021-10-24T11:06:18Z</time>
      </trkpt>
      <trkpt lat="45.05511" lon="5.93145">
        <ele>2169</ele>
        <time>2021-10-24T11:06:23Z</time>
      </trkpt>
      <trkpt lat="45.05511" lon="5.93145">
        <ele>2169</ele>
        <time>2021-10-24T11:06:28Z</time>
      </trkpt>
      <trkpt lat="45.05511" lon="5.93145">
        <ele>2169</ele>
        <time>2021-10-24T11:06:33Z</time>
      </trkpt>
      <trkpt lat="45.05511" lon="5.93145">
        <ele>2169</ele>
        <time>2021-10-24T11:06:38Z</time>
      </trkpt>
      <trkpt lat="45.05511" lon="5.93145">
        <ele>2169</ele>
        <time>2021-10-24T11:06:43Z</time>
      </trkpt>
      <trkpt lat="45.05511" lon="5.93145">
        <ele>2169</ele>
        <time>2021-10-24T11:06:48Z</time>
      </trkpt>
      <trkpt lat="45.05511" lon="5.93145">
        <ele>2169</ele>
        <time>2021-10-24T11:06:53Z</time>
      </trkpt>
      <trkpt lat="45.05511" lon="5.93145">
        <ele>2169</ele>
        <time>2021-10-24T11:06:58Z</time>
      </trkpt>
      <trkpt lat="45.05511" lon="5.93145">
        <ele>2169</ele>
        <time>2021-10-24T11:07:03Z</time>
      </trkpt>
      <trkpt lat="45.05511" lon="5.93145">
        <ele>2169</ele>
        <time>2021-10-24T11:07:08Z</time>
      </trkpt>
      <trkpt lat="45.05511" lon="5.93145">
        <ele>2169</ele>
        <time>2021-10-24T11:07:13Z</time>
      </trkpt>
      <trkpt lat="45.05511" lon="5.93145">
        <ele>2169</ele>
        <time>2021-10-24T11:07:18Z</time>
      </trkpt>
      <trkpt lat="45.05511" lon="5.93145">
        <ele>2169</ele>
        <time>2021-10-24T11:07:23Z</time>
      </trkpt>
      <trkpt lat="45.05511" lon="5.93145">
        <ele>2169</ele>
        <time>2021-10-24T11:07:28Z</time>
      </trkpt>
      <trkpt lat="45.05511" lon="5.93145">
        <ele>2169</ele>
        <time>2021-10-24T11:07:33Z</time>
      </trkpt>
      <trkpt lat="45.05511" lon="5.93145">
        <ele>2169</ele>
        <time>2021-10-24T11:07:38Z</time>
      </trkpt>
      <trkpt lat="45.05511" lon="5.93145">
        <ele>2169</ele>
        <time>2021-10-24T11:07:44Z</time>
      </trkpt>
      <trkpt lat="45.05511" lon="5.93145">
        <ele>2169</ele>
        <time>2021-10-24T11:07:49Z</time>
      </trkpt>
      <trkpt lat="45.05511" lon="5.93145">
        <ele>2169</ele>
        <time>2021-10-24T11:07:54Z</time>
      </trkpt>
      <trkpt lat="45.05511" lon="5.93145">
        <ele>2169</ele>
        <time>2021-10-24T11:07:59Z</time>
      </trkpt>
      <trkpt lat="45.05511" lon="5.93145">
        <ele>2169</ele>
        <time>2021-10-24T11:08:04Z</time>
      </trkpt>
      <trkpt lat="45.05511" lon="5.93145">
        <ele>2169</ele>
        <time>2021-10-24T11:08:09Z</time>
      </trkpt>
      <trkpt lat="45.05511" lon="5.93145">
        <ele>2169</ele>
        <time>2021-10-24T11:08:14Z</time>
      </trkpt>
      <trkpt lat="45.05511" lon="5.93145">
        <ele>2169</ele>
        <time>2021-10-24T11:08:19Z</time>
      </trkpt>
      <trkpt lat="45.05511" lon="5.93145">
        <ele>2169</ele>
        <time>2021-10-24T11:08:24Z</time>
      </trkpt>
      <trkpt lat="45.05511" lon="5.93145">
        <ele>2169</ele>
        <time>2021-10-24T11:08:29Z</time>
      </trkpt>
      <trkpt lat="45.05511" lon="5.93145">
        <ele>2169</ele>
        <time>2021-10-24T11:08:34Z</time>
      </trkpt>
      <trkpt lat="45.05511" lon="5.93145">
        <ele>2169</ele>
        <time>2021-10-24T11:08:39Z</time>
      </trkpt>
      <trkpt lat="45.05511" lon="5.93145">
        <ele>2169</ele>
        <time>2021-10-24T11:08:44Z</time>
      </trkpt>
      <trkpt lat="45.05511" lon="5.93145">
        <ele>2169</ele>
        <time>2021-10-24T11:08:49Z</time>
      </trkpt>
      <trkpt lat="45.05511" lon="5.93145">
        <ele>2169</ele>
        <time>2021-10-24T11:08:54Z</time>
      </trkpt>
      <trkpt lat="45.05511" lon="5.93145">
        <ele>2169</ele>
        <time>2021-10-24T11:08:59Z</time>
      </trkpt>
      <trkpt lat="45.05511" lon="5.93145">
        <ele>2169</ele>
        <time>2021-10-24T11:09:04Z</time>
      </trkpt>
      <trkpt lat="45.05511" lon="5.93145">
        <ele>2169</ele>
        <time>2021-10-24T11:09:09Z</time>
      </trkpt>
      <trkpt lat="45.05511" lon="5.93145">
        <ele>2169</ele>
        <time>2021-10-24T11:09:14Z</time>
      </trkpt>
      <trkpt lat="45.05511" lon="5.93145">
        <ele>2169</ele>
        <time>2021-10-24T11:09:19Z</time>
      </trkpt>
      <trkpt lat="45.05511" lon="5.93145">
        <ele>2169</ele>
        <time>2021-10-24T11:09:24Z</time>
      </trkpt>
      <trkpt lat="45.05511" lon="5.93145">
        <ele>2169</ele>
        <time>2021-10-24T11:09:29Z</time>
      </trkpt>
      <trkpt lat="45.05511" lon="5.93145">
        <ele>2169</ele>
        <time>2021-10-24T11:09:34Z</time>
      </trkpt>
      <trkpt lat="45.05511" lon="5.93145">
        <ele>2169</ele>
        <time>2021-10-24T11:09:39Z</time>
      </trkpt>
      <trkpt lat="45.05511" lon="5.93145">
        <ele>2169</ele>
        <time>2021-10-24T11:09:44Z</time>
      </trkpt>
      <trkpt lat="45.05511" lon="5.93145">
        <ele>2169</ele>
        <time>2021-10-24T11:09:49Z</time>
      </trkpt>
      <trkpt lat="45.05511" lon="5.93145">
        <ele>2169</ele>
        <time>2021-10-24T11:09:55Z</time>
      </trkpt>
      <trkpt lat="45.05511" lon="5.93145">
        <ele>2169</ele>
        <time>2021-10-24T11:10:00Z</time>
      </trkpt>
      <trkpt lat="45.05511" lon="5.93145">
        <ele>2169</ele>
        <time>2021-10-24T11:10:05Z</time>
      </trkpt>
      <trkpt lat="45.05511" lon="5.93145">
        <ele>2169</ele>
        <time>2021-10-24T11:10:10Z</time>
      </trkpt>
      <trkpt lat="45.05511" lon="5.93145">
        <ele>2169</ele>
        <time>2021-10-24T11:10:15Z</time>
      </trkpt>
      <trkpt lat="45.05511" lon="5.93145">
        <ele>2169</ele>
        <time>2021-10-24T11:10:20Z</time>
      </trkpt>
      <trkpt lat="45.05511" lon="5.93145">
        <ele>2169</ele>
        <time>2021-10-24T11:10:25Z</time>
      </trkpt>
      <trkpt lat="45.05511" lon="5.93145">
        <ele>2169</ele>
        <time>2021-10-24T11:10:30Z</time>
      </trkpt>
      <trkpt lat="45.05511" lon="5.93145">
        <ele>2169</ele>
        <time>2021-10-24T11:10:35Z</time>
      </trkpt>
      <trkpt lat="45.05511" lon="5.93145">
        <ele>2169</ele>
        <time>2021-10-24T11:10:40Z</time>
      </trkpt>
      <trkpt lat="45.05511" lon="5.93145">
        <ele>2169</ele>
        <time>2021-10-24T11:10:45Z</time>
      </trkpt>
      <trkpt lat="45.05511" lon="5.93145">
        <ele>2169</ele>
        <time>2021-10-24T11:10:50Z</time>
      </trkpt>
      <trkpt lat="45.05511" lon="5.93145">
        <ele>2169</ele>
        <time>2021-10-24T11:10:55Z</time>
      </trkpt>
      <trkpt lat="45.05511" lon="5.93145">
        <ele>2169</ele>
        <time>2021-10-24T11:11:00Z</time>
      </trkpt>
      <trkpt lat="45.05511" lon="5.93145">
        <ele>2169</ele>
        <time>2021-10-24T11:11:05Z</time>
      </trkpt>
      <trkpt lat="45.05511" lon="5.93145">
        <ele>2169</ele>
        <time>2021-10-24T11:11:10Z</time>
      </trkpt>
      <trkpt lat="45.05511" lon="5.93145">
        <ele>2169</ele>
        <time>2021-10-24T11:11:15Z</time>
      </trkpt>
      <trkpt lat="45.05511" lon="5.93145">
        <ele>2169</ele>
        <time>2021-10-24T11:11:20Z</time>
      </trkpt>
      <trkpt lat="45.05511" lon="5.93145">
        <ele>2169</ele>
        <time>2021-10-24T11:11:25Z</time>
      </trkpt>
      <trkpt lat="45.05511" lon="5.93145">
        <ele>2169</ele>
        <time>2021-10-24T11:11:30Z</time>
      </trkpt>
      <trkpt lat="45.05511" lon="5.93145">
        <ele>2169</ele>
        <time>2021-10-24T11:11:35Z</time>
      </trkpt>
      <trkpt lat="45.05511" lon="5.93145">
        <ele>2169</ele>
        <time>2021-10-24T11:11:40Z</time>
      </trkpt>
      <trkpt lat="45.05511" lon="5.93145">
        <ele>2169</ele>
        <time>2021-10-24T11:11:45Z</time>
      </trkpt>
      <trkpt lat="45.05511" lon="5.93145">
        <ele>2169</ele>
        <time>2021-10-24T11:11:50Z</time>
      </trkpt>
      <trkpt lat="45.05511" lon="5.93145">
        <ele>2169</ele>
        <time>2021-10-24T11:11:55Z</time>
      </trkpt>
      <trkpt lat="45.05511" lon="5.93145">
        <ele>2169</ele>
        <time>2021-10-24T11:12:00Z</time>
      </trkpt>
      <trkpt lat="45.05511" lon="5.93145">
        <ele>2169</ele>
        <time>2021-10-24T11:12:06Z</time>
      </trkpt>
      <trkpt lat="45.05511" lon="5.93145">
        <ele>2169</ele>
        <time>2021-10-24T11:12:11Z</time>
      </trkpt>
      <trkpt lat="45.05511" lon="5.93145">
        <ele>2169</ele>
        <time>2021-10-24T11:12:16Z</time>
      </trkpt>
      <trkpt lat="45.05511" lon="5.93145">
        <ele>2169</ele>
        <time>2021-10-24T11:12:21Z</time>
      </trkpt>
      <trkpt lat="45.05511" lon="5.93145">
        <ele>2169</ele>
        <time>2021-10-24T11:12:26Z</time>
      </trkpt>
      <trkpt lat="45.05511" lon="5.93145">
        <ele>2169</ele>
        <time>2021-10-24T11:12:31Z</time>
      </trkpt>
      <trkpt lat="45.05511" lon="5.93145">
        <ele>2169</ele>
        <time>2021-10-24T11:12:36Z</time>
      </trkpt>
      <trkpt lat="45.05511" lon="5.93145">
        <ele>2169</ele>
        <time>2021-10-24T11:12:41Z</time>
      </trkpt>
      <trkpt lat="45.05511" lon="5.93145">
        <ele>2169</ele>
        <time>2021-10-24T11:12:46Z</time>
      </trkpt>
      <trkpt lat="45.05511" lon="5.93145">
        <ele>2169</ele>
        <time>2021-10-24T11:12:51Z</time>
      </trkpt>
      <trkpt lat="45.05511" lon="5.93145">
        <ele>2169</ele>
        <time>2021-10-24T11:12:56Z</time>
      </trkpt>
      <trkpt lat="45.05511" lon="5.93145">
        <ele>2169</ele>
        <time>2021-10-24T11:13:01Z</time>
      </trkpt>
      <trkpt lat="45.05511" lon="5.93145">
        <ele>2169</ele>
        <time>2021-10-24T11:13:06Z</time>
      </trkpt>
      <trkpt lat="45.05512" lon="5.93139">
        <ele>2156</ele>
        <time>2021-10-24T11:29:11Z</time>
      </trkpt>
      <trkpt lat="45.0551" lon="5.93146">
        <ele>2175</ele>
        <time>2021-10-24T11:29:16Z</time>
      </trkpt>
      <trkpt lat="45.0551" lon="5.93143">
        <ele>2170</ele>
        <time>2021-10-24T11:29:22Z</time>
      </trkpt>
      <trkpt lat="45.05512" lon="5.93145">
        <ele>2169</ele>
        <time>2021-10-24T11:29:27Z</time>
      </trkpt>
      <trkpt lat="45.05513" lon="5.93146">
        <ele>2167</ele>
        <time>2021-10-24T11:29:32Z</time>
      </trkpt>
      <trkpt lat="45.05513" lon="5.93146">
        <ele>2167</ele>
        <time>2021-10-24T11:29:37Z</time>
      </trkpt>
      <trkpt lat="45.05513" lon="5.93146">
        <ele>2167</ele>
        <time>2021-10-24T11:29:42Z</time>
      </trkpt>
      <trkpt lat="45.05513" lon="5.93146">
        <ele>2167</ele>
        <time>2021-10-24T11:29:48Z</time>
      </trkpt>
      <trkpt lat="45.05513" lon="5.93146">
        <ele>2167</ele>
        <time>2021-10-24T11:29:53Z</time>
      </trkpt>
      <trkpt lat="45.05513" lon="5.93146">
        <ele>2167</ele>
        <time>2021-10-24T11:29:59Z</time>
      </trkpt>
      <trkpt lat="45.05513" lon="5.93146">
        <ele>2167</ele>
        <time>2021-10-24T11:30:05Z</time>
      </trkpt>
      <trkpt lat="45.05513" lon="5.93146">
        <ele>2167</ele>
        <time>2021-10-24T11:30:11Z</time>
      </trkpt>
      <trkpt lat="45.05513" lon="5.93146">
        <ele>2167</ele>
        <time>2021-10-24T11:30:16Z</time>
      </trkpt>
      <trkpt lat="45.05513" lon="5.93146">
        <ele>2167</ele>
        <time>2021-10-24T11:30:21Z</time>
      </trkpt>
      <trkpt lat="45.05513" lon="5.93146">
        <ele>2167</ele>
        <time>2021-10-24T11:30:27Z</time>
      </trkpt>
      <trkpt lat="45.05513" lon="5.93146">
        <ele>2167</ele>
        <time>2021-10-24T11:30:33Z</time>
      </trkpt>
      <trkpt lat="45.05513" lon="5.93147">
        <ele>2167</ele>
        <time>2021-10-24T11:30:38Z</time>
      </trkpt>
      <trkpt lat="45.05513" lon="5.93149">
        <ele>2167</ele>
        <time>2021-10-24T11:30:43Z</time>
      </trkpt>
      <trkpt lat="45.05513" lon="5.93148">
        <ele>2167</ele>
        <time>2021-10-24T11:30:49Z</time>
      </trkpt>
      <trkpt lat="45.05513" lon="5.93148">
        <ele>2167</ele>
        <time>2021-10-24T11:30:54Z</time>
      </trkpt>
      <trkpt lat="45.05513" lon="5.93148">
        <ele>2167</ele>
        <time>2021-10-24T11:31:00Z</time>
      </trkpt>
      <trkpt lat="45.05513" lon="5.93148">
        <ele>2167</ele>
        <time>2021-10-24T11:31:06Z</time>
      </trkpt>
      <trkpt lat="45.05514" lon="5.93147">
        <ele>2167</ele>
        <time>2021-10-24T11:31:12Z</time>
      </trkpt>
      <trkpt lat="45.05514" lon="5.93147">
        <ele>2167</ele>
        <time>2021-10-24T11:31:17Z</time>
      </trkpt>
      <trkpt lat="45.05514" lon="5.93148">
        <ele>2167</ele>
        <time>2021-10-24T11:31:23Z</time>
      </trkpt>
      <trkpt lat="45.05514" lon="5.93148">
        <ele>2167</ele>
        <time>2021-10-24T11:31:28Z</time>
      </trkpt>
      <trkpt lat="45.05514" lon="5.93148">
        <ele>2167</ele>
        <time>2021-10-24T11:31:34Z</time>
      </trkpt>
      <trkpt lat="45.05514" lon="5.93148">
        <ele>2167</ele>
        <time>2021-10-24T11:31:39Z</time>
      </trkpt>
      <trkpt lat="45.05514" lon="5.93148">
        <ele>2167</ele>
        <time>2021-10-24T11:31:45Z</time>
      </trkpt>
      <trkpt lat="45.05515" lon="5.93148">
        <ele>2167</ele>
        <time>2021-10-24T11:31:51Z</time>
      </trkpt>
      <trkpt lat="45.05514" lon="5.93148">
        <ele>2167</ele>
        <time>2021-10-24T11:31:56Z</time>
      </trkpt>
      <trkpt lat="45.05514" lon="5.93148">
        <ele>2167</ele>
        <time>2021-10-24T11:32:01Z</time>
      </trkpt>
      <trkpt lat="45.05514" lon="5.93147">
        <ele>2167</ele>
        <time>2021-10-24T11:32:07Z</time>
      </trkpt>
      <trkpt lat="45.05514" lon="5.93146">
        <ele>2167</ele>
        <time>2021-10-24T11:32:13Z</time>
      </trkpt>
      <trkpt lat="45.05514" lon="5.93146">
        <ele>2167</ele>
        <time>2021-10-24T11:32:18Z</time>
      </trkpt>
      <trkpt lat="45.05514" lon="5.93145">
        <ele>2168</ele>
        <time>2021-10-24T11:32:24Z</time>
      </trkpt>
      <trkpt lat="45.05514" lon="5.93145">
        <ele>2168</ele>
        <time>2021-10-24T11:32:30Z</time>
      </trkpt>
      <trkpt lat="45.05514" lon="5.93145">
        <ele>2168</ele>
        <time>2021-10-24T11:32:36Z</time>
      </trkpt>
      <trkpt lat="45.05514" lon="5.93145">
        <ele>2168</ele>
        <time>2021-10-24T11:32:41Z</time>
      </trkpt>
      <trkpt lat="45.05514" lon="5.93145">
        <ele>2168</ele>
        <time>2021-10-24T11:32:47Z</time>
      </trkpt>
      <trkpt lat="45.05513" lon="5.93146">
        <ele>2167</ele>
        <time>2021-10-24T11:32:53Z</time>
      </trkpt>
      <trkpt lat="45.05513" lon="5.93145">
        <ele>2167</ele>
        <time>2021-10-24T11:32:58Z</time>
      </trkpt>
      <trkpt lat="45.05513" lon="5.93145">
        <ele>2167</ele>
        <time>2021-10-24T11:33:03Z</time>
      </trkpt>
      <trkpt lat="45.05513" lon="5.93145">
        <ele>2167</ele>
        <time>2021-10-24T11:33:09Z</time>
      </trkpt>
      <trkpt lat="45.05513" lon="5.93145">
        <ele>2167</ele>
        <time>2021-10-24T11:33:15Z</time>
      </trkpt>
      <trkpt lat="45.05514" lon="5.93145">
        <ele>2167</ele>
        <time>2021-10-24T11:33:20Z</time>
      </trkpt>
      <trkpt lat="45.05513" lon="5.93145">
        <ele>2168</ele>
        <time>2021-10-24T11:33:25Z</time>
      </trkpt>
      <trkpt lat="45.05513" lon="5.93145">
        <ele>2168</ele>
        <time>2021-10-24T11:33:31Z</time>
      </trkpt>
      <trkpt lat="45.05513" lon="5.93145">
        <ele>2168</ele>
        <time>2021-10-24T11:33:37Z</time>
      </trkpt>
      <trkpt lat="45.05513" lon="5.93145">
        <ele>2168</ele>
        <time>2021-10-24T11:33:42Z</time>
      </trkpt>
      <trkpt lat="45.05513" lon="5.93145">
        <ele>2168</ele>
        <time>2021-10-24T11:33:48Z</time>
      </trkpt>
      <trkpt lat="45.05513" lon="5.93145">
        <ele>2168</ele>
        <time>2021-10-24T11:33:54Z</time>
      </trkpt>
      <trkpt lat="45.05513" lon="5.93145">
        <ele>2168</ele>
        <time>2021-10-24T11:34:00Z</time>
      </trkpt>
      <trkpt lat="45.05513" lon="5.93145">
        <ele>2168</ele>
        <time>2021-10-24T11:34:05Z</time>
      </trkpt>
      <trkpt lat="45.05513" lon="5.93145">
        <ele>2168</ele>
        <time>2021-10-24T11:34:11Z</time>
      </trkpt>
      <trkpt lat="45.05513" lon="5.93145">
        <ele>2168</ele>
        <time>2021-10-24T11:34:16Z</time>
      </trkpt>
      <trkpt lat="45.05513" lon="5.93145">
        <ele>2168</ele>
        <time>2021-10-24T11:34:21Z</time>
      </trkpt>
      <trkpt lat="45.05514" lon="5.93144">
        <ele>2167</ele>
        <time>2021-10-24T11:34:26Z</time>
      </trkpt>
      <trkpt lat="45.05514" lon="5.93144">
        <ele>2167</ele>
        <time>2021-10-24T11:34:32Z</time>
      </trkpt>
      <trkpt lat="45.05514" lon="5.93143">
        <ele>2166</ele>
        <time>2021-10-24T11:34:37Z</time>
      </trkpt>
      <trkpt lat="45.05514" lon="5.93143">
        <ele>2166</ele>
        <time>2021-10-24T11:34:43Z</time>
      </trkpt>
      <trkpt lat="45.05513" lon="5.93143">
        <ele>2167</ele>
        <time>2021-10-24T11:34:49Z</time>
      </trkpt>
      <trkpt lat="45.05513" lon="5.93143">
        <ele>2167</ele>
        <time>2021-10-24T11:34:54Z</time>
      </trkpt>
      <trkpt lat="45.05513" lon="5.93143">
        <ele>2167</ele>
        <time>2021-10-24T11:35:00Z</time>
      </trkpt>
      <trkpt lat="45.05514" lon="5.93143">
        <ele>2166</ele>
        <time>2021-10-24T11:35:06Z</time>
      </trkpt>
      <trkpt lat="45.05514" lon="5.93143">
        <ele>2166</ele>
        <time>2021-10-24T11:35:12Z</time>
      </trkpt>
      <trkpt lat="45.05514" lon="5.93143">
        <ele>2166</ele>
        <time>2021-10-24T11:35:18Z</time>
      </trkpt>
      <trkpt lat="45.05514" lon="5.93143">
        <ele>2166</ele>
        <time>2021-10-24T11:35:23Z</time>
      </trkpt>
      <trkpt lat="45.05514" lon="5.93143">
        <ele>2166</ele>
        <time>2021-10-24T11:35:28Z</time>
      </trkpt>
      <trkpt lat="45.05514" lon="5.93143">
        <ele>2166</ele>
        <time>2021-10-24T11:35:34Z</time>
      </trkpt>
      <trkpt lat="45.05514" lon="5.93143">
        <ele>2166</ele>
        <time>2021-10-24T11:35:40Z</time>
      </trkpt>
      <trkpt lat="45.05514" lon="5.93143">
        <ele>2166</ele>
        <time>2021-10-24T11:35:45Z</time>
      </trkpt>
      <trkpt lat="45.05514" lon="5.93143">
        <ele>2166</ele>
        <time>2021-10-24T11:35:50Z</time>
      </trkpt>
      <trkpt lat="45.05514" lon="5.93143">
        <ele>2166</ele>
        <time>2021-10-24T11:35:56Z</time>
      </trkpt>
      <trkpt lat="45.05514" lon="5.93143">
        <ele>2166</ele>
        <time>2021-10-24T11:36:01Z</time>
      </trkpt>
      <trkpt lat="45.05514" lon="5.93143">
        <ele>2166</ele>
        <time>2021-10-24T11:36:06Z</time>
      </trkpt>
      <trkpt lat="45.05514" lon="5.93143">
        <ele>2166</ele>
        <time>2021-10-24T11:36:12Z</time>
      </trkpt>
      <trkpt lat="45.05514" lon="5.93143">
        <ele>2166</ele>
        <time>2021-10-24T11:36:17Z</time>
      </trkpt>
      <trkpt lat="45.05514" lon="5.93143">
        <ele>2166</ele>
        <time>2021-10-24T11:36:23Z</time>
      </trkpt>
      <trkpt lat="45.05514" lon="5.93143">
        <ele>2166</ele>
        <time>2021-10-24T11:36:29Z</time>
      </trkpt>
      <trkpt lat="45.05514" lon="5.93143">
        <ele>2166</ele>
        <time>2021-10-24T11:36:34Z</time>
      </trkpt>
      <trkpt lat="45.05514" lon="5.93143">
        <ele>2166</ele>
        <time>2021-10-24T11:36:40Z</time>
      </trkpt>
      <trkpt lat="45.05514" lon="5.93143">
        <ele>2166</ele>
        <time>2021-10-24T11:36:45Z</time>
      </trkpt>
      <trkpt lat="45.05514" lon="5.93143">
        <ele>2166</ele>
        <time>2021-10-24T11:36:50Z</time>
      </trkpt>
      <trkpt lat="45.05513" lon="5.93143">
        <ele>2165</ele>
        <time>2021-10-24T11:36:56Z</time>
      </trkpt>
      <trkpt lat="45.05513" lon="5.93143">
        <ele>2165</ele>
        <time>2021-10-24T11:37:01Z</time>
      </trkpt>
      <trkpt lat="45.05513" lon="5.93143">
        <ele>2165</ele>
        <time>2021-10-24T11:37:07Z</time>
      </trkpt>
      <trkpt lat="45.05513" lon="5.93143">
        <ele>2165</ele>
        <time>2021-10-24T11:37:13Z</time>
      </trkpt>
      <trkpt lat="45.05513" lon="5.93143">
        <ele>2165</ele>
        <time>2021-10-24T11:37:19Z</time>
      </trkpt>
      <trkpt lat="45.05513" lon="5.93143">
        <ele>2165</ele>
        <time>2021-10-24T11:37:25Z</time>
      </trkpt>
      <trkpt lat="45.05513" lon="5.93143">
        <ele>2165</ele>
        <time>2021-10-24T11:37:30Z</time>
      </trkpt>
      <trkpt lat="45.05513" lon="5.93143">
        <ele>2165</ele>
        <time>2021-10-24T11:37:36Z</time>
      </trkpt>
      <trkpt lat="45.05512" lon="5.93143">
        <ele>2165</ele>
        <time>2021-10-24T11:37:41Z</time>
      </trkpt>
      <trkpt lat="45.05512" lon="5.93143">
        <ele>2165</ele>
        <time>2021-10-24T11:37:46Z</time>
      </trkpt>
      <trkpt lat="45.05512" lon="5.93143">
        <ele>2165</ele>
        <time>2021-10-24T11:37:53Z</time>
      </trkpt>
      <trkpt lat="45.05512" lon="5.93143">
        <ele>2165</ele>
        <time>2021-10-24T11:37:58Z</time>
      </trkpt>
      <trkpt lat="45.05512" lon="5.93143">
        <ele>2165</ele>
        <time>2021-10-24T11:38:03Z</time>
      </trkpt>
      <trkpt lat="45.05512" lon="5.93143">
        <ele>2165</ele>
        <time>2021-10-24T11:38:09Z</time>
      </trkpt>
      <trkpt lat="45.05512" lon="5.93143">
        <ele>2165</ele>
        <time>2021-10-24T11:38:15Z</time>
      </trkpt>
      <trkpt lat="45.05512" lon="5.93143">
        <ele>2165</ele>
        <time>2021-10-24T11:38:21Z</time>
      </trkpt>
      <trkpt lat="45.05512" lon="5.93143">
        <ele>2165</ele>
        <time>2021-10-24T11:38:27Z</time>
      </trkpt>
      <trkpt lat="45.05512" lon="5.93143">
        <ele>2165</ele>
        <time>2021-10-24T11:38:32Z</time>
      </trkpt>
      <trkpt lat="45.05512" lon="5.93143">
        <ele>2165</ele>
        <time>2021-10-24T11:38:37Z</time>
      </trkpt>
      <trkpt lat="45.05512" lon="5.93143">
        <ele>2165</ele>
        <time>2021-10-24T11:38:43Z</time>
      </trkpt>
      <trkpt lat="45.05512" lon="5.93143">
        <ele>2165</ele>
        <time>2021-10-24T11:38:49Z</time>
      </trkpt>
      <trkpt lat="45.05512" lon="5.93143">
        <ele>2165</ele>
        <time>2021-10-24T11:38:55Z</time>
      </trkpt>
      <trkpt lat="45.05512" lon="5.93143">
        <ele>2165</ele>
        <time>2021-10-24T11:39:01Z</time>
      </trkpt>
      <trkpt lat="45.05512" lon="5.93143">
        <ele>2165</ele>
        <time>2021-10-24T11:39:07Z</time>
      </trkpt>
      <trkpt lat="45.05512" lon="5.93143">
        <ele>2165</ele>
        <time>2021-10-24T11:39:13Z</time>
      </trkpt>
      <trkpt lat="45.05512" lon="5.93143">
        <ele>2165</ele>
        <time>2021-10-24T11:39:18Z</time>
      </trkpt>
      <trkpt lat="45.05512" lon="5.93143">
        <ele>2165</ele>
        <time>2021-10-24T11:39:24Z</time>
      </trkpt>
      <trkpt lat="45.05512" lon="5.93143">
        <ele>2165</ele>
        <time>2021-10-24T11:39:30Z</time>
      </trkpt>
      <trkpt lat="45.05512" lon="5.93143">
        <ele>2165</ele>
        <time>2021-10-24T11:39:35Z</time>
      </trkpt>
      <trkpt lat="45.05512" lon="5.93143">
        <ele>2165</ele>
        <time>2021-10-24T11:39:41Z</time>
      </trkpt>
      <trkpt lat="45.05512" lon="5.93143">
        <ele>2165</ele>
        <time>2021-10-24T11:39:47Z</time>
      </trkpt>
      <trkpt lat="45.05512" lon="5.93143">
        <ele>2165</ele>
        <time>2021-10-24T11:39:53Z</time>
      </trkpt>
      <trkpt lat="45.05512" lon="5.93143">
        <ele>2165</ele>
        <time>2021-10-24T11:39:58Z</time>
      </trkpt>
      <trkpt lat="45.05512" lon="5.93143">
        <ele>2165</ele>
        <time>2021-10-24T11:40:03Z</time>
      </trkpt>
      <trkpt lat="45.05512" lon="5.93143">
        <ele>2165</ele>
        <time>2021-10-24T11:40:09Z</time>
      </trkpt>
      <trkpt lat="45.05512" lon="5.93143">
        <ele>2165</ele>
        <time>2021-10-24T11:40:15Z</time>
      </trkpt>
      <trkpt lat="45.05512" lon="5.93143">
        <ele>2165</ele>
        <time>2021-10-24T11:40:20Z</time>
      </trkpt>
      <trkpt lat="45.05512" lon="5.93143">
        <ele>2165</ele>
        <time>2021-10-24T11:40:25Z</time>
      </trkpt>
      <trkpt lat="45.05512" lon="5.93143">
        <ele>2165</ele>
        <time>2021-10-24T11:40:31Z</time>
      </trkpt>
      <trkpt lat="45.05512" lon="5.93144">
        <ele>2165</ele>
        <time>2021-10-24T11:40:36Z</time>
      </trkpt>
      <trkpt lat="45.05512" lon="5.93144">
        <ele>2165</ele>
        <time>2021-10-24T11:40:42Z</time>
      </trkpt>
      <trkpt lat="45.05512" lon="5.93144">
        <ele>2165</ele>
        <time>2021-10-24T11:40:47Z</time>
      </trkpt>
      <trkpt lat="45.05512" lon="5.93144">
        <ele>2165</ele>
        <time>2021-10-24T11:40:53Z</time>
      </trkpt>
      <trkpt lat="45.05512" lon="5.93144">
        <ele>2165</ele>
        <time>2021-10-24T11:40:58Z</time>
      </trkpt>
      <trkpt lat="45.05512" lon="5.93144">
        <ele>2165</ele>
        <time>2021-10-24T11:41:03Z</time>
      </trkpt>
      <trkpt lat="45.05512" lon="5.93144">
        <ele>2165</ele>
        <time>2021-10-24T11:41:09Z</time>
      </trkpt>
      <trkpt lat="45.05512" lon="5.93144">
        <ele>2165</ele>
        <time>2021-10-24T11:41:15Z</time>
      </trkpt>
      <trkpt lat="45.05512" lon="5.93144">
        <ele>2165</ele>
        <time>2021-10-24T11:41:21Z</time>
      </trkpt>
      <trkpt lat="45.05512" lon="5.93144">
        <ele>2165</ele>
        <time>2021-10-24T11:41:27Z</time>
      </trkpt>
      <trkpt lat="45.05512" lon="5.93144">
        <ele>2165</ele>
        <time>2021-10-24T11:41:33Z</time>
      </trkpt>
      <trkpt lat="45.05512" lon="5.93144">
        <ele>2165</ele>
        <time>2021-10-24T11:41:39Z</time>
      </trkpt>
      <trkpt lat="45.05512" lon="5.93144">
        <ele>2165</ele>
        <time>2021-10-24T11:41:45Z</time>
      </trkpt>
      <trkpt lat="45.05512" lon="5.93144">
        <ele>2165</ele>
        <time>2021-10-24T11:41:50Z</time>
      </trkpt>
      <trkpt lat="45.05512" lon="5.93144">
        <ele>2165</ele>
        <time>2021-10-24T11:41:56Z</time>
      </trkpt>
      <trkpt lat="45.05512" lon="5.93144">
        <ele>2165</ele>
        <time>2021-10-24T11:42:02Z</time>
      </trkpt>
      <trkpt lat="45.05511" lon="5.93144">
        <ele>2165</ele>
        <time>2021-10-24T11:42:07Z</time>
      </trkpt>
      <trkpt lat="45.05511" lon="5.93144">
        <ele>2165</ele>
        <time>2021-10-24T11:42:13Z</time>
      </trkpt>
      <trkpt lat="45.05512" lon="5.93144">
        <ele>2165</ele>
        <time>2021-10-24T11:42:19Z</time>
      </trkpt>
      <trkpt lat="45.05512" lon="5.93144">
        <ele>2165</ele>
        <time>2021-10-24T11:42:25Z</time>
      </trkpt>
      <trkpt lat="45.05511" lon="5.93144">
        <ele>2166</ele>
        <time>2021-10-24T11:42:30Z</time>
      </trkpt>
      <trkpt lat="45.05511" lon="5.93144">
        <ele>2166</ele>
        <time>2021-10-24T11:42:35Z</time>
      </trkpt>
      <trkpt lat="45.05511" lon="5.93144">
        <ele>2166</ele>
        <time>2021-10-24T11:42:40Z</time>
      </trkpt>
      <trkpt lat="45.05511" lon="5.93144">
        <ele>2166</ele>
        <time>2021-10-24T11:42:46Z</time>
      </trkpt>
      <trkpt lat="45.05511" lon="5.93144">
        <ele>2166</ele>
        <time>2021-10-24T11:42:52Z</time>
      </trkpt>
      <trkpt lat="45.05511" lon="5.93144">
        <ele>2166</ele>
        <time>2021-10-24T11:42:58Z</time>
      </trkpt>
      <trkpt lat="45.05511" lon="5.93144">
        <ele>2166</ele>
        <time>2021-10-24T11:43:03Z</time>
      </trkpt>
      <trkpt lat="45.05511" lon="5.93144">
        <ele>2166</ele>
        <time>2021-10-24T11:43:09Z</time>
      </trkpt>
      <trkpt lat="45.05511" lon="5.93144">
        <ele>2166</ele>
        <time>2021-10-24T11:43:14Z</time>
      </trkpt>
      <trkpt lat="45.05511" lon="5.93144">
        <ele>2166</ele>
        <time>2021-10-24T11:43:19Z</time>
      </trkpt>
      <trkpt lat="45.05511" lon="5.93144">
        <ele>2166</ele>
        <time>2021-10-24T11:43:24Z</time>
      </trkpt>
      <trkpt lat="45.05512" lon="5.93144">
        <ele>2166</ele>
        <time>2021-10-24T11:43:30Z</time>
      </trkpt>
      <trkpt lat="45.05512" lon="5.93144">
        <ele>2166</ele>
        <time>2021-10-24T11:43:36Z</time>
      </trkpt>
      <trkpt lat="45.05512" lon="5.93144">
        <ele>2166</ele>
        <time>2021-10-24T11:43:41Z</time>
      </trkpt>
      <trkpt lat="45.05512" lon="5.93143">
        <ele>2166</ele>
        <time>2021-10-24T11:43:46Z</time>
      </trkpt>
      <trkpt lat="45.05512" lon="5.93144">
        <ele>2165</ele>
        <time>2021-10-24T11:43:52Z</time>
      </trkpt>
      <trkpt lat="45.05513" lon="5.93144">
        <ele>2166</ele>
        <time>2021-10-24T11:43:58Z</time>
      </trkpt>
      <trkpt lat="45.05512" lon="5.93145">
        <ele>2167</ele>
        <time>2021-10-24T11:44:04Z</time>
      </trkpt>
      <trkpt lat="45.05512" lon="5.93144">
        <ele>2166</ele>
        <time>2021-10-24T11:44:09Z</time>
      </trkpt>
      <trkpt lat="45.05513" lon="5.93144">
        <ele>2166</ele>
        <time>2021-10-24T11:44:15Z</time>
      </trkpt>
      <trkpt lat="45.05514" lon="5.93143">
        <ele>2167</ele>
        <time>2021-10-24T11:44:20Z</time>
      </trkpt>
      <trkpt lat="45.05513" lon="5.93143">
        <ele>2167</ele>
        <time>2021-10-24T11:44:26Z</time>
      </trkpt>
      <trkpt lat="45.05513" lon="5.93143">
        <ele>2167</ele>
        <time>2021-10-24T11:44:31Z</time>
      </trkpt>
      <trkpt lat="45.05511" lon="5.93143">
        <ele>2168</ele>
        <time>2021-10-24T11:44:36Z</time>
      </trkpt>
      <trkpt lat="45.05511" lon="5.93143">
        <ele>2168</ele>
        <time>2021-10-24T11:44:42Z</time>
      </trkpt>
      <trkpt lat="45.05511" lon="5.93143">
        <ele>2168</ele>
        <time>2021-10-24T11:44:48Z</time>
      </trkpt>
      <trkpt lat="45.05511" lon="5.93143">
        <ele>2168</ele>
        <time>2021-10-24T11:44:53Z</time>
      </trkpt>
      <trkpt lat="45.05511" lon="5.93143">
        <ele>2168</ele>
        <time>2021-10-24T11:44:58Z</time>
      </trkpt>
      <trkpt lat="45.05511" lon="5.93143">
        <ele>2168</ele>
        <time>2021-10-24T11:45:04Z</time>
      </trkpt>
      <trkpt lat="45.05511" lon="5.93142">
        <ele>2168</ele>
        <time>2021-10-24T11:45:10Z</time>
      </trkpt>
      <trkpt lat="45.05512" lon="5.93142">
        <ele>2168</ele>
        <time>2021-10-24T11:45:16Z</time>
      </trkpt>
      <trkpt lat="45.05512" lon="5.93142">
        <ele>2168</ele>
        <time>2021-10-24T11:45:22Z</time>
      </trkpt>
      <trkpt lat="45.05512" lon="5.93142">
        <ele>2168</ele>
        <time>2021-10-24T11:45:28Z</time>
      </trkpt>
      <trkpt lat="45.05512" lon="5.93142">
        <ele>2168</ele>
        <time>2021-10-24T11:45:34Z</time>
      </trkpt>
      <trkpt lat="45.05512" lon="5.93142">
        <ele>2168</ele>
        <time>2021-10-24T11:45:40Z</time>
      </trkpt>
      <trkpt lat="45.05512" lon="5.93142">
        <ele>2168</ele>
        <time>2021-10-24T11:45:45Z</time>
      </trkpt>
      <trkpt lat="45.05512" lon="5.93142">
        <ele>2168</ele>
        <time>2021-10-24T11:45:51Z</time>
      </trkpt>
      <trkpt lat="45.05512" lon="5.93142">
        <ele>2168</ele>
        <time>2021-10-24T11:45:56Z</time>
      </trkpt>
      <trkpt lat="45.05512" lon="5.93142">
        <ele>2168</ele>
        <time>2021-10-24T11:46:02Z</time>
      </trkpt>
      <trkpt lat="45.05512" lon="5.93142">
        <ele>2168</ele>
        <time>2021-10-24T11:46:07Z</time>
      </trkpt>
      <trkpt lat="45.05512" lon="5.93142">
        <ele>2168</ele>
        <time>2021-10-24T11:46:13Z</time>
      </trkpt>
      <trkpt lat="45.05511" lon="5.93142">
        <ele>2168</ele>
        <time>2021-10-24T11:46:18Z</time>
      </trkpt>
      <trkpt lat="45.05511" lon="5.93142">
        <ele>2168</ele>
        <time>2021-10-24T11:46:23Z</time>
      </trkpt>
      <trkpt lat="45.05511" lon="5.93142">
        <ele>2168</ele>
        <time>2021-10-24T11:46:29Z</time>
      </trkpt>
      <trkpt lat="45.05512" lon="5.93142">
        <ele>2168</ele>
        <time>2021-10-24T11:46:35Z</time>
      </trkpt>
      <trkpt lat="45.05512" lon="5.93141">
        <ele>2168</ele>
        <time>2021-10-24T11:46:40Z</time>
      </trkpt>
      <trkpt lat="45.05511" lon="5.93141">
        <ele>2168</ele>
        <time>2021-10-24T11:46:46Z</time>
      </trkpt>
      <trkpt lat="45.05511" lon="5.93141">
        <ele>2168</ele>
        <time>2021-10-24T11:46:51Z</time>
      </trkpt>
      <trkpt lat="45.05511" lon="5.93141">
        <ele>2168</ele>
        <time>2021-10-24T11:46:57Z</time>
      </trkpt>
      <trkpt lat="45.05511" lon="5.93141">
        <ele>2168</ele>
        <time>2021-10-24T11:47:02Z</time>
      </trkpt>
      <trkpt lat="45.05511" lon="5.93141">
        <ele>2168</ele>
        <time>2021-10-24T11:47:08Z</time>
      </trkpt>
      <trkpt lat="45.05511" lon="5.93141">
        <ele>2168</ele>
        <time>2021-10-24T11:47:13Z</time>
      </trkpt>
      <trkpt lat="45.05511" lon="5.93141">
        <ele>2168</ele>
        <time>2021-10-24T11:47:18Z</time>
      </trkpt>
      <trkpt lat="45.05511" lon="5.93141">
        <ele>2168</ele>
        <time>2021-10-24T11:47:24Z</time>
      </trkpt>
      <trkpt lat="45.05511" lon="5.93141">
        <ele>2168</ele>
        <time>2021-10-24T11:47:29Z</time>
      </trkpt>
      <trkpt lat="45.05511" lon="5.93141">
        <ele>2168</ele>
        <time>2021-10-24T11:47:35Z</time>
      </trkpt>
      <trkpt lat="45.05511" lon="5.93141">
        <ele>2168</ele>
        <time>2021-10-24T11:47:41Z</time>
      </trkpt>
      <trkpt lat="45.05511" lon="5.93141">
        <ele>2168</ele>
        <time>2021-10-24T11:47:46Z</time>
      </trkpt>
      <trkpt lat="45.05511" lon="5.93141">
        <ele>2168</ele>
        <time>2021-10-24T11:47:51Z</time>
      </trkpt>
      <trkpt lat="45.05511" lon="5.93141">
        <ele>2168</ele>
        <time>2021-10-24T11:47:57Z</time>
      </trkpt>
      <trkpt lat="45.05511" lon="5.93141">
        <ele>2168</ele>
        <time>2021-10-24T11:48:02Z</time>
      </trkpt>
      <trkpt lat="45.05511" lon="5.93142">
        <ele>2168</ele>
        <time>2021-10-24T11:48:07Z</time>
      </trkpt>
      <trkpt lat="45.05511" lon="5.93142">
        <ele>2168</ele>
        <time>2021-10-24T11:48:13Z</time>
      </trkpt>
      <trkpt lat="45.05511" lon="5.93141">
        <ele>2168</ele>
        <time>2021-10-24T11:48:18Z</time>
      </trkpt>
      <trkpt lat="45.05511" lon="5.93141">
        <ele>2168</ele>
        <time>2021-10-24T11:48:24Z</time>
      </trkpt>
      <trkpt lat="45.05511" lon="5.93141">
        <ele>2168</ele>
        <time>2021-10-24T11:48:30Z</time>
      </trkpt>
      <trkpt lat="45.05511" lon="5.93141">
        <ele>2168</ele>
        <time>2021-10-24T11:48:35Z</time>
      </trkpt>
      <trkpt lat="45.05511" lon="5.93141">
        <ele>2168</ele>
        <time>2021-10-24T11:48:41Z</time>
      </trkpt>
      <trkpt lat="45.05511" lon="5.93141">
        <ele>2168</ele>
        <time>2021-10-24T11:48:46Z</time>
      </trkpt>
      <trkpt lat="45.05511" lon="5.93141">
        <ele>2168</ele>
        <time>2021-10-24T11:48:53Z</time>
      </trkpt>
      <trkpt lat="45.05511" lon="5.93141">
        <ele>2168</ele>
        <time>2021-10-24T11:48:58Z</time>
      </trkpt>
      <trkpt lat="45.05511" lon="5.93141">
        <ele>2168</ele>
        <time>2021-10-24T11:49:04Z</time>
      </trkpt>
      <trkpt lat="45.05511" lon="5.93141">
        <ele>2168</ele>
        <time>2021-10-24T11:49:09Z</time>
      </trkpt>
      <trkpt lat="45.05511" lon="5.93141">
        <ele>2168</ele>
        <time>2021-10-24T11:49:14Z</time>
      </trkpt>
      <trkpt lat="45.05511" lon="5.93141">
        <ele>2168</ele>
        <time>2021-10-24T11:49:19Z</time>
      </trkpt>
      <trkpt lat="45.05511" lon="5.93141">
        <ele>2168</ele>
        <time>2021-10-24T11:49:24Z</time>
      </trkpt>
      <trkpt lat="45.05511" lon="5.93141">
        <ele>2168</ele>
        <time>2021-10-24T11:49:30Z</time>
      </trkpt>
      <trkpt lat="45.05511" lon="5.93141">
        <ele>2168</ele>
        <time>2021-10-24T11:49:35Z</time>
      </trkpt>
      <trkpt lat="45.05511" lon="5.93141">
        <ele>2168</ele>
        <time>2021-10-24T11:49:41Z</time>
      </trkpt>
      <trkpt lat="45.05511" lon="5.93141">
        <ele>2168</ele>
        <time>2021-10-24T11:49:47Z</time>
      </trkpt>
      <trkpt lat="45.05511" lon="5.93141">
        <ele>2168</ele>
        <time>2021-10-24T11:49:53Z</time>
      </trkpt>
      <trkpt lat="45.05511" lon="5.93141">
        <ele>2168</ele>
        <time>2021-10-24T11:49:58Z</time>
      </trkpt>
      <trkpt lat="45.05511" lon="5.93141">
        <ele>2168</ele>
        <time>2021-10-24T11:50:04Z</time>
      </trkpt>
      <trkpt lat="45.05511" lon="5.93141">
        <ele>2168</ele>
        <time>2021-10-24T11:50:09Z</time>
      </trkpt>
      <trkpt lat="45.05511" lon="5.93141">
        <ele>2168</ele>
        <time>2021-10-24T11:50:15Z</time>
      </trkpt>
      <trkpt lat="45.05511" lon="5.93141">
        <ele>2168</ele>
        <time>2021-10-24T11:50:21Z</time>
      </trkpt>
      <trkpt lat="45.05511" lon="5.93141">
        <ele>2168</ele>
        <time>2021-10-24T11:50:27Z</time>
      </trkpt>
      <trkpt lat="45.05511" lon="5.93139">
        <ele>2166</ele>
        <time>2021-10-24T11:50:32Z</time>
      </trkpt>
      <trkpt lat="45.05511" lon="5.93139">
        <ele>2166</ele>
        <time>2021-10-24T11:50:38Z</time>
      </trkpt>
      <trkpt lat="45.05511" lon="5.93139">
        <ele>2166</ele>
        <time>2021-10-24T11:50:44Z</time>
      </trkpt>
      <trkpt lat="45.0551" lon="5.93142">
        <ele>2167</ele>
        <time>2021-10-24T11:50:50Z</time>
      </trkpt>
      <trkpt lat="45.0551" lon="5.93142">
        <ele>2167</ele>
        <time>2021-10-24T11:50:55Z</time>
      </trkpt>
      <trkpt lat="45.0551" lon="5.93142">
        <ele>2167</ele>
        <time>2021-10-24T11:51:00Z</time>
      </trkpt>
      <trkpt lat="45.05515" lon="5.93142">
        <ele>2167</ele>
        <time>2021-10-24T11:51:06Z</time>
      </trkpt>
      <trkpt lat="45.05499" lon="5.93139">
        <ele>2167</ele>
        <time>2021-10-24T11:52:16Z</time>
      </trkpt>
      <trkpt lat="45.05513" lon="5.93135">
        <ele>2170</ele>
        <time>2021-10-24T11:52:22Z</time>
      </trkpt>
      <trkpt lat="45.05517" lon="5.93131">
        <ele>2152</ele>
        <time>2021-10-24T11:52:27Z</time>
      </trkpt>
      <trkpt lat="45.05514" lon="5.93131">
        <ele>2149</ele>
        <time>2021-10-24T11:52:33Z</time>
      </trkpt>
      <trkpt lat="45.05514" lon="5.93131">
        <ele>2147</ele>
        <time>2021-10-24T11:52:39Z</time>
      </trkpt>
      <trkpt lat="45.05515" lon="5.9313">
        <ele>2153</ele>
        <time>2021-10-24T11:52:45Z</time>
      </trkpt>
      <trkpt lat="45.05515" lon="5.9313">
        <ele>2153</ele>
        <time>2021-10-24T11:52:51Z</time>
      </trkpt>
      <trkpt lat="45.05515" lon="5.93129">
        <ele>2151</ele>
        <time>2021-10-24T11:52:56Z</time>
      </trkpt>
      <trkpt lat="45.05516" lon="5.93127">
        <ele>2147</ele>
        <time>2021-10-24T11:53:02Z</time>
      </trkpt>
      <trkpt lat="45.05515" lon="5.93125">
        <ele>2147</ele>
        <time>2021-10-24T11:53:07Z</time>
      </trkpt>
      <trkpt lat="45.05515" lon="5.93125">
        <ele>2148</ele>
        <time>2021-10-24T11:53:12Z</time>
      </trkpt>
      <trkpt lat="45.05515" lon="5.93125">
        <ele>2148</ele>
        <time>2021-10-24T11:53:18Z</time>
      </trkpt>
      <trkpt lat="45.05515" lon="5.93125">
        <ele>2148</ele>
        <time>2021-10-24T11:53:23Z</time>
      </trkpt>
      <trkpt lat="45.05515" lon="5.93126">
        <ele>2146</ele>
        <time>2021-10-24T11:53:29Z</time>
      </trkpt>
      <trkpt lat="45.05515" lon="5.93127">
        <ele>2147</ele>
        <time>2021-10-24T11:53:35Z</time>
      </trkpt>
      <trkpt lat="45.05515" lon="5.93127">
        <ele>2147</ele>
        <time>2021-10-24T11:53:41Z</time>
      </trkpt>
      <trkpt lat="45.05516" lon="5.93127">
        <ele>2148</ele>
        <time>2021-10-24T11:53:46Z</time>
      </trkpt>
      <trkpt lat="45.05511" lon="5.93138">
        <ele>2157</ele>
        <time>2021-10-24T11:53:52Z</time>
      </trkpt>
      <trkpt lat="45.05508" lon="5.93139">
        <ele>2158</ele>
        <time>2021-10-24T11:53:57Z</time>
      </trkpt>
      <trkpt lat="45.05509" lon="5.93138">
        <ele>2158</ele>
        <time>2021-10-24T11:54:03Z</time>
      </trkpt>
      <trkpt lat="45.05511" lon="5.93138">
        <ele>2157</ele>
        <time>2021-10-24T11:54:08Z</time>
      </trkpt>
      <trkpt lat="45.05511" lon="5.93138">
        <ele>2158</ele>
        <time>2021-10-24T11:54:13Z</time>
      </trkpt>
      <trkpt lat="45.0551" lon="5.93137">
        <ele>2159</ele>
        <time>2021-10-24T11:54:19Z</time>
      </trkpt>
      <trkpt lat="45.0551" lon="5.93137">
        <ele>2159</ele>
        <time>2021-10-24T11:54:24Z</time>
      </trkpt>
      <trkpt lat="45.0551" lon="5.93137">
        <ele>2159</ele>
        <time>2021-10-24T11:54:29Z</time>
      </trkpt>
      <trkpt lat="45.0551" lon="5.93137">
        <ele>2159</ele>
        <time>2021-10-24T11:54:35Z</time>
      </trkpt>
      <trkpt lat="45.0551" lon="5.93137">
        <ele>2159</ele>
        <time>2021-10-24T11:54:41Z</time>
      </trkpt>
      <trkpt lat="45.0551" lon="5.93137">
        <ele>2159</ele>
        <time>2021-10-24T11:54:47Z</time>
      </trkpt>
      <trkpt lat="45.0551" lon="5.93137">
        <ele>2159</ele>
        <time>2021-10-24T11:54:52Z</time>
      </trkpt>
      <trkpt lat="45.0551" lon="5.93137">
        <ele>2159</ele>
        <time>2021-10-24T11:54:57Z</time>
      </trkpt>
      <trkpt lat="45.0551" lon="5.93137">
        <ele>2159</ele>
        <time>2021-10-24T11:55:03Z</time>
      </trkpt>
      <trkpt lat="45.0551" lon="5.93137">
        <ele>2159</ele>
        <time>2021-10-24T11:55:09Z</time>
      </trkpt>
      <trkpt lat="45.0551" lon="5.9314">
        <ele>2160</ele>
        <time>2021-10-24T11:55:15Z</time>
      </trkpt>
      <trkpt lat="45.0551" lon="5.9314">
        <ele>2160</ele>
        <time>2021-10-24T11:55:21Z</time>
      </trkpt>
      <trkpt lat="45.05511" lon="5.93141">
        <ele>2161</ele>
        <time>2021-10-24T11:55:26Z</time>
      </trkpt>
      <trkpt lat="45.05511" lon="5.93141">
        <ele>2160</ele>
        <time>2021-10-24T11:55:31Z</time>
      </trkpt>
      <trkpt lat="45.05511" lon="5.93141">
        <ele>2160</ele>
        <time>2021-10-24T11:55:36Z</time>
      </trkpt>
      <trkpt lat="45.05511" lon="5.93141">
        <ele>2160</ele>
        <time>2021-10-24T11:55:42Z</time>
      </trkpt>
      <trkpt lat="45.05511" lon="5.93143">
        <ele>2164</ele>
        <time>2021-10-24T11:55:48Z</time>
      </trkpt>
      <trkpt lat="45.0551" lon="5.93145">
        <ele>2166</ele>
        <time>2021-10-24T11:55:54Z</time>
      </trkpt>
      <trkpt lat="45.05511" lon="5.93144">
        <ele>2166</ele>
        <time>2021-10-24T11:55:59Z</time>
      </trkpt>
      <trkpt lat="45.05512" lon="5.93144">
        <ele>2167</ele>
        <time>2021-10-24T11:56:05Z</time>
      </trkpt>
      <trkpt lat="45.05513" lon="5.93144">
        <ele>2167</ele>
        <time>2021-10-24T11:56:10Z</time>
      </trkpt>
      <trkpt lat="45.05513" lon="5.93142">
        <ele>2165</ele>
        <time>2021-10-24T11:56:16Z</time>
      </trkpt>
      <trkpt lat="45.05514" lon="5.93143">
        <ele>2165</ele>
        <time>2021-10-24T11:56:21Z</time>
      </trkpt>
      <trkpt lat="45.05515" lon="5.93143">
        <ele>2165</ele>
        <time>2021-10-24T11:56:28Z</time>
      </trkpt>
      <trkpt lat="45.05513" lon="5.93142">
        <ele>2165</ele>
        <time>2021-10-24T11:56:33Z</time>
      </trkpt>
      <trkpt lat="45.05512" lon="5.93141">
        <ele>2165</ele>
        <time>2021-10-24T11:56:39Z</time>
      </trkpt>
      <trkpt lat="45.05511" lon="5.93142">
        <ele>2166</ele>
        <time>2021-10-24T11:56:45Z</time>
      </trkpt>
      <trkpt lat="45.05509" lon="5.93143">
        <ele>2168</ele>
        <time>2021-10-24T11:56:51Z</time>
      </trkpt>
      <trkpt lat="45.0551" lon="5.93143">
        <ele>2168</ele>
        <time>2021-10-24T11:56:57Z</time>
      </trkpt>
      <trkpt lat="45.05511" lon="5.93143">
        <ele>2167</ele>
        <time>2021-10-24T11:57:03Z</time>
      </trkpt>
      <trkpt lat="45.05511" lon="5.93143">
        <ele>2167</ele>
        <time>2021-10-24T11:57:08Z</time>
      </trkpt>
      <trkpt lat="45.05511" lon="5.93145">
        <ele>2168</ele>
        <time>2021-10-24T11:57:14Z</time>
      </trkpt>
      <trkpt lat="45.05511" lon="5.93146">
        <ele>2168</ele>
        <time>2021-10-24T11:57:19Z</time>
      </trkpt>
      <trkpt lat="45.05512" lon="5.93144">
        <ele>2168</ele>
        <time>2021-10-24T11:57:25Z</time>
      </trkpt>
      <trkpt lat="45.05512" lon="5.93144">
        <ele>2167</ele>
        <time>2021-10-24T11:57:31Z</time>
      </trkpt>
      <trkpt lat="45.05512" lon="5.93144">
        <ele>2167</ele>
        <time>2021-10-24T11:57:37Z</time>
      </trkpt>
      <trkpt lat="45.05511" lon="5.93143">
        <ele>2166</ele>
        <time>2021-10-24T11:57:42Z</time>
      </trkpt>
      <trkpt lat="45.0551" lon="5.93144">
        <ele>2167</ele>
        <time>2021-10-24T11:57:47Z</time>
      </trkpt>
      <trkpt lat="45.0551" lon="5.93146">
        <ele>2166</ele>
        <time>2021-10-24T11:57:53Z</time>
      </trkpt>
      <trkpt lat="45.05511" lon="5.93145">
        <ele>2166</ele>
        <time>2021-10-24T11:57:58Z</time>
      </trkpt>
      <trkpt lat="45.0551" lon="5.93143">
        <ele>2165</ele>
        <time>2021-10-24T11:58:03Z</time>
      </trkpt>
      <trkpt lat="45.05511" lon="5.93143">
        <ele>2164</ele>
        <time>2021-10-24T11:58:09Z</time>
      </trkpt>
      <trkpt lat="45.05511" lon="5.93144">
        <ele>2163</ele>
        <time>2021-10-24T11:58:15Z</time>
      </trkpt>
      <trkpt lat="45.05512" lon="5.93144">
        <ele>2161</ele>
        <time>2021-10-24T11:58:21Z</time>
      </trkpt>
      <trkpt lat="45.05514" lon="5.93143">
        <ele>2163</ele>
        <time>2021-10-24T11:58:26Z</time>
      </trkpt>
      <trkpt lat="45.05511" lon="5.93143">
        <ele>2164</ele>
        <time>2021-10-24T11:58:32Z</time>
      </trkpt>
      <trkpt lat="45.05512" lon="5.93143">
        <ele>2164</ele>
        <time>2021-10-24T11:58:37Z</time>
      </trkpt>
      <trkpt lat="45.05512" lon="5.93143">
        <ele>2164</ele>
        <time>2021-10-24T11:58:43Z</time>
      </trkpt>
      <trkpt lat="45.05511" lon="5.93146">
        <ele>2163</ele>
        <time>2021-10-24T11:58:49Z</time>
      </trkpt>
      <trkpt lat="45.05511" lon="5.93143">
        <ele>2164</ele>
        <time>2021-10-24T11:58:54Z</time>
      </trkpt>
      <trkpt lat="45.05512" lon="5.93143">
        <ele>2165</ele>
        <time>2021-10-24T11:59:00Z</time>
      </trkpt>
      <trkpt lat="45.05512" lon="5.93143">
        <ele>2165</ele>
        <time>2021-10-24T11:59:06Z</time>
      </trkpt>
      <trkpt lat="45.05512" lon="5.93143">
        <ele>2165</ele>
        <time>2021-10-24T11:59:12Z</time>
      </trkpt>
      <trkpt lat="45.05512" lon="5.93143">
        <ele>2165</ele>
        <time>2021-10-24T11:59:17Z</time>
      </trkpt>
      <trkpt lat="45.05512" lon="5.93143">
        <ele>2165</ele>
        <time>2021-10-24T11:59:22Z</time>
      </trkpt>
      <trkpt lat="45.05512" lon="5.93143">
        <ele>2164</ele>
        <time>2021-10-24T11:59:27Z</time>
      </trkpt>
      <trkpt lat="45.05511" lon="5.93144">
        <ele>2164</ele>
        <time>2021-10-24T11:59:33Z</time>
      </trkpt>
      <trkpt lat="45.05511" lon="5.93144">
        <ele>2164</ele>
        <time>2021-10-24T11:59:38Z</time>
      </trkpt>
      <trkpt lat="45.0551" lon="5.93143">
        <ele>2164</ele>
        <time>2021-10-24T11:59:44Z</time>
      </trkpt>
      <trkpt lat="45.0551" lon="5.93143">
        <ele>2164</ele>
        <time>2021-10-24T11:59:49Z</time>
      </trkpt>
      <trkpt lat="45.0551" lon="5.93144">
        <ele>2163</ele>
        <time>2021-10-24T11:59:55Z</time>
      </trkpt>
      <trkpt lat="45.05511" lon="5.93142">
        <ele>2163</ele>
        <time>2021-10-24T12:00:01Z</time>
      </trkpt>
      <trkpt lat="45.05511" lon="5.93142">
        <ele>2163</ele>
        <time>2021-10-24T12:00:06Z</time>
      </trkpt>
      <trkpt lat="45.05511" lon="5.93142">
        <ele>2163</ele>
        <time>2021-10-24T12:00:12Z</time>
      </trkpt>
      <trkpt lat="45.05511" lon="5.93142">
        <ele>2163</ele>
        <time>2021-10-24T12:00:17Z</time>
      </trkpt>
      <trkpt lat="45.05511" lon="5.93142">
        <ele>2163</ele>
        <time>2021-10-24T12:00:23Z</time>
      </trkpt>
      <trkpt lat="45.05511" lon="5.93142">
        <ele>2163</ele>
        <time>2021-10-24T12:00:29Z</time>
      </trkpt>
      <trkpt lat="45.05509" lon="5.93142">
        <ele>2161</ele>
        <time>2021-10-24T12:00:35Z</time>
      </trkpt>
      <trkpt lat="45.05511" lon="5.93144">
        <ele>2160</ele>
        <time>2021-10-24T12:00:40Z</time>
      </trkpt>
      <trkpt lat="45.05511" lon="5.93144">
        <ele>2160</ele>
        <time>2021-10-24T12:00:46Z</time>
      </trkpt>
      <trkpt lat="45.05511" lon="5.93144">
        <ele>2160</ele>
        <time>2021-10-24T12:00:51Z</time>
      </trkpt>
      <trkpt lat="45.05511" lon="5.93144">
        <ele>2160</ele>
        <time>2021-10-24T12:00:56Z</time>
      </trkpt>
      <trkpt lat="45.05511" lon="5.93144">
        <ele>2160</ele>
        <time>2021-10-24T12:01:02Z</time>
      </trkpt>
      <trkpt lat="45.0551" lon="5.93144">
        <ele>2160</ele>
        <time>2021-10-24T12:01:08Z</time>
      </trkpt>
      <trkpt lat="45.0551" lon="5.93144">
        <ele>2160</ele>
        <time>2021-10-24T12:01:14Z</time>
      </trkpt>
      <trkpt lat="45.05511" lon="5.93144">
        <ele>2161</ele>
        <time>2021-10-24T12:01:20Z</time>
      </trkpt>
      <trkpt lat="45.05511" lon="5.93144">
        <ele>2160</ele>
        <time>2021-10-24T12:01:25Z</time>
      </trkpt>
      <trkpt lat="45.05511" lon="5.93144">
        <ele>2162</ele>
        <time>2021-10-24T12:01:31Z</time>
      </trkpt>
      <trkpt lat="45.05511" lon="5.93144">
        <ele>2162</ele>
        <time>2021-10-24T12:01:36Z</time>
      </trkpt>
      <trkpt lat="45.05511" lon="5.93143">
        <ele>2163</ele>
        <time>2021-10-24T12:01:42Z</time>
      </trkpt>
      <trkpt lat="45.05511" lon="5.93143">
        <ele>2163</ele>
        <time>2021-10-24T12:01:47Z</time>
      </trkpt>
      <trkpt lat="45.05511" lon="5.93143">
        <ele>2163</ele>
        <time>2021-10-24T12:01:53Z</time>
      </trkpt>
      <trkpt lat="45.05511" lon="5.93143">
        <ele>2163</ele>
        <time>2021-10-24T12:01:59Z</time>
      </trkpt>
      <trkpt lat="45.05511" lon="5.93143">
        <ele>2163</ele>
        <time>2021-10-24T12:02:05Z</time>
      </trkpt>
      <trkpt lat="45.05511" lon="5.93143">
        <ele>2163</ele>
        <time>2021-10-24T12:02:11Z</time>
      </trkpt>
      <trkpt lat="45.05511" lon="5.93143">
        <ele>2163</ele>
        <time>2021-10-24T12:02:17Z</time>
      </trkpt>
      <trkpt lat="45.05511" lon="5.93143">
        <ele>2163</ele>
        <time>2021-10-24T12:02:22Z</time>
      </trkpt>
      <trkpt lat="45.05511" lon="5.93143">
        <ele>2163</ele>
        <time>2021-10-24T12:02:28Z</time>
      </trkpt>
      <trkpt lat="45.05511" lon="5.93143">
        <ele>2163</ele>
        <time>2021-10-24T12:02:33Z</time>
      </trkpt>
      <trkpt lat="45.0551" lon="5.93143">
        <ele>2165</ele>
        <time>2021-10-24T12:02:39Z</time>
      </trkpt>
      <trkpt lat="45.0551" lon="5.93143">
        <ele>2165</ele>
        <time>2021-10-24T12:02:45Z</time>
      </trkpt>
      <trkpt lat="45.0551" lon="5.93143">
        <ele>2165</ele>
        <time>2021-10-24T12:02:50Z</time>
      </trkpt>
      <trkpt lat="45.0551" lon="5.93143">
        <ele>2163</ele>
        <time>2021-10-24T12:02:56Z</time>
      </trkpt>
      <trkpt lat="45.0551" lon="5.93143">
        <ele>2163</ele>
        <time>2021-10-24T12:03:02Z</time>
      </trkpt>
      <trkpt lat="45.0551" lon="5.93143">
        <ele>2163</ele>
        <time>2021-10-24T12:03:08Z</time>
      </trkpt>
      <trkpt lat="45.0551" lon="5.93143">
        <ele>2163</ele>
        <time>2021-10-24T12:03:14Z</time>
      </trkpt>
      <trkpt lat="45.0551" lon="5.93144">
        <ele>2163</ele>
        <time>2021-10-24T12:03:20Z</time>
      </trkpt>
      <trkpt lat="45.0551" lon="5.93145">
        <ele>2161</ele>
        <time>2021-10-24T12:03:25Z</time>
      </trkpt>
      <trkpt lat="45.0551" lon="5.93145">
        <ele>2161</ele>
        <time>2021-10-24T12:03:31Z</time>
      </trkpt>
      <trkpt lat="45.0551" lon="5.93145">
        <ele>2161</ele>
        <time>2021-10-24T12:03:36Z</time>
      </trkpt>
      <trkpt lat="45.0551" lon="5.93145">
        <ele>2161</ele>
        <time>2021-10-24T12:03:41Z</time>
      </trkpt>
      <trkpt lat="45.0551" lon="5.93144">
        <ele>2163</ele>
        <time>2021-10-24T12:03:47Z</time>
      </trkpt>
      <trkpt lat="45.05509" lon="5.93143">
        <ele>2163</ele>
        <time>2021-10-24T12:03:52Z</time>
      </trkpt>
      <trkpt lat="45.05509" lon="5.93143">
        <ele>2162</ele>
        <time>2021-10-24T12:03:58Z</time>
      </trkpt>
      <trkpt lat="45.05509" lon="5.93143">
        <ele>2162</ele>
        <time>2021-10-24T12:04:03Z</time>
      </trkpt>
      <trkpt lat="45.05509" lon="5.93143">
        <ele>2162</ele>
        <time>2021-10-24T12:04:09Z</time>
      </trkpt>
      <trkpt lat="45.05509" lon="5.93143">
        <ele>2164</ele>
        <time>2021-10-24T12:04:15Z</time>
      </trkpt>
      <trkpt lat="45.05509" lon="5.93144">
        <ele>2164</ele>
        <time>2021-10-24T12:04:20Z</time>
      </trkpt>
      <trkpt lat="45.0551" lon="5.93142">
        <ele>2163</ele>
        <time>2021-10-24T12:04:26Z</time>
      </trkpt>
      <trkpt lat="45.05509" lon="5.93143">
        <ele>2164</ele>
        <time>2021-10-24T12:04:31Z</time>
      </trkpt>
      <trkpt lat="45.05509" lon="5.93143">
        <ele>2164</ele>
        <time>2021-10-24T12:04:36Z</time>
      </trkpt>
      <trkpt lat="45.05509" lon="5.93143">
        <ele>2164</ele>
        <time>2021-10-24T12:04:41Z</time>
      </trkpt>
      <trkpt lat="45.05509" lon="5.93143">
        <ele>2164</ele>
        <time>2021-10-24T12:04:47Z</time>
      </trkpt>
      <trkpt lat="45.05509" lon="5.93143">
        <ele>2164</ele>
        <time>2021-10-24T12:04:53Z</time>
      </trkpt>
      <trkpt lat="45.05509" lon="5.93143">
        <ele>2163</ele>
        <time>2021-10-24T12:04:58Z</time>
      </trkpt>
      <trkpt lat="45.05509" lon="5.93143">
        <ele>2163</ele>
        <time>2021-10-24T12:05:03Z</time>
      </trkpt>
      <trkpt lat="45.05509" lon="5.93144">
        <ele>2163</ele>
        <time>2021-10-24T12:05:08Z</time>
      </trkpt>
      <trkpt lat="45.05507" lon="5.93143">
        <ele>2164</ele>
        <time>2021-10-24T12:05:14Z</time>
      </trkpt>
      <trkpt lat="45.05505" lon="5.93148">
        <ele>2165</ele>
        <time>2021-10-24T12:05:20Z</time>
      </trkpt>
      <trkpt lat="45.05506" lon="5.93153">
        <ele>2165</ele>
        <time>2021-10-24T12:05:26Z</time>
      </trkpt>
      <trkpt lat="45.05508" lon="5.93156">
        <ele>2162</ele>
        <time>2021-10-24T12:05:31Z</time>
      </trkpt>
      <trkpt lat="45.0551" lon="5.93159">
        <ele>2162</ele>
        <time>2021-10-24T12:05:36Z</time>
      </trkpt>
      <trkpt lat="45.05513" lon="5.93159">
        <ele>2161</ele>
        <time>2021-10-24T12:05:41Z</time>
      </trkpt>
      <trkpt lat="45.05514" lon="5.93159">
        <ele>2159</ele>
        <time>2021-10-24T12:05:47Z</time>
      </trkpt>
      <trkpt lat="45.05515" lon="5.93163">
        <ele>2159</ele>
        <time>2021-10-24T12:05:53Z</time>
      </trkpt>
      <trkpt lat="45.05518" lon="5.93168">
        <ele>2158</ele>
        <time>2021-10-24T12:05:58Z</time>
      </trkpt>
      <trkpt lat="45.05522" lon="5.93171">
        <ele>2158</ele>
        <time>2021-10-24T12:06:04Z</time>
      </trkpt>
      <trkpt lat="45.05526" lon="5.93174">
        <ele>2157</ele>
        <time>2021-10-24T12:06:10Z</time>
      </trkpt>
      <trkpt lat="45.0553" lon="5.9318">
        <ele>2157</ele>
        <time>2021-10-24T12:06:15Z</time>
      </trkpt>
      <trkpt lat="45.05533" lon="5.93183">
        <ele>2157</ele>
        <time>2021-10-24T12:06:21Z</time>
      </trkpt>
      <trkpt lat="45.05537" lon="5.93184">
        <ele>2157</ele>
        <time>2021-10-24T12:06:27Z</time>
      </trkpt>
      <trkpt lat="45.05542" lon="5.93183">
        <ele>2157</ele>
        <time>2021-10-24T12:06:34Z</time>
      </trkpt>
      <trkpt lat="45.05544" lon="5.93186">
        <ele>2157</ele>
        <time>2021-10-24T12:06:39Z</time>
      </trkpt>
      <trkpt lat="45.05546" lon="5.93191">
        <ele>2158</ele>
        <time>2021-10-24T12:06:45Z</time>
      </trkpt>
      <trkpt lat="45.05546" lon="5.93197">
        <ele>2157</ele>
        <time>2021-10-24T12:06:50Z</time>
      </trkpt>
      <trkpt lat="45.05547" lon="5.93204">
        <ele>2156</ele>
        <time>2021-10-24T12:06:56Z</time>
      </trkpt>
      <trkpt lat="45.05549" lon="5.93209">
        <ele>2155</ele>
        <time>2021-10-24T12:07:01Z</time>
      </trkpt>
      <trkpt lat="45.05551" lon="5.93215">
        <ele>2154</ele>
        <time>2021-10-24T12:07:07Z</time>
      </trkpt>
      <trkpt lat="45.05552" lon="5.93222">
        <ele>2154</ele>
        <time>2021-10-24T12:07:12Z</time>
      </trkpt>
      <trkpt lat="45.05552" lon="5.93228">
        <ele>2154</ele>
        <time>2021-10-24T12:07:17Z</time>
      </trkpt>
      <trkpt lat="45.05553" lon="5.93236">
        <ele>2154</ele>
        <time>2021-10-24T12:07:23Z</time>
      </trkpt>
      <trkpt lat="45.05556" lon="5.93239">
        <ele>2154</ele>
        <time>2021-10-24T12:07:28Z</time>
      </trkpt>
      <trkpt lat="45.05557" lon="5.93246">
        <ele>2153</ele>
        <time>2021-10-24T12:07:33Z</time>
      </trkpt>
      <trkpt lat="45.05558" lon="5.93251">
        <ele>2153</ele>
        <time>2021-10-24T12:07:39Z</time>
      </trkpt>
      <trkpt lat="45.0556" lon="5.93257">
        <ele>2151</ele>
        <time>2021-10-24T12:07:45Z</time>
      </trkpt>
      <trkpt lat="45.05562" lon="5.93264">
        <ele>2153</ele>
        <time>2021-10-24T12:07:51Z</time>
      </trkpt>
      <trkpt lat="45.05563" lon="5.93267">
        <ele>2152</ele>
        <time>2021-10-24T12:07:56Z</time>
      </trkpt>
      <trkpt lat="45.05565" lon="5.93272">
        <ele>2149</ele>
        <time>2021-10-24T12:08:02Z</time>
      </trkpt>
      <trkpt lat="45.05565" lon="5.93278">
        <ele>2148</ele>
        <time>2021-10-24T12:08:08Z</time>
      </trkpt>
      <trkpt lat="45.05567" lon="5.93282">
        <ele>2146</ele>
        <time>2021-10-24T12:08:13Z</time>
      </trkpt>
      <trkpt lat="45.05567" lon="5.93288">
        <ele>2145</ele>
        <time>2021-10-24T12:08:19Z</time>
      </trkpt>
      <trkpt lat="45.05567" lon="5.93294">
        <ele>2145</ele>
        <time>2021-10-24T12:08:25Z</time>
      </trkpt>
      <trkpt lat="45.05566" lon="5.93301">
        <ele>2145</ele>
        <time>2021-10-24T12:08:31Z</time>
      </trkpt>
      <trkpt lat="45.05564" lon="5.93308">
        <ele>2144</ele>
        <time>2021-10-24T12:08:37Z</time>
      </trkpt>
      <trkpt lat="45.05562" lon="5.93311">
        <ele>2143</ele>
        <time>2021-10-24T12:08:42Z</time>
      </trkpt>
      <trkpt lat="45.0556" lon="5.93316">
        <ele>2142</ele>
        <time>2021-10-24T12:08:47Z</time>
      </trkpt>
      <trkpt lat="45.05558" lon="5.9332">
        <ele>2141</ele>
        <time>2021-10-24T12:08:52Z</time>
      </trkpt>
      <trkpt lat="45.05557" lon="5.93327">
        <ele>2140</ele>
        <time>2021-10-24T12:08:58Z</time>
      </trkpt>
      <trkpt lat="45.05556" lon="5.93334">
        <ele>2140</ele>
        <time>2021-10-24T12:09:04Z</time>
      </trkpt>
      <trkpt lat="45.0556" lon="5.93339">
        <ele>2138</ele>
        <time>2021-10-24T12:09:10Z</time>
      </trkpt>
      <trkpt lat="45.05562" lon="5.93343">
        <ele>2137</ele>
        <time>2021-10-24T12:09:15Z</time>
      </trkpt>
      <trkpt lat="45.05563" lon="5.93347">
        <ele>2135</ele>
        <time>2021-10-24T12:09:20Z</time>
      </trkpt>
      <trkpt lat="45.05566" lon="5.93351">
        <ele>2134</ele>
        <time>2021-10-24T12:09:25Z</time>
      </trkpt>
      <trkpt lat="45.05567" lon="5.93357">
        <ele>2132</ele>
        <time>2021-10-24T12:09:30Z</time>
      </trkpt>
      <trkpt lat="45.05569" lon="5.93362">
        <ele>2131</ele>
        <time>2021-10-24T12:09:36Z</time>
      </trkpt>
      <trkpt lat="45.05572" lon="5.93368">
        <ele>2131</ele>
        <time>2021-10-24T12:09:42Z</time>
      </trkpt>
      <trkpt lat="45.05574" lon="5.93372">
        <ele>2130</ele>
        <time>2021-10-24T12:09:47Z</time>
      </trkpt>
      <trkpt lat="45.0558" lon="5.93377">
        <ele>2130</ele>
        <time>2021-10-24T12:09:53Z</time>
      </trkpt>
      <trkpt lat="45.05584" lon="5.9338">
        <ele>2130</ele>
        <time>2021-10-24T12:09:58Z</time>
      </trkpt>
      <trkpt lat="45.05587" lon="5.93382">
        <ele>2129</ele>
        <time>2021-10-24T12:10:03Z</time>
      </trkpt>
      <trkpt lat="45.0559" lon="5.93386">
        <ele>2130</ele>
        <time>2021-10-24T12:10:09Z</time>
      </trkpt>
      <trkpt lat="45.05593" lon="5.93391">
        <ele>2129</ele>
        <time>2021-10-24T12:10:15Z</time>
      </trkpt>
      <trkpt lat="45.05597" lon="5.93395">
        <ele>2128</ele>
        <time>2021-10-24T12:10:21Z</time>
      </trkpt>
      <trkpt lat="45.05601" lon="5.93399">
        <ele>2128</ele>
        <time>2021-10-24T12:10:26Z</time>
      </trkpt>
      <trkpt lat="45.05607" lon="5.93399">
        <ele>2130</ele>
        <time>2021-10-24T12:10:32Z</time>
      </trkpt>
      <trkpt lat="45.05606" lon="5.93399">
        <ele>2130</ele>
        <time>2021-10-24T12:10:38Z</time>
      </trkpt>
      <trkpt lat="45.05604" lon="5.93398">
        <ele>2130</ele>
        <time>2021-10-24T12:10:43Z</time>
      </trkpt>
      <trkpt lat="45.05603" lon="5.934">
        <ele>2132</ele>
        <time>2021-10-24T12:10:49Z</time>
      </trkpt>
      <trkpt lat="45.05603" lon="5.93398">
        <ele>2129</ele>
        <time>2021-10-24T12:10:55Z</time>
      </trkpt>
      <trkpt lat="45.05603" lon="5.93399">
        <ele>2129</ele>
        <time>2021-10-24T12:11:01Z</time>
      </trkpt>
      <trkpt lat="45.05603" lon="5.93399">
        <ele>2128</ele>
        <time>2021-10-24T12:11:06Z</time>
      </trkpt>
      <trkpt lat="45.05603" lon="5.934">
        <ele>2129</ele>
        <time>2021-10-24T12:11:12Z</time>
      </trkpt>
      <trkpt lat="45.05602" lon="5.934">
        <ele>2129</ele>
        <time>2021-10-24T12:11:18Z</time>
      </trkpt>
      <trkpt lat="45.05602" lon="5.934">
        <ele>2131</ele>
        <time>2021-10-24T12:11:23Z</time>
      </trkpt>
      <trkpt lat="45.05603" lon="5.93401">
        <ele>2131</ele>
        <time>2021-10-24T12:11:28Z</time>
      </trkpt>
      <trkpt lat="45.05602" lon="5.934">
        <ele>2131</ele>
        <time>2021-10-24T12:11:34Z</time>
      </trkpt>
      <trkpt lat="45.05602" lon="5.934">
        <ele>2131</ele>
        <time>2021-10-24T12:11:40Z</time>
      </trkpt>
      <trkpt lat="45.05602" lon="5.934">
        <ele>2131</ele>
        <time>2021-10-24T12:11:46Z</time>
      </trkpt>
      <trkpt lat="45.05602" lon="5.934">
        <ele>2131</ele>
        <time>2021-10-24T12:11:52Z</time>
      </trkpt>
      <trkpt lat="45.05603" lon="5.93401">
        <ele>2130</ele>
        <time>2021-10-24T12:11:58Z</time>
      </trkpt>
      <trkpt lat="45.05604" lon="5.93399">
        <ele>2129</ele>
        <time>2021-10-24T12:12:03Z</time>
      </trkpt>
      <trkpt lat="45.05604" lon="5.93401">
        <ele>2128</ele>
        <time>2021-10-24T12:12:09Z</time>
      </trkpt>
      <trkpt lat="45.05606" lon="5.93399">
        <ele>2129</ele>
        <time>2021-10-24T12:12:15Z</time>
      </trkpt>
      <trkpt lat="45.05609" lon="5.93398">
        <ele>2128</ele>
        <time>2021-10-24T12:12:20Z</time>
      </trkpt>
      <trkpt lat="45.05613" lon="5.93397">
        <ele>2127</ele>
        <time>2021-10-24T12:12:25Z</time>
      </trkpt>
      <trkpt lat="45.0562" lon="5.93396">
        <ele>2127</ele>
        <time>2021-10-24T12:12:31Z</time>
      </trkpt>
      <trkpt lat="45.05624" lon="5.93396">
        <ele>2126</ele>
        <time>2021-10-24T12:12:36Z</time>
      </trkpt>
      <trkpt lat="45.05626" lon="5.93396">
        <ele>2125</ele>
        <time>2021-10-24T12:12:42Z</time>
      </trkpt>
      <trkpt lat="45.05627" lon="5.93395">
        <ele>2125</ele>
        <time>2021-10-24T12:12:48Z</time>
      </trkpt>
      <trkpt lat="45.0563" lon="5.93397">
        <ele>2125</ele>
        <time>2021-10-24T12:12:53Z</time>
      </trkpt>
      <trkpt lat="45.05637" lon="5.934">
        <ele>2125</ele>
        <time>2021-10-24T12:12:59Z</time>
      </trkpt>
      <trkpt lat="45.05642" lon="5.93402">
        <ele>2126</ele>
        <time>2021-10-24T12:13:04Z</time>
      </trkpt>
      <trkpt lat="45.05648" lon="5.93405">
        <ele>2126</ele>
        <time>2021-10-24T12:13:10Z</time>
      </trkpt>
      <trkpt lat="45.05652" lon="5.93407">
        <ele>2124</ele>
        <time>2021-10-24T12:13:15Z</time>
      </trkpt>
      <trkpt lat="45.05654" lon="5.9341">
        <ele>2125</ele>
        <time>2021-10-24T12:13:20Z</time>
      </trkpt>
      <trkpt lat="45.05661" lon="5.93412">
        <ele>2127</ele>
        <time>2021-10-24T12:13:26Z</time>
      </trkpt>
      <trkpt lat="45.05667" lon="5.93414">
        <ele>2128</ele>
        <time>2021-10-24T12:13:32Z</time>
      </trkpt>
      <trkpt lat="45.05671" lon="5.93415">
        <ele>2130</ele>
        <time>2021-10-24T12:13:37Z</time>
      </trkpt>
      <trkpt lat="45.05675" lon="5.93416">
        <ele>2128</ele>
        <time>2021-10-24T12:13:43Z</time>
      </trkpt>
      <trkpt lat="45.05679" lon="5.93418">
        <ele>2129</ele>
        <time>2021-10-24T12:13:48Z</time>
      </trkpt>
      <trkpt lat="45.05685" lon="5.9342">
        <ele>2129</ele>
        <time>2021-10-24T12:13:54Z</time>
      </trkpt>
      <trkpt lat="45.05691" lon="5.93421">
        <ele>2129</ele>
        <time>2021-10-24T12:14:00Z</time>
      </trkpt>
      <trkpt lat="45.05696" lon="5.93424">
        <ele>2129</ele>
        <time>2021-10-24T12:14:06Z</time>
      </trkpt>
      <trkpt lat="45.05699" lon="5.93426">
        <ele>2128</ele>
        <time>2021-10-24T12:14:11Z</time>
      </trkpt>
      <trkpt lat="45.05706" lon="5.9343">
        <ele>2130</ele>
        <time>2021-10-24T12:14:17Z</time>
      </trkpt>
      <trkpt lat="45.05709" lon="5.93427">
        <ele>2131</ele>
        <time>2021-10-24T12:14:23Z</time>
      </trkpt>
      <trkpt lat="45.05713" lon="5.93424">
        <ele>2131</ele>
        <time>2021-10-24T12:14:28Z</time>
      </trkpt>
      <trkpt lat="45.05713" lon="5.93424">
        <ele>2129</ele>
        <time>2021-10-24T12:14:34Z</time>
      </trkpt>
      <trkpt lat="45.05715" lon="5.93424">
        <ele>2131</ele>
        <time>2021-10-24T12:14:40Z</time>
      </trkpt>
      <trkpt lat="45.05715" lon="5.93423">
        <ele>2133</ele>
        <time>2021-10-24T12:14:46Z</time>
      </trkpt>
      <trkpt lat="45.05715" lon="5.93424">
        <ele>2133</ele>
        <time>2021-10-24T12:14:52Z</time>
      </trkpt>
      <trkpt lat="45.05715" lon="5.93423">
        <ele>2135</ele>
        <time>2021-10-24T12:14:57Z</time>
      </trkpt>
      <trkpt lat="45.05715" lon="5.93422">
        <ele>2135</ele>
        <time>2021-10-24T12:15:02Z</time>
      </trkpt>
      <trkpt lat="45.05715" lon="5.93422">
        <ele>2135</ele>
        <time>2021-10-24T12:15:08Z</time>
      </trkpt>
      <trkpt lat="45.05714" lon="5.93423">
        <ele>2135</ele>
        <time>2021-10-24T12:15:13Z</time>
      </trkpt>
      <trkpt lat="45.05714" lon="5.93423">
        <ele>2132</ele>
        <time>2021-10-24T12:15:19Z</time>
      </trkpt>
      <trkpt lat="45.05714" lon="5.93423">
        <ele>2132</ele>
        <time>2021-10-24T12:15:24Z</time>
      </trkpt>
      <trkpt lat="45.05714" lon="5.93423">
        <ele>2132</ele>
        <time>2021-10-24T12:15:30Z</time>
      </trkpt>
      <trkpt lat="45.05714" lon="5.93422">
        <ele>2132</ele>
        <time>2021-10-24T12:15:36Z</time>
      </trkpt>
      <trkpt lat="45.05713" lon="5.93425">
        <ele>2131</ele>
        <time>2021-10-24T12:15:41Z</time>
      </trkpt>
      <trkpt lat="45.05713" lon="5.93424">
        <ele>2132</ele>
        <time>2021-10-24T12:15:47Z</time>
      </trkpt>
      <trkpt lat="45.05714" lon="5.93423">
        <ele>2131</ele>
        <time>2021-10-24T12:15:52Z</time>
      </trkpt>
      <trkpt lat="45.05718" lon="5.93422">
        <ele>2129</ele>
        <time>2021-10-24T12:15:58Z</time>
      </trkpt>
      <trkpt lat="45.05723" lon="5.93422">
        <ele>2131</ele>
        <time>2021-10-24T12:16:04Z</time>
      </trkpt>
      <trkpt lat="45.05727" lon="5.9342">
        <ele>2131</ele>
        <time>2021-10-24T12:16:09Z</time>
      </trkpt>
      <trkpt lat="45.05732" lon="5.93418">
        <ele>2131</ele>
        <time>2021-10-24T12:16:14Z</time>
      </trkpt>
      <trkpt lat="45.05739" lon="5.93418">
        <ele>2130</ele>
        <time>2021-10-24T12:16:20Z</time>
      </trkpt>
      <trkpt lat="45.05744" lon="5.93417">
        <ele>2131</ele>
        <time>2021-10-24T12:16:25Z</time>
      </trkpt>
      <trkpt lat="45.05747" lon="5.93414">
        <ele>2131</ele>
        <time>2021-10-24T12:16:31Z</time>
      </trkpt>
      <trkpt lat="45.05755" lon="5.93413">
        <ele>2134</ele>
        <time>2021-10-24T12:16:37Z</time>
      </trkpt>
      <trkpt lat="45.05757" lon="5.93412">
        <ele>2133</ele>
        <time>2021-10-24T12:16:43Z</time>
      </trkpt>
      <trkpt lat="45.05763" lon="5.93406">
        <ele>2132</ele>
        <time>2021-10-24T12:16:48Z</time>
      </trkpt>
      <trkpt lat="45.05769" lon="5.934">
        <ele>2132</ele>
        <time>2021-10-24T12:16:54Z</time>
      </trkpt>
      <trkpt lat="45.0577" lon="5.93398">
        <ele>2129</ele>
        <time>2021-10-24T12:17:00Z</time>
      </trkpt>
      <trkpt lat="45.05773" lon="5.93398">
        <ele>2127</ele>
        <time>2021-10-24T12:17:05Z</time>
      </trkpt>
      <trkpt lat="45.05778" lon="5.93397">
        <ele>2126</ele>
        <time>2021-10-24T12:17:11Z</time>
      </trkpt>
      <trkpt lat="45.05782" lon="5.93396">
        <ele>2126</ele>
        <time>2021-10-24T12:17:17Z</time>
      </trkpt>
      <trkpt lat="45.05782" lon="5.93392">
        <ele>2125</ele>
        <time>2021-10-24T12:17:22Z</time>
      </trkpt>
      <trkpt lat="45.05783" lon="5.93389">
        <ele>2126</ele>
        <time>2021-10-24T12:17:28Z</time>
      </trkpt>
      <trkpt lat="45.05785" lon="5.93388">
        <ele>2124</ele>
        <time>2021-10-24T12:17:33Z</time>
      </trkpt>
      <trkpt lat="45.05788" lon="5.93386">
        <ele>2126</ele>
        <time>2021-10-24T12:17:39Z</time>
      </trkpt>
      <trkpt lat="45.05794" lon="5.93384">
        <ele>2126</ele>
        <time>2021-10-24T12:17:45Z</time>
      </trkpt>
      <trkpt lat="45.05798" lon="5.9338">
        <ele>2127</ele>
        <time>2021-10-24T12:17:50Z</time>
      </trkpt>
      <trkpt lat="45.05801" lon="5.93377">
        <ele>2127</ele>
        <time>2021-10-24T12:17:55Z</time>
      </trkpt>
      <trkpt lat="45.05806" lon="5.93372">
        <ele>2129</ele>
        <time>2021-10-24T12:18:01Z</time>
      </trkpt>
      <trkpt lat="45.05809" lon="5.93368">
        <ele>2129</ele>
        <time>2021-10-24T12:18:06Z</time>
      </trkpt>
      <trkpt lat="45.05811" lon="5.93363">
        <ele>2130</ele>
        <time>2021-10-24T12:18:11Z</time>
      </trkpt>
      <trkpt lat="45.05812" lon="5.93358">
        <ele>2129</ele>
        <time>2021-10-24T12:18:17Z</time>
      </trkpt>
      <trkpt lat="45.05815" lon="5.93352">
        <ele>2130</ele>
        <time>2021-10-24T12:18:23Z</time>
      </trkpt>
      <trkpt lat="45.05818" lon="5.93349">
        <ele>2132</ele>
        <time>2021-10-24T12:18:29Z</time>
      </trkpt>
      <trkpt lat="45.05819" lon="5.93344">
        <ele>2129</ele>
        <time>2021-10-24T12:18:34Z</time>
      </trkpt>
      <trkpt lat="45.05822" lon="5.93337">
        <ele>2128</ele>
        <time>2021-10-24T12:18:40Z</time>
      </trkpt>
      <trkpt lat="45.05826" lon="5.93332">
        <ele>2128</ele>
        <time>2021-10-24T12:18:46Z</time>
      </trkpt>
      <trkpt lat="45.0583" lon="5.93325">
        <ele>2128</ele>
        <time>2021-10-24T12:18:53Z</time>
      </trkpt>
      <trkpt lat="45.05833" lon="5.93321">
        <ele>2128</ele>
        <time>2021-10-24T12:18:58Z</time>
      </trkpt>
      <trkpt lat="45.05836" lon="5.93315">
        <ele>2128</ele>
        <time>2021-10-24T12:19:04Z</time>
      </trkpt>
      <trkpt lat="45.05841" lon="5.93309">
        <ele>2129</ele>
        <time>2021-10-24T12:19:10Z</time>
      </trkpt>
      <trkpt lat="45.05844" lon="5.93303">
        <ele>2129</ele>
        <time>2021-10-24T12:19:15Z</time>
      </trkpt>
      <trkpt lat="45.05848" lon="5.93297">
        <ele>2128</ele>
        <time>2021-10-24T12:19:21Z</time>
      </trkpt>
      <trkpt lat="45.0585" lon="5.93292">
        <ele>2128</ele>
        <time>2021-10-24T12:19:26Z</time>
      </trkpt>
      <trkpt lat="45.05853" lon="5.93286">
        <ele>2128</ele>
        <time>2021-10-24T12:19:32Z</time>
      </trkpt>
      <trkpt lat="45.05853" lon="5.9328">
        <ele>2127</ele>
        <time>2021-10-24T12:19:38Z</time>
      </trkpt>
      <trkpt lat="45.0585" lon="5.93275">
        <ele>2127</ele>
        <time>2021-10-24T12:19:44Z</time>
      </trkpt>
      <trkpt lat="45.05848" lon="5.93271">
        <ele>2128</ele>
        <time>2021-10-24T12:19:50Z</time>
      </trkpt>
      <trkpt lat="45.05845" lon="5.93268">
        <ele>2130</ele>
        <time>2021-10-24T12:19:56Z</time>
      </trkpt>
      <trkpt lat="45.05844" lon="5.93265">
        <ele>2129</ele>
        <time>2021-10-24T12:20:01Z</time>
      </trkpt>
      <trkpt lat="45.05843" lon="5.93261">
        <ele>2130</ele>
        <time>2021-10-24T12:20:06Z</time>
      </trkpt>
      <trkpt lat="45.05841" lon="5.93256">
        <ele>2130</ele>
        <time>2021-10-24T12:20:11Z</time>
      </trkpt>
      <trkpt lat="45.05842" lon="5.93253">
        <ele>2130</ele>
        <time>2021-10-24T12:20:17Z</time>
      </trkpt>
      <trkpt lat="45.05846" lon="5.93248">
        <ele>2131</ele>
        <time>2021-10-24T12:20:23Z</time>
      </trkpt>
      <trkpt lat="45.05846" lon="5.93244">
        <ele>2129</ele>
        <time>2021-10-24T12:20:28Z</time>
      </trkpt>
      <trkpt lat="45.05844" lon="5.93239">
        <ele>2129</ele>
        <time>2021-10-24T12:20:33Z</time>
      </trkpt>
      <trkpt lat="45.05844" lon="5.93233">
        <ele>2129</ele>
        <time>2021-10-24T12:20:39Z</time>
      </trkpt>
      <trkpt lat="45.05845" lon="5.93229">
        <ele>2128</ele>
        <time>2021-10-24T12:20:44Z</time>
      </trkpt>
      <trkpt lat="45.05847" lon="5.93224">
        <ele>2127</ele>
        <time>2021-10-24T12:20:50Z</time>
      </trkpt>
      <trkpt lat="45.05849" lon="5.93217">
        <ele>2127</ele>
        <time>2021-10-24T12:20:56Z</time>
      </trkpt>
      <trkpt lat="45.05852" lon="5.93213">
        <ele>2127</ele>
        <time>2021-10-24T12:21:02Z</time>
      </trkpt>
      <trkpt lat="45.05854" lon="5.93206">
        <ele>2128</ele>
        <time>2021-10-24T12:21:07Z</time>
      </trkpt>
      <trkpt lat="45.05859" lon="5.93202">
        <ele>2128</ele>
        <time>2021-10-24T12:21:13Z</time>
      </trkpt>
      <trkpt lat="45.05861" lon="5.93203">
        <ele>2125</ele>
        <time>2021-10-24T12:21:19Z</time>
      </trkpt>
      <trkpt lat="45.05861" lon="5.93206">
        <ele>2127</ele>
        <time>2021-10-24T12:21:24Z</time>
      </trkpt>
      <trkpt lat="45.05864" lon="5.93206">
        <ele>2126</ele>
        <time>2021-10-24T12:21:29Z</time>
      </trkpt>
      <trkpt lat="45.05868" lon="5.932">
        <ele>2129</ele>
        <time>2021-10-24T12:21:35Z</time>
      </trkpt>
      <trkpt lat="45.05873" lon="5.932">
        <ele>2129</ele>
        <time>2021-10-24T12:21:41Z</time>
      </trkpt>
      <trkpt lat="45.05877" lon="5.93201">
        <ele>2128</ele>
        <time>2021-10-24T12:21:46Z</time>
      </trkpt>
      <trkpt lat="45.05882" lon="5.93205">
        <ele>2129</ele>
        <time>2021-10-24T12:21:52Z</time>
      </trkpt>
      <trkpt lat="45.05884" lon="5.93204">
        <ele>2126</ele>
        <time>2021-10-24T12:21:57Z</time>
      </trkpt>
      <trkpt lat="45.05888" lon="5.93202">
        <ele>2126</ele>
        <time>2021-10-24T12:22:02Z</time>
      </trkpt>
      <trkpt lat="45.05891" lon="5.93204">
        <ele>2127</ele>
        <time>2021-10-24T12:22:07Z</time>
      </trkpt>
      <trkpt lat="45.05897" lon="5.93206">
        <ele>2128</ele>
        <time>2021-10-24T12:22:13Z</time>
      </trkpt>
      <trkpt lat="45.05901" lon="5.93205">
        <ele>2128</ele>
        <time>2021-10-24T12:22:19Z</time>
      </trkpt>
      <trkpt lat="45.05903" lon="5.93208">
        <ele>2128</ele>
        <time>2021-10-24T12:22:24Z</time>
      </trkpt>
      <trkpt lat="45.05909" lon="5.93212">
        <ele>2128</ele>
        <time>2021-10-24T12:22:30Z</time>
      </trkpt>
      <trkpt lat="45.05914" lon="5.93213">
        <ele>2128</ele>
        <time>2021-10-24T12:22:36Z</time>
      </trkpt>
      <trkpt lat="45.05916" lon="5.93213">
        <ele>2127</ele>
        <time>2021-10-24T12:22:41Z</time>
      </trkpt>
      <trkpt lat="45.05918" lon="5.93212">
        <ele>2127</ele>
        <time>2021-10-24T12:22:47Z</time>
      </trkpt>
      <trkpt lat="45.0592" lon="5.93213">
        <ele>2128</ele>
        <time>2021-10-24T12:22:52Z</time>
      </trkpt>
      <trkpt lat="45.05924" lon="5.93212">
        <ele>2127</ele>
        <time>2021-10-24T12:22:58Z</time>
      </trkpt>
      <trkpt lat="45.05928" lon="5.93216">
        <ele>2127</ele>
        <time>2021-10-24T12:23:03Z</time>
      </trkpt>
      <trkpt lat="45.05933" lon="5.93215">
        <ele>2129</ele>
        <time>2021-10-24T12:23:08Z</time>
      </trkpt>
      <trkpt lat="45.05939" lon="5.93216">
        <ele>2131</ele>
        <time>2021-10-24T12:23:14Z</time>
      </trkpt>
      <trkpt lat="45.05941" lon="5.93218">
        <ele>2131</ele>
        <time>2021-10-24T12:23:19Z</time>
      </trkpt>
      <trkpt lat="45.05944" lon="5.93218">
        <ele>2131</ele>
        <time>2021-10-24T12:23:25Z</time>
      </trkpt>
      <trkpt lat="45.05945" lon="5.93219">
        <ele>2133</ele>
        <time>2021-10-24T12:23:30Z</time>
      </trkpt>
      <trkpt lat="45.05948" lon="5.93224">
        <ele>2134</ele>
        <time>2021-10-24T12:23:36Z</time>
      </trkpt>
      <trkpt lat="45.05948" lon="5.93225">
        <ele>2135</ele>
        <time>2021-10-24T12:23:41Z</time>
      </trkpt>
      <trkpt lat="45.0595" lon="5.93226">
        <ele>2135</ele>
        <time>2021-10-24T12:23:46Z</time>
      </trkpt>
      <trkpt lat="45.05952" lon="5.93224">
        <ele>2136</ele>
        <time>2021-10-24T12:23:51Z</time>
      </trkpt>
      <trkpt lat="45.05955" lon="5.93222">
        <ele>2136</ele>
        <time>2021-10-24T12:23:57Z</time>
      </trkpt>
      <trkpt lat="45.0596" lon="5.93221">
        <ele>2136</ele>
        <time>2021-10-24T12:24:02Z</time>
      </trkpt>
      <trkpt lat="45.05963" lon="5.93217">
        <ele>2136</ele>
        <time>2021-10-24T12:24:07Z</time>
      </trkpt>
      <trkpt lat="45.05966" lon="5.93212">
        <ele>2135</ele>
        <time>2021-10-24T12:24:12Z</time>
      </trkpt>
      <trkpt lat="45.05968" lon="5.93207">
        <ele>2135</ele>
        <time>2021-10-24T12:24:17Z</time>
      </trkpt>
      <trkpt lat="45.0597" lon="5.93202">
        <ele>2137</ele>
        <time>2021-10-24T12:24:23Z</time>
      </trkpt>
      <trkpt lat="45.05971" lon="5.93199">
        <ele>2137</ele>
        <time>2021-10-24T12:24:28Z</time>
      </trkpt>
      <trkpt lat="45.05971" lon="5.93196">
        <ele>2137</ele>
        <time>2021-10-24T12:24:33Z</time>
      </trkpt>
      <trkpt lat="45.0597" lon="5.93192">
        <ele>2136</ele>
        <time>2021-10-24T12:24:39Z</time>
      </trkpt>
      <trkpt lat="45.0597" lon="5.93189">
        <ele>2136</ele>
        <time>2021-10-24T12:24:45Z</time>
      </trkpt>
      <trkpt lat="45.05972" lon="5.93184">
        <ele>2138</ele>
        <time>2021-10-24T12:24:51Z</time>
      </trkpt>
      <trkpt lat="45.05973" lon="5.93182">
        <ele>2137</ele>
        <time>2021-10-24T12:24:57Z</time>
      </trkpt>
      <trkpt lat="45.05972" lon="5.93182">
        <ele>2138</ele>
        <time>2021-10-24T12:25:02Z</time>
      </trkpt>
      <trkpt lat="45.05972" lon="5.93182">
        <ele>2138</ele>
        <time>2021-10-24T12:25:08Z</time>
      </trkpt>
      <trkpt lat="45.05971" lon="5.9318">
        <ele>2139</ele>
        <time>2021-10-24T12:25:13Z</time>
      </trkpt>
      <trkpt lat="45.0597" lon="5.93178">
        <ele>2139</ele>
        <time>2021-10-24T12:25:18Z</time>
      </trkpt>
      <trkpt lat="45.05965" lon="5.93178">
        <ele>2139</ele>
        <time>2021-10-24T12:25:24Z</time>
      </trkpt>
      <trkpt lat="45.05961" lon="5.93177">
        <ele>2140</ele>
        <time>2021-10-24T12:25:30Z</time>
      </trkpt>
      <trkpt lat="45.05961" lon="5.93178">
        <ele>2139</ele>
        <time>2021-10-24T12:25:35Z</time>
      </trkpt>
      <trkpt lat="45.05961" lon="5.93179">
        <ele>2140</ele>
        <time>2021-10-24T12:25:41Z</time>
      </trkpt>
      <trkpt lat="45.05961" lon="5.93179">
        <ele>2139</ele>
        <time>2021-10-24T12:25:46Z</time>
      </trkpt>
      <trkpt lat="45.05961" lon="5.93179">
        <ele>2139</ele>
        <time>2021-10-24T12:25:52Z</time>
      </trkpt>
      <trkpt lat="45.05961" lon="5.93179">
        <ele>2139</ele>
        <time>2021-10-24T12:25:57Z</time>
      </trkpt>
      <trkpt lat="45.05961" lon="5.93179">
        <ele>2139</ele>
        <time>2021-10-24T12:26:02Z</time>
      </trkpt>
      <trkpt lat="45.05961" lon="5.93179">
        <ele>2139</ele>
        <time>2021-10-24T12:26:07Z</time>
      </trkpt>
      <trkpt lat="45.05961" lon="5.93179">
        <ele>2139</ele>
        <time>2021-10-24T12:26:13Z</time>
      </trkpt>
      <trkpt lat="45.05961" lon="5.93179">
        <ele>2139</ele>
        <time>2021-10-24T12:26:19Z</time>
      </trkpt>
      <trkpt lat="45.05961" lon="5.93179">
        <ele>2139</ele>
        <time>2021-10-24T12:26:25Z</time>
      </trkpt>
      <trkpt lat="45.05961" lon="5.93179">
        <ele>2139</ele>
        <time>2021-10-24T12:26:31Z</time>
      </trkpt>
      <trkpt lat="45.05961" lon="5.93179">
        <ele>2139</ele>
        <time>2021-10-24T12:26:36Z</time>
      </trkpt>
      <trkpt lat="45.05961" lon="5.93179">
        <ele>2139</ele>
        <time>2021-10-24T12:26:41Z</time>
      </trkpt>
      <trkpt lat="45.05961" lon="5.93179">
        <ele>2139</ele>
        <time>2021-10-24T12:26:48Z</time>
      </trkpt>
      <trkpt lat="45.05962" lon="5.93179">
        <ele>2139</ele>
        <time>2021-10-24T12:26:53Z</time>
      </trkpt>
      <trkpt lat="45.05964" lon="5.93178">
        <ele>2138</ele>
        <time>2021-10-24T12:26:59Z</time>
      </trkpt>
      <trkpt lat="45.05965" lon="5.93179">
        <ele>2139</ele>
        <time>2021-10-24T12:27:04Z</time>
      </trkpt>
      <trkpt lat="45.05967" lon="5.93182">
        <ele>2139</ele>
        <time>2021-10-24T12:27:10Z</time>
      </trkpt>
      <trkpt lat="45.05969" lon="5.93183">
        <ele>2139</ele>
        <time>2021-10-24T12:27:15Z</time>
      </trkpt>
      <trkpt lat="45.05968" lon="5.93184">
        <ele>2139</ele>
        <time>2021-10-24T12:27:21Z</time>
      </trkpt>
      <trkpt lat="45.05967" lon="5.93184">
        <ele>2137</ele>
        <time>2021-10-24T12:27:26Z</time>
      </trkpt>
      <trkpt lat="45.05967" lon="5.93184">
        <ele>2137</ele>
        <time>2021-10-24T12:27:31Z</time>
      </trkpt>
      <trkpt lat="45.05967" lon="5.93182">
        <ele>2139</ele>
        <time>2021-10-24T12:27:38Z</time>
      </trkpt>
      <trkpt lat="45.05967" lon="5.93182">
        <ele>2139</ele>
        <time>2021-10-24T12:27:43Z</time>
      </trkpt>
      <trkpt lat="45.05967" lon="5.93181">
        <ele>2142</ele>
        <time>2021-10-24T12:27:49Z</time>
      </trkpt>
      <trkpt lat="45.05967" lon="5.93181">
        <ele>2142</ele>
        <time>2021-10-24T12:27:55Z</time>
      </trkpt>
      <trkpt lat="45.05967" lon="5.93181">
        <ele>2142</ele>
        <time>2021-10-24T12:28:01Z</time>
      </trkpt>
      <trkpt lat="45.05967" lon="5.93181">
        <ele>2142</ele>
        <time>2021-10-24T12:28:07Z</time>
      </trkpt>
      <trkpt lat="45.05967" lon="5.93181">
        <ele>2142</ele>
        <time>2021-10-24T12:28:13Z</time>
      </trkpt>
      <trkpt lat="45.05967" lon="5.93182">
        <ele>2142</ele>
        <time>2021-10-24T12:28:18Z</time>
      </trkpt>
      <trkpt lat="45.05966" lon="5.93182">
        <ele>2141</ele>
        <time>2021-10-24T12:28:24Z</time>
      </trkpt>
      <trkpt lat="45.05967" lon="5.9318">
        <ele>2141</ele>
        <time>2021-10-24T12:28:30Z</time>
      </trkpt>
      <trkpt lat="45.05968" lon="5.9318">
        <ele>2143</ele>
        <time>2021-10-24T12:28:36Z</time>
      </trkpt>
      <trkpt lat="45.05969" lon="5.93181">
        <ele>2140</ele>
        <time>2021-10-24T12:28:41Z</time>
      </trkpt>
      <trkpt lat="45.05971" lon="5.93179">
        <ele>2141</ele>
        <time>2021-10-24T12:28:46Z</time>
      </trkpt>
      <trkpt lat="45.0597" lon="5.93182">
        <ele>2145</ele>
        <time>2021-10-24T12:28:52Z</time>
      </trkpt>
      <trkpt lat="45.0597" lon="5.9318">
        <ele>2143</ele>
        <time>2021-10-24T12:28:58Z</time>
      </trkpt>
      <trkpt lat="45.0597" lon="5.93181">
        <ele>2144</ele>
        <time>2021-10-24T12:29:03Z</time>
      </trkpt>
      <trkpt lat="45.0597" lon="5.93181">
        <ele>2144</ele>
        <time>2021-10-24T12:29:08Z</time>
      </trkpt>
      <trkpt lat="45.0597" lon="5.93181">
        <ele>2144</ele>
        <time>2021-10-24T12:29:14Z</time>
      </trkpt>
      <trkpt lat="45.0597" lon="5.9318">
        <ele>2144</ele>
        <time>2021-10-24T12:29:20Z</time>
      </trkpt>
      <trkpt lat="45.0597" lon="5.93181">
        <ele>2143</ele>
        <time>2021-10-24T12:29:26Z</time>
      </trkpt>
      <trkpt lat="45.05969" lon="5.93181">
        <ele>2143</ele>
        <time>2021-10-24T12:29:31Z</time>
      </trkpt>
      <trkpt lat="45.05967" lon="5.93183">
        <ele>2142</ele>
        <time>2021-10-24T12:29:37Z</time>
      </trkpt>
      <trkpt lat="45.05968" lon="5.93185">
        <ele>2141</ele>
        <time>2021-10-24T12:29:43Z</time>
      </trkpt>
      <trkpt lat="45.05968" lon="5.93185">
        <ele>2141</ele>
        <time>2021-10-24T12:29:49Z</time>
      </trkpt>
      <trkpt lat="45.05969" lon="5.93185">
        <ele>2142</ele>
        <time>2021-10-24T12:29:55Z</time>
      </trkpt>
      <trkpt lat="45.05968" lon="5.93184">
        <ele>2141</ele>
        <time>2021-10-24T12:30:00Z</time>
      </trkpt>
      <trkpt lat="45.05963" lon="5.93182">
        <ele>2141</ele>
        <time>2021-10-24T12:30:05Z</time>
      </trkpt>
      <trkpt lat="45.05961" lon="5.9318">
        <ele>2143</ele>
        <time>2021-10-24T12:30:11Z</time>
      </trkpt>
      <trkpt lat="45.05961" lon="5.93177">
        <ele>2141</ele>
        <time>2021-10-24T12:30:16Z</time>
      </trkpt>
      <trkpt lat="45.05957" lon="5.93174">
        <ele>2141</ele>
        <time>2021-10-24T12:30:22Z</time>
      </trkpt>
      <trkpt lat="45.05955" lon="5.93171">
        <ele>2141</ele>
        <time>2021-10-24T12:30:28Z</time>
      </trkpt>
      <trkpt lat="45.0595" lon="5.93167">
        <ele>2140</ele>
        <time>2021-10-24T12:30:34Z</time>
      </trkpt>
      <trkpt lat="45.05949" lon="5.93164">
        <ele>2139</ele>
        <time>2021-10-24T12:30:39Z</time>
      </trkpt>
      <trkpt lat="45.05949" lon="5.93159">
        <ele>2138</ele>
        <time>2021-10-24T12:30:45Z</time>
      </trkpt>
      <trkpt lat="45.05947" lon="5.93153">
        <ele>2135</ele>
        <time>2021-10-24T12:30:51Z</time>
      </trkpt>
      <trkpt lat="45.05943" lon="5.93148">
        <ele>2135</ele>
        <time>2021-10-24T12:30:57Z</time>
      </trkpt>
      <trkpt lat="45.05939" lon="5.93144">
        <ele>2135</ele>
        <time>2021-10-24T12:31:04Z</time>
      </trkpt>
      <trkpt lat="45.05939" lon="5.93143">
        <ele>2133</ele>
        <time>2021-10-24T12:31:10Z</time>
      </trkpt>
      <trkpt lat="45.05939" lon="5.93139">
        <ele>2134</ele>
        <time>2021-10-24T12:31:15Z</time>
      </trkpt>
      <trkpt lat="45.05938" lon="5.93136">
        <ele>2131</ele>
        <time>2021-10-24T12:31:21Z</time>
      </trkpt>
      <trkpt lat="45.05938" lon="5.93133">
        <ele>2133</ele>
        <time>2021-10-24T12:31:26Z</time>
      </trkpt>
      <trkpt lat="45.05936" lon="5.93128">
        <ele>2133</ele>
        <time>2021-10-24T12:31:32Z</time>
      </trkpt>
      <trkpt lat="45.05934" lon="5.93125">
        <ele>2130</ele>
        <time>2021-10-24T12:31:38Z</time>
      </trkpt>
      <trkpt lat="45.05936" lon="5.93123">
        <ele>2126</ele>
        <time>2021-10-24T12:31:45Z</time>
      </trkpt>
      <trkpt lat="45.05937" lon="5.93119">
        <ele>2125</ele>
        <time>2021-10-24T12:31:50Z</time>
      </trkpt>
      <trkpt lat="45.05937" lon="5.93118">
        <ele>2122</ele>
        <time>2021-10-24T12:31:56Z</time>
      </trkpt>
      <trkpt lat="45.05937" lon="5.93114">
        <ele>2122</ele>
        <time>2021-10-24T12:32:01Z</time>
      </trkpt>
      <trkpt lat="45.05938" lon="5.93114">
        <ele>2119</ele>
        <time>2021-10-24T12:32:07Z</time>
      </trkpt>
      <trkpt lat="45.05939" lon="5.93111">
        <ele>2117</ele>
        <time>2021-10-24T12:32:12Z</time>
      </trkpt>
      <trkpt lat="45.05937" lon="5.93105">
        <ele>2117</ele>
        <time>2021-10-24T12:32:18Z</time>
      </trkpt>
      <trkpt lat="45.05937" lon="5.93098">
        <ele>2117</ele>
        <time>2021-10-24T12:32:24Z</time>
      </trkpt>
      <trkpt lat="45.05937" lon="5.93093">
        <ele>2117</ele>
        <time>2021-10-24T12:32:29Z</time>
      </trkpt>
      <trkpt lat="45.05937" lon="5.93089">
        <ele>2114</ele>
        <time>2021-10-24T12:32:34Z</time>
      </trkpt>
      <trkpt lat="45.05935" lon="5.93083">
        <ele>2114</ele>
        <time>2021-10-24T12:32:40Z</time>
      </trkpt>
      <trkpt lat="45.05936" lon="5.93078">
        <ele>2115</ele>
        <time>2021-10-24T12:32:45Z</time>
      </trkpt>
      <trkpt lat="45.05937" lon="5.93072">
        <ele>2113</ele>
        <time>2021-10-24T12:32:50Z</time>
      </trkpt>
      <trkpt lat="45.05937" lon="5.93068">
        <ele>2110</ele>
        <time>2021-10-24T12:32:56Z</time>
      </trkpt>
      <trkpt lat="45.05936" lon="5.93063">
        <ele>2110</ele>
        <time>2021-10-24T12:33:01Z</time>
      </trkpt>
      <trkpt lat="45.05936" lon="5.93059">
        <ele>2111</ele>
        <time>2021-10-24T12:33:07Z</time>
      </trkpt>
      <trkpt lat="45.05932" lon="5.93057">
        <ele>2110</ele>
        <time>2021-10-24T12:33:14Z</time>
      </trkpt>
      <trkpt lat="45.05931" lon="5.93052">
        <ele>2108</ele>
        <time>2021-10-24T12:33:20Z</time>
      </trkpt>
      <trkpt lat="45.0593" lon="5.93046">
        <ele>2107</ele>
        <time>2021-10-24T12:33:25Z</time>
      </trkpt>
      <trkpt lat="45.05926" lon="5.93042">
        <ele>2106</ele>
        <time>2021-10-24T12:33:31Z</time>
      </trkpt>
      <trkpt lat="45.05923" lon="5.93036">
        <ele>2106</ele>
        <time>2021-10-24T12:33:36Z</time>
      </trkpt>
      <trkpt lat="45.05923" lon="5.9303">
        <ele>2106</ele>
        <time>2021-10-24T12:33:41Z</time>
      </trkpt>
      <trkpt lat="45.05925" lon="5.93022">
        <ele>2107</ele>
        <time>2021-10-24T12:33:47Z</time>
      </trkpt>
      <trkpt lat="45.05927" lon="5.93018">
        <ele>2104</ele>
        <time>2021-10-24T12:33:52Z</time>
      </trkpt>
      <trkpt lat="45.05933" lon="5.93015">
        <ele>2105</ele>
        <time>2021-10-24T12:33:58Z</time>
      </trkpt>
      <trkpt lat="45.05937" lon="5.93013">
        <ele>2102</ele>
        <time>2021-10-24T12:34:04Z</time>
      </trkpt>
      <trkpt lat="45.05942" lon="5.93013">
        <ele>2100</ele>
        <time>2021-10-24T12:34:09Z</time>
      </trkpt>
      <trkpt lat="45.05944" lon="5.93013">
        <ele>2099</ele>
        <time>2021-10-24T12:34:15Z</time>
      </trkpt>
      <trkpt lat="45.05948" lon="5.93014">
        <ele>2100</ele>
        <time>2021-10-24T12:34:20Z</time>
      </trkpt>
      <trkpt lat="45.05953" lon="5.93013">
        <ele>2099</ele>
        <time>2021-10-24T12:34:26Z</time>
      </trkpt>
      <trkpt lat="45.05956" lon="5.9301">
        <ele>2099</ele>
        <time>2021-10-24T12:34:31Z</time>
      </trkpt>
      <trkpt lat="45.05957" lon="5.93009">
        <ele>2098</ele>
        <time>2021-10-24T12:34:36Z</time>
      </trkpt>
      <trkpt lat="45.05957" lon="5.93009">
        <ele>2096</ele>
        <time>2021-10-24T12:34:42Z</time>
      </trkpt>
      <trkpt lat="45.05957" lon="5.93009">
        <ele>2097</ele>
        <time>2021-10-24T12:34:48Z</time>
      </trkpt>
      <trkpt lat="45.05957" lon="5.9301">
        <ele>2096</ele>
        <time>2021-10-24T12:34:54Z</time>
      </trkpt>
      <trkpt lat="45.05958" lon="5.93009">
        <ele>2098</ele>
        <time>2021-10-24T12:34:59Z</time>
      </trkpt>
      <trkpt lat="45.05958" lon="5.93009">
        <ele>2098</ele>
        <time>2021-10-24T12:35:04Z</time>
      </trkpt>
      <trkpt lat="45.05958" lon="5.93009">
        <ele>2098</ele>
        <time>2021-10-24T12:35:10Z</time>
      </trkpt>
      <trkpt lat="45.05958" lon="5.93009">
        <ele>2098</ele>
        <time>2021-10-24T12:35:16Z</time>
      </trkpt>
      <trkpt lat="45.05958" lon="5.93009">
        <ele>2098</ele>
        <time>2021-10-24T12:35:21Z</time>
      </trkpt>
      <trkpt lat="45.05955" lon="5.93008">
        <ele>2099</ele>
        <time>2021-10-24T12:35:27Z</time>
      </trkpt>
      <trkpt lat="45.05956" lon="5.93008">
        <ele>2099</ele>
        <time>2021-10-24T12:35:33Z</time>
      </trkpt>
      <trkpt lat="45.05957" lon="5.93009">
        <ele>2101</ele>
        <time>2021-10-24T12:35:39Z</time>
      </trkpt>
      <trkpt lat="45.05957" lon="5.93008">
        <ele>2100</ele>
        <time>2021-10-24T12:35:45Z</time>
      </trkpt>
      <trkpt lat="45.05956" lon="5.93008">
        <ele>2099</ele>
        <time>2021-10-24T12:35:51Z</time>
      </trkpt>
      <trkpt lat="45.05957" lon="5.93008">
        <ele>2101</ele>
        <time>2021-10-24T12:35:57Z</time>
      </trkpt>
      <trkpt lat="45.05959" lon="5.93007">
        <ele>2098</ele>
        <time>2021-10-24T12:36:03Z</time>
      </trkpt>
      <trkpt lat="45.05963" lon="5.93006">
        <ele>2098</ele>
        <time>2021-10-24T12:36:09Z</time>
      </trkpt>
      <trkpt lat="45.05967" lon="5.93004">
        <ele>2099</ele>
        <time>2021-10-24T12:36:14Z</time>
      </trkpt>
      <trkpt lat="45.05972" lon="5.93003">
        <ele>2099</ele>
        <time>2021-10-24T12:36:20Z</time>
      </trkpt>
      <trkpt lat="45.05978" lon="5.93001">
        <ele>2099</ele>
        <time>2021-10-24T12:36:26Z</time>
      </trkpt>
      <trkpt lat="45.05982" lon="5.93003">
        <ele>2099</ele>
        <time>2021-10-24T12:36:32Z</time>
      </trkpt>
      <trkpt lat="45.05987" lon="5.92999">
        <ele>2098</ele>
        <time>2021-10-24T12:36:37Z</time>
      </trkpt>
      <trkpt lat="45.05994" lon="5.92997">
        <ele>2099</ele>
        <time>2021-10-24T12:36:43Z</time>
      </trkpt>
      <trkpt lat="45.06001" lon="5.92997">
        <ele>2100</ele>
        <time>2021-10-24T12:36:49Z</time>
      </trkpt>
      <trkpt lat="45.06006" lon="5.92997">
        <ele>2099</ele>
        <time>2021-10-24T12:36:55Z</time>
      </trkpt>
      <trkpt lat="45.06011" lon="5.92991">
        <ele>2099</ele>
        <time>2021-10-24T12:37:00Z</time>
      </trkpt>
      <trkpt lat="45.06018" lon="5.92986">
        <ele>2097</ele>
        <time>2021-10-24T12:37:06Z</time>
      </trkpt>
      <trkpt lat="45.06018" lon="5.92986">
        <ele>2097</ele>
        <time>2021-10-24T12:37:12Z</time>
      </trkpt>
      <trkpt lat="45.06019" lon="5.92986">
        <ele>2097</ele>
        <time>2021-10-24T12:37:18Z</time>
      </trkpt>
      <trkpt lat="45.06023" lon="5.92983">
        <ele>2098</ele>
        <time>2021-10-24T12:37:23Z</time>
      </trkpt>
      <trkpt lat="45.06026" lon="5.92978">
        <ele>2098</ele>
        <time>2021-10-24T12:37:28Z</time>
      </trkpt>
      <trkpt lat="45.06031" lon="5.9297">
        <ele>2098</ele>
        <time>2021-10-24T12:37:34Z</time>
      </trkpt>
      <trkpt lat="45.06036" lon="5.92969">
        <ele>2100</ele>
        <time>2021-10-24T12:37:39Z</time>
      </trkpt>
      <trkpt lat="45.0604" lon="5.92965">
        <ele>2100</ele>
        <time>2021-10-24T12:37:44Z</time>
      </trkpt>
      <trkpt lat="45.06046" lon="5.92959">
        <ele>2100</ele>
        <time>2021-10-24T12:37:50Z</time>
      </trkpt>
      <trkpt lat="45.0605" lon="5.92953">
        <ele>2099</ele>
        <time>2021-10-24T12:37:56Z</time>
      </trkpt>
      <trkpt lat="45.06054" lon="5.92949">
        <ele>2098</ele>
        <time>2021-10-24T12:38:01Z</time>
      </trkpt>
      <trkpt lat="45.0606" lon="5.92948">
        <ele>2098</ele>
        <time>2021-10-24T12:38:07Z</time>
      </trkpt>
      <trkpt lat="45.06066" lon="5.92947">
        <ele>2098</ele>
        <time>2021-10-24T12:38:12Z</time>
      </trkpt>
      <trkpt lat="45.06071" lon="5.92948">
        <ele>2097</ele>
        <time>2021-10-24T12:38:18Z</time>
      </trkpt>
      <trkpt lat="45.06076" lon="5.92951">
        <ele>2097</ele>
        <time>2021-10-24T12:38:23Z</time>
      </trkpt>
      <trkpt lat="45.06081" lon="5.92952">
        <ele>2097</ele>
        <time>2021-10-24T12:38:29Z</time>
      </trkpt>
      <trkpt lat="45.06087" lon="5.92953">
        <ele>2094</ele>
        <time>2021-10-24T12:38:35Z</time>
      </trkpt>
      <trkpt lat="45.06092" lon="5.92953">
        <ele>2095</ele>
        <time>2021-10-24T12:38:41Z</time>
      </trkpt>
      <trkpt lat="45.06098" lon="5.92953">
        <ele>2096</ele>
        <time>2021-10-24T12:38:47Z</time>
      </trkpt>
      <trkpt lat="45.06106" lon="5.92956">
        <ele>2096</ele>
        <time>2021-10-24T12:38:53Z</time>
      </trkpt>
      <trkpt lat="45.0611" lon="5.92958">
        <ele>2096</ele>
        <time>2021-10-24T12:38:59Z</time>
      </trkpt>
      <trkpt lat="45.06115" lon="5.9296">
        <ele>2097</ele>
        <time>2021-10-24T12:39:05Z</time>
      </trkpt>
      <trkpt lat="45.06122" lon="5.92962">
        <ele>2097</ele>
        <time>2021-10-24T12:39:11Z</time>
      </trkpt>
      <trkpt lat="45.06126" lon="5.92963">
        <ele>2096</ele>
        <time>2021-10-24T12:39:16Z</time>
      </trkpt>
      <trkpt lat="45.06131" lon="5.92966">
        <ele>2094</ele>
        <time>2021-10-24T12:39:22Z</time>
      </trkpt>
      <trkpt lat="45.06135" lon="5.92968">
        <ele>2093</ele>
        <time>2021-10-24T12:39:27Z</time>
      </trkpt>
      <trkpt lat="45.06142" lon="5.92968">
        <ele>2092</ele>
        <time>2021-10-24T12:39:33Z</time>
      </trkpt>
      <trkpt lat="45.06147" lon="5.92969">
        <ele>2093</ele>
        <time>2021-10-24T12:39:38Z</time>
      </trkpt>
      <trkpt lat="45.06152" lon="5.92969">
        <ele>2093</ele>
        <time>2021-10-24T12:39:43Z</time>
      </trkpt>
      <trkpt lat="45.06157" lon="5.92971">
        <ele>2092</ele>
        <time>2021-10-24T12:39:48Z</time>
      </trkpt>
      <trkpt lat="45.06164" lon="5.92974">
        <ele>2091</ele>
        <time>2021-10-24T12:39:54Z</time>
      </trkpt>
      <trkpt lat="45.06167" lon="5.92976">
        <ele>2092</ele>
        <time>2021-10-24T12:39:59Z</time>
      </trkpt>
      <trkpt lat="45.06168" lon="5.92977">
        <ele>2092</ele>
        <time>2021-10-24T12:40:04Z</time>
      </trkpt>
      <trkpt lat="45.0617" lon="5.92979">
        <ele>2091</ele>
        <time>2021-10-24T12:40:10Z</time>
      </trkpt>
      <trkpt lat="45.0617" lon="5.92981">
        <ele>2090</ele>
        <time>2021-10-24T12:40:16Z</time>
      </trkpt>
      <trkpt lat="45.06173" lon="5.92985">
        <ele>2090</ele>
        <time>2021-10-24T12:40:21Z</time>
      </trkpt>
      <trkpt lat="45.06176" lon="5.92988">
        <ele>2090</ele>
        <time>2021-10-24T12:40:27Z</time>
      </trkpt>
      <trkpt lat="45.06176" lon="5.92987">
        <ele>2089</ele>
        <time>2021-10-24T12:40:33Z</time>
      </trkpt>
      <trkpt lat="45.06177" lon="5.92986">
        <ele>2087</ele>
        <time>2021-10-24T12:40:38Z</time>
      </trkpt>
      <trkpt lat="45.06176" lon="5.92985">
        <ele>2087</ele>
        <time>2021-10-24T12:40:44Z</time>
      </trkpt>
      <trkpt lat="45.06176" lon="5.92985">
        <ele>2087</ele>
        <time>2021-10-24T12:40:50Z</time>
      </trkpt>
      <trkpt lat="45.06177" lon="5.92985">
        <ele>2090</ele>
        <time>2021-10-24T12:40:56Z</time>
      </trkpt>
      <trkpt lat="45.06178" lon="5.92985">
        <ele>2090</ele>
        <time>2021-10-24T12:41:01Z</time>
      </trkpt>
      <trkpt lat="45.06178" lon="5.92984">
        <ele>2090</ele>
        <time>2021-10-24T12:41:06Z</time>
      </trkpt>
      <trkpt lat="45.06178" lon="5.92984">
        <ele>2090</ele>
        <time>2021-10-24T12:41:11Z</time>
      </trkpt>
      <trkpt lat="45.06179" lon="5.92986">
        <ele>2090</ele>
        <time>2021-10-24T12:41:17Z</time>
      </trkpt>
      <trkpt lat="45.06179" lon="5.92986">
        <ele>2090</ele>
        <time>2021-10-24T12:41:22Z</time>
      </trkpt>
      <trkpt lat="45.06179" lon="5.92986">
        <ele>2090</ele>
        <time>2021-10-24T12:41:27Z</time>
      </trkpt>
      <trkpt lat="45.0618" lon="5.92987">
        <ele>2090</ele>
        <time>2021-10-24T12:41:33Z</time>
      </trkpt>
      <trkpt lat="45.0618" lon="5.92987">
        <ele>2090</ele>
        <time>2021-10-24T12:41:39Z</time>
      </trkpt>
      <trkpt lat="45.0618" lon="5.92987">
        <ele>2090</ele>
        <time>2021-10-24T12:41:45Z</time>
      </trkpt>
      <trkpt lat="45.0618" lon="5.92987">
        <ele>2090</ele>
        <time>2021-10-24T12:41:51Z</time>
      </trkpt>
      <trkpt lat="45.0618" lon="5.92987">
        <ele>2090</ele>
        <time>2021-10-24T12:41:57Z</time>
      </trkpt>
      <trkpt lat="45.0618" lon="5.92987">
        <ele>2090</ele>
        <time>2021-10-24T12:42:03Z</time>
      </trkpt>
      <trkpt lat="45.0618" lon="5.92987">
        <ele>2090</ele>
        <time>2021-10-24T12:42:09Z</time>
      </trkpt>
      <trkpt lat="45.0618" lon="5.92987">
        <ele>2090</ele>
        <time>2021-10-24T12:42:15Z</time>
      </trkpt>
      <trkpt lat="45.0618" lon="5.92987">
        <ele>2090</ele>
        <time>2021-10-24T12:42:21Z</time>
      </trkpt>
      <trkpt lat="45.0618" lon="5.92987">
        <ele>2090</ele>
        <time>2021-10-24T12:42:26Z</time>
      </trkpt>
      <trkpt lat="45.0618" lon="5.92987">
        <ele>2090</ele>
        <time>2021-10-24T12:42:31Z</time>
      </trkpt>
      <trkpt lat="45.0618" lon="5.92987">
        <ele>2090</ele>
        <time>2021-10-24T12:42:37Z</time>
      </trkpt>
      <trkpt lat="45.0618" lon="5.92987">
        <ele>2090</ele>
        <time>2021-10-24T12:42:43Z</time>
      </trkpt>
      <trkpt lat="45.0618" lon="5.92987">
        <ele>2090</ele>
        <time>2021-10-24T12:42:49Z</time>
      </trkpt>
      <trkpt lat="45.0618" lon="5.92987">
        <ele>2090</ele>
        <time>2021-10-24T12:42:55Z</time>
      </trkpt>
      <trkpt lat="45.0618" lon="5.92987">
        <ele>2090</ele>
        <time>2021-10-24T12:43:01Z</time>
      </trkpt>
      <trkpt lat="45.0618" lon="5.92987">
        <ele>2090</ele>
        <time>2021-10-24T12:43:07Z</time>
      </trkpt>
      <trkpt lat="45.0618" lon="5.92987">
        <ele>2090</ele>
        <time>2021-10-24T12:43:12Z</time>
      </trkpt>
      <trkpt lat="45.0618" lon="5.92987">
        <ele>2090</ele>
        <time>2021-10-24T12:43:17Z</time>
      </trkpt>
      <trkpt lat="45.0618" lon="5.92987">
        <ele>2090</ele>
        <time>2021-10-24T12:43:23Z</time>
      </trkpt>
      <trkpt lat="45.0618" lon="5.92987">
        <ele>2090</ele>
        <time>2021-10-24T12:43:28Z</time>
      </trkpt>
      <trkpt lat="45.06184" lon="5.92992">
        <ele>2088</ele>
        <time>2021-10-24T12:43:34Z</time>
      </trkpt>
      <trkpt lat="45.06186" lon="5.93001">
        <ele>2088</ele>
        <time>2021-10-24T12:43:40Z</time>
      </trkpt>
      <trkpt lat="45.06187" lon="5.93006">
        <ele>2088</ele>
        <time>2021-10-24T12:43:45Z</time>
      </trkpt>
      <trkpt lat="45.0619" lon="5.93009">
        <ele>2087</ele>
        <time>2021-10-24T12:43:51Z</time>
      </trkpt>
      <trkpt lat="45.0619" lon="5.93009">
        <ele>2087</ele>
        <time>2021-10-24T12:43:56Z</time>
      </trkpt>
      <trkpt lat="45.06192" lon="5.93008">
        <ele>2087</ele>
        <time>2021-10-24T12:44:02Z</time>
      </trkpt>
      <trkpt lat="45.06194" lon="5.93008">
        <ele>2086</ele>
        <time>2021-10-24T12:44:07Z</time>
      </trkpt>
      <trkpt lat="45.06199" lon="5.93009">
        <ele>2086</ele>
        <time>2021-10-24T12:44:13Z</time>
      </trkpt>
      <trkpt lat="45.06204" lon="5.93012">
        <ele>2087</ele>
        <time>2021-10-24T12:44:18Z</time>
      </trkpt>
      <trkpt lat="45.06207" lon="5.93016">
        <ele>2086</ele>
        <time>2021-10-24T12:44:24Z</time>
      </trkpt>
      <trkpt lat="45.06209" lon="5.93022">
        <ele>2085</ele>
        <time>2021-10-24T12:44:29Z</time>
      </trkpt>
      <trkpt lat="45.06211" lon="5.9303">
        <ele>2085</ele>
        <time>2021-10-24T12:44:35Z</time>
      </trkpt>
      <trkpt lat="45.06213" lon="5.93035">
        <ele>2085</ele>
        <time>2021-10-24T12:44:40Z</time>
      </trkpt>
      <trkpt lat="45.06212" lon="5.93038">
        <ele>2085</ele>
        <time>2021-10-24T12:44:46Z</time>
      </trkpt>
      <trkpt lat="45.06212" lon="5.93037">
        <ele>2086</ele>
        <time>2021-10-24T12:44:51Z</time>
      </trkpt>
      <trkpt lat="45.06213" lon="5.93036">
        <ele>2087</ele>
        <time>2021-10-24T12:44:57Z</time>
      </trkpt>
      <trkpt lat="45.06213" lon="5.93036">
        <ele>2087</ele>
        <time>2021-10-24T12:45:02Z</time>
      </trkpt>
      <trkpt lat="45.06213" lon="5.93036">
        <ele>2087</ele>
        <time>2021-10-24T12:45:08Z</time>
      </trkpt>
      <trkpt lat="45.06213" lon="5.93036">
        <ele>2087</ele>
        <time>2021-10-24T12:45:13Z</time>
      </trkpt>
      <trkpt lat="45.06215" lon="5.93036">
        <ele>2089</ele>
        <time>2021-10-24T12:45:18Z</time>
      </trkpt>
      <trkpt lat="45.06215" lon="5.93036">
        <ele>2089</ele>
        <time>2021-10-24T12:45:24Z</time>
      </trkpt>
      <trkpt lat="45.06213" lon="5.93037">
        <ele>2089</ele>
        <time>2021-10-24T12:45:30Z</time>
      </trkpt>
      <trkpt lat="45.06213" lon="5.93036">
        <ele>2090</ele>
        <time>2021-10-24T12:45:35Z</time>
      </trkpt>
      <trkpt lat="45.06213" lon="5.93036">
        <ele>2090</ele>
        <time>2021-10-24T12:45:40Z</time>
      </trkpt>
      <trkpt lat="45.06213" lon="5.93036">
        <ele>2090</ele>
        <time>2021-10-24T12:45:45Z</time>
      </trkpt>
      <trkpt lat="45.06218" lon="5.93039">
        <ele>2089</ele>
        <time>2021-10-24T12:45:51Z</time>
      </trkpt>
      <trkpt lat="45.06222" lon="5.9304">
        <ele>2089</ele>
        <time>2021-10-24T12:45:56Z</time>
      </trkpt>
      <trkpt lat="45.06228" lon="5.93046">
        <ele>2090</ele>
        <time>2021-10-24T12:46:02Z</time>
      </trkpt>
      <trkpt lat="45.06232" lon="5.9305">
        <ele>2088</ele>
        <time>2021-10-24T12:46:08Z</time>
      </trkpt>
      <trkpt lat="45.06236" lon="5.93047">
        <ele>2088</ele>
        <time>2021-10-24T12:46:13Z</time>
      </trkpt>
      <trkpt lat="45.06241" lon="5.9305">
        <ele>2089</ele>
        <time>2021-10-24T12:46:19Z</time>
      </trkpt>
      <trkpt lat="45.06245" lon="5.93056">
        <ele>2089</ele>
        <time>2021-10-24T12:46:24Z</time>
      </trkpt>
      <trkpt lat="45.0625" lon="5.93058">
        <ele>2088</ele>
        <time>2021-10-24T12:46:30Z</time>
      </trkpt>
      <trkpt lat="45.06255" lon="5.93062">
        <ele>2089</ele>
        <time>2021-10-24T12:46:36Z</time>
      </trkpt>
      <trkpt lat="45.06257" lon="5.93068">
        <ele>2089</ele>
        <time>2021-10-24T12:46:41Z</time>
      </trkpt>
      <trkpt lat="45.0626" lon="5.93073">
        <ele>2089</ele>
        <time>2021-10-24T12:46:46Z</time>
      </trkpt>
      <trkpt lat="45.06266" lon="5.93075">
        <ele>2087</ele>
        <time>2021-10-24T12:46:52Z</time>
      </trkpt>
      <trkpt lat="45.06273" lon="5.93077">
        <ele>2087</ele>
        <time>2021-10-24T12:46:58Z</time>
      </trkpt>
      <trkpt lat="45.06278" lon="5.93076">
        <ele>2088</ele>
        <time>2021-10-24T12:47:03Z</time>
      </trkpt>
      <trkpt lat="45.06284" lon="5.93075">
        <ele>2087</ele>
        <time>2021-10-24T12:47:09Z</time>
      </trkpt>
      <trkpt lat="45.06292" lon="5.93075">
        <ele>2087</ele>
        <time>2021-10-24T12:47:15Z</time>
      </trkpt>
      <trkpt lat="45.06297" lon="5.93074">
        <ele>2087</ele>
        <time>2021-10-24T12:47:21Z</time>
      </trkpt>
      <trkpt lat="45.063" lon="5.93068">
        <ele>2088</ele>
        <time>2021-10-24T12:47:27Z</time>
      </trkpt>
      <trkpt lat="45.06305" lon="5.93061">
        <ele>2087</ele>
        <time>2021-10-24T12:47:33Z</time>
      </trkpt>
      <trkpt lat="45.06311" lon="5.93068">
        <ele>2088</ele>
        <time>2021-10-24T12:47:39Z</time>
      </trkpt>
      <trkpt lat="45.06313" lon="5.93072">
        <ele>2088</ele>
        <time>2021-10-24T12:47:44Z</time>
      </trkpt>
      <trkpt lat="45.06315" lon="5.93077">
        <ele>2087</ele>
        <time>2021-10-24T12:47:50Z</time>
      </trkpt>
      <trkpt lat="45.06318" lon="5.9308">
        <ele>2086</ele>
        <time>2021-10-24T12:47:56Z</time>
      </trkpt>
      <trkpt lat="45.06324" lon="5.93078">
        <ele>2087</ele>
        <time>2021-10-24T12:48:02Z</time>
      </trkpt>
      <trkpt lat="45.0633" lon="5.93077">
        <ele>2087</ele>
        <time>2021-10-24T12:48:07Z</time>
      </trkpt>
      <trkpt lat="45.06334" lon="5.93075">
        <ele>2087</ele>
        <time>2021-10-24T12:48:12Z</time>
      </trkpt>
      <trkpt lat="45.06337" lon="5.93075">
        <ele>2087</ele>
        <time>2021-10-24T12:48:17Z</time>
      </trkpt>
      <trkpt lat="45.0634" lon="5.93076">
        <ele>2088</ele>
        <time>2021-10-24T12:48:23Z</time>
      </trkpt>
      <trkpt lat="45.06343" lon="5.93078">
        <ele>2089</ele>
        <time>2021-10-24T12:48:28Z</time>
      </trkpt>
      <trkpt lat="45.06349" lon="5.93076">
        <ele>2089</ele>
        <time>2021-10-24T12:48:34Z</time>
      </trkpt>
      <trkpt lat="45.06353" lon="5.93074">
        <ele>2089</ele>
        <time>2021-10-24T12:48:39Z</time>
      </trkpt>
      <trkpt lat="45.0636" lon="5.9307">
        <ele>2089</ele>
        <time>2021-10-24T12:48:44Z</time>
      </trkpt>
      <trkpt lat="45.06363" lon="5.93066">
        <ele>2090</ele>
        <time>2021-10-24T12:48:50Z</time>
      </trkpt>
      <trkpt lat="45.06366" lon="5.93062">
        <ele>2091</ele>
        <time>2021-10-24T12:48:55Z</time>
      </trkpt>
      <trkpt lat="45.06369" lon="5.93056">
        <ele>2091</ele>
        <time>2021-10-24T12:49:01Z</time>
      </trkpt>
      <trkpt lat="45.06373" lon="5.93054">
        <ele>2091</ele>
        <time>2021-10-24T12:49:06Z</time>
      </trkpt>
      <trkpt lat="45.06376" lon="5.93051">
        <ele>2091</ele>
        <time>2021-10-24T12:49:12Z</time>
      </trkpt>
      <trkpt lat="45.06377" lon="5.93051">
        <ele>2092</ele>
        <time>2021-10-24T12:49:17Z</time>
      </trkpt>
      <trkpt lat="45.06377" lon="5.93051">
        <ele>2092</ele>
        <time>2021-10-24T12:49:23Z</time>
      </trkpt>
      <trkpt lat="45.06374" lon="5.93051">
        <ele>2093</ele>
        <time>2021-10-24T12:49:28Z</time>
      </trkpt>
      <trkpt lat="45.06371" lon="5.93048">
        <ele>2093</ele>
        <time>2021-10-24T12:49:34Z</time>
      </trkpt>
      <trkpt lat="45.06367" lon="5.93041">
        <ele>2093</ele>
        <time>2021-10-24T12:49:40Z</time>
      </trkpt>
      <trkpt lat="45.06366" lon="5.93034">
        <ele>2093</ele>
        <time>2021-10-24T12:49:46Z</time>
      </trkpt>
      <trkpt lat="45.06366" lon="5.93029">
        <ele>2093</ele>
        <time>2021-10-24T12:49:52Z</time>
      </trkpt>
      <trkpt lat="45.06366" lon="5.93023">
        <ele>2094</ele>
        <time>2021-10-24T12:49:57Z</time>
      </trkpt>
      <trkpt lat="45.06365" lon="5.93018">
        <ele>2093</ele>
        <time>2021-10-24T12:50:02Z</time>
      </trkpt>
      <trkpt lat="45.06365" lon="5.93015">
        <ele>2094</ele>
        <time>2021-10-24T12:50:07Z</time>
      </trkpt>
      <trkpt lat="45.06365" lon="5.93014">
        <ele>2094</ele>
        <time>2021-10-24T12:50:13Z</time>
      </trkpt>
      <trkpt lat="45.06365" lon="5.93014">
        <ele>2094</ele>
        <time>2021-10-24T12:50:18Z</time>
      </trkpt>
      <trkpt lat="45.06365" lon="5.93012">
        <ele>2093</ele>
        <time>2021-10-24T12:50:23Z</time>
      </trkpt>
      <trkpt lat="45.06366" lon="5.93011">
        <ele>2092</ele>
        <time>2021-10-24T12:50:28Z</time>
      </trkpt>
      <trkpt lat="45.06367" lon="5.93008">
        <ele>2091</ele>
        <time>2021-10-24T12:50:34Z</time>
      </trkpt>
      <trkpt lat="45.06368" lon="5.93006">
        <ele>2090</ele>
        <time>2021-10-24T12:50:40Z</time>
      </trkpt>
      <trkpt lat="45.06368" lon="5.93006">
        <ele>2090</ele>
        <time>2021-10-24T12:50:45Z</time>
      </trkpt>
      <trkpt lat="45.06368" lon="5.93006">
        <ele>2090</ele>
        <time>2021-10-24T12:50:50Z</time>
      </trkpt>
      <trkpt lat="45.06365" lon="5.93">
        <ele>2089</ele>
        <time>2021-10-24T12:50:56Z</time>
      </trkpt>
      <trkpt lat="45.06362" lon="5.92996">
        <ele>2088</ele>
        <time>2021-10-24T12:51:02Z</time>
      </trkpt>
      <trkpt lat="45.06366" lon="5.92993">
        <ele>2086</ele>
        <time>2021-10-24T12:51:08Z</time>
      </trkpt>
      <trkpt lat="45.06371" lon="5.92993">
        <ele>2085</ele>
        <time>2021-10-24T12:51:14Z</time>
      </trkpt>
      <trkpt lat="45.06374" lon="5.92994">
        <ele>2084</ele>
        <time>2021-10-24T12:51:20Z</time>
      </trkpt>
      <trkpt lat="45.06377" lon="5.92994">
        <ele>2083</ele>
        <time>2021-10-24T12:51:25Z</time>
      </trkpt>
      <trkpt lat="45.06378" lon="5.92988">
        <ele>2080</ele>
        <time>2021-10-24T12:51:31Z</time>
      </trkpt>
      <trkpt lat="45.06376" lon="5.92985">
        <ele>2080</ele>
        <time>2021-10-24T12:51:36Z</time>
      </trkpt>
      <trkpt lat="45.06374" lon="5.92981">
        <ele>2080</ele>
        <time>2021-10-24T12:51:42Z</time>
      </trkpt>
      <trkpt lat="45.06375" lon="5.92977">
        <ele>2079</ele>
        <time>2021-10-24T12:51:48Z</time>
      </trkpt>
      <trkpt lat="45.06376" lon="5.92974">
        <ele>2078</ele>
        <time>2021-10-24T12:51:53Z</time>
      </trkpt>
      <trkpt lat="45.06377" lon="5.92971">
        <ele>2077</ele>
        <time>2021-10-24T12:51:58Z</time>
      </trkpt>
      <trkpt lat="45.06377" lon="5.92966">
        <ele>2076</ele>
        <time>2021-10-24T12:52:04Z</time>
      </trkpt>
      <trkpt lat="45.06377" lon="5.92962">
        <ele>2075</ele>
        <time>2021-10-24T12:52:09Z</time>
      </trkpt>
      <trkpt lat="45.06378" lon="5.92962">
        <ele>2073</ele>
        <time>2021-10-24T12:52:15Z</time>
      </trkpt>
      <trkpt lat="45.06378" lon="5.92962">
        <ele>2073</ele>
        <time>2021-10-24T12:52:21Z</time>
      </trkpt>
      <trkpt lat="45.06378" lon="5.92962">
        <ele>2073</ele>
        <time>2021-10-24T12:52:27Z</time>
      </trkpt>
      <trkpt lat="45.0638" lon="5.92965">
        <ele>2072</ele>
        <time>2021-10-24T12:52:32Z</time>
      </trkpt>
      <trkpt lat="45.06382" lon="5.92965">
        <ele>2070</ele>
        <time>2021-10-24T12:52:38Z</time>
      </trkpt>
      <trkpt lat="45.06383" lon="5.92959">
        <ele>2070</ele>
        <time>2021-10-24T12:52:44Z</time>
      </trkpt>
      <trkpt lat="45.0638" lon="5.92956">
        <ele>2068</ele>
        <time>2021-10-24T12:52:49Z</time>
      </trkpt>
      <trkpt lat="45.06378" lon="5.92952">
        <ele>2068</ele>
        <time>2021-10-24T12:52:55Z</time>
      </trkpt>
      <trkpt lat="45.06375" lon="5.92951">
        <ele>2067</ele>
        <time>2021-10-24T12:53:00Z</time>
      </trkpt>
      <trkpt lat="45.06373" lon="5.92945">
        <ele>2064</ele>
        <time>2021-10-24T12:53:06Z</time>
      </trkpt>
      <trkpt lat="45.06374" lon="5.92938">
        <ele>2062</ele>
        <time>2021-10-24T12:53:12Z</time>
      </trkpt>
      <trkpt lat="45.06374" lon="5.92935">
        <ele>2061</ele>
        <time>2021-10-24T12:53:17Z</time>
      </trkpt>
      <trkpt lat="45.06369" lon="5.9293">
        <ele>2060</ele>
        <time>2021-10-24T12:53:23Z</time>
      </trkpt>
      <trkpt lat="45.06372" lon="5.92926">
        <ele>2061</ele>
        <time>2021-10-24T12:53:28Z</time>
      </trkpt>
      <trkpt lat="45.06375" lon="5.92925">
        <ele>2060</ele>
        <time>2021-10-24T12:53:33Z</time>
      </trkpt>
      <trkpt lat="45.0638" lon="5.92921">
        <ele>2059</ele>
        <time>2021-10-24T12:53:39Z</time>
      </trkpt>
      <trkpt lat="45.06383" lon="5.92918">
        <ele>2059</ele>
        <time>2021-10-24T12:53:44Z</time>
      </trkpt>
      <trkpt lat="45.06385" lon="5.92914">
        <ele>2058</ele>
        <time>2021-10-24T12:53:50Z</time>
      </trkpt>
      <trkpt lat="45.06386" lon="5.92908">
        <ele>2057</ele>
        <time>2021-10-24T12:53:55Z</time>
      </trkpt>
      <trkpt lat="45.06386" lon="5.92901">
        <ele>2056</ele>
        <time>2021-10-24T12:54:01Z</time>
      </trkpt>
      <trkpt lat="45.06387" lon="5.92898">
        <ele>2055</ele>
        <time>2021-10-24T12:54:07Z</time>
      </trkpt>
      <trkpt lat="45.06387" lon="5.92896">
        <ele>2056</ele>
        <time>2021-10-24T12:54:13Z</time>
      </trkpt>
      <trkpt lat="45.06387" lon="5.92894">
        <ele>2055</ele>
        <time>2021-10-24T12:54:19Z</time>
      </trkpt>
      <trkpt lat="45.06386" lon="5.9289">
        <ele>2055</ele>
        <time>2021-10-24T12:54:25Z</time>
      </trkpt>
      <trkpt lat="45.0639" lon="5.92889">
        <ele>2055</ele>
        <time>2021-10-24T12:54:31Z</time>
      </trkpt>
      <trkpt lat="45.06392" lon="5.92889">
        <ele>2055</ele>
        <time>2021-10-24T12:54:36Z</time>
      </trkpt>
      <trkpt lat="45.06394" lon="5.92888">
        <ele>2055</ele>
        <time>2021-10-24T12:54:42Z</time>
      </trkpt>
      <trkpt lat="45.06397" lon="5.92887">
        <ele>2057</ele>
        <time>2021-10-24T12:54:48Z</time>
      </trkpt>
      <trkpt lat="45.064" lon="5.92887">
        <ele>2059</ele>
        <time>2021-10-24T12:54:54Z</time>
      </trkpt>
      <trkpt lat="45.06403" lon="5.92888">
        <ele>2060</ele>
        <time>2021-10-24T12:54:59Z</time>
      </trkpt>
      <trkpt lat="45.06403" lon="5.92891">
        <ele>2059</ele>
        <time>2021-10-24T12:55:05Z</time>
      </trkpt>
      <trkpt lat="45.06405" lon="5.92895">
        <ele>2059</ele>
        <time>2021-10-24T12:55:10Z</time>
      </trkpt>
      <trkpt lat="45.06407" lon="5.92896">
        <ele>2059</ele>
        <time>2021-10-24T12:55:15Z</time>
      </trkpt>
      <trkpt lat="45.06411" lon="5.92897">
        <ele>2059</ele>
        <time>2021-10-24T12:55:21Z</time>
      </trkpt>
      <trkpt lat="45.06413" lon="5.92901">
        <ele>2058</ele>
        <time>2021-10-24T12:55:27Z</time>
      </trkpt>
      <trkpt lat="45.06415" lon="5.92902">
        <ele>2057</ele>
        <time>2021-10-24T12:55:32Z</time>
      </trkpt>
      <trkpt lat="45.06418" lon="5.92902">
        <ele>2056</ele>
        <time>2021-10-24T12:55:37Z</time>
      </trkpt>
      <trkpt lat="45.06424" lon="5.92904">
        <ele>2056</ele>
        <time>2021-10-24T12:55:43Z</time>
      </trkpt>
      <trkpt lat="45.06427" lon="5.92904">
        <ele>2056</ele>
        <time>2021-10-24T12:55:48Z</time>
      </trkpt>
      <trkpt lat="45.06428" lon="5.92904">
        <ele>2055</ele>
        <time>2021-10-24T12:55:53Z</time>
      </trkpt>
      <trkpt lat="45.06433" lon="5.92906">
        <ele>2054</ele>
        <time>2021-10-24T12:55:58Z</time>
      </trkpt>
      <trkpt lat="45.06435" lon="5.92908">
        <ele>2054</ele>
        <time>2021-10-24T12:56:04Z</time>
      </trkpt>
      <trkpt lat="45.06437" lon="5.92908">
        <ele>2055</ele>
        <time>2021-10-24T12:56:09Z</time>
      </trkpt>
      <trkpt lat="45.06439" lon="5.92909">
        <ele>2054</ele>
        <time>2021-10-24T12:56:15Z</time>
      </trkpt>
      <trkpt lat="45.06442" lon="5.92908">
        <ele>2052</ele>
        <time>2021-10-24T12:56:20Z</time>
      </trkpt>
      <trkpt lat="45.06446" lon="5.92909">
        <ele>2051</ele>
        <time>2021-10-24T12:56:26Z</time>
      </trkpt>
      <trkpt lat="45.06448" lon="5.9291">
        <ele>2050</ele>
        <time>2021-10-24T12:56:31Z</time>
      </trkpt>
      <trkpt lat="45.0645" lon="5.92913">
        <ele>2049</ele>
        <time>2021-10-24T12:56:37Z</time>
      </trkpt>
      <trkpt lat="45.06453" lon="5.92918">
        <ele>2049</ele>
        <time>2021-10-24T12:56:42Z</time>
      </trkpt>
      <trkpt lat="45.06453" lon="5.92918">
        <ele>2048</ele>
        <time>2021-10-24T12:56:47Z</time>
      </trkpt>
      <trkpt lat="45.06456" lon="5.92919">
        <ele>2047</ele>
        <time>2021-10-24T12:56:53Z</time>
      </trkpt>
      <trkpt lat="45.06459" lon="5.9292">
        <ele>2048</ele>
        <time>2021-10-24T12:56:59Z</time>
      </trkpt>
      <trkpt lat="45.06461" lon="5.92921">
        <ele>2047</ele>
        <time>2021-10-24T12:57:04Z</time>
      </trkpt>
      <trkpt lat="45.06465" lon="5.92923">
        <ele>2042</ele>
        <time>2021-10-24T12:57:10Z</time>
      </trkpt>
      <trkpt lat="45.06468" lon="5.92926">
        <ele>2041</ele>
        <time>2021-10-24T12:57:16Z</time>
      </trkpt>
      <trkpt lat="45.0647" lon="5.92931">
        <ele>2039</ele>
        <time>2021-10-24T12:57:22Z</time>
      </trkpt>
      <trkpt lat="45.06476" lon="5.92932">
        <ele>2038</ele>
        <time>2021-10-24T12:57:28Z</time>
      </trkpt>
      <trkpt lat="45.06481" lon="5.92934">
        <ele>2039</ele>
        <time>2021-10-24T12:57:34Z</time>
      </trkpt>
      <trkpt lat="45.06484" lon="5.92937">
        <ele>2039</ele>
        <time>2021-10-24T12:57:40Z</time>
      </trkpt>
      <trkpt lat="45.06488" lon="5.92941">
        <ele>2038</ele>
        <time>2021-10-24T12:57:46Z</time>
      </trkpt>
      <trkpt lat="45.06492" lon="5.9294">
        <ele>2038</ele>
        <time>2021-10-24T12:57:51Z</time>
      </trkpt>
      <trkpt lat="45.06495" lon="5.92937">
        <ele>2039</ele>
        <time>2021-10-24T12:57:56Z</time>
      </trkpt>
      <trkpt lat="45.06498" lon="5.92937">
        <ele>2039</ele>
        <time>2021-10-24T12:58:01Z</time>
      </trkpt>
      <trkpt lat="45.06504" lon="5.92937">
        <ele>2037</ele>
        <time>2021-10-24T12:58:07Z</time>
      </trkpt>
      <trkpt lat="45.06507" lon="5.92937">
        <ele>2036</ele>
        <time>2021-10-24T12:58:12Z</time>
      </trkpt>
      <trkpt lat="45.06512" lon="5.92939">
        <ele>2034</ele>
        <time>2021-10-24T12:58:17Z</time>
      </trkpt>
      <trkpt lat="45.06516" lon="5.92944">
        <ele>2034</ele>
        <time>2021-10-24T12:58:23Z</time>
      </trkpt>
      <trkpt lat="45.06518" lon="5.92949">
        <ele>2034</ele>
        <time>2021-10-24T12:58:28Z</time>
      </trkpt>
      <trkpt lat="45.06522" lon="5.92956">
        <ele>2035</ele>
        <time>2021-10-24T12:58:34Z</time>
      </trkpt>
      <trkpt lat="45.06524" lon="5.9296">
        <ele>2033</ele>
        <time>2021-10-24T12:58:40Z</time>
      </trkpt>
      <trkpt lat="45.06527" lon="5.92963">
        <ele>2032</ele>
        <time>2021-10-24T12:58:46Z</time>
      </trkpt>
      <trkpt lat="45.06533" lon="5.92961">
        <ele>2031</ele>
        <time>2021-10-24T12:58:52Z</time>
      </trkpt>
      <trkpt lat="45.06536" lon="5.92961">
        <ele>2031</ele>
        <time>2021-10-24T12:58:57Z</time>
      </trkpt>
      <trkpt lat="45.06539" lon="5.92961">
        <ele>2030</ele>
        <time>2021-10-24T12:59:03Z</time>
      </trkpt>
      <trkpt lat="45.06542" lon="5.92963">
        <ele>2029</ele>
        <time>2021-10-24T12:59:08Z</time>
      </trkpt>
      <trkpt lat="45.06547" lon="5.92963">
        <ele>2029</ele>
        <time>2021-10-24T12:59:14Z</time>
      </trkpt>
      <trkpt lat="45.06549" lon="5.92962">
        <ele>2028</ele>
        <time>2021-10-24T12:59:19Z</time>
      </trkpt>
      <trkpt lat="45.06552" lon="5.92961">
        <ele>2028</ele>
        <time>2021-10-24T12:59:24Z</time>
      </trkpt>
      <trkpt lat="45.06556" lon="5.92963">
        <ele>2027</ele>
        <time>2021-10-24T12:59:30Z</time>
      </trkpt>
      <trkpt lat="45.06561" lon="5.92965">
        <ele>2025</ele>
        <time>2021-10-24T12:59:36Z</time>
      </trkpt>
      <trkpt lat="45.06567" lon="5.92969">
        <ele>2024</ele>
        <time>2021-10-24T12:59:42Z</time>
      </trkpt>
      <trkpt lat="45.06569" lon="5.92976">
        <ele>2023</ele>
        <time>2021-10-24T12:59:48Z</time>
      </trkpt>
      <trkpt lat="45.06571" lon="5.92981">
        <ele>2021</ele>
        <time>2021-10-24T12:59:53Z</time>
      </trkpt>
      <trkpt lat="45.06574" lon="5.92987">
        <ele>2021</ele>
        <time>2021-10-24T12:59:59Z</time>
      </trkpt>
      <trkpt lat="45.06579" lon="5.92991">
        <ele>2022</ele>
        <time>2021-10-24T13:00:05Z</time>
      </trkpt>
      <trkpt lat="45.06584" lon="5.92992">
        <ele>2023</ele>
        <time>2021-10-24T13:00:10Z</time>
      </trkpt>
      <trkpt lat="45.06586" lon="5.92998">
        <ele>2022</ele>
        <time>2021-10-24T13:00:16Z</time>
      </trkpt>
      <trkpt lat="45.06589" lon="5.92996">
        <ele>2023</ele>
        <time>2021-10-24T13:00:21Z</time>
      </trkpt>
      <trkpt lat="45.06592" lon="5.92998">
        <ele>2022</ele>
        <time>2021-10-24T13:00:26Z</time>
      </trkpt>
      <trkpt lat="45.06594" lon="5.92999">
        <ele>2024</ele>
        <time>2021-10-24T13:00:32Z</time>
      </trkpt>
      <trkpt lat="45.06596" lon="5.92998">
        <ele>2023</ele>
        <time>2021-10-24T13:00:37Z</time>
      </trkpt>
      <trkpt lat="45.06599" lon="5.92995">
        <ele>2023</ele>
        <time>2021-10-24T13:00:43Z</time>
      </trkpt>
      <trkpt lat="45.066" lon="5.92994">
        <ele>2021</ele>
        <time>2021-10-24T13:00:49Z</time>
      </trkpt>
      <trkpt lat="45.06601" lon="5.92995">
        <ele>2024</ele>
        <time>2021-10-24T13:00:55Z</time>
      </trkpt>
      <trkpt lat="45.06601" lon="5.92995">
        <ele>2024</ele>
        <time>2021-10-24T13:01:00Z</time>
      </trkpt>
      <trkpt lat="45.06602" lon="5.92995">
        <ele>2023</ele>
        <time>2021-10-24T13:01:05Z</time>
      </trkpt>
      <trkpt lat="45.06602" lon="5.92995">
        <ele>2023</ele>
        <time>2021-10-24T13:01:10Z</time>
      </trkpt>
      <trkpt lat="45.06602" lon="5.92995">
        <ele>2023</ele>
        <time>2021-10-24T13:01:16Z</time>
      </trkpt>
      <trkpt lat="45.06599" lon="5.92993">
        <ele>2025</ele>
        <time>2021-10-24T13:01:22Z</time>
      </trkpt>
      <trkpt lat="45.06599" lon="5.92992">
        <ele>2026</ele>
        <time>2021-10-24T13:01:28Z</time>
      </trkpt>
      <trkpt lat="45.066" lon="5.92989">
        <ele>2026</ele>
        <time>2021-10-24T13:01:34Z</time>
      </trkpt>
      <trkpt lat="45.06601" lon="5.92991">
        <ele>2024</ele>
        <time>2021-10-24T13:01:40Z</time>
      </trkpt>
      <trkpt lat="45.06599" lon="5.92993">
        <ele>2022</ele>
        <time>2021-10-24T13:01:46Z</time>
      </trkpt>
      <trkpt lat="45.06599" lon="5.92993">
        <ele>2023</ele>
        <time>2021-10-24T13:01:51Z</time>
      </trkpt>
      <trkpt lat="45.06599" lon="5.92993">
        <ele>2023</ele>
        <time>2021-10-24T13:01:57Z</time>
      </trkpt>
      <trkpt lat="45.066" lon="5.92995">
        <ele>2022</ele>
        <time>2021-10-24T13:02:02Z</time>
      </trkpt>
      <trkpt lat="45.066" lon="5.92997">
        <ele>2022</ele>
        <time>2021-10-24T13:02:08Z</time>
      </trkpt>
      <trkpt lat="45.066" lon="5.92997">
        <ele>2022</ele>
        <time>2021-10-24T13:02:13Z</time>
      </trkpt>
      <trkpt lat="45.066" lon="5.92997">
        <ele>2022</ele>
        <time>2021-10-24T13:02:19Z</time>
      </trkpt>
      <trkpt lat="45.066" lon="5.92998">
        <ele>2024</ele>
        <time>2021-10-24T13:02:24Z</time>
      </trkpt>
      <trkpt lat="45.066" lon="5.92998">
        <ele>2024</ele>
        <time>2021-10-24T13:02:30Z</time>
      </trkpt>
      <trkpt lat="45.066" lon="5.92998">
        <ele>2024</ele>
        <time>2021-10-24T13:02:35Z</time>
      </trkpt>
      <trkpt lat="45.06602" lon="5.92997">
        <ele>2022</ele>
        <time>2021-10-24T13:02:41Z</time>
      </trkpt>
      <trkpt lat="45.06601" lon="5.92997">
        <ele>2023</ele>
        <time>2021-10-24T13:02:46Z</time>
      </trkpt>
      <trkpt lat="45.06601" lon="5.92997">
        <ele>2023</ele>
        <time>2021-10-24T13:02:52Z</time>
      </trkpt>
      <trkpt lat="45.06602" lon="5.92995">
        <ele>2021</ele>
        <time>2021-10-24T13:02:58Z</time>
      </trkpt>
      <trkpt lat="45.06602" lon="5.92996">
        <ele>2021</ele>
        <time>2021-10-24T13:03:04Z</time>
      </trkpt>
      <trkpt lat="45.06603" lon="5.92994">
        <ele>2019</ele>
        <time>2021-10-24T13:03:09Z</time>
      </trkpt>
      <trkpt lat="45.06603" lon="5.92994">
        <ele>2019</ele>
        <time>2021-10-24T13:03:14Z</time>
      </trkpt>
      <trkpt lat="45.06603" lon="5.92994">
        <ele>2019</ele>
        <time>2021-10-24T13:03:20Z</time>
      </trkpt>
      <trkpt lat="45.06603" lon="5.92994">
        <ele>2019</ele>
        <time>2021-10-24T13:03:25Z</time>
      </trkpt>
      <trkpt lat="45.06603" lon="5.92997">
        <ele>2017</ele>
        <time>2021-10-24T13:03:30Z</time>
      </trkpt>
      <trkpt lat="45.06605" lon="5.92995">
        <ele>2018</ele>
        <time>2021-10-24T13:03:36Z</time>
      </trkpt>
      <trkpt lat="45.06604" lon="5.92994">
        <ele>2018</ele>
        <time>2021-10-24T13:03:42Z</time>
      </trkpt>
      <trkpt lat="45.06605" lon="5.92995">
        <ele>2018</ele>
        <time>2021-10-24T13:03:48Z</time>
      </trkpt>
      <trkpt lat="45.06604" lon="5.92996">
        <ele>2021</ele>
        <time>2021-10-24T13:03:54Z</time>
      </trkpt>
      <trkpt lat="45.06604" lon="5.92996">
        <ele>2021</ele>
        <time>2021-10-24T13:04:00Z</time>
      </trkpt>
      <trkpt lat="45.06604" lon="5.92996">
        <ele>2020</ele>
        <time>2021-10-24T13:04:05Z</time>
      </trkpt>
      <trkpt lat="45.06604" lon="5.92996">
        <ele>2020</ele>
        <time>2021-10-24T13:04:10Z</time>
      </trkpt>
      <trkpt lat="45.06604" lon="5.92996">
        <ele>2020</ele>
        <time>2021-10-24T13:04:16Z</time>
      </trkpt>
      <trkpt lat="45.06604" lon="5.92996">
        <ele>2020</ele>
        <time>2021-10-24T13:04:21Z</time>
      </trkpt>
      <trkpt lat="45.06604" lon="5.92996">
        <ele>2020</ele>
        <time>2021-10-24T13:04:27Z</time>
      </trkpt>
      <trkpt lat="45.06604" lon="5.92996">
        <ele>2020</ele>
        <time>2021-10-24T13:04:32Z</time>
      </trkpt>
      <trkpt lat="45.06604" lon="5.92996">
        <ele>2020</ele>
        <time>2021-10-24T13:04:38Z</time>
      </trkpt>
      <trkpt lat="45.06604" lon="5.92996">
        <ele>2020</ele>
        <time>2021-10-24T13:04:44Z</time>
      </trkpt>
      <trkpt lat="45.06604" lon="5.92996">
        <ele>2020</ele>
        <time>2021-10-24T13:04:50Z</time>
      </trkpt>
      <trkpt lat="45.06604" lon="5.92996">
        <ele>2020</ele>
        <time>2021-10-24T13:04:55Z</time>
      </trkpt>
      <trkpt lat="45.06604" lon="5.92996">
        <ele>2020</ele>
        <time>2021-10-24T13:05:01Z</time>
      </trkpt>
      <trkpt lat="45.06604" lon="5.92996">
        <ele>2020</ele>
        <time>2021-10-24T13:05:06Z</time>
      </trkpt>
      <trkpt lat="45.06604" lon="5.92996">
        <ele>2020</ele>
        <time>2021-10-24T13:05:12Z</time>
      </trkpt>
      <trkpt lat="45.06604" lon="5.92996">
        <ele>2020</ele>
        <time>2021-10-24T13:05:17Z</time>
      </trkpt>
      <trkpt lat="45.06604" lon="5.92996">
        <ele>2020</ele>
        <time>2021-10-24T13:05:23Z</time>
      </trkpt>
      <trkpt lat="45.06604" lon="5.92996">
        <ele>2020</ele>
        <time>2021-10-24T13:05:29Z</time>
      </trkpt>
      <trkpt lat="45.06604" lon="5.92996">
        <ele>2020</ele>
        <time>2021-10-24T13:05:34Z</time>
      </trkpt>
      <trkpt lat="45.06604" lon="5.92996">
        <ele>2020</ele>
        <time>2021-10-24T13:05:39Z</time>
      </trkpt>
      <trkpt lat="45.06603" lon="5.92996">
        <ele>2020</ele>
        <time>2021-10-24T13:05:45Z</time>
      </trkpt>
      <trkpt lat="45.06603" lon="5.92994">
        <ele>2019</ele>
        <time>2021-10-24T13:05:51Z</time>
      </trkpt>
      <trkpt lat="45.06603" lon="5.92993">
        <ele>2020</ele>
        <time>2021-10-24T13:05:56Z</time>
      </trkpt>
      <trkpt lat="45.06603" lon="5.92993">
        <ele>2020</ele>
        <time>2021-10-24T13:06:02Z</time>
      </trkpt>
      <trkpt lat="45.06603" lon="5.92993">
        <ele>2020</ele>
        <time>2021-10-24T13:06:07Z</time>
      </trkpt>
      <trkpt lat="45.06603" lon="5.92993">
        <ele>2020</ele>
        <time>2021-10-24T13:06:13Z</time>
      </trkpt>
      <trkpt lat="45.06603" lon="5.92993">
        <ele>2020</ele>
        <time>2021-10-24T13:06:19Z</time>
      </trkpt>
      <trkpt lat="45.06603" lon="5.92993">
        <ele>2020</ele>
        <time>2021-10-24T13:06:25Z</time>
      </trkpt>
      <trkpt lat="45.06603" lon="5.92993">
        <ele>2020</ele>
        <time>2021-10-24T13:06:30Z</time>
      </trkpt>
      <trkpt lat="45.06603" lon="5.92993">
        <ele>2020</ele>
        <time>2021-10-24T13:06:36Z</time>
      </trkpt>
      <trkpt lat="45.06603" lon="5.92993">
        <ele>2020</ele>
        <time>2021-10-24T13:06:41Z</time>
      </trkpt>
      <trkpt lat="45.06603" lon="5.92998">
        <ele>2019</ele>
        <time>2021-10-24T13:06:46Z</time>
      </trkpt>
      <trkpt lat="45.06603" lon="5.92998">
        <ele>2019</ele>
        <time>2021-10-24T13:06:51Z</time>
      </trkpt>
      <trkpt lat="45.06603" lon="5.92998">
        <ele>2019</ele>
        <time>2021-10-24T13:06:57Z</time>
      </trkpt>
      <trkpt lat="45.06603" lon="5.92998">
        <ele>2019</ele>
        <time>2021-10-24T13:07:02Z</time>
      </trkpt>
      <trkpt lat="45.06603" lon="5.92998">
        <ele>2019</ele>
        <time>2021-10-24T13:07:07Z</time>
      </trkpt>
      <trkpt lat="45.06603" lon="5.92998">
        <ele>2019</ele>
        <time>2021-10-24T13:07:13Z</time>
      </trkpt>
      <trkpt lat="45.06603" lon="5.92998">
        <ele>2019</ele>
        <time>2021-10-24T13:07:19Z</time>
      </trkpt>
      <trkpt lat="45.06603" lon="5.92998">
        <ele>2019</ele>
        <time>2021-10-24T13:07:24Z</time>
      </trkpt>
      <trkpt lat="45.06603" lon="5.92998">
        <ele>2019</ele>
        <time>2021-10-24T13:07:30Z</time>
      </trkpt>
      <trkpt lat="45.06603" lon="5.92997">
        <ele>2019</ele>
        <time>2021-10-24T13:07:35Z</time>
      </trkpt>
      <trkpt lat="45.06603" lon="5.92997">
        <ele>2019</ele>
        <time>2021-10-24T13:07:41Z</time>
      </trkpt>
      <trkpt lat="45.06603" lon="5.92997">
        <ele>2019</ele>
        <time>2021-10-24T13:07:46Z</time>
      </trkpt>
      <trkpt lat="45.06603" lon="5.92997">
        <ele>2019</ele>
        <time>2021-10-24T13:07:51Z</time>
      </trkpt>
      <trkpt lat="45.06603" lon="5.92997">
        <ele>2019</ele>
        <time>2021-10-24T13:07:57Z</time>
      </trkpt>
      <trkpt lat="45.06603" lon="5.92997">
        <ele>2019</ele>
        <time>2021-10-24T13:08:02Z</time>
      </trkpt>
      <trkpt lat="45.06603" lon="5.92997">
        <ele>2019</ele>
        <time>2021-10-24T13:08:08Z</time>
      </trkpt>
      <trkpt lat="45.06603" lon="5.92997">
        <ele>2019</ele>
        <time>2021-10-24T13:08:14Z</time>
      </trkpt>
      <trkpt lat="45.06603" lon="5.92997">
        <ele>2019</ele>
        <time>2021-10-24T13:08:20Z</time>
      </trkpt>
      <trkpt lat="45.06603" lon="5.92997">
        <ele>2019</ele>
        <time>2021-10-24T13:08:25Z</time>
      </trkpt>
      <trkpt lat="45.06603" lon="5.92997">
        <ele>2019</ele>
        <time>2021-10-24T13:08:31Z</time>
      </trkpt>
      <trkpt lat="45.06603" lon="5.92997">
        <ele>2019</ele>
        <time>2021-10-24T13:08:37Z</time>
      </trkpt>
      <trkpt lat="45.06603" lon="5.92997">
        <ele>2019</ele>
        <time>2021-10-24T13:08:43Z</time>
      </trkpt>
      <trkpt lat="45.06603" lon="5.92997">
        <ele>2019</ele>
        <time>2021-10-24T13:08:48Z</time>
      </trkpt>
      <trkpt lat="45.06603" lon="5.92997">
        <ele>2019</ele>
        <time>2021-10-24T13:08:54Z</time>
      </trkpt>
      <trkpt lat="45.06603" lon="5.92997">
        <ele>2019</ele>
        <time>2021-10-24T13:08:59Z</time>
      </trkpt>
      <trkpt lat="45.06603" lon="5.92997">
        <ele>2019</ele>
        <time>2021-10-24T13:09:04Z</time>
      </trkpt>
      <trkpt lat="45.06603" lon="5.92997">
        <ele>2019</ele>
        <time>2021-10-24T13:09:10Z</time>
      </trkpt>
      <trkpt lat="45.06603" lon="5.92997">
        <ele>2019</ele>
        <time>2021-10-24T13:09:16Z</time>
      </trkpt>
      <trkpt lat="45.06603" lon="5.92997">
        <ele>2019</ele>
        <time>2021-10-24T13:09:21Z</time>
      </trkpt>
      <trkpt lat="45.06603" lon="5.92997">
        <ele>2019</ele>
        <time>2021-10-24T13:09:26Z</time>
      </trkpt>
      <trkpt lat="45.06603" lon="5.92997">
        <ele>2019</ele>
        <time>2021-10-24T13:09:32Z</time>
      </trkpt>
      <trkpt lat="45.06603" lon="5.92997">
        <ele>2019</ele>
        <time>2021-10-24T13:09:37Z</time>
      </trkpt>
      <trkpt lat="45.06603" lon="5.92997">
        <ele>2019</ele>
        <time>2021-10-24T13:09:43Z</time>
      </trkpt>
      <trkpt lat="45.06603" lon="5.92997">
        <ele>2019</ele>
        <time>2021-10-24T13:09:48Z</time>
      </trkpt>
      <trkpt lat="45.06603" lon="5.92997">
        <ele>2019</ele>
        <time>2021-10-24T13:09:53Z</time>
      </trkpt>
      <trkpt lat="45.06603" lon="5.92997">
        <ele>2019</ele>
        <time>2021-10-24T13:09:59Z</time>
      </trkpt>
      <trkpt lat="45.06603" lon="5.92996">
        <ele>2021</ele>
        <time>2021-10-24T13:10:05Z</time>
      </trkpt>
      <trkpt lat="45.06603" lon="5.92996">
        <ele>2018</ele>
        <time>2021-10-24T13:10:11Z</time>
      </trkpt>
      <trkpt lat="45.06603" lon="5.92996">
        <ele>2018</ele>
        <time>2021-10-24T13:10:16Z</time>
      </trkpt>
      <trkpt lat="45.06603" lon="5.92996">
        <ele>2018</ele>
        <time>2021-10-24T13:10:22Z</time>
      </trkpt>
      <trkpt lat="45.06603" lon="5.92996">
        <ele>2018</ele>
        <time>2021-10-24T13:10:28Z</time>
      </trkpt>
      <trkpt lat="45.06603" lon="5.92996">
        <ele>2018</ele>
        <time>2021-10-24T13:10:33Z</time>
      </trkpt>
      <trkpt lat="45.06603" lon="5.92996">
        <ele>2018</ele>
        <time>2021-10-24T13:10:39Z</time>
      </trkpt>
      <trkpt lat="45.06603" lon="5.92996">
        <ele>2018</ele>
        <time>2021-10-24T13:10:45Z</time>
      </trkpt>
      <trkpt lat="45.06603" lon="5.92996">
        <ele>2018</ele>
        <time>2021-10-24T13:10:51Z</time>
      </trkpt>
      <trkpt lat="45.06603" lon="5.92996">
        <ele>2018</ele>
        <time>2021-10-24T13:10:56Z</time>
      </trkpt>
      <trkpt lat="45.06603" lon="5.92996">
        <ele>2018</ele>
        <time>2021-10-24T13:11:02Z</time>
      </trkpt>
      <trkpt lat="45.06603" lon="5.92996">
        <ele>2018</ele>
        <time>2021-10-24T13:11:07Z</time>
      </trkpt>
      <trkpt lat="45.06603" lon="5.92996">
        <ele>2018</ele>
        <time>2021-10-24T13:11:12Z</time>
      </trkpt>
      <trkpt lat="45.06603" lon="5.92996">
        <ele>2018</ele>
        <time>2021-10-24T13:11:18Z</time>
      </trkpt>
      <trkpt lat="45.06603" lon="5.92996">
        <ele>2018</ele>
        <time>2021-10-24T13:11:23Z</time>
      </trkpt>
      <trkpt lat="45.06603" lon="5.92996">
        <ele>2018</ele>
        <time>2021-10-24T13:11:28Z</time>
      </trkpt>
      <trkpt lat="45.06603" lon="5.92996">
        <ele>2018</ele>
        <time>2021-10-24T13:11:33Z</time>
      </trkpt>
      <trkpt lat="45.06603" lon="5.92996">
        <ele>2018</ele>
        <time>2021-10-24T13:11:38Z</time>
      </trkpt>
      <trkpt lat="45.06603" lon="5.92996">
        <ele>2018</ele>
        <time>2021-10-24T13:11:43Z</time>
      </trkpt>
      <trkpt lat="45.06603" lon="5.92996">
        <ele>2018</ele>
        <time>2021-10-24T13:11:49Z</time>
      </trkpt>
      <trkpt lat="45.06603" lon="5.92996">
        <ele>2018</ele>
        <time>2021-10-24T13:11:54Z</time>
      </trkpt>
      <trkpt lat="45.06603" lon="5.92996">
        <ele>2018</ele>
        <time>2021-10-24T13:11:59Z</time>
      </trkpt>
      <trkpt lat="45.06603" lon="5.92996">
        <ele>2018</ele>
        <time>2021-10-24T13:12:04Z</time>
      </trkpt>
      <trkpt lat="45.06603" lon="5.92996">
        <ele>2018</ele>
        <time>2021-10-24T13:12:10Z</time>
      </trkpt>
      <trkpt lat="45.06603" lon="5.92996">
        <ele>2018</ele>
        <time>2021-10-24T13:12:16Z</time>
      </trkpt>
      <trkpt lat="45.06603" lon="5.92996">
        <ele>2018</ele>
        <time>2021-10-24T13:12:22Z</time>
      </trkpt>
      <trkpt lat="45.06603" lon="5.92996">
        <ele>2018</ele>
        <time>2021-10-24T13:12:27Z</time>
      </trkpt>
      <trkpt lat="45.06603" lon="5.92996">
        <ele>2018</ele>
        <time>2021-10-24T13:12:33Z</time>
      </trkpt>
      <trkpt lat="45.06603" lon="5.92996">
        <ele>2018</ele>
        <time>2021-10-24T13:12:39Z</time>
      </trkpt>
      <trkpt lat="45.06603" lon="5.92996">
        <ele>2018</ele>
        <time>2021-10-24T13:12:44Z</time>
      </trkpt>
      <trkpt lat="45.06603" lon="5.92996">
        <ele>2018</ele>
        <time>2021-10-24T13:12:49Z</time>
      </trkpt>
      <trkpt lat="45.06603" lon="5.92996">
        <ele>2018</ele>
        <time>2021-10-24T13:12:55Z</time>
      </trkpt>
      <trkpt lat="45.06603" lon="5.92996">
        <ele>2018</ele>
        <time>2021-10-24T13:13:01Z</time>
      </trkpt>
      <trkpt lat="45.06603" lon="5.92996">
        <ele>2018</ele>
        <time>2021-10-24T13:13:06Z</time>
      </trkpt>
      <trkpt lat="45.06603" lon="5.92996">
        <ele>2018</ele>
        <time>2021-10-24T13:13:12Z</time>
      </trkpt>
      <trkpt lat="45.06603" lon="5.92996">
        <ele>2018</ele>
        <time>2021-10-24T13:13:18Z</time>
      </trkpt>
      <trkpt lat="45.06603" lon="5.92996">
        <ele>2018</ele>
        <time>2021-10-24T13:13:23Z</time>
      </trkpt>
      <trkpt lat="45.06603" lon="5.92996">
        <ele>2018</ele>
        <time>2021-10-24T13:13:29Z</time>
      </trkpt>
      <trkpt lat="45.06603" lon="5.92996">
        <ele>2018</ele>
        <time>2021-10-24T13:13:35Z</time>
      </trkpt>
      <trkpt lat="45.06603" lon="5.92996">
        <ele>2018</ele>
        <time>2021-10-24T13:13:41Z</time>
      </trkpt>
      <trkpt lat="45.06603" lon="5.92996">
        <ele>2018</ele>
        <time>2021-10-24T13:13:46Z</time>
      </trkpt>
      <trkpt lat="45.06603" lon="5.92996">
        <ele>2018</ele>
        <time>2021-10-24T13:13:51Z</time>
      </trkpt>
      <trkpt lat="45.06603" lon="5.92996">
        <ele>2018</ele>
        <time>2021-10-24T13:13:57Z</time>
      </trkpt>
      <trkpt lat="45.06603" lon="5.92996">
        <ele>2018</ele>
        <time>2021-10-24T13:14:03Z</time>
      </trkpt>
      <trkpt lat="45.06603" lon="5.92996">
        <ele>2018</ele>
        <time>2021-10-24T13:14:08Z</time>
      </trkpt>
      <trkpt lat="45.06603" lon="5.92996">
        <ele>2018</ele>
        <time>2021-10-24T13:14:14Z</time>
      </trkpt>
      <trkpt lat="45.06603" lon="5.92996">
        <ele>2018</ele>
        <time>2021-10-24T13:14:20Z</time>
      </trkpt>
      <trkpt lat="45.06603" lon="5.92996">
        <ele>2018</ele>
        <time>2021-10-24T13:14:25Z</time>
      </trkpt>
      <trkpt lat="45.06603" lon="5.92996">
        <ele>2018</ele>
        <time>2021-10-24T13:14:31Z</time>
      </trkpt>
      <trkpt lat="45.06603" lon="5.92996">
        <ele>2018</ele>
        <time>2021-10-24T13:14:37Z</time>
      </trkpt>
      <trkpt lat="45.06603" lon="5.92996">
        <ele>2018</ele>
        <time>2021-10-24T13:14:43Z</time>
      </trkpt>
      <trkpt lat="45.06603" lon="5.92996">
        <ele>2018</ele>
        <time>2021-10-24T13:14:48Z</time>
      </trkpt>
      <trkpt lat="45.06603" lon="5.92996">
        <ele>2018</ele>
        <time>2021-10-24T13:14:54Z</time>
      </trkpt>
      <trkpt lat="45.06603" lon="5.92996">
        <ele>2018</ele>
        <time>2021-10-24T13:14:59Z</time>
      </trkpt>
      <trkpt lat="45.06603" lon="5.92996">
        <ele>2018</ele>
        <time>2021-10-24T13:15:05Z</time>
      </trkpt>
      <trkpt lat="45.06603" lon="5.92996">
        <ele>2018</ele>
        <time>2021-10-24T13:15:11Z</time>
      </trkpt>
      <trkpt lat="45.06603" lon="5.92996">
        <ele>2018</ele>
        <time>2021-10-24T13:15:16Z</time>
      </trkpt>
      <trkpt lat="45.06603" lon="5.92996">
        <ele>2018</ele>
        <time>2021-10-24T13:15:22Z</time>
      </trkpt>
      <trkpt lat="45.06603" lon="5.92996">
        <ele>2018</ele>
        <time>2021-10-24T13:15:27Z</time>
      </trkpt>
      <trkpt lat="45.06603" lon="5.92996">
        <ele>2018</ele>
        <time>2021-10-24T13:15:33Z</time>
      </trkpt>
      <trkpt lat="45.06603" lon="5.92996">
        <ele>2018</ele>
        <time>2021-10-24T13:15:38Z</time>
      </trkpt>
      <trkpt lat="45.06603" lon="5.92996">
        <ele>2018</ele>
        <time>2021-10-24T13:15:44Z</time>
      </trkpt>
      <trkpt lat="45.06603" lon="5.92996">
        <ele>2018</ele>
        <time>2021-10-24T13:15:50Z</time>
      </trkpt>
      <trkpt lat="45.06603" lon="5.92996">
        <ele>2018</ele>
        <time>2021-10-24T13:15:56Z</time>
      </trkpt>
      <trkpt lat="45.06603" lon="5.92996">
        <ele>2018</ele>
        <time>2021-10-24T13:16:02Z</time>
      </trkpt>
      <trkpt lat="45.06603" lon="5.92996">
        <ele>2018</ele>
        <time>2021-10-24T13:16:07Z</time>
      </trkpt>
      <trkpt lat="45.06603" lon="5.92996">
        <ele>2018</ele>
        <time>2021-10-24T13:16:13Z</time>
      </trkpt>
      <trkpt lat="45.06603" lon="5.92996">
        <ele>2018</ele>
        <time>2021-10-24T13:16:19Z</time>
      </trkpt>
      <trkpt lat="45.06603" lon="5.92996">
        <ele>2018</ele>
        <time>2021-10-24T13:16:24Z</time>
      </trkpt>
      <trkpt lat="45.06603" lon="5.92996">
        <ele>2018</ele>
        <time>2021-10-24T13:16:30Z</time>
      </trkpt>
      <trkpt lat="45.06603" lon="5.92996">
        <ele>2018</ele>
        <time>2021-10-24T13:16:35Z</time>
      </trkpt>
      <trkpt lat="45.06603" lon="5.92996">
        <ele>2018</ele>
        <time>2021-10-24T13:16:40Z</time>
      </trkpt>
      <trkpt lat="45.06603" lon="5.92996">
        <ele>2018</ele>
        <time>2021-10-24T13:16:46Z</time>
      </trkpt>
      <trkpt lat="45.06603" lon="5.92996">
        <ele>2018</ele>
        <time>2021-10-24T13:16:52Z</time>
      </trkpt>
      <trkpt lat="45.06603" lon="5.92996">
        <ele>2018</ele>
        <time>2021-10-24T13:16:57Z</time>
      </trkpt>
      <trkpt lat="45.06603" lon="5.92996">
        <ele>2018</ele>
        <time>2021-10-24T13:17:03Z</time>
      </trkpt>
      <trkpt lat="45.06603" lon="5.92996">
        <ele>2018</ele>
        <time>2021-10-24T13:17:09Z</time>
      </trkpt>
      <trkpt lat="45.06603" lon="5.92996">
        <ele>2018</ele>
        <time>2021-10-24T13:17:14Z</time>
      </trkpt>
      <trkpt lat="45.06603" lon="5.92996">
        <ele>2018</ele>
        <time>2021-10-24T13:17:20Z</time>
      </trkpt>
      <trkpt lat="45.06603" lon="5.92996">
        <ele>2018</ele>
        <time>2021-10-24T13:17:25Z</time>
      </trkpt>
      <trkpt lat="45.06603" lon="5.92996">
        <ele>2018</ele>
        <time>2021-10-24T13:17:31Z</time>
      </trkpt>
      <trkpt lat="45.06603" lon="5.92996">
        <ele>2018</ele>
        <time>2021-10-24T13:17:36Z</time>
      </trkpt>
      <trkpt lat="45.06603" lon="5.92996">
        <ele>2018</ele>
        <time>2021-10-24T13:17:42Z</time>
      </trkpt>
      <trkpt lat="45.06603" lon="5.92996">
        <ele>2018</ele>
        <time>2021-10-24T13:17:48Z</time>
      </trkpt>
      <trkpt lat="45.06603" lon="5.92996">
        <ele>2018</ele>
        <time>2021-10-24T13:17:54Z</time>
      </trkpt>
      <trkpt lat="45.06603" lon="5.92996">
        <ele>2018</ele>
        <time>2021-10-24T13:17:59Z</time>
      </trkpt>
      <trkpt lat="45.06603" lon="5.92996">
        <ele>2018</ele>
        <time>2021-10-24T13:18:05Z</time>
      </trkpt>
      <trkpt lat="45.06603" lon="5.92996">
        <ele>2018</ele>
        <time>2021-10-24T13:18:11Z</time>
      </trkpt>
      <trkpt lat="45.06603" lon="5.92996">
        <ele>2018</ele>
        <time>2021-10-24T13:18:17Z</time>
      </trkpt>
      <trkpt lat="45.06603" lon="5.92996">
        <ele>2018</ele>
        <time>2021-10-24T13:18:23Z</time>
      </trkpt>
      <trkpt lat="45.06603" lon="5.92996">
        <ele>2018</ele>
        <time>2021-10-24T13:18:28Z</time>
      </trkpt>
      <trkpt lat="45.06603" lon="5.92996">
        <ele>2018</ele>
        <time>2021-10-24T13:18:34Z</time>
      </trkpt>
      <trkpt lat="45.06603" lon="5.92996">
        <ele>2018</ele>
        <time>2021-10-24T13:18:39Z</time>
      </trkpt>
      <trkpt lat="45.06603" lon="5.92996">
        <ele>2018</ele>
        <time>2021-10-24T13:18:45Z</time>
      </trkpt>
      <trkpt lat="45.06603" lon="5.92996">
        <ele>2018</ele>
        <time>2021-10-24T13:18:50Z</time>
      </trkpt>
      <trkpt lat="45.06603" lon="5.92996">
        <ele>2018</ele>
        <time>2021-10-24T13:18:55Z</time>
      </trkpt>
      <trkpt lat="45.06603" lon="5.92996">
        <ele>2018</ele>
        <time>2021-10-24T13:19:01Z</time>
      </trkpt>
      <trkpt lat="45.06603" lon="5.92996">
        <ele>2018</ele>
        <time>2021-10-24T13:19:07Z</time>
      </trkpt>
      <trkpt lat="45.06603" lon="5.92996">
        <ele>2018</ele>
        <time>2021-10-24T13:19:13Z</time>
      </trkpt>
      <trkpt lat="45.06603" lon="5.92996">
        <ele>2018</ele>
        <time>2021-10-24T13:19:19Z</time>
      </trkpt>
      <trkpt lat="45.06603" lon="5.92996">
        <ele>2018</ele>
        <time>2021-10-24T13:19:24Z</time>
      </trkpt>
      <trkpt lat="45.06603" lon="5.92996">
        <ele>2018</ele>
        <time>2021-10-24T13:19:29Z</time>
      </trkpt>
      <trkpt lat="45.06603" lon="5.92996">
        <ele>2018</ele>
        <time>2021-10-24T13:19:34Z</time>
      </trkpt>
      <trkpt lat="45.06603" lon="5.92996">
        <ele>2018</ele>
        <time>2021-10-24T13:19:40Z</time>
      </trkpt>
      <trkpt lat="45.06603" lon="5.92996">
        <ele>2018</ele>
        <time>2021-10-24T13:19:46Z</time>
      </trkpt>
      <trkpt lat="45.06603" lon="5.92996">
        <ele>2018</ele>
        <time>2021-10-24T13:19:51Z</time>
      </trkpt>
      <trkpt lat="45.06603" lon="5.92996">
        <ele>2018</ele>
        <time>2021-10-24T13:19:57Z</time>
      </trkpt>
      <trkpt lat="45.06603" lon="5.92996">
        <ele>2018</ele>
        <time>2021-10-24T13:20:02Z</time>
      </trkpt>
      <trkpt lat="45.06603" lon="5.92996">
        <ele>2018</ele>
        <time>2021-10-24T13:20:08Z</time>
      </trkpt>
      <trkpt lat="45.06603" lon="5.92996">
        <ele>2018</ele>
        <time>2021-10-24T13:20:13Z</time>
      </trkpt>
      <trkpt lat="45.06603" lon="5.92996">
        <ele>2018</ele>
        <time>2021-10-24T13:20:19Z</time>
      </trkpt>
      <trkpt lat="45.06603" lon="5.92996">
        <ele>2018</ele>
        <time>2021-10-24T13:20:24Z</time>
      </trkpt>
      <trkpt lat="45.06603" lon="5.92996">
        <ele>2018</ele>
        <time>2021-10-24T13:20:30Z</time>
      </trkpt>
      <trkpt lat="45.06603" lon="5.92996">
        <ele>2018</ele>
        <time>2021-10-24T13:20:36Z</time>
      </trkpt>
      <trkpt lat="45.06603" lon="5.92996">
        <ele>2018</ele>
        <time>2021-10-24T13:20:42Z</time>
      </trkpt>
      <trkpt lat="45.06603" lon="5.92996">
        <ele>2018</ele>
        <time>2021-10-24T13:20:47Z</time>
      </trkpt>
      <trkpt lat="45.06603" lon="5.92996">
        <ele>2018</ele>
        <time>2021-10-24T13:20:53Z</time>
      </trkpt>
      <trkpt lat="45.06603" lon="5.92996">
        <ele>2018</ele>
        <time>2021-10-24T13:20:58Z</time>
      </trkpt>
      <trkpt lat="45.06603" lon="5.92996">
        <ele>2018</ele>
        <time>2021-10-24T13:21:04Z</time>
      </trkpt>
      <trkpt lat="45.06603" lon="5.92996">
        <ele>2018</ele>
        <time>2021-10-24T13:21:09Z</time>
      </trkpt>
      <trkpt lat="45.06603" lon="5.92996">
        <ele>2018</ele>
        <time>2021-10-24T13:21:15Z</time>
      </trkpt>
      <trkpt lat="45.06603" lon="5.92996">
        <ele>2018</ele>
        <time>2021-10-24T13:21:20Z</time>
      </trkpt>
      <trkpt lat="45.06603" lon="5.92996">
        <ele>2018</ele>
        <time>2021-10-24T13:21:26Z</time>
      </trkpt>
      <trkpt lat="45.06603" lon="5.92996">
        <ele>2018</ele>
        <time>2021-10-24T13:21:32Z</time>
      </trkpt>
      <trkpt lat="45.06603" lon="5.92996">
        <ele>2018</ele>
        <time>2021-10-24T13:21:38Z</time>
      </trkpt>
      <trkpt lat="45.06603" lon="5.92996">
        <ele>2018</ele>
        <time>2021-10-24T13:21:44Z</time>
      </trkpt>
      <trkpt lat="45.06603" lon="5.92996">
        <ele>2018</ele>
        <time>2021-10-24T13:21:50Z</time>
      </trkpt>
      <trkpt lat="45.06603" lon="5.92996">
        <ele>2018</ele>
        <time>2021-10-24T13:21:55Z</time>
      </trkpt>
      <trkpt lat="45.06603" lon="5.92996">
        <ele>2018</ele>
        <time>2021-10-24T13:22:01Z</time>
      </trkpt>
      <trkpt lat="45.06603" lon="5.92996">
        <ele>2018</ele>
        <time>2021-10-24T13:22:06Z</time>
      </trkpt>
      <trkpt lat="45.06603" lon="5.92996">
        <ele>2018</ele>
        <time>2021-10-24T13:22:12Z</time>
      </trkpt>
      <trkpt lat="45.06603" lon="5.92996">
        <ele>2018</ele>
        <time>2021-10-24T13:22:18Z</time>
      </trkpt>
      <trkpt lat="45.06603" lon="5.92996">
        <ele>2018</ele>
        <time>2021-10-24T13:22:23Z</time>
      </trkpt>
      <trkpt lat="45.06603" lon="5.92996">
        <ele>2018</ele>
        <time>2021-10-24T13:22:28Z</time>
      </trkpt>
      <trkpt lat="45.06603" lon="5.92996">
        <ele>2018</ele>
        <time>2021-10-24T13:22:34Z</time>
      </trkpt>
      <trkpt lat="45.06603" lon="5.92996">
        <ele>2018</ele>
        <time>2021-10-24T13:22:40Z</time>
      </trkpt>
      <trkpt lat="45.06603" lon="5.92996">
        <ele>2018</ele>
        <time>2021-10-24T13:22:46Z</time>
      </trkpt>
      <trkpt lat="45.06603" lon="5.92996">
        <ele>2018</ele>
        <time>2021-10-24T13:22:52Z</time>
      </trkpt>
      <trkpt lat="45.06603" lon="5.92996">
        <ele>2018</ele>
        <time>2021-10-24T13:22:58Z</time>
      </trkpt>
      <trkpt lat="45.06603" lon="5.92996">
        <ele>2018</ele>
        <time>2021-10-24T13:23:04Z</time>
      </trkpt>
      <trkpt lat="45.06603" lon="5.92996">
        <ele>2018</ele>
        <time>2021-10-24T13:23:10Z</time>
      </trkpt>
      <trkpt lat="45.06603" lon="5.92996">
        <ele>2018</ele>
        <time>2021-10-24T13:23:16Z</time>
      </trkpt>
      <trkpt lat="45.06603" lon="5.92996">
        <ele>2018</ele>
        <time>2021-10-24T13:23:21Z</time>
      </trkpt>
      <trkpt lat="45.06603" lon="5.92996">
        <ele>2018</ele>
        <time>2021-10-24T13:23:27Z</time>
      </trkpt>
      <trkpt lat="45.06603" lon="5.92996">
        <ele>2018</ele>
        <time>2021-10-24T13:23:33Z</time>
      </trkpt>
      <trkpt lat="45.06603" lon="5.92996">
        <ele>2018</ele>
        <time>2021-10-24T13:23:39Z</time>
      </trkpt>
      <trkpt lat="45.06603" lon="5.92996">
        <ele>2018</ele>
        <time>2021-10-24T13:23:44Z</time>
      </trkpt>
      <trkpt lat="45.06603" lon="5.92996">
        <ele>2018</ele>
        <time>2021-10-24T13:23:50Z</time>
      </trkpt>
      <trkpt lat="45.06603" lon="5.92996">
        <ele>2018</ele>
        <time>2021-10-24T13:23:56Z</time>
      </trkpt>
      <trkpt lat="45.06603" lon="5.92996">
        <ele>2018</ele>
        <time>2021-10-24T13:24:01Z</time>
      </trkpt>
      <trkpt lat="45.06603" lon="5.92996">
        <ele>2018</ele>
        <time>2021-10-24T13:24:07Z</time>
      </trkpt>
      <trkpt lat="45.06603" lon="5.92996">
        <ele>2018</ele>
        <time>2021-10-24T13:24:13Z</time>
      </trkpt>
      <trkpt lat="45.06603" lon="5.92996">
        <ele>2018</ele>
        <time>2021-10-24T13:24:19Z</time>
      </trkpt>
      <trkpt lat="45.06603" lon="5.92996">
        <ele>2018</ele>
        <time>2021-10-24T13:24:24Z</time>
      </trkpt>
      <trkpt lat="45.06603" lon="5.92996">
        <ele>2018</ele>
        <time>2021-10-24T13:24:30Z</time>
      </trkpt>
      <trkpt lat="45.06603" lon="5.92996">
        <ele>2018</ele>
        <time>2021-10-24T13:24:36Z</time>
      </trkpt>
      <trkpt lat="45.06603" lon="5.92996">
        <ele>2018</ele>
        <time>2021-10-24T13:24:41Z</time>
      </trkpt>
      <trkpt lat="45.06603" lon="5.92996">
        <ele>2018</ele>
        <time>2021-10-24T13:24:47Z</time>
      </trkpt>
      <trkpt lat="45.06603" lon="5.92996">
        <ele>2018</ele>
        <time>2021-10-24T13:24:53Z</time>
      </trkpt>
      <trkpt lat="45.06603" lon="5.92996">
        <ele>2018</ele>
        <time>2021-10-24T13:24:58Z</time>
      </trkpt>
      <trkpt lat="45.06603" lon="5.92996">
        <ele>2018</ele>
        <time>2021-10-24T13:25:04Z</time>
      </trkpt>
      <trkpt lat="45.06603" lon="5.92996">
        <ele>2018</ele>
        <time>2021-10-24T13:25:09Z</time>
      </trkpt>
      <trkpt lat="45.06603" lon="5.92996">
        <ele>2018</ele>
        <time>2021-10-24T13:25:15Z</time>
      </trkpt>
      <trkpt lat="45.06603" lon="5.92996">
        <ele>2018</ele>
        <time>2021-10-24T13:25:20Z</time>
      </trkpt>
      <trkpt lat="45.06603" lon="5.92996">
        <ele>2018</ele>
        <time>2021-10-24T13:25:26Z</time>
      </trkpt>
      <trkpt lat="45.06603" lon="5.92996">
        <ele>2018</ele>
        <time>2021-10-24T13:25:32Z</time>
      </trkpt>
      <trkpt lat="45.06603" lon="5.92996">
        <ele>2018</ele>
        <time>2021-10-24T13:25:37Z</time>
      </trkpt>
      <trkpt lat="45.06603" lon="5.92996">
        <ele>2018</ele>
        <time>2021-10-24T13:25:42Z</time>
      </trkpt>
      <trkpt lat="45.06603" lon="5.92996">
        <ele>2018</ele>
        <time>2021-10-24T13:25:48Z</time>
      </trkpt>
      <trkpt lat="45.06603" lon="5.92996">
        <ele>2018</ele>
        <time>2021-10-24T13:25:54Z</time>
      </trkpt>
      <trkpt lat="45.06603" lon="5.92996">
        <ele>2018</ele>
        <time>2021-10-24T13:26:00Z</time>
      </trkpt>
      <trkpt lat="45.06603" lon="5.92996">
        <ele>2018</ele>
        <time>2021-10-24T13:26:06Z</time>
      </trkpt>
      <trkpt lat="45.06603" lon="5.92996">
        <ele>2018</ele>
        <time>2021-10-24T13:26:11Z</time>
      </trkpt>
      <trkpt lat="45.06603" lon="5.92996">
        <ele>2018</ele>
        <time>2021-10-24T13:26:17Z</time>
      </trkpt>
      <trkpt lat="45.06603" lon="5.92996">
        <ele>2018</ele>
        <time>2021-10-24T13:26:23Z</time>
      </trkpt>
      <trkpt lat="45.06603" lon="5.92996">
        <ele>2018</ele>
        <time>2021-10-24T13:26:29Z</time>
      </trkpt>
      <trkpt lat="45.06603" lon="5.92996">
        <ele>2018</ele>
        <time>2021-10-24T13:26:34Z</time>
      </trkpt>
      <trkpt lat="45.06603" lon="5.92996">
        <ele>2018</ele>
        <time>2021-10-24T13:26:39Z</time>
      </trkpt>
      <trkpt lat="45.06603" lon="5.92996">
        <ele>2018</ele>
        <time>2021-10-24T13:26:44Z</time>
      </trkpt>
      <trkpt lat="45.06603" lon="5.92996">
        <ele>2018</ele>
        <time>2021-10-24T13:26:50Z</time>
      </trkpt>
      <trkpt lat="45.06603" lon="5.92996">
        <ele>2018</ele>
        <time>2021-10-24T13:26:56Z</time>
      </trkpt>
      <trkpt lat="45.06603" lon="5.92996">
        <ele>2018</ele>
        <time>2021-10-24T13:27:02Z</time>
      </trkpt>
      <trkpt lat="45.06603" lon="5.92996">
        <ele>2018</ele>
        <time>2021-10-24T13:27:07Z</time>
      </trkpt>
      <trkpt lat="45.06603" lon="5.92996">
        <ele>2018</ele>
        <time>2021-10-24T13:27:13Z</time>
      </trkpt>
      <trkpt lat="45.06603" lon="5.92996">
        <ele>2018</ele>
        <time>2021-10-24T13:27:18Z</time>
      </trkpt>
      <trkpt lat="45.06603" lon="5.92996">
        <ele>2018</ele>
        <time>2021-10-24T13:27:23Z</time>
      </trkpt>
      <trkpt lat="45.06603" lon="5.92996">
        <ele>2018</ele>
        <time>2021-10-24T13:27:29Z</time>
      </trkpt>
      <trkpt lat="45.06603" lon="5.92996">
        <ele>2018</ele>
        <time>2021-10-24T13:27:35Z</time>
      </trkpt>
      <trkpt lat="45.06603" lon="5.92996">
        <ele>2018</ele>
        <time>2021-10-24T13:27:40Z</time>
      </trkpt>
      <trkpt lat="45.06603" lon="5.92996">
        <ele>2018</ele>
        <time>2021-10-24T13:27:46Z</time>
      </trkpt>
      <trkpt lat="45.06603" lon="5.92996">
        <ele>2018</ele>
        <time>2021-10-24T13:27:52Z</time>
      </trkpt>
      <trkpt lat="45.06603" lon="5.92996">
        <ele>2018</ele>
        <time>2021-10-24T13:27:58Z</time>
      </trkpt>
      <trkpt lat="45.06603" lon="5.92996">
        <ele>2018</ele>
        <time>2021-10-24T13:28:04Z</time>
      </trkpt>
      <trkpt lat="45.06603" lon="5.92996">
        <ele>2018</ele>
        <time>2021-10-24T13:28:10Z</time>
      </trkpt>
      <trkpt lat="45.06603" lon="5.92996">
        <ele>2018</ele>
        <time>2021-10-24T13:28:15Z</time>
      </trkpt>
      <trkpt lat="45.06603" lon="5.92996">
        <ele>2018</ele>
        <time>2021-10-24T13:28:21Z</time>
      </trkpt>
      <trkpt lat="45.06603" lon="5.92996">
        <ele>2018</ele>
        <time>2021-10-24T13:28:26Z</time>
      </trkpt>
      <trkpt lat="45.06603" lon="5.92996">
        <ele>2018</ele>
        <time>2021-10-24T13:28:32Z</time>
      </trkpt>
      <trkpt lat="45.06603" lon="5.92996">
        <ele>2018</ele>
        <time>2021-10-24T13:28:38Z</time>
      </trkpt>
      <trkpt lat="45.06603" lon="5.92996">
        <ele>2018</ele>
        <time>2021-10-24T13:28:43Z</time>
      </trkpt>
      <trkpt lat="45.06603" lon="5.92996">
        <ele>2018</ele>
        <time>2021-10-24T13:28:48Z</time>
      </trkpt>
      <trkpt lat="45.06603" lon="5.92996">
        <ele>2018</ele>
        <time>2021-10-24T13:28:54Z</time>
      </trkpt>
      <trkpt lat="45.06603" lon="5.92996">
        <ele>2018</ele>
        <time>2021-10-24T13:29:00Z</time>
      </trkpt>
      <trkpt lat="45.06603" lon="5.92996">
        <ele>2018</ele>
        <time>2021-10-24T13:29:05Z</time>
      </trkpt>
      <trkpt lat="45.06603" lon="5.92996">
        <ele>2018</ele>
        <time>2021-10-24T13:29:11Z</time>
      </trkpt>
      <trkpt lat="45.06603" lon="5.92997">
        <ele>2018</ele>
        <time>2021-10-24T13:29:17Z</time>
      </trkpt>
      <trkpt lat="45.06606" lon="5.92998">
        <ele>2018</ele>
        <time>2021-10-24T13:29:22Z</time>
      </trkpt>
      <trkpt lat="45.06606" lon="5.92998">
        <ele>2014</ele>
        <time>2021-10-24T13:29:28Z</time>
      </trkpt>
      <trkpt lat="45.06606" lon="5.92999">
        <ele>2013</ele>
        <time>2021-10-24T13:29:34Z</time>
      </trkpt>
      <trkpt lat="45.06605" lon="5.92999">
        <ele>2007</ele>
        <time>2021-10-24T13:29:40Z</time>
      </trkpt>
      <trkpt lat="45.06607" lon="5.92998">
        <ele>2006</ele>
        <time>2021-10-24T13:29:45Z</time>
      </trkpt>
      <trkpt lat="45.06603" lon="5.93001">
        <ele>2009</ele>
        <time>2021-10-24T13:29:50Z</time>
      </trkpt>
      <trkpt lat="45.06603" lon="5.93001">
        <ele>2009</ele>
        <time>2021-10-24T13:29:56Z</time>
      </trkpt>
      <trkpt lat="45.06603" lon="5.92999">
        <ele>2009</ele>
        <time>2021-10-24T13:30:01Z</time>
      </trkpt>
      <trkpt lat="45.06603" lon="5.92999">
        <ele>2010</ele>
        <time>2021-10-24T13:30:06Z</time>
      </trkpt>
      <trkpt lat="45.06603" lon="5.92999">
        <ele>2010</ele>
        <time>2021-10-24T13:30:12Z</time>
      </trkpt>
      <trkpt lat="45.06603" lon="5.92999">
        <ele>2010</ele>
        <time>2021-10-24T13:30:18Z</time>
      </trkpt>
      <trkpt lat="45.06603" lon="5.92999">
        <ele>2010</ele>
        <time>2021-10-24T13:30:24Z</time>
      </trkpt>
      <trkpt lat="45.06603" lon="5.92999">
        <ele>2010</ele>
        <time>2021-10-24T13:30:30Z</time>
      </trkpt>
      <trkpt lat="45.06603" lon="5.92999">
        <ele>2009</ele>
        <time>2021-10-24T13:30:35Z</time>
      </trkpt>
      <trkpt lat="45.06602" lon="5.92998">
        <ele>2008</ele>
        <time>2021-10-24T13:30:41Z</time>
      </trkpt>
      <trkpt lat="45.06601" lon="5.92999">
        <ele>2008</ele>
        <time>2021-10-24T13:30:46Z</time>
      </trkpt>
      <trkpt lat="45.06603" lon="5.92997">
        <ele>2006</ele>
        <time>2021-10-24T13:30:52Z</time>
      </trkpt>
      <trkpt lat="45.06604" lon="5.92998">
        <ele>2003</ele>
        <time>2021-10-24T13:30:58Z</time>
      </trkpt>
      <trkpt lat="45.06603" lon="5.92999">
        <ele>2001</ele>
        <time>2021-10-24T13:31:03Z</time>
      </trkpt>
      <trkpt lat="45.06603" lon="5.92997">
        <ele>2005</ele>
        <time>2021-10-24T13:31:09Z</time>
      </trkpt>
      <trkpt lat="45.06601" lon="5.92996">
        <ele>2005</ele>
        <time>2021-10-24T13:31:15Z</time>
      </trkpt>
      <trkpt lat="45.06601" lon="5.92996">
        <ele>2004</ele>
        <time>2021-10-24T13:31:21Z</time>
      </trkpt>
      <trkpt lat="45.066" lon="5.92994">
        <ele>2006</ele>
        <time>2021-10-24T13:31:26Z</time>
      </trkpt>
      <trkpt lat="45.066" lon="5.92993">
        <ele>2005</ele>
        <time>2021-10-24T13:31:32Z</time>
      </trkpt>
      <trkpt lat="45.066" lon="5.92993">
        <ele>2005</ele>
        <time>2021-10-24T13:31:37Z</time>
      </trkpt>
      <trkpt lat="45.06602" lon="5.92986">
        <ele>2004</ele>
        <time>2021-10-24T13:31:43Z</time>
      </trkpt>
      <trkpt lat="45.06603" lon="5.92979">
        <ele>2005</ele>
        <time>2021-10-24T13:31:48Z</time>
      </trkpt>
      <trkpt lat="45.06601" lon="5.92971">
        <ele>2007</ele>
        <time>2021-10-24T13:31:54Z</time>
      </trkpt>
      <trkpt lat="45.06599" lon="5.92968">
        <ele>2006</ele>
        <time>2021-10-24T13:31:59Z</time>
      </trkpt>
      <trkpt lat="45.06597" lon="5.92965">
        <ele>2007</ele>
        <time>2021-10-24T13:32:04Z</time>
      </trkpt>
      <trkpt lat="45.06595" lon="5.92962">
        <ele>2006</ele>
        <time>2021-10-24T13:32:10Z</time>
      </trkpt>
      <trkpt lat="45.06594" lon="5.92956">
        <ele>2007</ele>
        <time>2021-10-24T13:32:16Z</time>
      </trkpt>
      <trkpt lat="45.06591" lon="5.92953">
        <ele>2007</ele>
        <time>2021-10-24T13:32:21Z</time>
      </trkpt>
      <trkpt lat="45.06589" lon="5.92952">
        <ele>2006</ele>
        <time>2021-10-24T13:32:27Z</time>
      </trkpt>
      <trkpt lat="45.06589" lon="5.92948">
        <ele>2005</ele>
        <time>2021-10-24T13:32:32Z</time>
      </trkpt>
      <trkpt lat="45.06591" lon="5.92941">
        <ele>2005</ele>
        <time>2021-10-24T13:32:38Z</time>
      </trkpt>
      <trkpt lat="45.06589" lon="5.92937">
        <ele>2004</ele>
        <time>2021-10-24T13:32:43Z</time>
      </trkpt>
      <trkpt lat="45.06588" lon="5.9293">
        <ele>2005</ele>
        <time>2021-10-24T13:32:48Z</time>
      </trkpt>
      <trkpt lat="45.0659" lon="5.92921">
        <ele>2005</ele>
        <time>2021-10-24T13:32:54Z</time>
      </trkpt>
      <trkpt lat="45.06595" lon="5.92915">
        <ele>2005</ele>
        <time>2021-10-24T13:32:59Z</time>
      </trkpt>
      <trkpt lat="45.06595" lon="5.92908">
        <ele>2005</ele>
        <time>2021-10-24T13:33:05Z</time>
      </trkpt>
      <trkpt lat="45.06597" lon="5.92903">
        <ele>2006</ele>
        <time>2021-10-24T13:33:10Z</time>
      </trkpt>
      <trkpt lat="45.06597" lon="5.92897">
        <ele>2006</ele>
        <time>2021-10-24T13:33:16Z</time>
      </trkpt>
      <trkpt lat="45.06595" lon="5.92894">
        <ele>2004</ele>
        <time>2021-10-24T13:33:22Z</time>
      </trkpt>
      <trkpt lat="45.06591" lon="5.92886">
        <ele>2004</ele>
        <time>2021-10-24T13:33:28Z</time>
      </trkpt>
      <trkpt lat="45.06589" lon="5.92879">
        <ele>2003</ele>
        <time>2021-10-24T13:33:33Z</time>
      </trkpt>
      <trkpt lat="45.06589" lon="5.92871">
        <ele>2003</ele>
        <time>2021-10-24T13:33:39Z</time>
      </trkpt>
      <trkpt lat="45.06588" lon="5.92865">
        <ele>2003</ele>
        <time>2021-10-24T13:33:44Z</time>
      </trkpt>
      <trkpt lat="45.06588" lon="5.92863">
        <ele>2003</ele>
        <time>2021-10-24T13:33:50Z</time>
      </trkpt>
      <trkpt lat="45.06586" lon="5.92856">
        <ele>2003</ele>
        <time>2021-10-24T13:33:55Z</time>
      </trkpt>
      <trkpt lat="45.06585" lon="5.92852">
        <ele>2002</ele>
        <time>2021-10-24T13:34:01Z</time>
      </trkpt>
      <trkpt lat="45.06585" lon="5.9285">
        <ele>2001</ele>
        <time>2021-10-24T13:34:07Z</time>
      </trkpt>
      <trkpt lat="45.06584" lon="5.92842">
        <ele>2001</ele>
        <time>2021-10-24T13:34:13Z</time>
      </trkpt>
      <trkpt lat="45.06583" lon="5.92835">
        <ele>2005</ele>
        <time>2021-10-24T13:34:18Z</time>
      </trkpt>
      <trkpt lat="45.06582" lon="5.9283">
        <ele>2004</ele>
        <time>2021-10-24T13:34:23Z</time>
      </trkpt>
      <trkpt lat="45.06585" lon="5.92823">
        <ele>2001</ele>
        <time>2021-10-24T13:34:29Z</time>
      </trkpt>
      <trkpt lat="45.06586" lon="5.92815">
        <ele>2000</ele>
        <time>2021-10-24T13:34:34Z</time>
      </trkpt>
      <trkpt lat="45.06587" lon="5.92809">
        <ele>1999</ele>
        <time>2021-10-24T13:34:39Z</time>
      </trkpt>
      <trkpt lat="45.06587" lon="5.92802">
        <ele>1997</ele>
        <time>2021-10-24T13:34:45Z</time>
      </trkpt>
      <trkpt lat="45.06586" lon="5.92797">
        <ele>1997</ele>
        <time>2021-10-24T13:34:50Z</time>
      </trkpt>
      <trkpt lat="45.06584" lon="5.92794">
        <ele>1996</ele>
        <time>2021-10-24T13:34:56Z</time>
      </trkpt>
      <trkpt lat="45.06583" lon="5.92789">
        <ele>1997</ele>
        <time>2021-10-24T13:35:02Z</time>
      </trkpt>
      <trkpt lat="45.06583" lon="5.92784">
        <ele>1996</ele>
        <time>2021-10-24T13:35:08Z</time>
      </trkpt>
      <trkpt lat="45.06581" lon="5.92779">
        <ele>1994</ele>
        <time>2021-10-24T13:35:13Z</time>
      </trkpt>
      <trkpt lat="45.06581" lon="5.92774">
        <ele>1995</ele>
        <time>2021-10-24T13:35:18Z</time>
      </trkpt>
      <trkpt lat="45.06583" lon="5.92767">
        <ele>1995</ele>
        <time>2021-10-24T13:35:24Z</time>
      </trkpt>
      <trkpt lat="45.06586" lon="5.92761">
        <ele>1994</ele>
        <time>2021-10-24T13:35:30Z</time>
      </trkpt>
      <trkpt lat="45.06587" lon="5.92758">
        <ele>1994</ele>
        <time>2021-10-24T13:35:35Z</time>
      </trkpt>
      <trkpt lat="45.06586" lon="5.92753">
        <ele>1993</ele>
        <time>2021-10-24T13:35:41Z</time>
      </trkpt>
      <trkpt lat="45.06584" lon="5.92746">
        <ele>1991</ele>
        <time>2021-10-24T13:35:46Z</time>
      </trkpt>
      <trkpt lat="45.06585" lon="5.92738">
        <ele>1991</ele>
        <time>2021-10-24T13:35:51Z</time>
      </trkpt>
      <trkpt lat="45.06584" lon="5.92732">
        <ele>1990</ele>
        <time>2021-10-24T13:35:57Z</time>
      </trkpt>
      <trkpt lat="45.06584" lon="5.92725">
        <ele>1990</ele>
        <time>2021-10-24T13:36:03Z</time>
      </trkpt>
      <trkpt lat="45.06584" lon="5.9272">
        <ele>1987</ele>
        <time>2021-10-24T13:36:09Z</time>
      </trkpt>
      <trkpt lat="45.06586" lon="5.92715">
        <ele>1988</ele>
        <time>2021-10-24T13:36:14Z</time>
      </trkpt>
      <trkpt lat="45.06585" lon="5.92711">
        <ele>1987</ele>
        <time>2021-10-24T13:36:20Z</time>
      </trkpt>
      <trkpt lat="45.06584" lon="5.92707">
        <ele>1987</ele>
        <time>2021-10-24T13:36:25Z</time>
      </trkpt>
      <trkpt lat="45.06586" lon="5.92701">
        <ele>1987</ele>
        <time>2021-10-24T13:36:31Z</time>
      </trkpt>
      <trkpt lat="45.06589" lon="5.92698">
        <ele>1986</ele>
        <time>2021-10-24T13:36:37Z</time>
      </trkpt>
      <trkpt lat="45.06592" lon="5.92691">
        <ele>1985</ele>
        <time>2021-10-24T13:36:43Z</time>
      </trkpt>
      <trkpt lat="45.06594" lon="5.92682">
        <ele>1985</ele>
        <time>2021-10-24T13:36:48Z</time>
      </trkpt>
      <trkpt lat="45.06595" lon="5.92675">
        <ele>1985</ele>
        <time>2021-10-24T13:36:54Z</time>
      </trkpt>
      <trkpt lat="45.06595" lon="5.92668">
        <ele>1984</ele>
        <time>2021-10-24T13:37:00Z</time>
      </trkpt>
      <trkpt lat="45.06598" lon="5.92661">
        <ele>1983</ele>
        <time>2021-10-24T13:37:05Z</time>
      </trkpt>
      <trkpt lat="45.06603" lon="5.92656">
        <ele>1984</ele>
        <time>2021-10-24T13:37:10Z</time>
      </trkpt>
      <trkpt lat="45.06607" lon="5.92648">
        <ele>1983</ele>
        <time>2021-10-24T13:37:16Z</time>
      </trkpt>
      <trkpt lat="45.06611" lon="5.92642">
        <ele>1984</ele>
        <time>2021-10-24T13:37:22Z</time>
      </trkpt>
      <trkpt lat="45.06613" lon="5.92635">
        <ele>1982</ele>
        <time>2021-10-24T13:37:28Z</time>
      </trkpt>
      <trkpt lat="45.06618" lon="5.92629">
        <ele>1982</ele>
        <time>2021-10-24T13:37:33Z</time>
      </trkpt>
      <trkpt lat="45.06623" lon="5.92624">
        <ele>1981</ele>
        <time>2021-10-24T13:37:38Z</time>
      </trkpt>
      <trkpt lat="45.0663" lon="5.9262">
        <ele>1982</ele>
        <time>2021-10-24T13:37:44Z</time>
      </trkpt>
      <trkpt lat="45.06633" lon="5.92615">
        <ele>1982</ele>
        <time>2021-10-24T13:37:49Z</time>
      </trkpt>
      <trkpt lat="45.06637" lon="5.9261">
        <ele>1980</ele>
        <time>2021-10-24T13:37:55Z</time>
      </trkpt>
      <trkpt lat="45.0664" lon="5.92605">
        <ele>1980</ele>
        <time>2021-10-24T13:38:00Z</time>
      </trkpt>
      <trkpt lat="45.06646" lon="5.92599">
        <ele>1980</ele>
        <time>2021-10-24T13:38:06Z</time>
      </trkpt>
      <trkpt lat="45.06651" lon="5.9259">
        <ele>1981</ele>
        <time>2021-10-24T13:38:12Z</time>
      </trkpt>
      <trkpt lat="45.06656" lon="5.92582">
        <ele>1981</ele>
        <time>2021-10-24T13:38:17Z</time>
      </trkpt>
      <trkpt lat="45.0666" lon="5.92578">
        <ele>1980</ele>
        <time>2021-10-24T13:38:22Z</time>
      </trkpt>
      <trkpt lat="45.06664" lon="5.92576">
        <ele>1979</ele>
        <time>2021-10-24T13:38:27Z</time>
      </trkpt>
      <trkpt lat="45.06667" lon="5.92573">
        <ele>1979</ele>
        <time>2021-10-24T13:38:33Z</time>
      </trkpt>
      <trkpt lat="45.0667" lon="5.92567">
        <ele>1979</ele>
        <time>2021-10-24T13:38:39Z</time>
      </trkpt>
      <trkpt lat="45.06674" lon="5.92562">
        <ele>1979</ele>
        <time>2021-10-24T13:38:45Z</time>
      </trkpt>
      <trkpt lat="45.06678" lon="5.92563">
        <ele>1980</ele>
        <time>2021-10-24T13:38:51Z</time>
      </trkpt>
      <trkpt lat="45.0668" lon="5.92562">
        <ele>1979</ele>
        <time>2021-10-24T13:38:56Z</time>
      </trkpt>
      <trkpt lat="45.06685" lon="5.92556">
        <ele>1978</ele>
        <time>2021-10-24T13:39:02Z</time>
      </trkpt>
      <trkpt lat="45.06688" lon="5.92547">
        <ele>1977</ele>
        <time>2021-10-24T13:39:08Z</time>
      </trkpt>
      <trkpt lat="45.0669" lon="5.92541">
        <ele>1979</ele>
        <time>2021-10-24T13:39:14Z</time>
      </trkpt>
      <trkpt lat="45.06692" lon="5.92536">
        <ele>1979</ele>
        <time>2021-10-24T13:39:20Z</time>
      </trkpt>
      <trkpt lat="45.06695" lon="5.92531">
        <ele>1978</ele>
        <time>2021-10-24T13:39:25Z</time>
      </trkpt>
      <trkpt lat="45.06697" lon="5.92523">
        <ele>1977</ele>
        <time>2021-10-24T13:39:30Z</time>
      </trkpt>
      <trkpt lat="45.067" lon="5.92515">
        <ele>1975</ele>
        <time>2021-10-24T13:39:36Z</time>
      </trkpt>
      <trkpt lat="45.06702" lon="5.92504">
        <ele>1975</ele>
        <time>2021-10-24T13:39:42Z</time>
      </trkpt>
      <trkpt lat="45.06704" lon="5.92498">
        <ele>1974</ele>
        <time>2021-10-24T13:39:47Z</time>
      </trkpt>
      <trkpt lat="45.06705" lon="5.92492">
        <ele>1974</ele>
        <time>2021-10-24T13:39:52Z</time>
      </trkpt>
      <trkpt lat="45.06708" lon="5.92487">
        <ele>1974</ele>
        <time>2021-10-24T13:39:58Z</time>
      </trkpt>
      <trkpt lat="45.0671" lon="5.92483">
        <ele>1975</ele>
        <time>2021-10-24T13:40:04Z</time>
      </trkpt>
      <trkpt lat="45.06712" lon="5.92477">
        <ele>1972</ele>
        <time>2021-10-24T13:40:09Z</time>
      </trkpt>
      <trkpt lat="45.06713" lon="5.92468">
        <ele>1971</ele>
        <time>2021-10-24T13:40:15Z</time>
      </trkpt>
      <trkpt lat="45.06715" lon="5.92462">
        <ele>1972</ele>
        <time>2021-10-24T13:40:20Z</time>
      </trkpt>
      <trkpt lat="45.06716" lon="5.92455">
        <ele>1971</ele>
        <time>2021-10-24T13:40:26Z</time>
      </trkpt>
      <trkpt lat="45.06717" lon="5.92449">
        <ele>1970</ele>
        <time>2021-10-24T13:40:32Z</time>
      </trkpt>
      <trkpt lat="45.06717" lon="5.92446">
        <ele>1968</ele>
        <time>2021-10-24T13:40:38Z</time>
      </trkpt>
      <trkpt lat="45.06717" lon="5.92443">
        <ele>1967</ele>
        <time>2021-10-24T13:40:43Z</time>
      </trkpt>
      <trkpt lat="45.06718" lon="5.92435">
        <ele>1965</ele>
        <time>2021-10-24T13:40:48Z</time>
      </trkpt>
      <trkpt lat="45.06719" lon="5.92429">
        <ele>1964</ele>
        <time>2021-10-24T13:40:53Z</time>
      </trkpt>
      <trkpt lat="45.06721" lon="5.92422">
        <ele>1963</ele>
        <time>2021-10-24T13:40:59Z</time>
      </trkpt>
      <trkpt lat="45.06721" lon="5.92413">
        <ele>1963</ele>
        <time>2021-10-24T13:41:05Z</time>
      </trkpt>
      <trkpt lat="45.06722" lon="5.92409">
        <ele>1963</ele>
        <time>2021-10-24T13:41:10Z</time>
      </trkpt>
      <trkpt lat="45.06724" lon="5.92405">
        <ele>1963</ele>
        <time>2021-10-24T13:41:15Z</time>
      </trkpt>
      <trkpt lat="45.06726" lon="5.92401">
        <ele>1962</ele>
        <time>2021-10-24T13:41:21Z</time>
      </trkpt>
      <trkpt lat="45.06727" lon="5.92396">
        <ele>1962</ele>
        <time>2021-10-24T13:41:27Z</time>
      </trkpt>
      <trkpt lat="45.06729" lon="5.92388">
        <ele>1962</ele>
        <time>2021-10-24T13:41:32Z</time>
      </trkpt>
      <trkpt lat="45.06734" lon="5.9238">
        <ele>1962</ele>
        <time>2021-10-24T13:41:38Z</time>
      </trkpt>
      <trkpt lat="45.06736" lon="5.92381">
        <ele>1961</ele>
        <time>2021-10-24T13:41:44Z</time>
      </trkpt>
      <trkpt lat="45.0674" lon="5.92375">
        <ele>1960</ele>
        <time>2021-10-24T13:41:49Z</time>
      </trkpt>
      <trkpt lat="45.06744" lon="5.9237">
        <ele>1959</ele>
        <time>2021-10-24T13:41:54Z</time>
      </trkpt>
      <trkpt lat="45.06746" lon="5.92366">
        <ele>1957</ele>
        <time>2021-10-24T13:42:00Z</time>
      </trkpt>
      <trkpt lat="45.06747" lon="5.92363">
        <ele>1955</ele>
        <time>2021-10-24T13:42:06Z</time>
      </trkpt>
      <trkpt lat="45.06748" lon="5.92363">
        <ele>1955</ele>
        <time>2021-10-24T13:42:12Z</time>
      </trkpt>
      <trkpt lat="45.06751" lon="5.92362">
        <ele>1952</ele>
        <time>2021-10-24T13:42:17Z</time>
      </trkpt>
      <trkpt lat="45.06756" lon="5.9236">
        <ele>1951</ele>
        <time>2021-10-24T13:42:23Z</time>
      </trkpt>
      <trkpt lat="45.06759" lon="5.92357">
        <ele>1951</ele>
        <time>2021-10-24T13:42:28Z</time>
      </trkpt>
      <trkpt lat="45.06764" lon="5.9235">
        <ele>1951</ele>
        <time>2021-10-24T13:42:34Z</time>
      </trkpt>
      <trkpt lat="45.06767" lon="5.92345">
        <ele>1952</ele>
        <time>2021-10-24T13:42:39Z</time>
      </trkpt>
      <trkpt lat="45.06772" lon="5.92338">
        <ele>1951</ele>
        <time>2021-10-24T13:42:45Z</time>
      </trkpt>
      <trkpt lat="45.06773" lon="5.92338">
        <ele>1950</ele>
        <time>2021-10-24T13:42:51Z</time>
      </trkpt>
      <trkpt lat="45.06775" lon="5.9234">
        <ele>1948</ele>
        <time>2021-10-24T13:42:57Z</time>
      </trkpt>
      <trkpt lat="45.06777" lon="5.92339">
        <ele>1948</ele>
        <time>2021-10-24T13:43:03Z</time>
      </trkpt>
      <trkpt lat="45.06778" lon="5.92338">
        <ele>1947</ele>
        <time>2021-10-24T13:43:09Z</time>
      </trkpt>
      <trkpt lat="45.0678" lon="5.9234">
        <ele>1946</ele>
        <time>2021-10-24T13:43:14Z</time>
      </trkpt>
      <trkpt lat="45.0678" lon="5.92338">
        <ele>1944</ele>
        <time>2021-10-24T13:43:21Z</time>
      </trkpt>
      <trkpt lat="45.06777" lon="5.92338">
        <ele>1945</ele>
        <time>2021-10-24T13:43:26Z</time>
      </trkpt>
      <trkpt lat="45.06775" lon="5.9234">
        <ele>1949</ele>
        <time>2021-10-24T13:43:31Z</time>
      </trkpt>
      <trkpt lat="45.06775" lon="5.92339">
        <ele>1949</ele>
        <time>2021-10-24T13:43:36Z</time>
      </trkpt>
      <trkpt lat="45.06775" lon="5.92339">
        <ele>1949</ele>
        <time>2021-10-24T13:43:42Z</time>
      </trkpt>
      <trkpt lat="45.06776" lon="5.92338">
        <ele>1951</ele>
        <time>2021-10-24T13:43:48Z</time>
      </trkpt>
      <trkpt lat="45.06776" lon="5.92338">
        <ele>1951</ele>
        <time>2021-10-24T13:43:53Z</time>
      </trkpt>
      <trkpt lat="45.06775" lon="5.92338">
        <ele>1951</ele>
        <time>2021-10-24T13:43:59Z</time>
      </trkpt>
      <trkpt lat="45.06775" lon="5.92339">
        <ele>1951</ele>
        <time>2021-10-24T13:44:04Z</time>
      </trkpt>
      <trkpt lat="45.06777" lon="5.9234">
        <ele>1949</ele>
        <time>2021-10-24T13:44:10Z</time>
      </trkpt>
      <trkpt lat="45.06777" lon="5.92341">
        <ele>1949</ele>
        <time>2021-10-24T13:44:15Z</time>
      </trkpt>
      <trkpt lat="45.06777" lon="5.92341">
        <ele>1949</ele>
        <time>2021-10-24T13:44:20Z</time>
      </trkpt>
      <trkpt lat="45.06775" lon="5.92341">
        <ele>1950</ele>
        <time>2021-10-24T13:44:25Z</time>
      </trkpt>
      <trkpt lat="45.06776" lon="5.92341">
        <ele>1949</ele>
        <time>2021-10-24T13:44:30Z</time>
      </trkpt>
      <trkpt lat="45.06776" lon="5.92341">
        <ele>1949</ele>
        <time>2021-10-24T13:44:36Z</time>
      </trkpt>
      <trkpt lat="45.06776" lon="5.9234">
        <ele>1949</ele>
        <time>2021-10-24T13:44:41Z</time>
      </trkpt>
      <trkpt lat="45.06776" lon="5.92339">
        <ele>1949</ele>
        <time>2021-10-24T13:44:46Z</time>
      </trkpt>
      <trkpt lat="45.06776" lon="5.92339">
        <ele>1949</ele>
        <time>2021-10-24T13:44:51Z</time>
      </trkpt>
      <trkpt lat="45.06776" lon="5.92338">
        <ele>1951</ele>
        <time>2021-10-24T13:44:56Z</time>
      </trkpt>
      <trkpt lat="45.06775" lon="5.92337">
        <ele>1951</ele>
        <time>2021-10-24T13:45:02Z</time>
      </trkpt>
      <trkpt lat="45.06775" lon="5.92333">
        <ele>1950</ele>
        <time>2021-10-24T13:45:08Z</time>
      </trkpt>
      <trkpt lat="45.06775" lon="5.92326">
        <ele>1950</ele>
        <time>2021-10-24T13:45:13Z</time>
      </trkpt>
      <trkpt lat="45.06775" lon="5.9232">
        <ele>1949</ele>
        <time>2021-10-24T13:45:19Z</time>
      </trkpt>
      <trkpt lat="45.06775" lon="5.92313">
        <ele>1948</ele>
        <time>2021-10-24T13:45:24Z</time>
      </trkpt>
      <trkpt lat="45.06777" lon="5.92304">
        <ele>1949</ele>
        <time>2021-10-24T13:45:29Z</time>
      </trkpt>
      <trkpt lat="45.06776" lon="5.92294">
        <ele>1950</ele>
        <time>2021-10-24T13:45:35Z</time>
      </trkpt>
      <trkpt lat="45.06777" lon="5.92286">
        <ele>1950</ele>
        <time>2021-10-24T13:45:40Z</time>
      </trkpt>
      <trkpt lat="45.06777" lon="5.92276">
        <ele>1950</ele>
        <time>2021-10-24T13:45:46Z</time>
      </trkpt>
      <trkpt lat="45.06777" lon="5.92266">
        <ele>1951</ele>
        <time>2021-10-24T13:45:52Z</time>
      </trkpt>
      <trkpt lat="45.06776" lon="5.92258">
        <ele>1950</ele>
        <time>2021-10-24T13:45:58Z</time>
      </trkpt>
      <trkpt lat="45.06776" lon="5.92249">
        <ele>1950</ele>
        <time>2021-10-24T13:46:04Z</time>
      </trkpt>
      <trkpt lat="45.06775" lon="5.92241">
        <ele>1950</ele>
        <time>2021-10-24T13:46:09Z</time>
      </trkpt>
      <trkpt lat="45.06773" lon="5.92234">
        <ele>1950</ele>
        <time>2021-10-24T13:46:14Z</time>
      </trkpt>
      <trkpt lat="45.0677" lon="5.9223">
        <ele>1949</ele>
        <time>2021-10-24T13:46:20Z</time>
      </trkpt>
      <trkpt lat="45.06768" lon="5.92226">
        <ele>1949</ele>
        <time>2021-10-24T13:46:25Z</time>
      </trkpt>
      <trkpt lat="45.06766" lon="5.92222">
        <ele>1949</ele>
        <time>2021-10-24T13:46:31Z</time>
      </trkpt>
      <trkpt lat="45.06763" lon="5.92219">
        <ele>1950</ele>
        <time>2021-10-24T13:46:37Z</time>
      </trkpt>
      <trkpt lat="45.06763" lon="5.92212">
        <ele>1948</ele>
        <time>2021-10-24T13:46:43Z</time>
      </trkpt>
      <trkpt lat="45.06763" lon="5.92205">
        <ele>1946</ele>
        <time>2021-10-24T13:46:48Z</time>
      </trkpt>
      <trkpt lat="45.06762" lon="5.92199">
        <ele>1946</ele>
        <time>2021-10-24T13:46:53Z</time>
      </trkpt>
      <trkpt lat="45.0676" lon="5.92196">
        <ele>1945</ele>
        <time>2021-10-24T13:46:58Z</time>
      </trkpt>
      <trkpt lat="45.06756" lon="5.9219">
        <ele>1943</ele>
        <time>2021-10-24T13:47:04Z</time>
      </trkpt>
      <trkpt lat="45.06755" lon="5.92184">
        <ele>1943</ele>
        <time>2021-10-24T13:47:10Z</time>
      </trkpt>
      <trkpt lat="45.06753" lon="5.92181">
        <ele>1942</ele>
        <time>2021-10-24T13:47:16Z</time>
      </trkpt>
      <trkpt lat="45.06749" lon="5.9218">
        <ele>1941</ele>
        <time>2021-10-24T13:47:21Z</time>
      </trkpt>
      <trkpt lat="45.06747" lon="5.92173">
        <ele>1940</ele>
        <time>2021-10-24T13:47:27Z</time>
      </trkpt>
      <trkpt lat="45.06751" lon="5.92169">
        <ele>1940</ele>
        <time>2021-10-24T13:47:32Z</time>
      </trkpt>
      <trkpt lat="45.06753" lon="5.92162">
        <ele>1940</ele>
        <time>2021-10-24T13:47:37Z</time>
      </trkpt>
      <trkpt lat="45.06753" lon="5.92157">
        <ele>1938</ele>
        <time>2021-10-24T13:47:43Z</time>
      </trkpt>
      <trkpt lat="45.0675" lon="5.92155">
        <ele>1936</ele>
        <time>2021-10-24T13:47:48Z</time>
      </trkpt>
      <trkpt lat="45.0675" lon="5.92151">
        <ele>1936</ele>
        <time>2021-10-24T13:47:54Z</time>
      </trkpt>
      <trkpt lat="45.06751" lon="5.92148">
        <ele>1935</ele>
        <time>2021-10-24T13:47:59Z</time>
      </trkpt>
      <trkpt lat="45.06748" lon="5.92147">
        <ele>1935</ele>
        <time>2021-10-24T13:48:05Z</time>
      </trkpt>
      <trkpt lat="45.06745" lon="5.92144">
        <ele>1934</ele>
        <time>2021-10-24T13:48:11Z</time>
      </trkpt>
      <trkpt lat="45.06741" lon="5.9214">
        <ele>1933</ele>
        <time>2021-10-24T13:48:17Z</time>
      </trkpt>
      <trkpt lat="45.06738" lon="5.92138">
        <ele>1932</ele>
        <time>2021-10-24T13:48:23Z</time>
      </trkpt>
      <trkpt lat="45.06739" lon="5.92131">
        <ele>1931</ele>
        <time>2021-10-24T13:48:29Z</time>
      </trkpt>
      <trkpt lat="45.06737" lon="5.92126">
        <ele>1931</ele>
        <time>2021-10-24T13:48:35Z</time>
      </trkpt>
      <trkpt lat="45.06733" lon="5.92123">
        <ele>1928</ele>
        <time>2021-10-24T13:48:41Z</time>
      </trkpt>
      <trkpt lat="45.06729" lon="5.9212">
        <ele>1927</ele>
        <time>2021-10-24T13:48:46Z</time>
      </trkpt>
      <trkpt lat="45.06726" lon="5.92115">
        <ele>1927</ele>
        <time>2021-10-24T13:48:52Z</time>
      </trkpt>
      <trkpt lat="45.06724" lon="5.92112">
        <ele>1925</ele>
        <time>2021-10-24T13:48:57Z</time>
      </trkpt>
      <trkpt lat="45.06721" lon="5.92109">
        <ele>1924</ele>
        <time>2021-10-24T13:49:02Z</time>
      </trkpt>
      <trkpt lat="45.06717" lon="5.92103">
        <ele>1922</ele>
        <time>2021-10-24T13:49:08Z</time>
      </trkpt>
      <trkpt lat="45.06713" lon="5.92098">
        <ele>1921</ele>
        <time>2021-10-24T13:49:14Z</time>
      </trkpt>
      <trkpt lat="45.06709" lon="5.92092">
        <ele>1920</ele>
        <time>2021-10-24T13:49:19Z</time>
      </trkpt>
      <trkpt lat="45.06706" lon="5.92086">
        <ele>1918</ele>
        <time>2021-10-24T13:49:25Z</time>
      </trkpt>
      <trkpt lat="45.06703" lon="5.92081">
        <ele>1916</ele>
        <time>2021-10-24T13:49:31Z</time>
      </trkpt>
      <trkpt lat="45.06701" lon="5.92077">
        <ele>1915</ele>
        <time>2021-10-24T13:49:37Z</time>
      </trkpt>
      <trkpt lat="45.06701" lon="5.92077">
        <ele>1915</ele>
        <time>2021-10-24T13:49:42Z</time>
      </trkpt>
      <trkpt lat="45.06701" lon="5.92075">
        <ele>1913</ele>
        <time>2021-10-24T13:49:48Z</time>
      </trkpt>
      <trkpt lat="45.06701" lon="5.92075">
        <ele>1913</ele>
        <time>2021-10-24T13:49:54Z</time>
      </trkpt>
      <trkpt lat="45.06701" lon="5.92075">
        <ele>1913</ele>
        <time>2021-10-24T13:49:59Z</time>
      </trkpt>
      <trkpt lat="45.06701" lon="5.92075">
        <ele>1913</ele>
        <time>2021-10-24T13:50:05Z</time>
      </trkpt>
      <trkpt lat="45.06706" lon="5.9207">
        <ele>1914</ele>
        <time>2021-10-24T13:50:11Z</time>
      </trkpt>
      <trkpt lat="45.06708" lon="5.92066">
        <ele>1914</ele>
        <time>2021-10-24T13:50:16Z</time>
      </trkpt>
      <trkpt lat="45.06709" lon="5.92065">
        <ele>1914</ele>
        <time>2021-10-24T13:50:22Z</time>
      </trkpt>
      <trkpt lat="45.06709" lon="5.92065">
        <ele>1914</ele>
        <time>2021-10-24T13:50:28Z</time>
      </trkpt>
      <trkpt lat="45.06709" lon="5.92064">
        <ele>1914</ele>
        <time>2021-10-24T13:50:34Z</time>
      </trkpt>
      <trkpt lat="45.06709" lon="5.92064">
        <ele>1914</ele>
        <time>2021-10-24T13:50:39Z</time>
      </trkpt>
      <trkpt lat="45.06709" lon="5.92064">
        <ele>1914</ele>
        <time>2021-10-24T13:50:45Z</time>
      </trkpt>
      <trkpt lat="45.06709" lon="5.92064">
        <ele>1914</ele>
        <time>2021-10-24T13:50:50Z</time>
      </trkpt>
      <trkpt lat="45.06709" lon="5.92063">
        <ele>1914</ele>
        <time>2021-10-24T13:50:56Z</time>
      </trkpt>
      <trkpt lat="45.06709" lon="5.92063">
        <ele>1914</ele>
        <time>2021-10-24T13:51:01Z</time>
      </trkpt>
      <trkpt lat="45.06709" lon="5.92056">
        <ele>1914</ele>
        <time>2021-10-24T13:51:07Z</time>
      </trkpt>
      <trkpt lat="45.06712" lon="5.92053">
        <ele>1914</ele>
        <time>2021-10-24T13:51:12Z</time>
      </trkpt>
      <trkpt lat="45.06716" lon="5.92048">
        <ele>1913</ele>
        <time>2021-10-24T13:51:18Z</time>
      </trkpt>
      <trkpt lat="45.06719" lon="5.92041">
        <ele>1911</ele>
        <time>2021-10-24T13:51:24Z</time>
      </trkpt>
      <trkpt lat="45.06722" lon="5.92035">
        <ele>1910</ele>
        <time>2021-10-24T13:51:29Z</time>
      </trkpt>
      <trkpt lat="45.06727" lon="5.9203">
        <ele>1909</ele>
        <time>2021-10-24T13:51:34Z</time>
      </trkpt>
      <trkpt lat="45.0673" lon="5.92028">
        <ele>1910</ele>
        <time>2021-10-24T13:51:40Z</time>
      </trkpt>
      <trkpt lat="45.06731" lon="5.92029">
        <ele>1909</ele>
        <time>2021-10-24T13:51:45Z</time>
      </trkpt>
      <trkpt lat="45.06733" lon="5.92028">
        <ele>1907</ele>
        <time>2021-10-24T13:51:51Z</time>
      </trkpt>
      <trkpt lat="45.06734" lon="5.92027">
        <ele>1907</ele>
        <time>2021-10-24T13:51:56Z</time>
      </trkpt>
      <trkpt lat="45.06734" lon="5.92027">
        <ele>1907</ele>
        <time>2021-10-24T13:52:02Z</time>
      </trkpt>
      <trkpt lat="45.06734" lon="5.92027">
        <ele>1907</ele>
        <time>2021-10-24T13:52:08Z</time>
      </trkpt>
      <trkpt lat="45.06734" lon="5.92027">
        <ele>1907</ele>
        <time>2021-10-24T13:52:14Z</time>
      </trkpt>
      <trkpt lat="45.06734" lon="5.92027">
        <ele>1907</ele>
        <time>2021-10-24T13:52:20Z</time>
      </trkpt>
      <trkpt lat="45.06734" lon="5.92027">
        <ele>1907</ele>
        <time>2021-10-24T13:52:26Z</time>
      </trkpt>
      <trkpt lat="45.06734" lon="5.92027">
        <ele>1907</ele>
        <time>2021-10-24T13:52:31Z</time>
      </trkpt>
      <trkpt lat="45.06734" lon="5.92027">
        <ele>1907</ele>
        <time>2021-10-24T13:52:36Z</time>
      </trkpt>
      <trkpt lat="45.06734" lon="5.92027">
        <ele>1907</ele>
        <time>2021-10-24T13:52:42Z</time>
      </trkpt>
      <trkpt lat="45.06734" lon="5.92027">
        <ele>1907</ele>
        <time>2021-10-24T13:52:48Z</time>
      </trkpt>
      <trkpt lat="45.06732" lon="5.92027">
        <ele>1907</ele>
        <time>2021-10-24T13:52:54Z</time>
      </trkpt>
      <trkpt lat="45.06731" lon="5.92027">
        <ele>1907</ele>
        <time>2021-10-24T13:53:00Z</time>
      </trkpt>
      <trkpt lat="45.0673" lon="5.92028">
        <ele>1908</ele>
        <time>2021-10-24T13:53:05Z</time>
      </trkpt>
      <trkpt lat="45.0673" lon="5.92028">
        <ele>1908</ele>
        <time>2021-10-24T13:53:10Z</time>
      </trkpt>
      <trkpt lat="45.0673" lon="5.92028">
        <ele>1908</ele>
        <time>2021-10-24T13:53:16Z</time>
      </trkpt>
      <trkpt lat="45.0673" lon="5.92028">
        <ele>1908</ele>
        <time>2021-10-24T13:53:22Z</time>
      </trkpt>
      <trkpt lat="45.0673" lon="5.92028">
        <ele>1908</ele>
        <time>2021-10-24T13:53:28Z</time>
      </trkpt>
      <trkpt lat="45.0673" lon="5.92028">
        <ele>1908</ele>
        <time>2021-10-24T13:53:34Z</time>
      </trkpt>
      <trkpt lat="45.0673" lon="5.92028">
        <ele>1908</ele>
        <time>2021-10-24T13:53:40Z</time>
      </trkpt>
      <trkpt lat="45.0673" lon="5.92026">
        <ele>1907</ele>
        <time>2021-10-24T13:53:46Z</time>
      </trkpt>
      <trkpt lat="45.0673" lon="5.92025">
        <ele>1907</ele>
        <time>2021-10-24T13:53:51Z</time>
      </trkpt>
      <trkpt lat="45.0673" lon="5.92025">
        <ele>1907</ele>
        <time>2021-10-24T13:53:57Z</time>
      </trkpt>
      <trkpt lat="45.0673" lon="5.92025">
        <ele>1907</ele>
        <time>2021-10-24T13:54:03Z</time>
      </trkpt>
      <trkpt lat="45.0673" lon="5.92025">
        <ele>1907</ele>
        <time>2021-10-24T13:54:08Z</time>
      </trkpt>
      <trkpt lat="45.0673" lon="5.92026">
        <ele>1908</ele>
        <time>2021-10-24T13:54:14Z</time>
      </trkpt>
      <trkpt lat="45.0673" lon="5.92026">
        <ele>1908</ele>
        <time>2021-10-24T13:54:19Z</time>
      </trkpt>
      <trkpt lat="45.0673" lon="5.92026">
        <ele>1908</ele>
        <time>2021-10-24T13:54:25Z</time>
      </trkpt>
      <trkpt lat="45.0673" lon="5.92026">
        <ele>1908</ele>
        <time>2021-10-24T13:54:30Z</time>
      </trkpt>
      <trkpt lat="45.0673" lon="5.92026">
        <ele>1908</ele>
        <time>2021-10-24T13:54:35Z</time>
      </trkpt>
      <trkpt lat="45.0673" lon="5.92024">
        <ele>1910</ele>
        <time>2021-10-24T13:54:40Z</time>
      </trkpt>
      <trkpt lat="45.0673" lon="5.92024">
        <ele>1910</ele>
        <time>2021-10-24T13:54:46Z</time>
      </trkpt>
      <trkpt lat="45.0673" lon="5.92024">
        <ele>1910</ele>
        <time>2021-10-24T13:54:52Z</time>
      </trkpt>
      <trkpt lat="45.0673" lon="5.92024">
        <ele>1910</ele>
        <time>2021-10-24T13:54:57Z</time>
      </trkpt>
      <trkpt lat="45.0673" lon="5.92024">
        <ele>1910</ele>
        <time>2021-10-24T13:55:03Z</time>
      </trkpt>
      <trkpt lat="45.0673" lon="5.92024">
        <ele>1910</ele>
        <time>2021-10-24T13:55:09Z</time>
      </trkpt>
      <trkpt lat="45.0673" lon="5.92024">
        <ele>1910</ele>
        <time>2021-10-24T13:55:15Z</time>
      </trkpt>
      <trkpt lat="45.0673" lon="5.92024">
        <ele>1910</ele>
        <time>2021-10-24T13:55:20Z</time>
      </trkpt>
      <trkpt lat="45.0673" lon="5.92024">
        <ele>1910</ele>
        <time>2021-10-24T13:55:26Z</time>
      </trkpt>
      <trkpt lat="45.0673" lon="5.92024">
        <ele>1910</ele>
        <time>2021-10-24T13:55:32Z</time>
      </trkpt>
      <trkpt lat="45.06732" lon="5.92026">
        <ele>1909</ele>
        <time>2021-10-24T13:55:38Z</time>
      </trkpt>
      <trkpt lat="45.06732" lon="5.92026">
        <ele>1909</ele>
        <time>2021-10-24T13:55:43Z</time>
      </trkpt>
      <trkpt lat="45.06732" lon="5.92026">
        <ele>1909</ele>
        <time>2021-10-24T13:55:49Z</time>
      </trkpt>
      <trkpt lat="45.06732" lon="5.92026">
        <ele>1909</ele>
        <time>2021-10-24T13:55:54Z</time>
      </trkpt>
      <trkpt lat="45.06732" lon="5.92026">
        <ele>1909</ele>
        <time>2021-10-24T13:56:00Z</time>
      </trkpt>
      <trkpt lat="45.06732" lon="5.92026">
        <ele>1909</ele>
        <time>2021-10-24T13:56:05Z</time>
      </trkpt>
      <trkpt lat="45.06732" lon="5.92026">
        <ele>1909</ele>
        <time>2021-10-24T13:56:11Z</time>
      </trkpt>
      <trkpt lat="45.06732" lon="5.92026">
        <ele>1909</ele>
        <time>2021-10-24T13:56:17Z</time>
      </trkpt>
      <trkpt lat="45.06732" lon="5.92026">
        <ele>1909</ele>
        <time>2021-10-24T13:56:22Z</time>
      </trkpt>
      <trkpt lat="45.06732" lon="5.92026">
        <ele>1909</ele>
        <time>2021-10-24T13:56:27Z</time>
      </trkpt>
      <trkpt lat="45.06732" lon="5.92026">
        <ele>1909</ele>
        <time>2021-10-24T13:56:33Z</time>
      </trkpt>
      <trkpt lat="45.06732" lon="5.92026">
        <ele>1909</ele>
        <time>2021-10-24T13:56:39Z</time>
      </trkpt>
      <trkpt lat="45.06732" lon="5.92028">
        <ele>1908</ele>
        <time>2021-10-24T13:56:45Z</time>
      </trkpt>
      <trkpt lat="45.06732" lon="5.92028">
        <ele>1908</ele>
        <time>2021-10-24T13:56:51Z</time>
      </trkpt>
      <trkpt lat="45.06732" lon="5.92028">
        <ele>1908</ele>
        <time>2021-10-24T13:56:57Z</time>
      </trkpt>
      <trkpt lat="45.06732" lon="5.92028">
        <ele>1908</ele>
        <time>2021-10-24T13:57:03Z</time>
      </trkpt>
      <trkpt lat="45.06732" lon="5.92028">
        <ele>1908</ele>
        <time>2021-10-24T13:57:09Z</time>
      </trkpt>
      <trkpt lat="45.06732" lon="5.92028">
        <ele>1908</ele>
        <time>2021-10-24T13:57:15Z</time>
      </trkpt>
      <trkpt lat="45.06733" lon="5.92028">
        <ele>1908</ele>
        <time>2021-10-24T13:57:21Z</time>
      </trkpt>
      <trkpt lat="45.06733" lon="5.92028">
        <ele>1908</ele>
        <time>2021-10-24T13:57:27Z</time>
      </trkpt>
      <trkpt lat="45.06733" lon="5.92028">
        <ele>1908</ele>
        <time>2021-10-24T13:57:33Z</time>
      </trkpt>
      <trkpt lat="45.06733" lon="5.92028">
        <ele>1908</ele>
        <time>2021-10-24T13:57:39Z</time>
      </trkpt>
      <trkpt lat="45.06733" lon="5.92028">
        <ele>1908</ele>
        <time>2021-10-24T13:57:45Z</time>
      </trkpt>
      <trkpt lat="45.06733" lon="5.92028">
        <ele>1908</ele>
        <time>2021-10-24T13:57:50Z</time>
      </trkpt>
      <trkpt lat="45.06733" lon="5.92028">
        <ele>1908</ele>
        <time>2021-10-24T13:57:56Z</time>
      </trkpt>
      <trkpt lat="45.06731" lon="5.92029">
        <ele>1908</ele>
        <time>2021-10-24T13:58:02Z</time>
      </trkpt>
      <trkpt lat="45.06728" lon="5.92032">
        <ele>1909</ele>
        <time>2021-10-24T13:58:08Z</time>
      </trkpt>
      <trkpt lat="45.06724" lon="5.92037">
        <ele>1909</ele>
        <time>2021-10-24T13:58:14Z</time>
      </trkpt>
      <trkpt lat="45.06721" lon="5.92043">
        <ele>1908</ele>
        <time>2021-10-24T13:58:20Z</time>
      </trkpt>
      <trkpt lat="45.06718" lon="5.92046">
        <ele>1908</ele>
        <time>2021-10-24T13:58:25Z</time>
      </trkpt>
      <trkpt lat="45.06715" lon="5.92051">
        <ele>1910</ele>
        <time>2021-10-24T13:58:31Z</time>
      </trkpt>
      <trkpt lat="45.06713" lon="5.92054">
        <ele>1910</ele>
        <time>2021-10-24T13:58:36Z</time>
      </trkpt>
      <trkpt lat="45.06711" lon="5.92055">
        <ele>1910</ele>
        <time>2021-10-24T13:58:41Z</time>
      </trkpt>
      <trkpt lat="45.0671" lon="5.92056">
        <ele>1910</ele>
        <time>2021-10-24T13:58:46Z</time>
      </trkpt>
      <trkpt lat="45.06707" lon="5.92062">
        <ele>1911</ele>
        <time>2021-10-24T13:58:52Z</time>
      </trkpt>
      <trkpt lat="45.06705" lon="5.92068">
        <ele>1911</ele>
        <time>2021-10-24T13:58:58Z</time>
      </trkpt>
      <trkpt lat="45.06702" lon="5.92071">
        <ele>1911</ele>
        <time>2021-10-24T13:59:03Z</time>
      </trkpt>
      <trkpt lat="45.06699" lon="5.92072">
        <ele>1911</ele>
        <time>2021-10-24T13:59:08Z</time>
      </trkpt>
      <trkpt lat="45.06696" lon="5.92071">
        <ele>1911</ele>
        <time>2021-10-24T13:59:14Z</time>
      </trkpt>
      <trkpt lat="45.06694" lon="5.9207">
        <ele>1910</ele>
        <time>2021-10-24T13:59:19Z</time>
      </trkpt>
      <trkpt lat="45.0669" lon="5.92069">
        <ele>1910</ele>
        <time>2021-10-24T13:59:24Z</time>
      </trkpt>
      <trkpt lat="45.06687" lon="5.92066">
        <ele>1910</ele>
        <time>2021-10-24T13:59:30Z</time>
      </trkpt>
      <trkpt lat="45.06684" lon="5.92065">
        <ele>1910</ele>
        <time>2021-10-24T13:59:35Z</time>
      </trkpt>
      <trkpt lat="45.0668" lon="5.9207">
        <ele>1910</ele>
        <time>2021-10-24T13:59:41Z</time>
      </trkpt>
      <trkpt lat="45.06675" lon="5.9207">
        <ele>1910</ele>
        <time>2021-10-24T13:59:46Z</time>
      </trkpt>
      <trkpt lat="45.06671" lon="5.92071">
        <ele>1910</ele>
        <time>2021-10-24T13:59:51Z</time>
      </trkpt>
      <trkpt lat="45.06667" lon="5.92073">
        <ele>1910</ele>
        <time>2021-10-24T13:59:57Z</time>
      </trkpt>
      <trkpt lat="45.06663" lon="5.92073">
        <ele>1910</ele>
        <time>2021-10-24T14:00:02Z</time>
      </trkpt>
      <trkpt lat="45.06658" lon="5.92074">
        <ele>1911</ele>
        <time>2021-10-24T14:00:08Z</time>
      </trkpt>
      <trkpt lat="45.06655" lon="5.92076">
        <ele>1913</ele>
        <time>2021-10-24T14:00:13Z</time>
      </trkpt>
      <trkpt lat="45.06652" lon="5.92078">
        <ele>1913</ele>
        <time>2021-10-24T14:00:19Z</time>
      </trkpt>
      <trkpt lat="45.06647" lon="5.92081">
        <ele>1914</ele>
        <time>2021-10-24T14:00:24Z</time>
      </trkpt>
      <trkpt lat="45.06641" lon="5.92082">
        <ele>1914</ele>
        <time>2021-10-24T14:00:29Z</time>
      </trkpt>
      <trkpt lat="45.06636" lon="5.92083">
        <ele>1914</ele>
        <time>2021-10-24T14:00:35Z</time>
      </trkpt>
      <trkpt lat="45.06631" lon="5.92084">
        <ele>1913</ele>
        <time>2021-10-24T14:00:40Z</time>
      </trkpt>
      <trkpt lat="45.06625" lon="5.92083">
        <ele>1913</ele>
        <time>2021-10-24T14:00:46Z</time>
      </trkpt>
      <trkpt lat="45.0662" lon="5.9208">
        <ele>1913</ele>
        <time>2021-10-24T14:00:52Z</time>
      </trkpt>
      <trkpt lat="45.06615" lon="5.92079">
        <ele>1915</ele>
        <time>2021-10-24T14:00:58Z</time>
      </trkpt>
      <trkpt lat="45.0661" lon="5.92079">
        <ele>1915</ele>
        <time>2021-10-24T14:01:03Z</time>
      </trkpt>
      <trkpt lat="45.06605" lon="5.92084">
        <ele>1915</ele>
        <time>2021-10-24T14:01:09Z</time>
      </trkpt>
      <trkpt lat="45.06598" lon="5.92086">
        <ele>1913</ele>
        <time>2021-10-24T14:01:15Z</time>
      </trkpt>
      <trkpt lat="45.06591" lon="5.92087">
        <ele>1915</ele>
        <time>2021-10-24T14:01:21Z</time>
      </trkpt>
      <trkpt lat="45.06585" lon="5.92086">
        <ele>1916</ele>
        <time>2021-10-24T14:01:27Z</time>
      </trkpt>
      <trkpt lat="45.0658" lon="5.92088">
        <ele>1917</ele>
        <time>2021-10-24T14:01:33Z</time>
      </trkpt>
      <trkpt lat="45.06576" lon="5.92088">
        <ele>1916</ele>
        <time>2021-10-24T14:01:38Z</time>
      </trkpt>
      <trkpt lat="45.06572" lon="5.92083">
        <ele>1915</ele>
        <time>2021-10-24T14:01:43Z</time>
      </trkpt>
      <trkpt lat="45.06568" lon="5.92078">
        <ele>1913</ele>
        <time>2021-10-24T14:01:49Z</time>
      </trkpt>
      <trkpt lat="45.06564" lon="5.92071">
        <ele>1912</ele>
        <time>2021-10-24T14:01:54Z</time>
      </trkpt>
      <trkpt lat="45.06559" lon="5.92062">
        <ele>1911</ele>
        <time>2021-10-24T14:02:00Z</time>
      </trkpt>
      <trkpt lat="45.06554" lon="5.92055">
        <ele>1910</ele>
        <time>2021-10-24T14:02:06Z</time>
      </trkpt>
      <trkpt lat="45.0655" lon="5.92047">
        <ele>1909</ele>
        <time>2021-10-24T14:02:12Z</time>
      </trkpt>
      <trkpt lat="45.06547" lon="5.92044">
        <ele>1909</ele>
        <time>2021-10-24T14:02:17Z</time>
      </trkpt>
      <trkpt lat="45.0654" lon="5.92044">
        <ele>1909</ele>
        <time>2021-10-24T14:02:23Z</time>
      </trkpt>
      <trkpt lat="45.06533" lon="5.92047">
        <ele>1909</ele>
        <time>2021-10-24T14:02:29Z</time>
      </trkpt>
      <trkpt lat="45.06526" lon="5.9205">
        <ele>1909</ele>
        <time>2021-10-24T14:02:35Z</time>
      </trkpt>
      <trkpt lat="45.06519" lon="5.92049">
        <ele>1908</ele>
        <time>2021-10-24T14:02:41Z</time>
      </trkpt>
      <trkpt lat="45.06515" lon="5.92043">
        <ele>1907</ele>
        <time>2021-10-24T14:02:46Z</time>
      </trkpt>
      <trkpt lat="45.0651" lon="5.9204">
        <ele>1908</ele>
        <time>2021-10-24T14:02:51Z</time>
      </trkpt>
      <trkpt lat="45.06503" lon="5.92036">
        <ele>1908</ele>
        <time>2021-10-24T14:02:57Z</time>
      </trkpt>
      <trkpt lat="45.06497" lon="5.92032">
        <ele>1909</ele>
        <time>2021-10-24T14:03:02Z</time>
      </trkpt>
      <trkpt lat="45.06492" lon="5.92026">
        <ele>1908</ele>
        <time>2021-10-24T14:03:08Z</time>
      </trkpt>
      <trkpt lat="45.06487" lon="5.92023">
        <ele>1909</ele>
        <time>2021-10-24T14:03:13Z</time>
      </trkpt>
      <trkpt lat="45.06482" lon="5.92018">
        <ele>1908</ele>
        <time>2021-10-24T14:03:18Z</time>
      </trkpt>
      <trkpt lat="45.06477" lon="5.92013">
        <ele>1909</ele>
        <time>2021-10-24T14:03:24Z</time>
      </trkpt>
      <trkpt lat="45.06472" lon="5.92011">
        <ele>1909</ele>
        <time>2021-10-24T14:03:29Z</time>
      </trkpt>
      <trkpt lat="45.06466" lon="5.92005">
        <ele>1909</ele>
        <time>2021-10-24T14:03:35Z</time>
      </trkpt>
      <trkpt lat="45.06463" lon="5.92001">
        <ele>1908</ele>
        <time>2021-10-24T14:03:40Z</time>
      </trkpt>
      <trkpt lat="45.06459" lon="5.91997">
        <ele>1908</ele>
        <time>2021-10-24T14:03:46Z</time>
      </trkpt>
      <trkpt lat="45.06456" lon="5.91993">
        <ele>1910</ele>
        <time>2021-10-24T14:03:52Z</time>
      </trkpt>
      <trkpt lat="45.06453" lon="5.91991">
        <ele>1910</ele>
        <time>2021-10-24T14:03:57Z</time>
      </trkpt>
      <trkpt lat="45.0645" lon="5.91987">
        <ele>1909</ele>
        <time>2021-10-24T14:04:03Z</time>
      </trkpt>
      <trkpt lat="45.06448" lon="5.91983">
        <ele>1910</ele>
        <time>2021-10-24T14:04:08Z</time>
      </trkpt>
      <trkpt lat="45.06442" lon="5.91979">
        <ele>1911</ele>
        <time>2021-10-24T14:04:14Z</time>
      </trkpt>
      <trkpt lat="45.06438" lon="5.91976">
        <ele>1912</ele>
        <time>2021-10-24T14:04:19Z</time>
      </trkpt>
      <trkpt lat="45.06432" lon="5.91973">
        <ele>1912</ele>
        <time>2021-10-24T14:04:25Z</time>
      </trkpt>
      <trkpt lat="45.06428" lon="5.91971">
        <ele>1914</ele>
        <time>2021-10-24T14:04:30Z</time>
      </trkpt>
      <trkpt lat="45.06422" lon="5.91967">
        <ele>1915</ele>
        <time>2021-10-24T14:04:36Z</time>
      </trkpt>
      <trkpt lat="45.06416" lon="5.91962">
        <ele>1914</ele>
        <time>2021-10-24T14:04:42Z</time>
      </trkpt>
      <trkpt lat="45.06412" lon="5.91958">
        <ele>1915</ele>
        <time>2021-10-24T14:04:47Z</time>
      </trkpt>
      <trkpt lat="45.06407" lon="5.91955">
        <ele>1914</ele>
        <time>2021-10-24T14:04:52Z</time>
      </trkpt>
      <trkpt lat="45.06401" lon="5.91952">
        <ele>1914</ele>
        <time>2021-10-24T14:04:58Z</time>
      </trkpt>
      <trkpt lat="45.06397" lon="5.91946">
        <ele>1915</ele>
        <time>2021-10-24T14:05:04Z</time>
      </trkpt>
      <trkpt lat="45.06392" lon="5.91938">
        <ele>1915</ele>
        <time>2021-10-24T14:05:10Z</time>
      </trkpt>
      <trkpt lat="45.0639" lon="5.91932">
        <ele>1914</ele>
        <time>2021-10-24T14:05:15Z</time>
      </trkpt>
      <trkpt lat="45.06385" lon="5.91925">
        <ele>1914</ele>
        <time>2021-10-24T14:05:21Z</time>
      </trkpt>
      <trkpt lat="45.06381" lon="5.91921">
        <ele>1915</ele>
        <time>2021-10-24T14:05:26Z</time>
      </trkpt>
      <trkpt lat="45.06374" lon="5.91918">
        <ele>1914</ele>
        <time>2021-10-24T14:05:32Z</time>
      </trkpt>
      <trkpt lat="45.06367" lon="5.91916">
        <ele>1914</ele>
        <time>2021-10-24T14:05:38Z</time>
      </trkpt>
      <trkpt lat="45.06362" lon="5.91913">
        <ele>1913</ele>
        <time>2021-10-24T14:05:43Z</time>
      </trkpt>
      <trkpt lat="45.06357" lon="5.9191">
        <ele>1912</ele>
        <time>2021-10-24T14:05:49Z</time>
      </trkpt>
      <trkpt lat="45.06351" lon="5.91904">
        <ele>1911</ele>
        <time>2021-10-24T14:05:55Z</time>
      </trkpt>
      <trkpt lat="45.06348" lon="5.91898">
        <ele>1911</ele>
        <time>2021-10-24T14:06:01Z</time>
      </trkpt>
      <trkpt lat="45.06344" lon="5.91893">
        <ele>1910</ele>
        <time>2021-10-24T14:06:06Z</time>
      </trkpt>
      <trkpt lat="45.0634" lon="5.91887">
        <ele>1909</ele>
        <time>2021-10-24T14:06:12Z</time>
      </trkpt>
      <trkpt lat="45.06337" lon="5.91881">
        <ele>1909</ele>
        <time>2021-10-24T14:06:17Z</time>
      </trkpt>
      <trkpt lat="45.06333" lon="5.91876">
        <ele>1909</ele>
        <time>2021-10-24T14:06:22Z</time>
      </trkpt>
      <trkpt lat="45.06328" lon="5.91868">
        <ele>1909</ele>
        <time>2021-10-24T14:06:28Z</time>
      </trkpt>
      <trkpt lat="45.06325" lon="5.91863">
        <ele>1908</ele>
        <time>2021-10-24T14:06:33Z</time>
      </trkpt>
      <trkpt lat="45.0632" lon="5.91858">
        <ele>1906</ele>
        <time>2021-10-24T14:06:39Z</time>
      </trkpt>
      <trkpt lat="45.06315" lon="5.91854">
        <ele>1905</ele>
        <time>2021-10-24T14:06:45Z</time>
      </trkpt>
      <trkpt lat="45.0631" lon="5.91848">
        <ele>1905</ele>
        <time>2021-10-24T14:06:51Z</time>
      </trkpt>
      <trkpt lat="45.06306" lon="5.91842">
        <ele>1905</ele>
        <time>2021-10-24T14:06:57Z</time>
      </trkpt>
      <trkpt lat="45.06303" lon="5.91836">
        <ele>1906</ele>
        <time>2021-10-24T14:07:03Z</time>
      </trkpt>
      <trkpt lat="45.06301" lon="5.91834">
        <ele>1905</ele>
        <time>2021-10-24T14:07:09Z</time>
      </trkpt>
      <trkpt lat="45.06297" lon="5.9183">
        <ele>1905</ele>
        <time>2021-10-24T14:07:14Z</time>
      </trkpt>
      <trkpt lat="45.06293" lon="5.91824">
        <ele>1904</ele>
        <time>2021-10-24T14:07:20Z</time>
      </trkpt>
      <trkpt lat="45.06291" lon="5.91823">
        <ele>1904</ele>
        <time>2021-10-24T14:07:25Z</time>
      </trkpt>
      <trkpt lat="45.06291" lon="5.91823">
        <ele>1904</ele>
        <time>2021-10-24T14:07:30Z</time>
      </trkpt>
      <trkpt lat="45.06291" lon="5.91823">
        <ele>1904</ele>
        <time>2021-10-24T14:07:36Z</time>
      </trkpt>
      <trkpt lat="45.06291" lon="5.91823">
        <ele>1904</ele>
        <time>2021-10-24T14:07:41Z</time>
      </trkpt>
      <trkpt lat="45.06291" lon="5.91823">
        <ele>1904</ele>
        <time>2021-10-24T14:07:46Z</time>
      </trkpt>
      <trkpt lat="45.06291" lon="5.91823">
        <ele>1904</ele>
        <time>2021-10-24T14:07:51Z</time>
      </trkpt>
      <trkpt lat="45.06291" lon="5.91823">
        <ele>1904</ele>
        <time>2021-10-24T14:07:57Z</time>
      </trkpt>
      <trkpt lat="45.0629" lon="5.91823">
        <ele>1903</ele>
        <time>2021-10-24T14:08:03Z</time>
      </trkpt>
      <trkpt lat="45.06289" lon="5.91821">
        <ele>1902</ele>
        <time>2021-10-24T14:08:08Z</time>
      </trkpt>
      <trkpt lat="45.0629" lon="5.91821">
        <ele>1900</ele>
        <time>2021-10-24T14:08:13Z</time>
      </trkpt>
      <trkpt lat="45.0629" lon="5.91821">
        <ele>1900</ele>
        <time>2021-10-24T14:08:19Z</time>
      </trkpt>
      <trkpt lat="45.0629" lon="5.91821">
        <ele>1900</ele>
        <time>2021-10-24T14:08:25Z</time>
      </trkpt>
      <trkpt lat="45.0629" lon="5.91821">
        <ele>1900</ele>
        <time>2021-10-24T14:08:31Z</time>
      </trkpt>
      <trkpt lat="45.0629" lon="5.91821">
        <ele>1900</ele>
        <time>2021-10-24T14:08:36Z</time>
      </trkpt>
      <trkpt lat="45.06291" lon="5.91822">
        <ele>1901</ele>
        <time>2021-10-24T14:08:41Z</time>
      </trkpt>
      <trkpt lat="45.0629" lon="5.91823">
        <ele>1900</ele>
        <time>2021-10-24T14:08:47Z</time>
      </trkpt>
      <trkpt lat="45.0629" lon="5.91823">
        <ele>1900</ele>
        <time>2021-10-24T14:08:52Z</time>
      </trkpt>
      <trkpt lat="45.0629" lon="5.91823">
        <ele>1900</ele>
        <time>2021-10-24T14:08:58Z</time>
      </trkpt>
      <trkpt lat="45.06288" lon="5.91817">
        <ele>1900</ele>
        <time>2021-10-24T14:09:03Z</time>
      </trkpt>
      <trkpt lat="45.06285" lon="5.91813">
        <ele>1901</ele>
        <time>2021-10-24T14:09:08Z</time>
      </trkpt>
      <trkpt lat="45.0628" lon="5.91806">
        <ele>1900</ele>
        <time>2021-10-24T14:09:14Z</time>
      </trkpt>
      <trkpt lat="45.06277" lon="5.91801">
        <ele>1899</ele>
        <time>2021-10-24T14:09:19Z</time>
      </trkpt>
      <trkpt lat="45.06271" lon="5.91795">
        <ele>1898</ele>
        <time>2021-10-24T14:09:25Z</time>
      </trkpt>
      <trkpt lat="45.06266" lon="5.91789">
        <ele>1898</ele>
        <time>2021-10-24T14:09:31Z</time>
      </trkpt>
      <trkpt lat="45.06263" lon="5.91784">
        <ele>1898</ele>
        <time>2021-10-24T14:09:37Z</time>
      </trkpt>
      <trkpt lat="45.06259" lon="5.91781">
        <ele>1898</ele>
        <time>2021-10-24T14:09:42Z</time>
      </trkpt>
      <trkpt lat="45.06254" lon="5.91774">
        <ele>1898</ele>
        <time>2021-10-24T14:09:48Z</time>
      </trkpt>
      <trkpt lat="45.06249" lon="5.91772">
        <ele>1898</ele>
        <time>2021-10-24T14:09:54Z</time>
      </trkpt>
      <trkpt lat="45.06245" lon="5.91768">
        <ele>1897</ele>
        <time>2021-10-24T14:09:59Z</time>
      </trkpt>
      <trkpt lat="45.06242" lon="5.91762">
        <ele>1896</ele>
        <time>2021-10-24T14:10:05Z</time>
      </trkpt>
      <trkpt lat="45.06239" lon="5.91756">
        <ele>1897</ele>
        <time>2021-10-24T14:10:10Z</time>
      </trkpt>
      <trkpt lat="45.06235" lon="5.91749">
        <ele>1898</ele>
        <time>2021-10-24T14:10:16Z</time>
      </trkpt>
      <trkpt lat="45.06233" lon="5.91743">
        <ele>1896</ele>
        <time>2021-10-24T14:10:21Z</time>
      </trkpt>
      <trkpt lat="45.06232" lon="5.91736">
        <ele>1894</ele>
        <time>2021-10-24T14:10:27Z</time>
      </trkpt>
      <trkpt lat="45.06228" lon="5.91732">
        <ele>1893</ele>
        <time>2021-10-24T14:10:32Z</time>
      </trkpt>
      <trkpt lat="45.06225" lon="5.91726">
        <ele>1893</ele>
        <time>2021-10-24T14:10:38Z</time>
      </trkpt>
      <trkpt lat="45.06225" lon="5.91722">
        <ele>1893</ele>
        <time>2021-10-24T14:10:43Z</time>
      </trkpt>
      <trkpt lat="45.06223" lon="5.91712">
        <ele>1892</ele>
        <time>2021-10-24T14:10:49Z</time>
      </trkpt>
      <trkpt lat="45.0622" lon="5.91703">
        <ele>1890</ele>
        <time>2021-10-24T14:10:55Z</time>
      </trkpt>
      <trkpt lat="45.06221" lon="5.91696">
        <ele>1891</ele>
        <time>2021-10-24T14:11:00Z</time>
      </trkpt>
      <trkpt lat="45.0622" lon="5.9169">
        <ele>1889</ele>
        <time>2021-10-24T14:11:06Z</time>
      </trkpt>
      <trkpt lat="45.0622" lon="5.9168">
        <ele>1890</ele>
        <time>2021-10-24T14:11:12Z</time>
      </trkpt>
      <trkpt lat="45.06219" lon="5.91673">
        <ele>1891</ele>
        <time>2021-10-24T14:11:17Z</time>
      </trkpt>
      <trkpt lat="45.06218" lon="5.91663">
        <ele>1890</ele>
        <time>2021-10-24T14:11:22Z</time>
      </trkpt>
      <trkpt lat="45.06219" lon="5.91655">
        <ele>1889</ele>
        <time>2021-10-24T14:11:28Z</time>
      </trkpt>
      <trkpt lat="45.06221" lon="5.9165">
        <ele>1887</ele>
        <time>2021-10-24T14:11:34Z</time>
      </trkpt>
      <trkpt lat="45.06221" lon="5.91647">
        <ele>1887</ele>
        <time>2021-10-24T14:11:39Z</time>
      </trkpt>
      <trkpt lat="45.06219" lon="5.9164">
        <ele>1886</ele>
        <time>2021-10-24T14:11:44Z</time>
      </trkpt>
      <trkpt lat="45.0622" lon="5.91633">
        <ele>1888</ele>
        <time>2021-10-24T14:11:50Z</time>
      </trkpt>
      <trkpt lat="45.06224" lon="5.91629">
        <ele>1886</ele>
        <time>2021-10-24T14:11:55Z</time>
      </trkpt>
      <trkpt lat="45.06225" lon="5.91622">
        <ele>1885</ele>
        <time>2021-10-24T14:12:00Z</time>
      </trkpt>
      <trkpt lat="45.06225" lon="5.91612">
        <ele>1882</ele>
        <time>2021-10-24T14:12:06Z</time>
      </trkpt>
      <trkpt lat="45.06224" lon="5.91604">
        <ele>1883</ele>
        <time>2021-10-24T14:12:11Z</time>
      </trkpt>
      <trkpt lat="45.06223" lon="5.91594">
        <ele>1883</ele>
        <time>2021-10-24T14:12:17Z</time>
      </trkpt>
      <trkpt lat="45.06221" lon="5.91585">
        <ele>1885</ele>
        <time>2021-10-24T14:12:22Z</time>
      </trkpt>
      <trkpt lat="45.06221" lon="5.91573">
        <ele>1885</ele>
        <time>2021-10-24T14:12:28Z</time>
      </trkpt>
      <trkpt lat="45.06219" lon="5.91564">
        <ele>1885</ele>
        <time>2021-10-24T14:12:34Z</time>
      </trkpt>
      <trkpt lat="45.06217" lon="5.91555">
        <ele>1883</ele>
        <time>2021-10-24T14:12:40Z</time>
      </trkpt>
      <trkpt lat="45.06215" lon="5.91547">
        <ele>1882</ele>
        <time>2021-10-24T14:12:46Z</time>
      </trkpt>
      <trkpt lat="45.06216" lon="5.91542">
        <ele>1879</ele>
        <time>2021-10-24T14:12:51Z</time>
      </trkpt>
      <trkpt lat="45.06215" lon="5.91531">
        <ele>1879</ele>
        <time>2021-10-24T14:12:57Z</time>
      </trkpt>
      <trkpt lat="45.06214" lon="5.91522">
        <ele>1878</ele>
        <time>2021-10-24T14:13:03Z</time>
      </trkpt>
      <trkpt lat="45.06211" lon="5.91514">
        <ele>1880</ele>
        <time>2021-10-24T14:13:09Z</time>
      </trkpt>
      <trkpt lat="45.06208" lon="5.91504">
        <ele>1880</ele>
        <time>2021-10-24T14:13:15Z</time>
      </trkpt>
      <trkpt lat="45.06209" lon="5.91496">
        <ele>1881</ele>
        <time>2021-10-24T14:13:21Z</time>
      </trkpt>
      <trkpt lat="45.06211" lon="5.91489">
        <ele>1878</ele>
        <time>2021-10-24T14:13:27Z</time>
      </trkpt>
      <trkpt lat="45.06212" lon="5.91483">
        <ele>1878</ele>
        <time>2021-10-24T14:13:32Z</time>
      </trkpt>
      <trkpt lat="45.06208" lon="5.91475">
        <ele>1879</ele>
        <time>2021-10-24T14:13:38Z</time>
      </trkpt>
      <trkpt lat="45.06205" lon="5.91472">
        <ele>1879</ele>
        <time>2021-10-24T14:13:43Z</time>
      </trkpt>
      <trkpt lat="45.06205" lon="5.91469">
        <ele>1880</ele>
        <time>2021-10-24T14:13:48Z</time>
      </trkpt>
      <trkpt lat="45.06203" lon="5.91463">
        <ele>1877</ele>
        <time>2021-10-24T14:13:54Z</time>
      </trkpt>
      <trkpt lat="45.062" lon="5.91455">
        <ele>1875</ele>
        <time>2021-10-24T14:14:00Z</time>
      </trkpt>
      <trkpt lat="45.06198" lon="5.91452">
        <ele>1876</ele>
        <time>2021-10-24T14:14:05Z</time>
      </trkpt>
      <trkpt lat="45.06194" lon="5.91448">
        <ele>1874</ele>
        <time>2021-10-24T14:14:11Z</time>
      </trkpt>
      <trkpt lat="45.0619" lon="5.91442">
        <ele>1873</ele>
        <time>2021-10-24T14:14:16Z</time>
      </trkpt>
      <trkpt lat="45.06183" lon="5.91438">
        <ele>1874</ele>
        <time>2021-10-24T14:14:22Z</time>
      </trkpt>
      <trkpt lat="45.06178" lon="5.91437">
        <ele>1873</ele>
        <time>2021-10-24T14:14:28Z</time>
      </trkpt>
      <trkpt lat="45.06176" lon="5.91438">
        <ele>1871</ele>
        <time>2021-10-24T14:14:33Z</time>
      </trkpt>
      <trkpt lat="45.06173" lon="5.91438">
        <ele>1870</ele>
        <time>2021-10-24T14:14:38Z</time>
      </trkpt>
      <trkpt lat="45.06172" lon="5.9144">
        <ele>1869</ele>
        <time>2021-10-24T14:14:44Z</time>
      </trkpt>
      <trkpt lat="45.06171" lon="5.91439">
        <ele>1868</ele>
        <time>2021-10-24T14:14:50Z</time>
      </trkpt>
      <trkpt lat="45.06168" lon="5.9144">
        <ele>1869</ele>
        <time>2021-10-24T14:14:56Z</time>
      </trkpt>
      <trkpt lat="45.06166" lon="5.91437">
        <ele>1868</ele>
        <time>2021-10-24T14:15:02Z</time>
      </trkpt>
      <trkpt lat="45.06166" lon="5.91437">
        <ele>1868</ele>
        <time>2021-10-24T14:15:07Z</time>
      </trkpt>
      <trkpt lat="45.06167" lon="5.91438">
        <ele>1869</ele>
        <time>2021-10-24T14:15:12Z</time>
      </trkpt>
      <trkpt lat="45.06169" lon="5.91437">
        <ele>1869</ele>
        <time>2021-10-24T14:15:17Z</time>
      </trkpt>
      <trkpt lat="45.0617" lon="5.91436">
        <ele>1869</ele>
        <time>2021-10-24T14:15:23Z</time>
      </trkpt>
      <trkpt lat="45.06172" lon="5.91442">
        <ele>1869</ele>
        <time>2021-10-24T14:15:28Z</time>
      </trkpt>
      <trkpt lat="45.0617" lon="5.91449">
        <ele>1869</ele>
        <time>2021-10-24T14:15:34Z</time>
      </trkpt>
      <trkpt lat="45.06168" lon="5.91454">
        <ele>1869</ele>
        <time>2021-10-24T14:15:40Z</time>
      </trkpt>
      <trkpt lat="45.06168" lon="5.9146">
        <ele>1870</ele>
        <time>2021-10-24T14:15:45Z</time>
      </trkpt>
      <trkpt lat="45.06168" lon="5.91468">
        <ele>1871</ele>
        <time>2021-10-24T14:15:51Z</time>
      </trkpt>
      <trkpt lat="45.06166" lon="5.91472">
        <ele>1871</ele>
        <time>2021-10-24T14:15:56Z</time>
      </trkpt>
      <trkpt lat="45.06162" lon="5.9148">
        <ele>1871</ele>
        <time>2021-10-24T14:16:02Z</time>
      </trkpt>
      <trkpt lat="45.0616" lon="5.91488">
        <ele>1871</ele>
        <time>2021-10-24T14:16:08Z</time>
      </trkpt>
      <trkpt lat="45.06159" lon="5.91492">
        <ele>1870</ele>
        <time>2021-10-24T14:16:13Z</time>
      </trkpt>
      <trkpt lat="45.06156" lon="5.91496">
        <ele>1869</ele>
        <time>2021-10-24T14:16:18Z</time>
      </trkpt>
      <trkpt lat="45.06153" lon="5.91504">
        <ele>1869</ele>
        <time>2021-10-24T14:16:24Z</time>
      </trkpt>
      <trkpt lat="45.0615" lon="5.9151">
        <ele>1869</ele>
        <time>2021-10-24T14:16:30Z</time>
      </trkpt>
      <trkpt lat="45.06146" lon="5.91515">
        <ele>1869</ele>
        <time>2021-10-24T14:16:35Z</time>
      </trkpt>
      <trkpt lat="45.06145" lon="5.91521">
        <ele>1867</ele>
        <time>2021-10-24T14:16:41Z</time>
      </trkpt>
      <trkpt lat="45.06139" lon="5.91529">
        <ele>1867</ele>
        <time>2021-10-24T14:16:47Z</time>
      </trkpt>
      <trkpt lat="45.06135" lon="5.91534">
        <ele>1866</ele>
        <time>2021-10-24T14:16:53Z</time>
      </trkpt>
      <trkpt lat="45.06132" lon="5.9154">
        <ele>1864</ele>
        <time>2021-10-24T14:16:59Z</time>
      </trkpt>
      <trkpt lat="45.06129" lon="5.91547">
        <ele>1864</ele>
        <time>2021-10-24T14:17:04Z</time>
      </trkpt>
      <trkpt lat="45.06128" lon="5.91557">
        <ele>1864</ele>
        <time>2021-10-24T14:17:10Z</time>
      </trkpt>
      <trkpt lat="45.06124" lon="5.91564">
        <ele>1865</ele>
        <time>2021-10-24T14:17:16Z</time>
      </trkpt>
      <trkpt lat="45.06122" lon="5.91575">
        <ele>1864</ele>
        <time>2021-10-24T14:17:21Z</time>
      </trkpt>
      <trkpt lat="45.06121" lon="5.91582">
        <ele>1864</ele>
        <time>2021-10-24T14:17:26Z</time>
      </trkpt>
      <trkpt lat="45.0612" lon="5.91591">
        <ele>1865</ele>
        <time>2021-10-24T14:17:32Z</time>
      </trkpt>
      <trkpt lat="45.06121" lon="5.91599">
        <ele>1865</ele>
        <time>2021-10-24T14:17:38Z</time>
      </trkpt>
      <trkpt lat="45.06122" lon="5.91603">
        <ele>1867</ele>
        <time>2021-10-24T14:17:43Z</time>
      </trkpt>
      <trkpt lat="45.06122" lon="5.91612">
        <ele>1866</ele>
        <time>2021-10-24T14:17:48Z</time>
      </trkpt>
      <trkpt lat="45.06116" lon="5.91617">
        <ele>1867</ele>
        <time>2021-10-24T14:17:54Z</time>
      </trkpt>
      <trkpt lat="45.06115" lon="5.91623">
        <ele>1868</ele>
        <time>2021-10-24T14:17:59Z</time>
      </trkpt>
      <trkpt lat="45.06113" lon="5.9163">
        <ele>1868</ele>
        <time>2021-10-24T14:18:05Z</time>
      </trkpt>
      <trkpt lat="45.06112" lon="5.91637">
        <ele>1867</ele>
        <time>2021-10-24T14:18:11Z</time>
      </trkpt>
      <trkpt lat="45.0611" lon="5.91644">
        <ele>1867</ele>
        <time>2021-10-24T14:18:16Z</time>
      </trkpt>
      <trkpt lat="45.06108" lon="5.91651">
        <ele>1867</ele>
        <time>2021-10-24T14:18:22Z</time>
      </trkpt>
      <trkpt lat="45.06105" lon="5.91658">
        <ele>1868</ele>
        <time>2021-10-24T14:18:27Z</time>
      </trkpt>
      <trkpt lat="45.06104" lon="5.91666">
        <ele>1868</ele>
        <time>2021-10-24T14:18:33Z</time>
      </trkpt>
      <trkpt lat="45.06104" lon="5.91673">
        <ele>1868</ele>
        <time>2021-10-24T14:18:38Z</time>
      </trkpt>
      <trkpt lat="45.06103" lon="5.91678">
        <ele>1866</ele>
        <time>2021-10-24T14:18:44Z</time>
      </trkpt>
      <trkpt lat="45.06103" lon="5.91685">
        <ele>1865</ele>
        <time>2021-10-24T14:18:49Z</time>
      </trkpt>
      <trkpt lat="45.061" lon="5.91692">
        <ele>1864</ele>
        <time>2021-10-24T14:18:54Z</time>
      </trkpt>
      <trkpt lat="45.06097" lon="5.91703">
        <ele>1864</ele>
        <time>2021-10-24T14:19:00Z</time>
      </trkpt>
      <trkpt lat="45.06095" lon="5.91711">
        <ele>1866</ele>
        <time>2021-10-24T14:19:05Z</time>
      </trkpt>
      <trkpt lat="45.06094" lon="5.91718">
        <ele>1866</ele>
        <time>2021-10-24T14:19:10Z</time>
      </trkpt>
      <trkpt lat="45.06092" lon="5.91724">
        <ele>1868</ele>
        <time>2021-10-24T14:19:16Z</time>
      </trkpt>
      <trkpt lat="45.06092" lon="5.91733">
        <ele>1868</ele>
        <time>2021-10-24T14:19:22Z</time>
      </trkpt>
      <trkpt lat="45.06092" lon="5.91738">
        <ele>1867</ele>
        <time>2021-10-24T14:19:27Z</time>
      </trkpt>
      <trkpt lat="45.06094" lon="5.91744">
        <ele>1869</ele>
        <time>2021-10-24T14:19:33Z</time>
      </trkpt>
      <trkpt lat="45.06093" lon="5.91749">
        <ele>1869</ele>
        <time>2021-10-24T14:19:38Z</time>
      </trkpt>
      <trkpt lat="45.06089" lon="5.91755">
        <ele>1869</ele>
        <time>2021-10-24T14:19:44Z</time>
      </trkpt>
      <trkpt lat="45.06083" lon="5.91759">
        <ele>1869</ele>
        <time>2021-10-24T14:19:49Z</time>
      </trkpt>
      <trkpt lat="45.06079" lon="5.91762">
        <ele>1870</ele>
        <time>2021-10-24T14:19:54Z</time>
      </trkpt>
      <trkpt lat="45.06075" lon="5.91763">
        <ele>1870</ele>
        <time>2021-10-24T14:20:00Z</time>
      </trkpt>
      <trkpt lat="45.06072" lon="5.91767">
        <ele>1870</ele>
        <time>2021-10-24T14:20:05Z</time>
      </trkpt>
      <trkpt lat="45.06068" lon="5.91769">
        <ele>1869</ele>
        <time>2021-10-24T14:20:10Z</time>
      </trkpt>
      <trkpt lat="45.06065" lon="5.91774">
        <ele>1869</ele>
        <time>2021-10-24T14:20:16Z</time>
      </trkpt>
      <trkpt lat="45.06063" lon="5.9178">
        <ele>1868</ele>
        <time>2021-10-24T14:20:22Z</time>
      </trkpt>
      <trkpt lat="45.06059" lon="5.91785">
        <ele>1866</ele>
        <time>2021-10-24T14:20:28Z</time>
      </trkpt>
      <trkpt lat="45.06057" lon="5.91792">
        <ele>1865</ele>
        <time>2021-10-24T14:20:33Z</time>
      </trkpt>
      <trkpt lat="45.06054" lon="5.91798">
        <ele>1864</ele>
        <time>2021-10-24T14:20:39Z</time>
      </trkpt>
      <trkpt lat="45.06049" lon="5.91805">
        <ele>1864</ele>
        <time>2021-10-24T14:20:45Z</time>
      </trkpt>
      <trkpt lat="45.06046" lon="5.91809">
        <ele>1863</ele>
        <time>2021-10-24T14:20:50Z</time>
      </trkpt>
      <trkpt lat="45.06044" lon="5.91817">
        <ele>1866</ele>
        <time>2021-10-24T14:20:56Z</time>
      </trkpt>
      <trkpt lat="45.06045" lon="5.91825">
        <ele>1865</ele>
        <time>2021-10-24T14:21:01Z</time>
      </trkpt>
      <trkpt lat="45.06042" lon="5.91832">
        <ele>1865</ele>
        <time>2021-10-24T14:21:07Z</time>
      </trkpt>
      <trkpt lat="45.0604" lon="5.91841">
        <ele>1863</ele>
        <time>2021-10-24T14:21:12Z</time>
      </trkpt>
      <trkpt lat="45.06038" lon="5.91845">
        <ele>1862</ele>
        <time>2021-10-24T14:21:17Z</time>
      </trkpt>
      <trkpt lat="45.06033" lon="5.91852">
        <ele>1862</ele>
        <time>2021-10-24T14:21:23Z</time>
      </trkpt>
      <trkpt lat="45.06029" lon="5.91857">
        <ele>1861</ele>
        <time>2021-10-24T14:21:29Z</time>
      </trkpt>
      <trkpt lat="45.06027" lon="5.91863">
        <ele>1861</ele>
        <time>2021-10-24T14:21:35Z</time>
      </trkpt>
      <trkpt lat="45.06026" lon="5.91874">
        <ele>1861</ele>
        <time>2021-10-24T14:21:41Z</time>
      </trkpt>
      <trkpt lat="45.06022" lon="5.91881">
        <ele>1861</ele>
        <time>2021-10-24T14:21:47Z</time>
      </trkpt>
      <trkpt lat="45.06018" lon="5.91884">
        <ele>1860</ele>
        <time>2021-10-24T14:21:52Z</time>
      </trkpt>
      <trkpt lat="45.06013" lon="5.91885">
        <ele>1857</ele>
        <time>2021-10-24T14:21:57Z</time>
      </trkpt>
      <trkpt lat="45.06014" lon="5.91889">
        <ele>1854</ele>
        <time>2021-10-24T14:22:03Z</time>
      </trkpt>
      <trkpt lat="45.06011" lon="5.91891">
        <ele>1855</ele>
        <time>2021-10-24T14:22:08Z</time>
      </trkpt>
      <trkpt lat="45.06007" lon="5.91893">
        <ele>1853</ele>
        <time>2021-10-24T14:22:14Z</time>
      </trkpt>
      <trkpt lat="45.06002" lon="5.91893">
        <ele>1852</ele>
        <time>2021-10-24T14:22:19Z</time>
      </trkpt>
      <trkpt lat="45.05998" lon="5.91892">
        <ele>1852</ele>
        <time>2021-10-24T14:22:25Z</time>
      </trkpt>
      <trkpt lat="45.05996" lon="5.91889">
        <ele>1851</ele>
        <time>2021-10-24T14:22:30Z</time>
      </trkpt>
      <trkpt lat="45.05992" lon="5.91885">
        <ele>1851</ele>
        <time>2021-10-24T14:22:36Z</time>
      </trkpt>
      <trkpt lat="45.05987" lon="5.91883">
        <ele>1852</ele>
        <time>2021-10-24T14:22:42Z</time>
      </trkpt>
      <trkpt lat="45.05984" lon="5.91881">
        <ele>1851</ele>
        <time>2021-10-24T14:22:48Z</time>
      </trkpt>
      <trkpt lat="45.05982" lon="5.91874">
        <ele>1849</ele>
        <time>2021-10-24T14:22:54Z</time>
      </trkpt>
      <trkpt lat="45.05979" lon="5.91865">
        <ele>1847</ele>
        <time>2021-10-24T14:23:00Z</time>
      </trkpt>
      <trkpt lat="45.05979" lon="5.9186">
        <ele>1848</ele>
        <time>2021-10-24T14:23:06Z</time>
      </trkpt>
      <trkpt lat="45.0598" lon="5.91855">
        <ele>1846</ele>
        <time>2021-10-24T14:23:11Z</time>
      </trkpt>
      <trkpt lat="45.05981" lon="5.91847">
        <ele>1845</ele>
        <time>2021-10-24T14:23:17Z</time>
      </trkpt>
      <trkpt lat="45.05981" lon="5.91838">
        <ele>1843</ele>
        <time>2021-10-24T14:23:23Z</time>
      </trkpt>
      <trkpt lat="45.05981" lon="5.91833">
        <ele>1842</ele>
        <time>2021-10-24T14:23:28Z</time>
      </trkpt>
      <trkpt lat="45.05982" lon="5.9183">
        <ele>1841</ele>
        <time>2021-10-24T14:23:33Z</time>
      </trkpt>
      <trkpt lat="45.05983" lon="5.91825">
        <ele>1840</ele>
        <time>2021-10-24T14:23:39Z</time>
      </trkpt>
      <trkpt lat="45.05986" lon="5.91816">
        <ele>1839</ele>
        <time>2021-10-24T14:23:45Z</time>
      </trkpt>
      <trkpt lat="45.05985" lon="5.91809">
        <ele>1838</ele>
        <time>2021-10-24T14:23:51Z</time>
      </trkpt>
      <trkpt lat="45.05986" lon="5.91804">
        <ele>1835</ele>
        <time>2021-10-24T14:23:56Z</time>
      </trkpt>
      <trkpt lat="45.05987" lon="5.91797">
        <ele>1833</ele>
        <time>2021-10-24T14:24:02Z</time>
      </trkpt>
      <trkpt lat="45.05988" lon="5.91788">
        <ele>1832</ele>
        <time>2021-10-24T14:24:08Z</time>
      </trkpt>
      <trkpt lat="45.0599" lon="5.91781">
        <ele>1828</ele>
        <time>2021-10-24T14:24:13Z</time>
      </trkpt>
      <trkpt lat="45.05988" lon="5.91775">
        <ele>1829</ele>
        <time>2021-10-24T14:24:19Z</time>
      </trkpt>
      <trkpt lat="45.05988" lon="5.91772">
        <ele>1829</ele>
        <time>2021-10-24T14:24:24Z</time>
      </trkpt>
      <trkpt lat="45.05988" lon="5.91767">
        <ele>1828</ele>
        <time>2021-10-24T14:24:29Z</time>
      </trkpt>
      <trkpt lat="45.05986" lon="5.9176">
        <ele>1829</ele>
        <time>2021-10-24T14:24:35Z</time>
      </trkpt>
      <trkpt lat="45.05986" lon="5.91754">
        <ele>1828</ele>
        <time>2021-10-24T14:24:41Z</time>
      </trkpt>
      <trkpt lat="45.05983" lon="5.91746">
        <ele>1828</ele>
        <time>2021-10-24T14:24:47Z</time>
      </trkpt>
      <trkpt lat="45.05981" lon="5.91739">
        <ele>1827</ele>
        <time>2021-10-24T14:24:52Z</time>
      </trkpt>
      <trkpt lat="45.05984" lon="5.91731">
        <ele>1824</ele>
        <time>2021-10-24T14:24:58Z</time>
      </trkpt>
      <trkpt lat="45.05984" lon="5.91723">
        <ele>1823</ele>
        <time>2021-10-24T14:25:04Z</time>
      </trkpt>
      <trkpt lat="45.05984" lon="5.91719">
        <ele>1823</ele>
        <time>2021-10-24T14:25:09Z</time>
      </trkpt>
      <trkpt lat="45.05985" lon="5.91711">
        <ele>1821</ele>
        <time>2021-10-24T14:25:15Z</time>
      </trkpt>
      <trkpt lat="45.05984" lon="5.91703">
        <ele>1819</ele>
        <time>2021-10-24T14:25:20Z</time>
      </trkpt>
      <trkpt lat="45.05984" lon="5.91696">
        <ele>1817</ele>
        <time>2021-10-24T14:25:25Z</time>
      </trkpt>
      <trkpt lat="45.05984" lon="5.91689">
        <ele>1815</ele>
        <time>2021-10-24T14:25:31Z</time>
      </trkpt>
      <trkpt lat="45.05984" lon="5.91684">
        <ele>1813</ele>
        <time>2021-10-24T14:25:36Z</time>
      </trkpt>
      <trkpt lat="45.05981" lon="5.91677">
        <ele>1812</ele>
        <time>2021-10-24T14:25:42Z</time>
      </trkpt>
      <trkpt lat="45.0598" lon="5.91673">
        <ele>1808</ele>
        <time>2021-10-24T14:25:47Z</time>
      </trkpt>
      <trkpt lat="45.05979" lon="5.91669">
        <ele>1808</ele>
        <time>2021-10-24T14:25:53Z</time>
      </trkpt>
      <trkpt lat="45.05979" lon="5.91661">
        <ele>1807</ele>
        <time>2021-10-24T14:25:58Z</time>
      </trkpt>
      <trkpt lat="45.0598" lon="5.91652">
        <ele>1806</ele>
        <time>2021-10-24T14:26:04Z</time>
      </trkpt>
      <trkpt lat="45.05981" lon="5.91644">
        <ele>1805</ele>
        <time>2021-10-24T14:26:10Z</time>
      </trkpt>
      <trkpt lat="45.05981" lon="5.91635">
        <ele>1804</ele>
        <time>2021-10-24T14:26:16Z</time>
      </trkpt>
      <trkpt lat="45.05981" lon="5.91627">
        <ele>1803</ele>
        <time>2021-10-24T14:26:21Z</time>
      </trkpt>
      <trkpt lat="45.05978" lon="5.91616">
        <ele>1802</ele>
        <time>2021-10-24T14:26:27Z</time>
      </trkpt>
      <trkpt lat="45.05977" lon="5.91611">
        <ele>1801</ele>
        <time>2021-10-24T14:26:32Z</time>
      </trkpt>
      <trkpt lat="45.05976" lon="5.91605">
        <ele>1801</ele>
        <time>2021-10-24T14:26:37Z</time>
      </trkpt>
      <trkpt lat="45.05977" lon="5.91596">
        <ele>1800</ele>
        <time>2021-10-24T14:26:43Z</time>
      </trkpt>
      <trkpt lat="45.05975" lon="5.91586">
        <ele>1802</ele>
        <time>2021-10-24T14:26:49Z</time>
      </trkpt>
      <trkpt lat="45.05977" lon="5.9158">
        <ele>1802</ele>
        <time>2021-10-24T14:26:54Z</time>
      </trkpt>
      <trkpt lat="45.05979" lon="5.91574">
        <ele>1799</ele>
        <time>2021-10-24T14:27:00Z</time>
      </trkpt>
      <trkpt lat="45.0598" lon="5.91564">
        <ele>1797</ele>
        <time>2021-10-24T14:27:05Z</time>
      </trkpt>
      <trkpt lat="45.05979" lon="5.91557">
        <ele>1796</ele>
        <time>2021-10-24T14:27:10Z</time>
      </trkpt>
      <trkpt lat="45.05976" lon="5.9155">
        <ele>1797</ele>
        <time>2021-10-24T14:27:16Z</time>
      </trkpt>
      <trkpt lat="45.05973" lon="5.91542">
        <ele>1798</ele>
        <time>2021-10-24T14:27:21Z</time>
      </trkpt>
      <trkpt lat="45.05971" lon="5.91534">
        <ele>1799</ele>
        <time>2021-10-24T14:27:27Z</time>
      </trkpt>
      <trkpt lat="45.05969" lon="5.91524">
        <ele>1798</ele>
        <time>2021-10-24T14:27:33Z</time>
      </trkpt>
      <trkpt lat="45.05968" lon="5.91515">
        <ele>1797</ele>
        <time>2021-10-24T14:27:39Z</time>
      </trkpt>
      <trkpt lat="45.05966" lon="5.91509">
        <ele>1797</ele>
        <time>2021-10-24T14:27:45Z</time>
      </trkpt>
      <trkpt lat="45.05964" lon="5.91501">
        <ele>1796</ele>
        <time>2021-10-24T14:27:51Z</time>
      </trkpt>
      <trkpt lat="45.05963" lon="5.91494">
        <ele>1796</ele>
        <time>2021-10-24T14:27:56Z</time>
      </trkpt>
      <trkpt lat="45.05962" lon="5.91487">
        <ele>1795</ele>
        <time>2021-10-24T14:28:01Z</time>
      </trkpt>
      <trkpt lat="45.05962" lon="5.9148">
        <ele>1793</ele>
        <time>2021-10-24T14:28:06Z</time>
      </trkpt>
      <trkpt lat="45.05959" lon="5.91472">
        <ele>1794</ele>
        <time>2021-10-24T14:28:11Z</time>
      </trkpt>
      <trkpt lat="45.05958" lon="5.91462">
        <ele>1792</ele>
        <time>2021-10-24T14:28:17Z</time>
      </trkpt>
      <trkpt lat="45.05958" lon="5.91455">
        <ele>1792</ele>
        <time>2021-10-24T14:28:23Z</time>
      </trkpt>
      <trkpt lat="45.05959" lon="5.91447">
        <ele>1791</ele>
        <time>2021-10-24T14:28:29Z</time>
      </trkpt>
      <trkpt lat="45.05958" lon="5.91438">
        <ele>1790</ele>
        <time>2021-10-24T14:28:35Z</time>
      </trkpt>
      <trkpt lat="45.05956" lon="5.9143">
        <ele>1789</ele>
        <time>2021-10-24T14:28:41Z</time>
      </trkpt>
      <trkpt lat="45.05955" lon="5.91421">
        <ele>1789</ele>
        <time>2021-10-24T14:28:47Z</time>
      </trkpt>
      <trkpt lat="45.05955" lon="5.91412">
        <ele>1789</ele>
        <time>2021-10-24T14:28:53Z</time>
      </trkpt>
      <trkpt lat="45.05955" lon="5.91405">
        <ele>1791</ele>
        <time>2021-10-24T14:28:58Z</time>
      </trkpt>
      <trkpt lat="45.05955" lon="5.91399">
        <ele>1791</ele>
        <time>2021-10-24T14:29:03Z</time>
      </trkpt>
      <trkpt lat="45.05953" lon="5.91394">
        <ele>1790</ele>
        <time>2021-10-24T14:29:08Z</time>
      </trkpt>
      <trkpt lat="45.05952" lon="5.91387">
        <ele>1789</ele>
        <time>2021-10-24T14:29:14Z</time>
      </trkpt>
      <trkpt lat="45.05952" lon="5.91378">
        <ele>1790</ele>
        <time>2021-10-24T14:29:20Z</time>
      </trkpt>
      <trkpt lat="45.05951" lon="5.91371">
        <ele>1790</ele>
        <time>2021-10-24T14:29:25Z</time>
      </trkpt>
      <trkpt lat="45.05949" lon="5.91364">
        <ele>1790</ele>
        <time>2021-10-24T14:29:30Z</time>
      </trkpt>
      <trkpt lat="45.05948" lon="5.91357">
        <ele>1790</ele>
        <time>2021-10-24T14:29:36Z</time>
      </trkpt>
      <trkpt lat="45.05947" lon="5.91349">
        <ele>1789</ele>
        <time>2021-10-24T14:29:41Z</time>
      </trkpt>
      <trkpt lat="45.05948" lon="5.91339">
        <ele>1789</ele>
        <time>2021-10-24T14:29:47Z</time>
      </trkpt>
      <trkpt lat="45.0595" lon="5.91331">
        <ele>1788</ele>
        <time>2021-10-24T14:29:52Z</time>
      </trkpt>
      <trkpt lat="45.0595" lon="5.91324">
        <ele>1787</ele>
        <time>2021-10-24T14:29:58Z</time>
      </trkpt>
      <trkpt lat="45.05953" lon="5.91317">
        <ele>1785</ele>
        <time>2021-10-24T14:30:03Z</time>
      </trkpt>
      <trkpt lat="45.05955" lon="5.9131">
        <ele>1785</ele>
        <time>2021-10-24T14:30:09Z</time>
      </trkpt>
      <trkpt lat="45.05957" lon="5.91303">
        <ele>1784</ele>
        <time>2021-10-24T14:30:14Z</time>
      </trkpt>
      <trkpt lat="45.0596" lon="5.91296">
        <ele>1783</ele>
        <time>2021-10-24T14:30:19Z</time>
      </trkpt>
      <trkpt lat="45.05963" lon="5.91287">
        <ele>1781</ele>
        <time>2021-10-24T14:30:25Z</time>
      </trkpt>
      <trkpt lat="45.05964" lon="5.9128">
        <ele>1781</ele>
        <time>2021-10-24T14:30:30Z</time>
      </trkpt>
      <trkpt lat="45.05964" lon="5.91278">
        <ele>1781</ele>
        <time>2021-10-24T14:30:35Z</time>
      </trkpt>
      <trkpt lat="45.05965" lon="5.9127">
        <ele>1780</ele>
        <time>2021-10-24T14:30:41Z</time>
      </trkpt>
      <trkpt lat="45.05965" lon="5.91264">
        <ele>1780</ele>
        <time>2021-10-24T14:30:47Z</time>
      </trkpt>
      <trkpt lat="45.05964" lon="5.91256">
        <ele>1777</ele>
        <time>2021-10-24T14:30:52Z</time>
      </trkpt>
      <trkpt lat="45.05963" lon="5.91247">
        <ele>1777</ele>
        <time>2021-10-24T14:30:58Z</time>
      </trkpt>
      <trkpt lat="45.05963" lon="5.91239">
        <ele>1776</ele>
        <time>2021-10-24T14:31:03Z</time>
      </trkpt>
      <trkpt lat="45.05963" lon="5.9123">
        <ele>1776</ele>
        <time>2021-10-24T14:31:09Z</time>
      </trkpt>
      <trkpt lat="45.05962" lon="5.91221">
        <ele>1776</ele>
        <time>2021-10-24T14:31:15Z</time>
      </trkpt>
      <trkpt lat="45.05963" lon="5.91215">
        <ele>1775</ele>
        <time>2021-10-24T14:31:20Z</time>
      </trkpt>
      <trkpt lat="45.05963" lon="5.91208">
        <ele>1773</ele>
        <time>2021-10-24T14:31:26Z</time>
      </trkpt>
      <trkpt lat="45.05961" lon="5.912">
        <ele>1774</ele>
        <time>2021-10-24T14:31:31Z</time>
      </trkpt>
      <trkpt lat="45.05957" lon="5.91192">
        <ele>1773</ele>
        <time>2021-10-24T14:31:37Z</time>
      </trkpt>
      <trkpt lat="45.05957" lon="5.91186">
        <ele>1773</ele>
        <time>2021-10-24T14:31:42Z</time>
      </trkpt>
      <trkpt lat="45.05951" lon="5.9118">
        <ele>1771</ele>
        <time>2021-10-24T14:31:48Z</time>
      </trkpt>
      <trkpt lat="45.05947" lon="5.91173">
        <ele>1770</ele>
        <time>2021-10-24T14:31:54Z</time>
      </trkpt>
      <trkpt lat="45.05944" lon="5.91169">
        <ele>1771</ele>
        <time>2021-10-24T14:31:59Z</time>
      </trkpt>
      <trkpt lat="45.05941" lon="5.91162">
        <ele>1773</ele>
        <time>2021-10-24T14:32:05Z</time>
      </trkpt>
      <trkpt lat="45.05937" lon="5.91155">
        <ele>1773</ele>
        <time>2021-10-24T14:32:10Z</time>
      </trkpt>
      <trkpt lat="45.05933" lon="5.91148">
        <ele>1772</ele>
        <time>2021-10-24T14:32:15Z</time>
      </trkpt>
      <trkpt lat="45.05928" lon="5.9114">
        <ele>1772</ele>
        <time>2021-10-24T14:32:21Z</time>
      </trkpt>
      <trkpt lat="45.05925" lon="5.91134">
        <ele>1774</ele>
        <time>2021-10-24T14:32:26Z</time>
      </trkpt>
      <trkpt lat="45.05921" lon="5.91129">
        <ele>1772</ele>
        <time>2021-10-24T14:32:32Z</time>
      </trkpt>
      <trkpt lat="45.05917" lon="5.91124">
        <ele>1771</ele>
        <time>2021-10-24T14:32:37Z</time>
      </trkpt>
      <trkpt lat="45.05912" lon="5.91117">
        <ele>1772</ele>
        <time>2021-10-24T14:32:42Z</time>
      </trkpt>
      <trkpt lat="45.05908" lon="5.91111">
        <ele>1772</ele>
        <time>2021-10-24T14:32:48Z</time>
      </trkpt>
      <trkpt lat="45.05904" lon="5.91106">
        <ele>1772</ele>
        <time>2021-10-24T14:32:54Z</time>
      </trkpt>
      <trkpt lat="45.05898" lon="5.91101">
        <ele>1771</ele>
        <time>2021-10-24T14:32:59Z</time>
      </trkpt>
      <trkpt lat="45.05895" lon="5.91095">
        <ele>1771</ele>
        <time>2021-10-24T14:33:04Z</time>
      </trkpt>
      <trkpt lat="45.05892" lon="5.91087">
        <ele>1771</ele>
        <time>2021-10-24T14:33:10Z</time>
      </trkpt>
      <trkpt lat="45.0589" lon="5.91078">
        <ele>1769</ele>
        <time>2021-10-24T14:33:16Z</time>
      </trkpt>
      <trkpt lat="45.05889" lon="5.91071">
        <ele>1768</ele>
        <time>2021-10-24T14:33:21Z</time>
      </trkpt>
      <trkpt lat="45.05889" lon="5.91062">
        <ele>1768</ele>
        <time>2021-10-24T14:33:27Z</time>
      </trkpt>
      <trkpt lat="45.05892" lon="5.91056">
        <ele>1767</ele>
        <time>2021-10-24T14:33:32Z</time>
      </trkpt>
      <trkpt lat="45.05893" lon="5.9105">
        <ele>1764</ele>
        <time>2021-10-24T14:33:38Z</time>
      </trkpt>
      <trkpt lat="45.05895" lon="5.91043">
        <ele>1763</ele>
        <time>2021-10-24T14:33:43Z</time>
      </trkpt>
      <trkpt lat="45.05895" lon="5.9104">
        <ele>1762</ele>
        <time>2021-10-24T14:33:50Z</time>
      </trkpt>
      <trkpt lat="45.05896" lon="5.91029">
        <ele>1760</ele>
        <time>2021-10-24T14:33:55Z</time>
      </trkpt>
      <trkpt lat="45.05895" lon="5.9102">
        <ele>1758</ele>
        <time>2021-10-24T14:34:00Z</time>
      </trkpt>
      <trkpt lat="45.05895" lon="5.91011">
        <ele>1760</ele>
        <time>2021-10-24T14:34:06Z</time>
      </trkpt>
      <trkpt lat="45.05893" lon="5.91002">
        <ele>1762</ele>
        <time>2021-10-24T14:34:12Z</time>
      </trkpt>
      <trkpt lat="45.05891" lon="5.91">
        <ele>1762</ele>
        <time>2021-10-24T14:34:18Z</time>
      </trkpt>
      <trkpt lat="45.05889" lon="5.90998">
        <ele>1761</ele>
        <time>2021-10-24T14:34:23Z</time>
      </trkpt>
      <trkpt lat="45.05885" lon="5.90995">
        <ele>1762</ele>
        <time>2021-10-24T14:34:29Z</time>
      </trkpt>
      <trkpt lat="45.05882" lon="5.90995">
        <ele>1763</ele>
        <time>2021-10-24T14:34:35Z</time>
      </trkpt>
      <trkpt lat="45.05878" lon="5.90993">
        <ele>1763</ele>
        <time>2021-10-24T14:34:40Z</time>
      </trkpt>
      <trkpt lat="45.05875" lon="5.90993">
        <ele>1764</ele>
        <time>2021-10-24T14:34:46Z</time>
      </trkpt>
      <trkpt lat="45.05871" lon="5.9099">
        <ele>1762</ele>
        <time>2021-10-24T14:34:51Z</time>
      </trkpt>
      <trkpt lat="45.05868" lon="5.90985">
        <ele>1762</ele>
        <time>2021-10-24T14:34:57Z</time>
      </trkpt>
      <trkpt lat="45.05862" lon="5.90982">
        <ele>1762</ele>
        <time>2021-10-24T14:35:02Z</time>
      </trkpt>
      <trkpt lat="45.05857" lon="5.90978">
        <ele>1763</ele>
        <time>2021-10-24T14:35:07Z</time>
      </trkpt>
      <trkpt lat="45.05853" lon="5.90975">
        <ele>1762</ele>
        <time>2021-10-24T14:35:12Z</time>
      </trkpt>
      <trkpt lat="45.0585" lon="5.9097">
        <ele>1763</ele>
        <time>2021-10-24T14:35:18Z</time>
      </trkpt>
      <trkpt lat="45.05848" lon="5.90966">
        <ele>1764</ele>
        <time>2021-10-24T14:35:24Z</time>
      </trkpt>
      <trkpt lat="45.05845" lon="5.90961">
        <ele>1763</ele>
        <time>2021-10-24T14:35:29Z</time>
      </trkpt>
      <trkpt lat="45.0584" lon="5.90954">
        <ele>1764</ele>
        <time>2021-10-24T14:35:34Z</time>
      </trkpt>
      <trkpt lat="45.05836" lon="5.90949">
        <ele>1765</ele>
        <time>2021-10-24T14:35:40Z</time>
      </trkpt>
      <trkpt lat="45.05835" lon="5.9094">
        <ele>1764</ele>
        <time>2021-10-24T14:35:46Z</time>
      </trkpt>
      <trkpt lat="45.05831" lon="5.90934">
        <ele>1762</ele>
        <time>2021-10-24T14:35:51Z</time>
      </trkpt>
      <trkpt lat="45.05828" lon="5.90927">
        <ele>1761</ele>
        <time>2021-10-24T14:35:56Z</time>
      </trkpt>
      <trkpt lat="45.05824" lon="5.90917">
        <ele>1758</ele>
        <time>2021-10-24T14:36:02Z</time>
      </trkpt>
      <trkpt lat="45.0582" lon="5.9091">
        <ele>1756</ele>
        <time>2021-10-24T14:36:08Z</time>
      </trkpt>
      <trkpt lat="45.05818" lon="5.90904">
        <ele>1755</ele>
        <time>2021-10-24T14:36:13Z</time>
      </trkpt>
      <trkpt lat="45.05813" lon="5.90898">
        <ele>1755</ele>
        <time>2021-10-24T14:36:18Z</time>
      </trkpt>
      <trkpt lat="45.05807" lon="5.90891">
        <ele>1755</ele>
        <time>2021-10-24T14:36:24Z</time>
      </trkpt>
      <trkpt lat="45.05802" lon="5.90886">
        <ele>1754</ele>
        <time>2021-10-24T14:36:30Z</time>
      </trkpt>
      <trkpt lat="45.05797" lon="5.90883">
        <ele>1754</ele>
        <time>2021-10-24T14:36:36Z</time>
      </trkpt>
      <trkpt lat="45.05792" lon="5.90879">
        <ele>1754</ele>
        <time>2021-10-24T14:36:41Z</time>
      </trkpt>
      <trkpt lat="45.05788" lon="5.90876">
        <ele>1754</ele>
        <time>2021-10-24T14:36:46Z</time>
      </trkpt>
      <trkpt lat="45.05784" lon="5.90873">
        <ele>1755</ele>
        <time>2021-10-24T14:36:51Z</time>
      </trkpt>
      <trkpt lat="45.05782" lon="5.9087">
        <ele>1756</ele>
        <time>2021-10-24T14:36:57Z</time>
      </trkpt>
      <trkpt lat="45.05779" lon="5.90866">
        <ele>1755</ele>
        <time>2021-10-24T14:37:02Z</time>
      </trkpt>
      <trkpt lat="45.05775" lon="5.90859">
        <ele>1753</ele>
        <time>2021-10-24T14:37:08Z</time>
      </trkpt>
      <trkpt lat="45.05773" lon="5.90854">
        <ele>1753</ele>
        <time>2021-10-24T14:37:13Z</time>
      </trkpt>
      <trkpt lat="45.05769" lon="5.90847">
        <ele>1753</ele>
        <time>2021-10-24T14:37:19Z</time>
      </trkpt>
      <trkpt lat="45.05766" lon="5.9084">
        <ele>1753</ele>
        <time>2021-10-24T14:37:24Z</time>
      </trkpt>
      <trkpt lat="45.05763" lon="5.90833">
        <ele>1752</ele>
        <time>2021-10-24T14:37:30Z</time>
      </trkpt>
      <trkpt lat="45.05761" lon="5.90824">
        <ele>1753</ele>
        <time>2021-10-24T14:37:35Z</time>
      </trkpt>
      <trkpt lat="45.05758" lon="5.90817">
        <ele>1752</ele>
        <time>2021-10-24T14:37:41Z</time>
      </trkpt>
      <trkpt lat="45.05755" lon="5.9081">
        <ele>1751</ele>
        <time>2021-10-24T14:37:47Z</time>
      </trkpt>
      <trkpt lat="45.05748" lon="5.90804">
        <ele>1751</ele>
        <time>2021-10-24T14:37:53Z</time>
      </trkpt>
      <trkpt lat="45.05746" lon="5.908">
        <ele>1752</ele>
        <time>2021-10-24T14:37:58Z</time>
      </trkpt>
      <trkpt lat="45.05742" lon="5.90795">
        <ele>1752</ele>
        <time>2021-10-24T14:38:03Z</time>
      </trkpt>
      <trkpt lat="45.05738" lon="5.90792">
        <ele>1752</ele>
        <time>2021-10-24T14:38:08Z</time>
      </trkpt>
      <trkpt lat="45.05733" lon="5.90787">
        <ele>1752</ele>
        <time>2021-10-24T14:38:14Z</time>
      </trkpt>
      <trkpt lat="45.05729" lon="5.9078">
        <ele>1752</ele>
        <time>2021-10-24T14:38:20Z</time>
      </trkpt>
      <trkpt lat="45.05726" lon="5.90774">
        <ele>1753</ele>
        <time>2021-10-24T14:38:25Z</time>
      </trkpt>
      <trkpt lat="45.05722" lon="5.90766">
        <ele>1750</ele>
        <time>2021-10-24T14:38:31Z</time>
      </trkpt>
      <trkpt lat="45.0572" lon="5.90759">
        <ele>1750</ele>
        <time>2021-10-24T14:38:37Z</time>
      </trkpt>
      <trkpt lat="45.05719" lon="5.90754">
        <ele>1749</ele>
        <time>2021-10-24T14:38:42Z</time>
      </trkpt>
      <trkpt lat="45.05715" lon="5.90747">
        <ele>1749</ele>
        <time>2021-10-24T14:38:47Z</time>
      </trkpt>
      <trkpt lat="45.05711" lon="5.9074">
        <ele>1749</ele>
        <time>2021-10-24T14:38:53Z</time>
      </trkpt>
      <trkpt lat="45.05707" lon="5.90736">
        <ele>1749</ele>
        <time>2021-10-24T14:38:59Z</time>
      </trkpt>
      <trkpt lat="45.05702" lon="5.90731">
        <ele>1748</ele>
        <time>2021-10-24T14:39:05Z</time>
      </trkpt>
      <trkpt lat="45.05695" lon="5.90729">
        <ele>1745</ele>
        <time>2021-10-24T14:39:11Z</time>
      </trkpt>
      <trkpt lat="45.0569" lon="5.90724">
        <ele>1745</ele>
        <time>2021-10-24T14:39:16Z</time>
      </trkpt>
      <trkpt lat="45.05684" lon="5.90717">
        <ele>1743</ele>
        <time>2021-10-24T14:39:22Z</time>
      </trkpt>
      <trkpt lat="45.05681" lon="5.90711">
        <ele>1744</ele>
        <time>2021-10-24T14:39:28Z</time>
      </trkpt>
      <trkpt lat="45.05678" lon="5.90704">
        <ele>1745</ele>
        <time>2021-10-24T14:39:34Z</time>
      </trkpt>
      <trkpt lat="45.05674" lon="5.90698">
        <ele>1744</ele>
        <time>2021-10-24T14:39:40Z</time>
      </trkpt>
      <trkpt lat="45.05669" lon="5.90692">
        <ele>1742</ele>
        <time>2021-10-24T14:39:45Z</time>
      </trkpt>
      <trkpt lat="45.05666" lon="5.90689">
        <ele>1742</ele>
        <time>2021-10-24T14:39:50Z</time>
      </trkpt>
      <trkpt lat="45.05659" lon="5.9069">
        <ele>1741</ele>
        <time>2021-10-24T14:39:56Z</time>
      </trkpt>
      <trkpt lat="45.05654" lon="5.90695">
        <ele>1740</ele>
        <time>2021-10-24T14:40:02Z</time>
      </trkpt>
      <trkpt lat="45.05652" lon="5.90699">
        <ele>1740</ele>
        <time>2021-10-24T14:40:07Z</time>
      </trkpt>
      <trkpt lat="45.05649" lon="5.90706">
        <ele>1740</ele>
        <time>2021-10-24T14:40:13Z</time>
      </trkpt>
      <trkpt lat="45.05645" lon="5.90711">
        <ele>1739</ele>
        <time>2021-10-24T14:40:18Z</time>
      </trkpt>
      <trkpt lat="45.05642" lon="5.90718">
        <ele>1738</ele>
        <time>2021-10-24T14:40:24Z</time>
      </trkpt>
      <trkpt lat="45.0564" lon="5.90726">
        <ele>1737</ele>
        <time>2021-10-24T14:40:30Z</time>
      </trkpt>
      <trkpt lat="45.05636" lon="5.90735">
        <ele>1736</ele>
        <time>2021-10-24T14:40:36Z</time>
      </trkpt>
      <trkpt lat="45.05632" lon="5.90741">
        <ele>1735</ele>
        <time>2021-10-24T14:40:41Z</time>
      </trkpt>
      <trkpt lat="45.0563" lon="5.90749">
        <ele>1735</ele>
        <time>2021-10-24T14:40:47Z</time>
      </trkpt>
      <trkpt lat="45.05627" lon="5.90754">
        <ele>1733</ele>
        <time>2021-10-24T14:40:52Z</time>
      </trkpt>
      <trkpt lat="45.05623" lon="5.90759">
        <ele>1732</ele>
        <time>2021-10-24T14:40:58Z</time>
      </trkpt>
      <trkpt lat="45.05618" lon="5.90766">
        <ele>1731</ele>
        <time>2021-10-24T14:41:04Z</time>
      </trkpt>
      <trkpt lat="45.05612" lon="5.90773">
        <ele>1731</ele>
        <time>2021-10-24T14:41:10Z</time>
      </trkpt>
      <trkpt lat="45.05608" lon="5.90777">
        <ele>1731</ele>
        <time>2021-10-24T14:41:15Z</time>
      </trkpt>
      <trkpt lat="45.05603" lon="5.90782">
        <ele>1730</ele>
        <time>2021-10-24T14:41:20Z</time>
      </trkpt>
      <trkpt lat="45.05599" lon="5.90787">
        <ele>1729</ele>
        <time>2021-10-24T14:41:26Z</time>
      </trkpt>
      <trkpt lat="45.05594" lon="5.9079">
        <ele>1727</ele>
        <time>2021-10-24T14:41:31Z</time>
      </trkpt>
      <trkpt lat="45.05589" lon="5.90793">
        <ele>1727</ele>
        <time>2021-10-24T14:41:36Z</time>
      </trkpt>
      <trkpt lat="45.05582" lon="5.90796">
        <ele>1726</ele>
        <time>2021-10-24T14:41:42Z</time>
      </trkpt>
      <trkpt lat="45.05577" lon="5.90802">
        <ele>1726</ele>
        <time>2021-10-24T14:41:48Z</time>
      </trkpt>
      <trkpt lat="45.05571" lon="5.90803">
        <ele>1727</ele>
        <time>2021-10-24T14:41:53Z</time>
      </trkpt>
      <trkpt lat="45.05566" lon="5.90807">
        <ele>1728</ele>
        <time>2021-10-24T14:41:59Z</time>
      </trkpt>
      <trkpt lat="45.05559" lon="5.90808">
        <ele>1727</ele>
        <time>2021-10-24T14:42:05Z</time>
      </trkpt>
      <trkpt lat="45.05551" lon="5.90812">
        <ele>1728</ele>
        <time>2021-10-24T14:42:11Z</time>
      </trkpt>
      <trkpt lat="45.05546" lon="5.90814">
        <ele>1730</ele>
        <time>2021-10-24T14:42:17Z</time>
      </trkpt>
      <trkpt lat="45.05542" lon="5.90817">
        <ele>1729</ele>
        <time>2021-10-24T14:42:22Z</time>
      </trkpt>
      <trkpt lat="45.05539" lon="5.90822">
        <ele>1728</ele>
        <time>2021-10-24T14:42:27Z</time>
      </trkpt>
      <trkpt lat="45.05534" lon="5.90827">
        <ele>1727</ele>
        <time>2021-10-24T14:42:33Z</time>
      </trkpt>
      <trkpt lat="45.05527" lon="5.90827">
        <ele>1726</ele>
        <time>2021-10-24T14:42:38Z</time>
      </trkpt>
      <trkpt lat="45.05521" lon="5.90829">
        <ele>1726</ele>
        <time>2021-10-24T14:42:44Z</time>
      </trkpt>
      <trkpt lat="45.05513" lon="5.9083">
        <ele>1727</ele>
        <time>2021-10-24T14:42:50Z</time>
      </trkpt>
      <trkpt lat="45.05509" lon="5.90831">
        <ele>1727</ele>
        <time>2021-10-24T14:42:55Z</time>
      </trkpt>
      <trkpt lat="45.05503" lon="5.90833">
        <ele>1726</ele>
        <time>2021-10-24T14:43:01Z</time>
      </trkpt>
      <trkpt lat="45.05501" lon="5.90836">
        <ele>1725</ele>
        <time>2021-10-24T14:43:06Z</time>
      </trkpt>
      <trkpt lat="45.05494" lon="5.9084">
        <ele>1723</ele>
        <time>2021-10-24T14:43:12Z</time>
      </trkpt>
      <trkpt lat="45.05487" lon="5.9084">
        <ele>1723</ele>
        <time>2021-10-24T14:43:18Z</time>
      </trkpt>
      <trkpt lat="45.05482" lon="5.90839">
        <ele>1722</ele>
        <time>2021-10-24T14:43:23Z</time>
      </trkpt>
      <trkpt lat="45.05477" lon="5.90833">
        <ele>1721</ele>
        <time>2021-10-24T14:43:29Z</time>
      </trkpt>
      <trkpt lat="45.05474" lon="5.90826">
        <ele>1722</ele>
        <time>2021-10-24T14:43:35Z</time>
      </trkpt>
      <trkpt lat="45.05471" lon="5.9082">
        <ele>1723</ele>
        <time>2021-10-24T14:43:41Z</time>
      </trkpt>
      <trkpt lat="45.05466" lon="5.90813">
        <ele>1722</ele>
        <time>2021-10-24T14:43:47Z</time>
      </trkpt>
      <trkpt lat="45.05464" lon="5.90808">
        <ele>1721</ele>
        <time>2021-10-24T14:43:52Z</time>
      </trkpt>
      <trkpt lat="45.05461" lon="5.90806">
        <ele>1720</ele>
        <time>2021-10-24T14:43:57Z</time>
      </trkpt>
      <trkpt lat="45.05457" lon="5.90801">
        <ele>1721</ele>
        <time>2021-10-24T14:44:02Z</time>
      </trkpt>
      <trkpt lat="45.05453" lon="5.90795">
        <ele>1721</ele>
        <time>2021-10-24T14:44:08Z</time>
      </trkpt>
      <trkpt lat="45.05447" lon="5.90789">
        <ele>1720</ele>
        <time>2021-10-24T14:44:14Z</time>
      </trkpt>
      <trkpt lat="45.05445" lon="5.90782">
        <ele>1718</ele>
        <time>2021-10-24T14:44:20Z</time>
      </trkpt>
      <trkpt lat="45.05442" lon="5.90775">
        <ele>1717</ele>
        <time>2021-10-24T14:44:26Z</time>
      </trkpt>
      <trkpt lat="45.05438" lon="5.90768">
        <ele>1716</ele>
        <time>2021-10-24T14:44:32Z</time>
      </trkpt>
      <trkpt lat="45.05433" lon="5.9076">
        <ele>1716</ele>
        <time>2021-10-24T14:44:38Z</time>
      </trkpt>
      <trkpt lat="45.05433" lon="5.90753">
        <ele>1715</ele>
        <time>2021-10-24T14:44:43Z</time>
      </trkpt>
      <trkpt lat="45.05431" lon="5.90747">
        <ele>1714</ele>
        <time>2021-10-24T14:44:48Z</time>
      </trkpt>
      <trkpt lat="45.05429" lon="5.90739">
        <ele>1713</ele>
        <time>2021-10-24T14:44:54Z</time>
      </trkpt>
      <trkpt lat="45.05426" lon="5.90729">
        <ele>1710</ele>
        <time>2021-10-24T14:45:00Z</time>
      </trkpt>
      <trkpt lat="45.05423" lon="5.90723">
        <ele>1710</ele>
        <time>2021-10-24T14:45:05Z</time>
      </trkpt>
      <trkpt lat="45.05421" lon="5.90716">
        <ele>1709</ele>
        <time>2021-10-24T14:45:11Z</time>
      </trkpt>
      <trkpt lat="45.0542" lon="5.9071">
        <ele>1709</ele>
        <time>2021-10-24T14:45:16Z</time>
      </trkpt>
      <trkpt lat="45.05417" lon="5.90703">
        <ele>1709</ele>
        <time>2021-10-24T14:45:21Z</time>
      </trkpt>
      <trkpt lat="45.05413" lon="5.90699">
        <ele>1709</ele>
        <time>2021-10-24T14:45:26Z</time>
      </trkpt>
      <trkpt lat="45.05411" lon="5.9069">
        <ele>1708</ele>
        <time>2021-10-24T14:45:32Z</time>
      </trkpt>
      <trkpt lat="45.05409" lon="5.90683">
        <ele>1708</ele>
        <time>2021-10-24T14:45:37Z</time>
      </trkpt>
      <trkpt lat="45.05406" lon="5.90673">
        <ele>1709</ele>
        <time>2021-10-24T14:45:43Z</time>
      </trkpt>
      <trkpt lat="45.05403" lon="5.90666">
        <ele>1708</ele>
        <time>2021-10-24T14:45:49Z</time>
      </trkpt>
      <trkpt lat="45.05401" lon="5.90661">
        <ele>1708</ele>
        <time>2021-10-24T14:45:54Z</time>
      </trkpt>
      <trkpt lat="45.05396" lon="5.90655">
        <ele>1706</ele>
        <time>2021-10-24T14:46:00Z</time>
      </trkpt>
      <trkpt lat="45.05393" lon="5.9065">
        <ele>1705</ele>
        <time>2021-10-24T14:46:05Z</time>
      </trkpt>
      <trkpt lat="45.0539" lon="5.90645">
        <ele>1706</ele>
        <time>2021-10-24T14:46:10Z</time>
      </trkpt>
      <trkpt lat="45.05385" lon="5.90638">
        <ele>1705</ele>
        <time>2021-10-24T14:46:16Z</time>
      </trkpt>
      <trkpt lat="45.05381" lon="5.90632">
        <ele>1706</ele>
        <time>2021-10-24T14:46:22Z</time>
      </trkpt>
      <trkpt lat="45.05379" lon="5.90623">
        <ele>1706</ele>
        <time>2021-10-24T14:46:28Z</time>
      </trkpt>
      <trkpt lat="45.05379" lon="5.90614">
        <ele>1705</ele>
        <time>2021-10-24T14:46:34Z</time>
      </trkpt>
      <trkpt lat="45.05379" lon="5.90606">
        <ele>1704</ele>
        <time>2021-10-24T14:46:40Z</time>
      </trkpt>
      <trkpt lat="45.05379" lon="5.90597">
        <ele>1703</ele>
        <time>2021-10-24T14:46:46Z</time>
      </trkpt>
      <trkpt lat="45.05379" lon="5.90589">
        <ele>1703</ele>
        <time>2021-10-24T14:46:52Z</time>
      </trkpt>
      <trkpt lat="45.05378" lon="5.90582">
        <ele>1703</ele>
        <time>2021-10-24T14:46:57Z</time>
      </trkpt>
      <trkpt lat="45.05377" lon="5.90574">
        <ele>1703</ele>
        <time>2021-10-24T14:47:02Z</time>
      </trkpt>
      <trkpt lat="45.05377" lon="5.90565">
        <ele>1704</ele>
        <time>2021-10-24T14:47:08Z</time>
      </trkpt>
      <trkpt lat="45.05377" lon="5.90557">
        <ele>1702</ele>
        <time>2021-10-24T14:47:14Z</time>
      </trkpt>
      <trkpt lat="45.05377" lon="5.90549">
        <ele>1702</ele>
        <time>2021-10-24T14:47:20Z</time>
      </trkpt>
      <trkpt lat="45.05379" lon="5.90543">
        <ele>1702</ele>
        <time>2021-10-24T14:47:25Z</time>
      </trkpt>
      <trkpt lat="45.05378" lon="5.90538">
        <ele>1702</ele>
        <time>2021-10-24T14:47:30Z</time>
      </trkpt>
      <trkpt lat="45.05375" lon="5.9053">
        <ele>1701</ele>
        <time>2021-10-24T14:47:36Z</time>
      </trkpt>
      <trkpt lat="45.05373" lon="5.90523">
        <ele>1701</ele>
        <time>2021-10-24T14:47:41Z</time>
      </trkpt>
      <trkpt lat="45.05369" lon="5.90514">
        <ele>1700</ele>
        <time>2021-10-24T14:47:47Z</time>
      </trkpt>
      <trkpt lat="45.05367" lon="5.90507">
        <ele>1700</ele>
        <time>2021-10-24T14:47:53Z</time>
      </trkpt>
      <trkpt lat="45.05367" lon="5.905">
        <ele>1699</ele>
        <time>2021-10-24T14:47:59Z</time>
      </trkpt>
      <trkpt lat="45.05365" lon="5.90493">
        <ele>1699</ele>
        <time>2021-10-24T14:48:04Z</time>
      </trkpt>
      <trkpt lat="45.05362" lon="5.90487">
        <ele>1698</ele>
        <time>2021-10-24T14:48:09Z</time>
      </trkpt>
      <trkpt lat="45.0536" lon="5.90483">
        <ele>1695</ele>
        <time>2021-10-24T14:48:15Z</time>
      </trkpt>
      <trkpt lat="45.05358" lon="5.90476">
        <ele>1695</ele>
        <time>2021-10-24T14:48:21Z</time>
      </trkpt>
      <trkpt lat="45.05355" lon="5.90466">
        <ele>1698</ele>
        <time>2021-10-24T14:48:27Z</time>
      </trkpt>
      <trkpt lat="45.05352" lon="5.90458">
        <ele>1698</ele>
        <time>2021-10-24T14:48:32Z</time>
      </trkpt>
      <trkpt lat="45.05349" lon="5.90449">
        <ele>1698</ele>
        <time>2021-10-24T14:48:38Z</time>
      </trkpt>
      <trkpt lat="45.05348" lon="5.9044">
        <ele>1698</ele>
        <time>2021-10-24T14:48:44Z</time>
      </trkpt>
      <trkpt lat="45.05349" lon="5.90433">
        <ele>1698</ele>
        <time>2021-10-24T14:48:49Z</time>
      </trkpt>
      <trkpt lat="45.05349" lon="5.90426">
        <ele>1697</ele>
        <time>2021-10-24T14:48:54Z</time>
      </trkpt>
      <trkpt lat="45.05348" lon="5.9042">
        <ele>1695</ele>
        <time>2021-10-24T14:48:59Z</time>
      </trkpt>
      <trkpt lat="45.05347" lon="5.90412">
        <ele>1694</ele>
        <time>2021-10-24T14:49:05Z</time>
      </trkpt>
      <trkpt lat="45.05345" lon="5.90404">
        <ele>1693</ele>
        <time>2021-10-24T14:49:11Z</time>
      </trkpt>
      <trkpt lat="45.05342" lon="5.90397">
        <ele>1692</ele>
        <time>2021-10-24T14:49:17Z</time>
      </trkpt>
      <trkpt lat="45.0534" lon="5.90392">
        <ele>1691</ele>
        <time>2021-10-24T14:49:22Z</time>
      </trkpt>
      <trkpt lat="45.05338" lon="5.90384">
        <ele>1691</ele>
        <time>2021-10-24T14:49:28Z</time>
      </trkpt>
      <trkpt lat="45.05336" lon="5.90375">
        <ele>1690</ele>
        <time>2021-10-24T14:49:34Z</time>
      </trkpt>
      <trkpt lat="45.05336" lon="5.90368">
        <ele>1691</ele>
        <time>2021-10-24T14:49:40Z</time>
      </trkpt>
      <trkpt lat="45.05333" lon="5.90356">
        <ele>1689</ele>
        <time>2021-10-24T14:49:45Z</time>
      </trkpt>
      <trkpt lat="45.05329" lon="5.90348">
        <ele>1689</ele>
        <time>2021-10-24T14:49:51Z</time>
      </trkpt>
      <trkpt lat="45.05328" lon="5.90342">
        <ele>1688</ele>
        <time>2021-10-24T14:49:56Z</time>
      </trkpt>
      <trkpt lat="45.05327" lon="5.90338">
        <ele>1689</ele>
        <time>2021-10-24T14:50:02Z</time>
      </trkpt>
      <trkpt lat="45.05325" lon="5.9033">
        <ele>1688</ele>
        <time>2021-10-24T14:50:07Z</time>
      </trkpt>
      <trkpt lat="45.05324" lon="5.90322">
        <ele>1688</ele>
        <time>2021-10-24T14:50:13Z</time>
      </trkpt>
      <trkpt lat="45.05329" lon="5.90316">
        <ele>1689</ele>
        <time>2021-10-24T14:50:19Z</time>
      </trkpt>
      <trkpt lat="45.05329" lon="5.90309">
        <ele>1688</ele>
        <time>2021-10-24T14:50:24Z</time>
      </trkpt>
      <trkpt lat="45.05327" lon="5.903">
        <ele>1686</ele>
        <time>2021-10-24T14:50:29Z</time>
      </trkpt>
      <trkpt lat="45.05325" lon="5.90287">
        <ele>1687</ele>
        <time>2021-10-24T14:50:35Z</time>
      </trkpt>
      <trkpt lat="45.05325" lon="5.90279">
        <ele>1687</ele>
        <time>2021-10-24T14:50:41Z</time>
      </trkpt>
      <trkpt lat="45.05322" lon="5.90272">
        <ele>1686</ele>
        <time>2021-10-24T14:50:46Z</time>
      </trkpt>
      <trkpt lat="45.0532" lon="5.90269">
        <ele>1686</ele>
        <time>2021-10-24T14:50:51Z</time>
      </trkpt>
      <trkpt lat="45.05316" lon="5.90266">
        <ele>1686</ele>
        <time>2021-10-24T14:50:57Z</time>
      </trkpt>
      <trkpt lat="45.05317" lon="5.90264">
        <ele>1689</ele>
        <time>2021-10-24T14:51:03Z</time>
      </trkpt>
      <trkpt lat="45.05317" lon="5.90259">
        <ele>1689</ele>
        <time>2021-10-24T14:51:08Z</time>
      </trkpt>
      <trkpt lat="45.05318" lon="5.90255">
        <ele>1689</ele>
        <time>2021-10-24T14:51:13Z</time>
      </trkpt>
      <trkpt lat="45.05316" lon="5.90247">
        <ele>1689</ele>
        <time>2021-10-24T14:51:19Z</time>
      </trkpt>
      <trkpt lat="45.05314" lon="5.90242">
        <ele>1688</ele>
        <time>2021-10-24T14:51:25Z</time>
      </trkpt>
      <trkpt lat="45.05314" lon="5.90235">
        <ele>1688</ele>
        <time>2021-10-24T14:51:30Z</time>
      </trkpt>
      <trkpt lat="45.05313" lon="5.90224">
        <ele>1689</ele>
        <time>2021-10-24T14:51:35Z</time>
      </trkpt>
      <trkpt lat="45.0531" lon="5.90217">
        <ele>1687</ele>
        <time>2021-10-24T14:51:41Z</time>
      </trkpt>
      <trkpt lat="45.05308" lon="5.90206">
        <ele>1687</ele>
        <time>2021-10-24T14:51:47Z</time>
      </trkpt>
      <trkpt lat="45.05307" lon="5.90199">
        <ele>1687</ele>
        <time>2021-10-24T14:51:52Z</time>
      </trkpt>
      <trkpt lat="45.0531" lon="5.90189">
        <ele>1686</ele>
        <time>2021-10-24T14:51:58Z</time>
      </trkpt>
      <trkpt lat="45.05311" lon="5.90177">
        <ele>1685</ele>
        <time>2021-10-24T14:52:04Z</time>
      </trkpt>
      <trkpt lat="45.05313" lon="5.9017">
        <ele>1686</ele>
        <time>2021-10-24T14:52:09Z</time>
      </trkpt>
      <trkpt lat="45.05315" lon="5.90161">
        <ele>1687</ele>
        <time>2021-10-24T14:52:15Z</time>
      </trkpt>
      <trkpt lat="45.05313" lon="5.90151">
        <ele>1686</ele>
        <time>2021-10-24T14:52:20Z</time>
      </trkpt>
      <trkpt lat="45.05312" lon="5.90143">
        <ele>1685</ele>
        <time>2021-10-24T14:52:25Z</time>
      </trkpt>
      <trkpt lat="45.05312" lon="5.90135">
        <ele>1686</ele>
        <time>2021-10-24T14:52:31Z</time>
      </trkpt>
      <trkpt lat="45.05308" lon="5.90131">
        <ele>1687</ele>
        <time>2021-10-24T14:52:36Z</time>
      </trkpt>
      <trkpt lat="45.05305" lon="5.90123">
        <ele>1687</ele>
        <time>2021-10-24T14:52:41Z</time>
      </trkpt>
      <trkpt lat="45.05303" lon="5.90114">
        <ele>1687</ele>
        <time>2021-10-24T14:52:47Z</time>
      </trkpt>
      <trkpt lat="45.05299" lon="5.90105">
        <ele>1687</ele>
        <time>2021-10-24T14:52:53Z</time>
      </trkpt>
      <trkpt lat="45.05296" lon="5.90098">
        <ele>1688</ele>
        <time>2021-10-24T14:52:58Z</time>
      </trkpt>
      <trkpt lat="45.05294" lon="5.90086">
        <ele>1689</ele>
        <time>2021-10-24T14:53:04Z</time>
      </trkpt>
      <trkpt lat="45.05295" lon="5.90079">
        <ele>1689</ele>
        <time>2021-10-24T14:53:10Z</time>
      </trkpt>
      <trkpt lat="45.05297" lon="5.90071">
        <ele>1690</ele>
        <time>2021-10-24T14:53:15Z</time>
      </trkpt>
      <trkpt lat="45.05302" lon="5.90064">
        <ele>1690</ele>
        <time>2021-10-24T14:53:20Z</time>
      </trkpt>
      <trkpt lat="45.05304" lon="5.9006">
        <ele>1690</ele>
        <time>2021-10-24T14:53:26Z</time>
      </trkpt>
      <trkpt lat="45.0531" lon="5.90052">
        <ele>1691</ele>
        <time>2021-10-24T14:53:32Z</time>
      </trkpt>
      <trkpt lat="45.05312" lon="5.90047">
        <ele>1691</ele>
        <time>2021-10-24T14:53:38Z</time>
      </trkpt>
      <trkpt lat="45.05314" lon="5.90041">
        <ele>1691</ele>
        <time>2021-10-24T14:53:43Z</time>
      </trkpt>
      <trkpt lat="45.05316" lon="5.90034">
        <ele>1690</ele>
        <time>2021-10-24T14:53:48Z</time>
      </trkpt>
      <trkpt lat="45.05317" lon="5.90029">
        <ele>1688</ele>
        <time>2021-10-24T14:53:53Z</time>
      </trkpt>
      <trkpt lat="45.05319" lon="5.90021">
        <ele>1688</ele>
        <time>2021-10-24T14:53:59Z</time>
      </trkpt>
      <trkpt lat="45.05322" lon="5.90015">
        <ele>1689</ele>
        <time>2021-10-24T14:54:04Z</time>
      </trkpt>
      <trkpt lat="45.05324" lon="5.90009">
        <ele>1688</ele>
        <time>2021-10-24T14:54:10Z</time>
      </trkpt>
      <trkpt lat="45.05325" lon="5.90001">
        <ele>1690</ele>
        <time>2021-10-24T14:54:15Z</time>
      </trkpt>
      <trkpt lat="45.05325" lon="5.89993">
        <ele>1692</ele>
        <time>2021-10-24T14:54:21Z</time>
      </trkpt>
      <trkpt lat="45.05324" lon="5.89985">
        <ele>1695</ele>
        <time>2021-10-24T14:54:27Z</time>
      </trkpt>
      <trkpt lat="45.05324" lon="5.89976">
        <ele>1699</ele>
        <time>2021-10-24T14:54:33Z</time>
      </trkpt>
      <trkpt lat="45.05323" lon="5.89969">
        <ele>1699</ele>
        <time>2021-10-24T14:54:38Z</time>
      </trkpt>
      <trkpt lat="45.0532" lon="5.89961">
        <ele>1701</ele>
        <time>2021-10-24T14:54:44Z</time>
      </trkpt>
      <trkpt lat="45.0532" lon="5.89953">
        <ele>1702</ele>
        <time>2021-10-24T14:54:49Z</time>
      </trkpt>
      <trkpt lat="45.05319" lon="5.89946">
        <ele>1701</ele>
        <time>2021-10-24T14:54:55Z</time>
      </trkpt>
      <trkpt lat="45.05317" lon="5.89937">
        <ele>1703</ele>
        <time>2021-10-24T14:55:01Z</time>
      </trkpt>
      <trkpt lat="45.05314" lon="5.89931">
        <ele>1702</ele>
        <time>2021-10-24T14:55:07Z</time>
      </trkpt>
      <trkpt lat="45.05316" lon="5.89927">
        <ele>1703</ele>
        <time>2021-10-24T14:55:13Z</time>
      </trkpt>
      <trkpt lat="45.05315" lon="5.89926">
        <ele>1701</ele>
        <time>2021-10-24T14:55:19Z</time>
      </trkpt>
      <trkpt lat="45.05315" lon="5.89926">
        <ele>1701</ele>
        <time>2021-10-24T14:55:25Z</time>
      </trkpt>
      <trkpt lat="45.05315" lon="5.89926">
        <ele>1701</ele>
        <time>2021-10-24T14:55:31Z</time>
      </trkpt>
      <trkpt lat="45.05312" lon="5.89924">
        <ele>1696</ele>
        <time>2021-10-24T14:55:36Z</time>
      </trkpt>
      <trkpt lat="45.05311" lon="5.89922">
        <ele>1695</ele>
        <time>2021-10-24T14:55:42Z</time>
      </trkpt>
      <trkpt lat="45.05309" lon="5.89918">
        <ele>1696</ele>
        <time>2021-10-24T14:55:47Z</time>
      </trkpt>
      <trkpt lat="45.05308" lon="5.89909">
        <ele>1698</ele>
        <time>2021-10-24T14:55:53Z</time>
      </trkpt>
      <trkpt lat="45.05307" lon="5.89901">
        <ele>1699</ele>
        <time>2021-10-24T14:55:58Z</time>
      </trkpt>
      <trkpt lat="45.05306" lon="5.89891">
        <ele>1700</ele>
        <time>2021-10-24T14:56:04Z</time>
      </trkpt>
      <trkpt lat="45.05306" lon="5.89884">
        <ele>1700</ele>
        <time>2021-10-24T14:56:10Z</time>
      </trkpt>
      <trkpt lat="45.05306" lon="5.89878">
        <ele>1701</ele>
        <time>2021-10-24T14:56:15Z</time>
      </trkpt>
      <trkpt lat="45.05305" lon="5.89868">
        <ele>1699</ele>
        <time>2021-10-24T14:56:21Z</time>
      </trkpt>
      <trkpt lat="45.05305" lon="5.8986">
        <ele>1699</ele>
        <time>2021-10-24T14:56:27Z</time>
      </trkpt>
      <trkpt lat="45.05304" lon="5.89857">
        <ele>1702</ele>
        <time>2021-10-24T14:56:33Z</time>
      </trkpt>
      <trkpt lat="45.05303" lon="5.89857">
        <ele>1702</ele>
        <time>2021-10-24T14:56:38Z</time>
      </trkpt>
      <trkpt lat="45.05303" lon="5.89857">
        <ele>1701</ele>
        <time>2021-10-24T14:56:43Z</time>
      </trkpt>
      <trkpt lat="45.05303" lon="5.89859">
        <ele>1700</ele>
        <time>2021-10-24T14:56:49Z</time>
      </trkpt>
      <trkpt lat="45.05303" lon="5.89859">
        <ele>1700</ele>
        <time>2021-10-24T14:56:55Z</time>
      </trkpt>
      <trkpt lat="45.05303" lon="5.8986">
        <ele>1699</ele>
        <time>2021-10-24T14:57:01Z</time>
      </trkpt>
      <trkpt lat="45.05303" lon="5.89859">
        <ele>1700</ele>
        <time>2021-10-24T14:57:07Z</time>
      </trkpt>
      <trkpt lat="45.053" lon="5.89857">
        <ele>1695</ele>
        <time>2021-10-24T14:57:13Z</time>
      </trkpt>
      <trkpt lat="45.05298" lon="5.89855">
        <ele>1697</ele>
        <time>2021-10-24T14:57:19Z</time>
      </trkpt>
      <trkpt lat="45.05298" lon="5.89855">
        <ele>1698</ele>
        <time>2021-10-24T14:57:25Z</time>
      </trkpt>
    </trkseg>
  </trk>
</gpx>